<?xml version="1.0" encoding="UTF-8" standalone="no" ?>
<gpx xmlns="http://www.topografix.com/GPX/1/1" xmlns:xsi="http://www.w3.org/2001/XMLSchema-instance" xsi:schemaLocation="http://www.topografix.com/GPX/1/1 http://www.topografix.com/GPX/1/1/gpx.xsd" version="1.1" creator="VisuGPX - https://www.visugpx.com">
  <metadata>
    <name>20110715_MONTMAUR_NOYER_MONTMAUR</name>
    <desc><![CDATA[Parcours vélo
Montmaur-Col du Festre-Lac du Sautet-Chauffayer-Col du Noyer-Col de Rioupes-Col du Festre-Montmaur

Merci à Jean-Claude pour ce parcours magnifique.]]></desc>
  </metadata>
  <trk>
    <name><![CDATA[2011-07-15T07:26:40Z]]></name>
    <trkseg>
      <trkpt lat="44.57213" lon="5.88215">
        <ele>603.364502</ele>
        <time>2011-07-15T07:26:40Z</time>
      </trkpt>
      <trkpt lat="44.57209" lon="5.88209">
        <ele>598.0773926</ele>
        <time>2011-07-15T07:26:47Z</time>
      </trkpt>
      <trkpt lat="44.57208" lon="5.88208">
        <ele>597.1159668</ele>
        <time>2011-07-15T07:26:48Z</time>
      </trkpt>
      <trkpt lat="44.57109" lon="5.88268">
        <ele>893.6828613</ele>
        <time>2011-07-15T07:26:53Z</time>
      </trkpt>
      <trkpt lat="44.57094" lon="5.88265">
        <ele>911.4672852</ele>
        <time>2011-07-15T07:26:57Z</time>
      </trkpt>
      <trkpt lat="44.57085" lon="5.88262">
        <ele>915.7932129</ele>
        <time>2011-07-15T07:27:00Z</time>
      </trkpt>
      <trkpt lat="44.57065" lon="5.88254">
        <ele>921.0803223</ele>
        <time>2011-07-15T07:27:06Z</time>
      </trkpt>
      <trkpt lat="44.5706" lon="5.88256">
        <ele>922.0415039</ele>
        <time>2011-07-15T07:27:07Z</time>
      </trkpt>
      <trkpt lat="44.57024" lon="5.8827">
        <ele>925.40625</ele>
        <time>2011-07-15T07:27:13Z</time>
      </trkpt>
      <trkpt lat="44.57005" lon="5.88278">
        <ele>925.8869629</ele>
        <time>2011-07-15T07:27:16Z</time>
      </trkpt>
      <trkpt lat="44.56986" lon="5.88286">
        <ele>926.8483887</ele>
        <time>2011-07-15T07:27:19Z</time>
      </trkpt>
      <trkpt lat="44.56952" lon="5.88301">
        <ele>930.6936035</ele>
        <time>2011-07-15T07:27:25Z</time>
      </trkpt>
      <trkpt lat="44.56925" lon="5.88312">
        <ele>926.3676758</ele>
        <time>2011-07-15T07:27:31Z</time>
      </trkpt>
      <trkpt lat="44.56921" lon="5.88312">
        <ele>925.8869629</ele>
        <time>2011-07-15T07:27:32Z</time>
      </trkpt>
      <trkpt lat="44.56909" lon="5.88313">
        <ele>924.4450684</ele>
        <time>2011-07-15T07:27:35Z</time>
      </trkpt>
      <trkpt lat="44.56874" lon="5.8832">
        <ele>920.1188965</ele>
        <time>2011-07-15T07:27:42Z</time>
      </trkpt>
      <trkpt lat="44.56839" lon="5.88324">
        <ele>917.2351074</ele>
        <time>2011-07-15T07:27:49Z</time>
      </trkpt>
      <trkpt lat="44.56822" lon="5.88325">
        <ele>915.7932129</ele>
        <time>2011-07-15T07:27:53Z</time>
      </trkpt>
      <trkpt lat="44.56799" lon="5.88333">
        <ele>915.3125</ele>
        <time>2011-07-15T07:27:59Z</time>
      </trkpt>
      <trkpt lat="44.56781" lon="5.88335">
        <ele>913.3898926</ele>
        <time>2011-07-15T07:28:05Z</time>
      </trkpt>
      <trkpt lat="44.56777" lon="5.88318">
        <ele>913.3898926</ele>
        <time>2011-07-15T07:28:09Z</time>
      </trkpt>
      <trkpt lat="44.56783" lon="5.88274">
        <ele>913.3898926</ele>
        <time>2011-07-15T07:28:16Z</time>
      </trkpt>
      <trkpt lat="44.56784" lon="5.88263">
        <ele>913.3898926</ele>
        <time>2011-07-15T07:28:18Z</time>
      </trkpt>
      <trkpt lat="44.56788" lon="5.88236">
        <ele>917.2351074</ele>
        <time>2011-07-15T07:28:23Z</time>
      </trkpt>
      <trkpt lat="44.56793" lon="5.88196">
        <ele>917.2351074</ele>
        <time>2011-07-15T07:28:30Z</time>
      </trkpt>
      <trkpt lat="44.56793" lon="5.8819">
        <ele>917.2351074</ele>
        <time>2011-07-15T07:28:31Z</time>
      </trkpt>
      <trkpt lat="44.56793" lon="5.88145">
        <ele>918.1962891</ele>
        <time>2011-07-15T07:28:39Z</time>
      </trkpt>
      <trkpt lat="44.56794" lon="5.88128">
        <ele>918.677002</ele>
        <time>2011-07-15T07:28:42Z</time>
      </trkpt>
      <trkpt lat="44.56799" lon="5.88112">
        <ele>917.7155762</ele>
        <time>2011-07-15T07:28:45Z</time>
      </trkpt>
      <trkpt lat="44.56819" lon="5.88073">
        <ele>916.2736816</ele>
        <time>2011-07-15T07:28:53Z</time>
      </trkpt>
      <trkpt lat="44.56833" lon="5.88044">
        <ele>914.3510742</ele>
        <time>2011-07-15T07:28:59Z</time>
      </trkpt>
      <trkpt lat="44.56852" lon="5.8802">
        <ele>913.3898926</ele>
        <time>2011-07-15T07:29:05Z</time>
      </trkpt>
      <trkpt lat="44.56872" lon="5.88003">
        <ele>913.3898926</ele>
        <time>2011-07-15T07:29:11Z</time>
      </trkpt>
      <trkpt lat="44.56901" lon="5.87981">
        <ele>913.8703613</ele>
        <time>2011-07-15T07:29:19Z</time>
      </trkpt>
      <trkpt lat="44.56912" lon="5.87972">
        <ele>913.3898926</ele>
        <time>2011-07-15T07:29:22Z</time>
      </trkpt>
      <trkpt lat="44.56929" lon="5.87944">
        <ele>913.8703613</ele>
        <time>2011-07-15T07:29:28Z</time>
      </trkpt>
      <trkpt lat="44.5693" lon="5.87931">
        <ele>913.8703613</ele>
        <time>2011-07-15T07:29:30Z</time>
      </trkpt>
      <trkpt lat="44.5693" lon="5.87879">
        <ele>914.8317871</ele>
        <time>2011-07-15T07:29:38Z</time>
      </trkpt>
      <trkpt lat="44.56936" lon="5.87829">
        <ele>915.7932129</ele>
        <time>2011-07-15T07:29:46Z</time>
      </trkpt>
      <trkpt lat="44.56947" lon="5.87785">
        <ele>919.1577148</ele>
        <time>2011-07-15T07:29:54Z</time>
      </trkpt>
      <trkpt lat="44.56955" lon="5.8776">
        <ele>918.677002</ele>
        <time>2011-07-15T07:29:59Z</time>
      </trkpt>
      <trkpt lat="44.56973" lon="5.87713">
        <ele>916.2736816</ele>
        <time>2011-07-15T07:30:06Z</time>
      </trkpt>
      <trkpt lat="44.56986" lon="5.87677">
        <ele>914.8317871</ele>
        <time>2011-07-15T07:30:11Z</time>
      </trkpt>
      <trkpt lat="44.57002" lon="5.87629">
        <ele>914.3510742</ele>
        <time>2011-07-15T07:30:18Z</time>
      </trkpt>
      <trkpt lat="44.57016" lon="5.87592">
        <ele>914.3510742</ele>
        <time>2011-07-15T07:30:24Z</time>
      </trkpt>
      <trkpt lat="44.57035" lon="5.87539">
        <ele>915.3125</ele>
        <time>2011-07-15T07:30:33Z</time>
      </trkpt>
      <trkpt lat="44.57052" lon="5.8749">
        <ele>918.1962891</ele>
        <time>2011-07-15T07:30:42Z</time>
      </trkpt>
      <trkpt lat="44.57066" lon="5.8744">
        <ele>920.1188965</ele>
        <time>2011-07-15T07:30:51Z</time>
      </trkpt>
      <trkpt lat="44.57067" lon="5.87435">
        <ele>920.1188965</ele>
        <time>2011-07-15T07:30:52Z</time>
      </trkpt>
      <trkpt lat="44.57069" lon="5.8739">
        <ele>920.1188965</ele>
        <time>2011-07-15T07:30:59Z</time>
      </trkpt>
      <trkpt lat="44.57068" lon="5.8735">
        <ele>919.1577148</ele>
        <time>2011-07-15T07:31:04Z</time>
      </trkpt>
      <trkpt lat="44.57065" lon="5.87281">
        <ele>917.2351074</ele>
        <time>2011-07-15T07:31:12Z</time>
      </trkpt>
      <trkpt lat="44.5706" lon="5.87204">
        <ele>914.8317871</ele>
        <time>2011-07-15T07:31:21Z</time>
      </trkpt>
      <trkpt lat="44.57055" lon="5.87132">
        <ele>912.9091797</ele>
        <time>2011-07-15T07:31:29Z</time>
      </trkpt>
      <trkpt lat="44.57054" lon="5.87123">
        <ele>912.9091797</ele>
        <time>2011-07-15T07:31:30Z</time>
      </trkpt>
      <trkpt lat="44.57051" lon="5.87105">
        <ele>912.4284668</ele>
        <time>2011-07-15T07:31:32Z</time>
      </trkpt>
      <trkpt lat="44.5705" lon="5.87058">
        <ele>910.9865723</ele>
        <time>2011-07-15T07:31:37Z</time>
      </trkpt>
      <trkpt lat="44.57049" lon="5.87039">
        <ele>910.9865723</ele>
        <time>2011-07-15T07:31:39Z</time>
      </trkpt>
      <trkpt lat="44.57037" lon="5.86969">
        <ele>911.947998</ele>
        <time>2011-07-15T07:31:47Z</time>
      </trkpt>
      <trkpt lat="44.57031" lon="5.86933">
        <ele>913.3898926</ele>
        <time>2011-07-15T07:31:52Z</time>
      </trkpt>
      <trkpt lat="44.57032" lon="5.86903">
        <ele>912.9091797</ele>
        <time>2011-07-15T07:31:56Z</time>
      </trkpt>
      <trkpt lat="44.57043" lon="5.86834">
        <ele>913.8703613</ele>
        <time>2011-07-15T07:32:06Z</time>
      </trkpt>
      <trkpt lat="44.57051" lon="5.86778">
        <ele>916.7543945</ele>
        <time>2011-07-15T07:32:15Z</time>
      </trkpt>
      <trkpt lat="44.57054" lon="5.86732">
        <ele>918.1962891</ele>
        <time>2011-07-15T07:32:23Z</time>
      </trkpt>
      <trkpt lat="44.57055" lon="5.86674">
        <ele>920.1188965</ele>
        <time>2011-07-15T07:32:33Z</time>
      </trkpt>
      <trkpt lat="44.57054" lon="5.86633">
        <ele>922.5222168</ele>
        <time>2011-07-15T07:32:41Z</time>
      </trkpt>
      <trkpt lat="44.57049" lon="5.86589">
        <ele>925.8869629</ele>
        <time>2011-07-15T07:32:50Z</time>
      </trkpt>
      <trkpt lat="44.5705" lon="5.86549">
        <ele>929.2514648</ele>
        <time>2011-07-15T07:32:58Z</time>
      </trkpt>
      <trkpt lat="44.57055" lon="5.86505">
        <ele>930.6936035</ele>
        <time>2011-07-15T07:33:07Z</time>
      </trkpt>
      <trkpt lat="44.57055" lon="5.86461">
        <ele>931.6547852</ele>
        <time>2011-07-15T07:33:15Z</time>
      </trkpt>
      <trkpt lat="44.57055" lon="5.86415">
        <ele>931.6547852</ele>
        <time>2011-07-15T07:33:23Z</time>
      </trkpt>
      <trkpt lat="44.57057" lon="5.86398">
        <ele>931.6547852</ele>
        <time>2011-07-15T07:33:26Z</time>
      </trkpt>
      <trkpt lat="44.5707" lon="5.86338">
        <ele>932.135498</ele>
        <time>2011-07-15T07:33:36Z</time>
      </trkpt>
      <trkpt lat="44.57086" lon="5.86281">
        <ele>932.135498</ele>
        <time>2011-07-15T07:33:46Z</time>
      </trkpt>
      <trkpt lat="44.57104" lon="5.86241">
        <ele>933.0966797</ele>
        <time>2011-07-15T07:33:54Z</time>
      </trkpt>
      <trkpt lat="44.57125" lon="5.86197">
        <ele>933.5773926</ele>
        <time>2011-07-15T07:34:03Z</time>
      </trkpt>
      <trkpt lat="44.57142" lon="5.86163">
        <ele>934.0581055</ele>
        <time>2011-07-15T07:34:10Z</time>
      </trkpt>
      <trkpt lat="44.57151" lon="5.86151">
        <ele>933.5773926</ele>
        <time>2011-07-15T07:34:13Z</time>
      </trkpt>
      <trkpt lat="44.57172" lon="5.86134">
        <ele>934.5388184</ele>
        <time>2011-07-15T07:34:18Z</time>
      </trkpt>
      <trkpt lat="44.57182" lon="5.86128">
        <ele>934.5388184</ele>
        <time>2011-07-15T07:34:20Z</time>
      </trkpt>
      <trkpt lat="44.57222" lon="5.86096">
        <ele>930.2128906</ele>
        <time>2011-07-15T07:34:29Z</time>
      </trkpt>
      <trkpt lat="44.57256" lon="5.86065">
        <ele>933.0966797</ele>
        <time>2011-07-15T07:34:36Z</time>
      </trkpt>
      <trkpt lat="44.5729" lon="5.86024">
        <ele>933.0966797</ele>
        <time>2011-07-15T07:34:44Z</time>
      </trkpt>
      <trkpt lat="44.57325" lon="5.85981">
        <ele>932.135498</ele>
        <time>2011-07-15T07:34:53Z</time>
      </trkpt>
      <trkpt lat="44.57362" lon="5.85938">
        <ele>931.6547852</ele>
        <time>2011-07-15T07:35:02Z</time>
      </trkpt>
      <trkpt lat="44.57388" lon="5.85898">
        <ele>933.0966797</ele>
        <time>2011-07-15T07:35:09Z</time>
      </trkpt>
      <trkpt lat="44.57413" lon="5.85848">
        <ele>933.5773926</ele>
        <time>2011-07-15T07:35:17Z</time>
      </trkpt>
      <trkpt lat="44.57444" lon="5.8579">
        <ele>935.5</ele>
        <time>2011-07-15T07:35:27Z</time>
      </trkpt>
      <trkpt lat="44.5745" lon="5.85779">
        <ele>935.0195313</ele>
        <time>2011-07-15T07:35:29Z</time>
      </trkpt>
      <trkpt lat="44.57476" lon="5.85739">
        <ele>936.4614258</ele>
        <time>2011-07-15T07:35:37Z</time>
      </trkpt>
      <trkpt lat="44.57511" lon="5.85698">
        <ele>937.4226074</ele>
        <time>2011-07-15T07:35:47Z</time>
      </trkpt>
      <trkpt lat="44.5754" lon="5.85664">
        <ele>938.3840332</ele>
        <time>2011-07-15T07:35:56Z</time>
      </trkpt>
      <trkpt lat="44.57563" lon="5.85638">
        <ele>939.3452148</ele>
        <time>2011-07-15T07:36:03Z</time>
      </trkpt>
      <trkpt lat="44.57587" lon="5.85611">
        <ele>946.074707</ele>
        <time>2011-07-15T07:36:10Z</time>
      </trkpt>
      <trkpt lat="44.57597" lon="5.85601">
        <ele>946.074707</ele>
        <time>2011-07-15T07:36:13Z</time>
      </trkpt>
      <trkpt lat="44.57603" lon="5.85595">
        <ele>943.1906738</ele>
        <time>2011-07-15T07:36:15Z</time>
      </trkpt>
      <trkpt lat="44.57611" lon="5.85575">
        <ele>940.7873535</ele>
        <time>2011-07-15T07:36:20Z</time>
      </trkpt>
      <trkpt lat="44.57611" lon="5.85572">
        <ele>939.8259277</ele>
        <time>2011-07-15T07:36:23Z</time>
      </trkpt>
      <trkpt lat="44.5761" lon="5.85572">
        <ele>938.3840332</ele>
        <time>2011-07-15T07:36:32Z</time>
      </trkpt>
      <trkpt lat="44.57608" lon="5.85567">
        <ele>944.6325684</ele>
        <time>2011-07-15T07:37:59Z</time>
      </trkpt>
      <trkpt lat="44.57608" lon="5.85563">
        <ele>944.6325684</ele>
        <time>2011-07-15T07:38:02Z</time>
      </trkpt>
      <trkpt lat="44.57619" lon="5.85551">
        <ele>944.6325684</ele>
        <time>2011-07-15T07:38:09Z</time>
      </trkpt>
      <trkpt lat="44.57639" lon="5.85532">
        <ele>943.6713867</ele>
        <time>2011-07-15T07:38:16Z</time>
      </trkpt>
      <trkpt lat="44.57668" lon="5.85506">
        <ele>942.2294922</ele>
        <time>2011-07-15T07:38:24Z</time>
      </trkpt>
      <trkpt lat="44.57705" lon="5.85478">
        <ele>941.7487793</ele>
        <time>2011-07-15T07:38:32Z</time>
      </trkpt>
      <trkpt lat="44.57751" lon="5.8545">
        <ele>938.8647461</ele>
        <time>2011-07-15T07:38:41Z</time>
      </trkpt>
      <trkpt lat="44.57805" lon="5.85418">
        <ele>939.8259277</ele>
        <time>2011-07-15T07:38:52Z</time>
      </trkpt>
      <trkpt lat="44.57845" lon="5.85407">
        <ele>939.8259277</ele>
        <time>2011-07-15T07:39:00Z</time>
      </trkpt>
      <trkpt lat="44.57877" lon="5.8541">
        <ele>938.3840332</ele>
        <time>2011-07-15T07:39:07Z</time>
      </trkpt>
      <trkpt lat="44.57914" lon="5.85428">
        <ele>938.8647461</ele>
        <time>2011-07-15T07:39:15Z</time>
      </trkpt>
      <trkpt lat="44.57953" lon="5.85458">
        <ele>939.8259277</ele>
        <time>2011-07-15T07:39:24Z</time>
      </trkpt>
      <trkpt lat="44.57994" lon="5.85482">
        <ele>942.7102051</ele>
        <time>2011-07-15T07:39:33Z</time>
      </trkpt>
      <trkpt lat="44.58038" lon="5.85494">
        <ele>947.0358887</ele>
        <time>2011-07-15T07:39:42Z</time>
      </trkpt>
      <trkpt lat="44.58088" lon="5.85504">
        <ele>948.9584961</ele>
        <time>2011-07-15T07:39:52Z</time>
      </trkpt>
      <trkpt lat="44.58141" lon="5.85514">
        <ele>950.4006348</ele>
        <time>2011-07-15T07:40:03Z</time>
      </trkpt>
      <trkpt lat="44.5819" lon="5.85524">
        <ele>952.322998</ele>
        <time>2011-07-15T07:40:13Z</time>
      </trkpt>
      <trkpt lat="44.58253" lon="5.85535">
        <ele>954.7263184</ele>
        <time>2011-07-15T07:40:26Z</time>
      </trkpt>
      <trkpt lat="44.58307" lon="5.85546">
        <ele>957.1298828</ele>
        <time>2011-07-15T07:40:37Z</time>
      </trkpt>
      <trkpt lat="44.58361" lon="5.85556">
        <ele>958.5717773</ele>
        <time>2011-07-15T07:40:48Z</time>
      </trkpt>
      <trkpt lat="44.58406" lon="5.85564">
        <ele>960.0136719</ele>
        <time>2011-07-15T07:40:57Z</time>
      </trkpt>
      <trkpt lat="44.58449" lon="5.85572">
        <ele>961.4558105</ele>
        <time>2011-07-15T07:41:06Z</time>
      </trkpt>
      <trkpt lat="44.58485" lon="5.85579">
        <ele>962.4169922</ele>
        <time>2011-07-15T07:41:13Z</time>
      </trkpt>
      <trkpt lat="44.58539" lon="5.8559">
        <ele>963.8588867</ele>
        <time>2011-07-15T07:41:24Z</time>
      </trkpt>
      <trkpt lat="44.58585" lon="5.85598">
        <ele>966.262207</ele>
        <time>2011-07-15T07:41:34Z</time>
      </trkpt>
      <trkpt lat="44.58619" lon="5.85605">
        <ele>968.1848145</ele>
        <time>2011-07-15T07:41:42Z</time>
      </trkpt>
      <trkpt lat="44.58663" lon="5.85613">
        <ele>970.1074219</ele>
        <time>2011-07-15T07:41:52Z</time>
      </trkpt>
      <trkpt lat="44.58703" lon="5.85617">
        <ele>971.5493164</ele>
        <time>2011-07-15T07:42:00Z</time>
      </trkpt>
      <trkpt lat="44.58755" lon="5.85614">
        <ele>972.5109863</ele>
        <time>2011-07-15T07:42:10Z</time>
      </trkpt>
      <trkpt lat="44.58802" lon="5.85607">
        <ele>974.9143066</ele>
        <time>2011-07-15T07:42:19Z</time>
      </trkpt>
      <trkpt lat="44.58854" lon="5.85597">
        <ele>978.2788086</ele>
        <time>2011-07-15T07:42:29Z</time>
      </trkpt>
      <trkpt lat="44.58904" lon="5.85585">
        <ele>981.6433105</ele>
        <time>2011-07-15T07:42:39Z</time>
      </trkpt>
      <trkpt lat="44.58947" lon="5.85576">
        <ele>982.6047363</ele>
        <time>2011-07-15T07:42:48Z</time>
      </trkpt>
      <trkpt lat="44.58995" lon="5.85567">
        <ele>983.565918</ele>
        <time>2011-07-15T07:42:58Z</time>
      </trkpt>
      <trkpt lat="44.59034" lon="5.85559">
        <ele>984.5273438</ele>
        <time>2011-07-15T07:43:06Z</time>
      </trkpt>
      <trkpt lat="44.59075" lon="5.85551">
        <ele>985.9692383</ele>
        <time>2011-07-15T07:43:15Z</time>
      </trkpt>
      <trkpt lat="44.5912" lon="5.85542">
        <ele>987.8918457</ele>
        <time>2011-07-15T07:43:25Z</time>
      </trkpt>
      <trkpt lat="44.59159" lon="5.85535">
        <ele>987.8918457</ele>
        <time>2011-07-15T07:43:33Z</time>
      </trkpt>
      <trkpt lat="44.59205" lon="5.85533">
        <ele>988.8535156</ele>
        <time>2011-07-15T07:43:43Z</time>
      </trkpt>
      <trkpt lat="44.59235" lon="5.8554">
        <ele>988.8535156</ele>
        <time>2011-07-15T07:43:50Z</time>
      </trkpt>
      <trkpt lat="44.59269" lon="5.85561">
        <ele>991.2565918</ele>
        <time>2011-07-15T07:43:58Z</time>
      </trkpt>
      <trkpt lat="44.59298" lon="5.85586">
        <ele>992.2180176</ele>
        <time>2011-07-15T07:44:05Z</time>
      </trkpt>
      <trkpt lat="44.5933" lon="5.85629">
        <ele>994.140625</ele>
        <time>2011-07-15T07:44:14Z</time>
      </trkpt>
      <trkpt lat="44.59365" lon="5.85676">
        <ele>996.0632324</ele>
        <time>2011-07-15T07:44:24Z</time>
      </trkpt>
      <trkpt lat="44.59399" lon="5.85721">
        <ele>997.9858398</ele>
        <time>2011-07-15T07:44:34Z</time>
      </trkpt>
      <trkpt lat="44.59424" lon="5.85754">
        <ele>998.4663086</ele>
        <time>2011-07-15T07:44:41Z</time>
      </trkpt>
      <trkpt lat="44.59461" lon="5.85789">
        <ele>1000.3891602</ele>
        <time>2011-07-15T07:44:50Z</time>
      </trkpt>
      <trkpt lat="44.59495" lon="5.85809">
        <ele>1001.3503418</ele>
        <time>2011-07-15T07:44:57Z</time>
      </trkpt>
      <trkpt lat="44.59539" lon="5.8582">
        <ele>1002.3115234</ele>
        <time>2011-07-15T07:45:06Z</time>
      </trkpt>
      <trkpt lat="44.59578" lon="5.85819">
        <ele>1003.2729492</ele>
        <time>2011-07-15T07:45:14Z</time>
      </trkpt>
      <trkpt lat="44.59633" lon="5.85815">
        <ele>1005.1958008</ele>
        <time>2011-07-15T07:45:25Z</time>
      </trkpt>
      <trkpt lat="44.59692" lon="5.85812">
        <ele>1008.5603027</ele>
        <time>2011-07-15T07:45:37Z</time>
      </trkpt>
      <trkpt lat="44.59744" lon="5.85809">
        <ele>1011.4443359</ele>
        <time>2011-07-15T07:45:48Z</time>
      </trkpt>
      <trkpt lat="44.59793" lon="5.85806">
        <ele>1013.3669434</ele>
        <time>2011-07-15T07:45:59Z</time>
      </trkpt>
      <trkpt lat="44.59829" lon="5.85804">
        <ele>1014.328125</ele>
        <time>2011-07-15T07:46:07Z</time>
      </trkpt>
      <trkpt lat="44.59873" lon="5.85803">
        <ele>1015.7702637</ele>
        <time>2011-07-15T07:46:17Z</time>
      </trkpt>
      <trkpt lat="44.59909" lon="5.85801">
        <ele>1016.2507324</ele>
        <time>2011-07-15T07:46:25Z</time>
      </trkpt>
      <trkpt lat="44.59957" lon="5.85799">
        <ele>1017.2121582</ele>
        <time>2011-07-15T07:46:36Z</time>
      </trkpt>
      <trkpt lat="44.60008" lon="5.85802">
        <ele>1015.7702637</ele>
        <time>2011-07-15T07:46:47Z</time>
      </trkpt>
      <trkpt lat="44.60053" lon="5.85803">
        <ele>1018.1733398</ele>
        <time>2011-07-15T07:46:57Z</time>
      </trkpt>
      <trkpt lat="44.60098" lon="5.85804">
        <ele>1019.6154785</ele>
        <time>2011-07-15T07:47:07Z</time>
      </trkpt>
      <trkpt lat="44.6014" lon="5.85804">
        <ele>1022.0187988</ele>
        <time>2011-07-15T07:47:17Z</time>
      </trkpt>
      <trkpt lat="44.60183" lon="5.85804">
        <ele>1024.902832</ele>
        <time>2011-07-15T07:47:28Z</time>
      </trkpt>
      <trkpt lat="44.60214" lon="5.85803">
        <ele>1026.8254395</ele>
        <time>2011-07-15T07:47:37Z</time>
      </trkpt>
      <trkpt lat="44.60241" lon="5.85803">
        <ele>1028.7480469</ele>
        <time>2011-07-15T07:47:45Z</time>
      </trkpt>
      <trkpt lat="44.60278" lon="5.85803">
        <ele>1032.1125488</ele>
        <time>2011-07-15T07:47:56Z</time>
      </trkpt>
      <trkpt lat="44.6031" lon="5.85802">
        <ele>1035.4770508</ele>
        <time>2011-07-15T07:48:06Z</time>
      </trkpt>
      <trkpt lat="44.60335" lon="5.85802">
        <ele>1036.9191895</ele>
        <time>2011-07-15T07:48:14Z</time>
      </trkpt>
      <trkpt lat="44.60363" lon="5.85802">
        <ele>1038.3613281</ele>
        <time>2011-07-15T07:48:23Z</time>
      </trkpt>
      <trkpt lat="44.60389" lon="5.85802">
        <ele>1039.3225098</ele>
        <time>2011-07-15T07:48:31Z</time>
      </trkpt>
      <trkpt lat="44.60416" lon="5.85802">
        <ele>1040.7644043</ele>
        <time>2011-07-15T07:48:39Z</time>
      </trkpt>
      <trkpt lat="44.60452" lon="5.85801">
        <ele>1042.6872559</ele>
        <time>2011-07-15T07:48:49Z</time>
      </trkpt>
      <trkpt lat="44.60477" lon="5.85801">
        <ele>1043.6484375</ele>
        <time>2011-07-15T07:48:57Z</time>
      </trkpt>
      <trkpt lat="44.60499" lon="5.85801">
        <ele>1045.5710449</ele>
        <time>2011-07-15T07:49:05Z</time>
      </trkpt>
      <trkpt lat="44.60526" lon="5.85801">
        <ele>1047.4936523</ele>
        <time>2011-07-15T07:49:14Z</time>
      </trkpt>
      <trkpt lat="44.60554" lon="5.85798">
        <ele>1050.3776855</ele>
        <time>2011-07-15T07:49:24Z</time>
      </trkpt>
      <trkpt lat="44.60577" lon="5.85792">
        <ele>1053.2617188</ele>
        <time>2011-07-15T07:49:32Z</time>
      </trkpt>
      <trkpt lat="44.60607" lon="5.85779">
        <ele>1056.6262207</ele>
        <time>2011-07-15T07:49:43Z</time>
      </trkpt>
      <trkpt lat="44.60633" lon="5.85767">
        <ele>1057.5876465</ele>
        <time>2011-07-15T07:49:53Z</time>
      </trkpt>
      <trkpt lat="44.60661" lon="5.85753">
        <ele>1059.5102539</ele>
        <time>2011-07-15T07:50:04Z</time>
      </trkpt>
      <trkpt lat="44.60686" lon="5.85751">
        <ele>1062.394043</ele>
        <time>2011-07-15T07:50:13Z</time>
      </trkpt>
      <trkpt lat="44.60714" lon="5.85757">
        <ele>1067.2006836</ele>
        <time>2011-07-15T07:50:23Z</time>
      </trkpt>
      <trkpt lat="44.60728" lon="5.8576">
        <ele>1068.1621094</ele>
        <time>2011-07-15T07:50:29Z</time>
      </trkpt>
      <trkpt lat="44.60743" lon="5.85757">
        <ele>1069.1235352</ele>
        <time>2011-07-15T07:50:35Z</time>
      </trkpt>
      <trkpt lat="44.60754" lon="5.85749">
        <ele>1071.0461426</ele>
        <time>2011-07-15T07:50:39Z</time>
      </trkpt>
      <trkpt lat="44.60766" lon="5.85737">
        <ele>1073.4494629</ele>
        <time>2011-07-15T07:50:43Z</time>
      </trkpt>
      <trkpt lat="44.60768" lon="5.8574">
        <ele>1073.4494629</ele>
        <time>2011-07-15T07:51:00Z</time>
      </trkpt>
      <trkpt lat="44.60766" lon="5.85735">
        <ele>1080.6591797</ele>
        <time>2011-07-15T07:51:13Z</time>
      </trkpt>
      <trkpt lat="44.60773" lon="5.85736">
        <ele>1080.1784668</ele>
        <time>2011-07-15T07:51:18Z</time>
      </trkpt>
      <trkpt lat="44.60776" lon="5.85739">
        <ele>1079.217041</ele>
        <time>2011-07-15T07:51:19Z</time>
      </trkpt>
      <trkpt lat="44.60799" lon="5.85738">
        <ele>1077.7751465</ele>
        <time>2011-07-15T07:51:25Z</time>
      </trkpt>
      <trkpt lat="44.60816" lon="5.85733">
        <ele>1076.333252</ele>
        <time>2011-07-15T07:51:30Z</time>
      </trkpt>
      <trkpt lat="44.60832" lon="5.85731">
        <ele>1076.333252</ele>
        <time>2011-07-15T07:51:35Z</time>
      </trkpt>
      <trkpt lat="44.60851" lon="5.85731">
        <ele>1079.6977539</ele>
        <time>2011-07-15T07:51:40Z</time>
      </trkpt>
      <trkpt lat="44.61034" lon="5.85816">
        <ele>1091.2336426</ele>
        <time>2011-07-15T07:52:23Z</time>
      </trkpt>
      <trkpt lat="44.61049" lon="5.85835">
        <ele>1084.9853516</ele>
        <time>2011-07-15T07:52:30Z</time>
      </trkpt>
      <trkpt lat="44.61068" lon="5.85846">
        <ele>1083.0622559</ele>
        <time>2011-07-15T07:52:37Z</time>
      </trkpt>
      <trkpt lat="44.6109" lon="5.85848">
        <ele>1082.1010742</ele>
        <time>2011-07-15T07:52:43Z</time>
      </trkpt>
      <trkpt lat="44.61124" lon="5.85839">
        <ele>1080.6591797</ele>
        <time>2011-07-15T07:52:51Z</time>
      </trkpt>
      <trkpt lat="44.61166" lon="5.85823">
        <ele>1079.217041</ele>
        <time>2011-07-15T07:53:01Z</time>
      </trkpt>
      <trkpt lat="44.61198" lon="5.85812">
        <ele>1078.7365723</ele>
        <time>2011-07-15T07:53:10Z</time>
      </trkpt>
      <trkpt lat="44.6122" lon="5.85804">
        <ele>1078.7365723</ele>
        <time>2011-07-15T07:53:17Z</time>
      </trkpt>
      <trkpt lat="44.61238" lon="5.858">
        <ele>1079.217041</ele>
        <time>2011-07-15T07:53:22Z</time>
      </trkpt>
      <trkpt lat="44.61268" lon="5.85788">
        <ele>1079.217041</ele>
        <time>2011-07-15T07:53:30Z</time>
      </trkpt>
      <trkpt lat="44.6129" lon="5.85777">
        <ele>1079.6977539</ele>
        <time>2011-07-15T07:53:37Z</time>
      </trkpt>
      <trkpt lat="44.61314" lon="5.85761">
        <ele>1080.1784668</ele>
        <time>2011-07-15T07:53:43Z</time>
      </trkpt>
      <trkpt lat="44.61336" lon="5.85734">
        <ele>1081.1398926</ele>
        <time>2011-07-15T07:53:50Z</time>
      </trkpt>
      <trkpt lat="44.61358" lon="5.857">
        <ele>1082.1010742</ele>
        <time>2011-07-15T07:53:58Z</time>
      </trkpt>
      <trkpt lat="44.61381" lon="5.85679">
        <ele>1082.5817871</ele>
        <time>2011-07-15T07:54:05Z</time>
      </trkpt>
      <trkpt lat="44.61406" lon="5.85667">
        <ele>1083.5429688</ele>
        <time>2011-07-15T07:54:12Z</time>
      </trkpt>
      <trkpt lat="44.61438" lon="5.85664">
        <ele>1084.5046387</ele>
        <time>2011-07-15T07:54:20Z</time>
      </trkpt>
      <trkpt lat="44.6148" lon="5.85671">
        <ele>1084.5046387</ele>
        <time>2011-07-15T07:54:29Z</time>
      </trkpt>
      <trkpt lat="44.61523" lon="5.85675">
        <ele>1084.5046387</ele>
        <time>2011-07-15T07:54:37Z</time>
      </trkpt>
      <trkpt lat="44.61572" lon="5.85666">
        <ele>1084.9853516</ele>
        <time>2011-07-15T07:54:46Z</time>
      </trkpt>
      <trkpt lat="44.61629" lon="5.85654">
        <ele>1085.4658203</ele>
        <time>2011-07-15T07:54:57Z</time>
      </trkpt>
      <trkpt lat="44.61672" lon="5.85638">
        <ele>1085.9465332</ele>
        <time>2011-07-15T07:55:06Z</time>
      </trkpt>
      <trkpt lat="44.61717" lon="5.85615">
        <ele>1086.4272461</ele>
        <time>2011-07-15T07:55:16Z</time>
      </trkpt>
      <trkpt lat="44.61746" lon="5.856">
        <ele>1089.3110352</ele>
        <time>2011-07-15T07:55:23Z</time>
      </trkpt>
      <trkpt lat="44.61785" lon="5.85579">
        <ele>1090.2724609</ele>
        <time>2011-07-15T07:55:32Z</time>
      </trkpt>
      <trkpt lat="44.6182" lon="5.85563">
        <ele>1090.7529297</ele>
        <time>2011-07-15T07:55:40Z</time>
      </trkpt>
      <trkpt lat="44.6186" lon="5.85548">
        <ele>1092.1950684</ele>
        <time>2011-07-15T07:55:49Z</time>
      </trkpt>
      <trkpt lat="44.619" lon="5.85532">
        <ele>1093.6369629</ele>
        <time>2011-07-15T07:55:58Z</time>
      </trkpt>
      <trkpt lat="44.61955" lon="5.8551">
        <ele>1094.5981445</ele>
        <time>2011-07-15T07:56:10Z</time>
      </trkpt>
      <trkpt lat="44.62005" lon="5.85491">
        <ele>1095.5595703</ele>
        <time>2011-07-15T07:56:21Z</time>
      </trkpt>
      <trkpt lat="44.62047" lon="5.85474">
        <ele>1097.0014648</ele>
        <time>2011-07-15T07:56:31Z</time>
      </trkpt>
      <trkpt lat="44.62088" lon="5.85459">
        <ele>1097.9628906</ele>
        <time>2011-07-15T07:56:40Z</time>
      </trkpt>
      <trkpt lat="44.62133" lon="5.85441">
        <ele>1099.4047852</ele>
        <time>2011-07-15T07:56:50Z</time>
      </trkpt>
      <trkpt lat="44.62177" lon="5.85419">
        <ele>1100.8469238</ele>
        <time>2011-07-15T07:57:00Z</time>
      </trkpt>
      <trkpt lat="44.62215" lon="5.85401">
        <ele>1103.2502441</ele>
        <time>2011-07-15T07:57:09Z</time>
      </trkpt>
      <trkpt lat="44.62258" lon="5.8538">
        <ele>1104.6921387</ele>
        <time>2011-07-15T07:57:19Z</time>
      </trkpt>
      <trkpt lat="44.62292" lon="5.85364">
        <ele>1105.6535645</ele>
        <time>2011-07-15T07:57:28Z</time>
      </trkpt>
      <trkpt lat="44.62324" lon="5.85348">
        <ele>1107.095459</ele>
        <time>2011-07-15T07:57:36Z</time>
      </trkpt>
      <trkpt lat="44.62363" lon="5.85323">
        <ele>1109.979248</ele>
        <time>2011-07-15T07:57:46Z</time>
      </trkpt>
      <trkpt lat="44.62396" lon="5.85304">
        <ele>1111.4213867</ele>
        <time>2011-07-15T07:57:54Z</time>
      </trkpt>
      <trkpt lat="44.62441" lon="5.85292">
        <ele>1115.7473145</ele>
        <time>2011-07-15T07:58:04Z</time>
      </trkpt>
      <trkpt lat="44.62483" lon="5.85276">
        <ele>1117.1894531</ele>
        <time>2011-07-15T07:58:14Z</time>
      </trkpt>
      <trkpt lat="44.62533" lon="5.85252">
        <ele>1117.6699219</ele>
        <time>2011-07-15T07:58:26Z</time>
      </trkpt>
      <trkpt lat="44.62567" lon="5.85234">
        <ele>1121.9958496</ele>
        <time>2011-07-15T07:58:34Z</time>
      </trkpt>
      <trkpt lat="44.62614" lon="5.85208">
        <ele>1124.8798828</ele>
        <time>2011-07-15T07:58:45Z</time>
      </trkpt>
      <trkpt lat="44.6265" lon="5.85198">
        <ele>1125.3603516</ele>
        <time>2011-07-15T07:58:53Z</time>
      </trkpt>
      <trkpt lat="44.6269" lon="5.85196">
        <ele>1126.8024902</ele>
        <time>2011-07-15T07:59:02Z</time>
      </trkpt>
      <trkpt lat="44.62731" lon="5.8519">
        <ele>1129.2055664</ele>
        <time>2011-07-15T07:59:12Z</time>
      </trkpt>
      <trkpt lat="44.62758" lon="5.85182">
        <ele>1130.6477051</ele>
        <time>2011-07-15T07:59:19Z</time>
      </trkpt>
      <trkpt lat="44.62782" lon="5.85171">
        <ele>1131.128418</ele>
        <time>2011-07-15T07:59:26Z</time>
      </trkpt>
      <trkpt lat="44.62811" lon="5.85152">
        <ele>1135.4543457</ele>
        <time>2011-07-15T07:59:35Z</time>
      </trkpt>
      <trkpt lat="44.62842" lon="5.85133">
        <ele>1142.6643066</ele>
        <time>2011-07-15T07:59:44Z</time>
      </trkpt>
      <trkpt lat="44.62874" lon="5.8511">
        <ele>1143.1447754</ele>
        <time>2011-07-15T07:59:54Z</time>
      </trkpt>
      <trkpt lat="44.62907" lon="5.85094">
        <ele>1143.1447754</ele>
        <time>2011-07-15T08:00:03Z</time>
      </trkpt>
      <trkpt lat="44.62947" lon="5.85079">
        <ele>1145.5480957</ele>
        <time>2011-07-15T08:00:14Z</time>
      </trkpt>
      <trkpt lat="44.6298" lon="5.8507">
        <ele>1146.5095215</ele>
        <time>2011-07-15T08:00:23Z</time>
      </trkpt>
      <trkpt lat="44.63013" lon="5.85065">
        <ele>1146.9899902</ele>
        <time>2011-07-15T08:00:32Z</time>
      </trkpt>
      <trkpt lat="44.63045" lon="5.85065">
        <ele>1147.4707031</ele>
        <time>2011-07-15T08:00:40Z</time>
      </trkpt>
      <trkpt lat="44.63088" lon="5.85066">
        <ele>1148.9128418</ele>
        <time>2011-07-15T08:00:51Z</time>
      </trkpt>
      <trkpt lat="44.63126" lon="5.85063">
        <ele>1149.8742676</ele>
        <time>2011-07-15T08:01:02Z</time>
      </trkpt>
      <trkpt lat="44.6316" lon="5.85059">
        <ele>1151.3161621</ele>
        <time>2011-07-15T08:01:12Z</time>
      </trkpt>
      <trkpt lat="44.63186" lon="5.85055">
        <ele>1152.7580566</ele>
        <time>2011-07-15T08:01:20Z</time>
      </trkpt>
      <trkpt lat="44.63209" lon="5.85049">
        <ele>1153.7194824</ele>
        <time>2011-07-15T08:01:27Z</time>
      </trkpt>
      <trkpt lat="44.63237" lon="5.85038">
        <ele>1155.161377</ele>
        <time>2011-07-15T08:01:36Z</time>
      </trkpt>
      <trkpt lat="44.63261" lon="5.8503">
        <ele>1156.6032715</ele>
        <time>2011-07-15T08:01:44Z</time>
      </trkpt>
      <trkpt lat="44.6329" lon="5.85029">
        <ele>1158.5258789</ele>
        <time>2011-07-15T08:01:53Z</time>
      </trkpt>
      <trkpt lat="44.63312" lon="5.85035">
        <ele>1159.4873047</ele>
        <time>2011-07-15T08:02:00Z</time>
      </trkpt>
      <trkpt lat="44.63333" lon="5.85047">
        <ele>1161.4099121</ele>
        <time>2011-07-15T08:02:08Z</time>
      </trkpt>
      <trkpt lat="44.63356" lon="5.85054">
        <ele>1166.6972656</ele>
        <time>2011-07-15T08:02:16Z</time>
      </trkpt>
      <trkpt lat="44.63381" lon="5.85053">
        <ele>1182.0783691</ele>
        <time>2011-07-15T08:02:24Z</time>
      </trkpt>
      <trkpt lat="44.63404" lon="5.85047">
        <ele>1193.1333008</ele>
        <time>2011-07-15T08:02:32Z</time>
      </trkpt>
      <trkpt lat="44.6343" lon="5.85042">
        <ele>1198.9013672</ele>
        <time>2011-07-15T08:02:41Z</time>
      </trkpt>
      <trkpt lat="44.63452" lon="5.85048">
        <ele>1193.6140137</ele>
        <time>2011-07-15T08:02:49Z</time>
      </trkpt>
      <trkpt lat="44.63468" lon="5.8506">
        <ele>1191.2106934</ele>
        <time>2011-07-15T08:02:56Z</time>
      </trkpt>
      <trkpt lat="44.63487" lon="5.85077">
        <ele>1191.2106934</ele>
        <time>2011-07-15T08:03:04Z</time>
      </trkpt>
      <trkpt lat="44.63505" lon="5.8509">
        <ele>1192.652832</ele>
        <time>2011-07-15T08:03:11Z</time>
      </trkpt>
      <trkpt lat="44.63526" lon="5.851">
        <ele>1196.0175781</ele>
        <time>2011-07-15T08:03:19Z</time>
      </trkpt>
      <trkpt lat="44.63548" lon="5.85106">
        <ele>1199.3820801</ele>
        <time>2011-07-15T08:03:27Z</time>
      </trkpt>
      <trkpt lat="44.63578" lon="5.8511">
        <ele>1203.2272949</ele>
        <time>2011-07-15T08:03:38Z</time>
      </trkpt>
      <trkpt lat="44.63601" lon="5.85112">
        <ele>1206.111084</ele>
        <time>2011-07-15T08:03:46Z</time>
      </trkpt>
      <trkpt lat="44.63628" lon="5.85113">
        <ele>1209.4758301</ele>
        <time>2011-07-15T08:03:56Z</time>
      </trkpt>
      <trkpt lat="44.63654" lon="5.8511">
        <ele>1212.3598633</ele>
        <time>2011-07-15T08:04:05Z</time>
      </trkpt>
      <trkpt lat="44.6368" lon="5.85097">
        <ele>1214.7631836</ele>
        <time>2011-07-15T08:04:15Z</time>
      </trkpt>
      <trkpt lat="44.63706" lon="5.85071">
        <ele>1218.6083984</ele>
        <time>2011-07-15T08:04:26Z</time>
      </trkpt>
      <trkpt lat="44.63727" lon="5.85043">
        <ele>1221.9729004</ele>
        <time>2011-07-15T08:04:36Z</time>
      </trkpt>
      <trkpt lat="44.6374" lon="5.85023">
        <ele>1223.8955078</ele>
        <time>2011-07-15T08:04:43Z</time>
      </trkpt>
      <trkpt lat="44.63753" lon="5.85002">
        <ele>1226.2988281</ele>
        <time>2011-07-15T08:04:51Z</time>
      </trkpt>
      <trkpt lat="44.63769" lon="5.84979">
        <ele>1228.7023926</ele>
        <time>2011-07-15T08:05:00Z</time>
      </trkpt>
      <trkpt lat="44.63785" lon="5.84958">
        <ele>1231.1057129</ele>
        <time>2011-07-15T08:05:09Z</time>
      </trkpt>
      <trkpt lat="44.63805" lon="5.84939">
        <ele>1233.5087891</ele>
        <time>2011-07-15T08:05:19Z</time>
      </trkpt>
      <trkpt lat="44.63828" lon="5.84929">
        <ele>1234.9509277</ele>
        <time>2011-07-15T08:05:29Z</time>
      </trkpt>
      <trkpt lat="44.6385" lon="5.84931">
        <ele>1235.9121094</ele>
        <time>2011-07-15T08:05:38Z</time>
      </trkpt>
      <trkpt lat="44.63876" lon="5.8494">
        <ele>1237.8347168</ele>
        <time>2011-07-15T08:05:49Z</time>
      </trkpt>
      <trkpt lat="44.63896" lon="5.84949">
        <ele>1239.2766113</ele>
        <time>2011-07-15T08:05:57Z</time>
      </trkpt>
      <trkpt lat="44.63916" lon="5.84959">
        <ele>1240.7185059</ele>
        <time>2011-07-15T08:06:05Z</time>
      </trkpt>
      <trkpt lat="44.63935" lon="5.84968">
        <ele>1242.6413574</ele>
        <time>2011-07-15T08:06:13Z</time>
      </trkpt>
      <trkpt lat="44.63952" lon="5.84976">
        <ele>1244.5639648</ele>
        <time>2011-07-15T08:06:20Z</time>
      </trkpt>
      <trkpt lat="44.63968" lon="5.84985">
        <ele>1246.4868164</ele>
        <time>2011-07-15T08:06:27Z</time>
      </trkpt>
      <trkpt lat="44.63987" lon="5.84994">
        <ele>1248.4091797</ele>
        <time>2011-07-15T08:06:35Z</time>
      </trkpt>
      <trkpt lat="44.64004" lon="5.85002">
        <ele>1249.8513184</ele>
        <time>2011-07-15T08:06:42Z</time>
      </trkpt>
      <trkpt lat="44.64023" lon="5.85011">
        <ele>1250.3320313</ele>
        <time>2011-07-15T08:06:50Z</time>
      </trkpt>
      <trkpt lat="44.6404" lon="5.85021">
        <ele>1248.8898926</ele>
        <time>2011-07-15T08:06:57Z</time>
      </trkpt>
      <trkpt lat="44.64058" lon="5.85034">
        <ele>1248.8898926</ele>
        <time>2011-07-15T08:07:05Z</time>
      </trkpt>
      <trkpt lat="44.64072" lon="5.85051">
        <ele>1248.4091797</ele>
        <time>2011-07-15T08:07:13Z</time>
      </trkpt>
      <trkpt lat="44.64082" lon="5.85069">
        <ele>1248.8898926</ele>
        <time>2011-07-15T08:07:20Z</time>
      </trkpt>
      <trkpt lat="44.64092" lon="5.8509">
        <ele>1249.3706055</ele>
        <time>2011-07-15T08:07:27Z</time>
      </trkpt>
      <trkpt lat="44.64103" lon="5.85117">
        <ele>1250.3320313</ele>
        <time>2011-07-15T08:07:36Z</time>
      </trkpt>
      <trkpt lat="44.64113" lon="5.8514">
        <ele>1252.2543945</ele>
        <time>2011-07-15T08:07:44Z</time>
      </trkpt>
      <trkpt lat="44.64126" lon="5.85166">
        <ele>1253.6965332</ele>
        <time>2011-07-15T08:07:53Z</time>
      </trkpt>
      <trkpt lat="44.64144" lon="5.85191">
        <ele>1256.5803223</ele>
        <time>2011-07-15T08:08:03Z</time>
      </trkpt>
      <trkpt lat="44.64165" lon="5.85208">
        <ele>1260.9064941</ele>
        <time>2011-07-15T08:08:12Z</time>
      </trkpt>
      <trkpt lat="44.64185" lon="5.85216">
        <ele>1265.2324219</ele>
        <time>2011-07-15T08:08:20Z</time>
      </trkpt>
      <trkpt lat="44.64207" lon="5.85223">
        <ele>1268.1162109</ele>
        <time>2011-07-15T08:08:29Z</time>
      </trkpt>
      <trkpt lat="44.64232" lon="5.8523">
        <ele>1272.4421387</ele>
        <time>2011-07-15T08:08:39Z</time>
      </trkpt>
      <trkpt lat="44.64256" lon="5.85237">
        <ele>1277.7294922</ele>
        <time>2011-07-15T08:08:48Z</time>
      </trkpt>
      <trkpt lat="44.64278" lon="5.85235">
        <ele>1279.6520996</ele>
        <time>2011-07-15T08:08:56Z</time>
      </trkpt>
      <trkpt lat="44.64292" lon="5.85221">
        <ele>1283.9780273</ele>
        <time>2011-07-15T08:09:02Z</time>
      </trkpt>
      <trkpt lat="44.64295" lon="5.85202">
        <ele>1285.4199219</ele>
        <time>2011-07-15T08:09:07Z</time>
      </trkpt>
      <trkpt lat="44.64289" lon="5.8518">
        <ele>1287.8232422</ele>
        <time>2011-07-15T08:09:13Z</time>
      </trkpt>
      <trkpt lat="44.64275" lon="5.85161">
        <ele>1288.3039551</ele>
        <time>2011-07-15T08:09:19Z</time>
      </trkpt>
      <trkpt lat="44.64246" lon="5.85137">
        <ele>1290.2265625</ele>
        <time>2011-07-15T08:09:30Z</time>
      </trkpt>
      <trkpt lat="44.64224" lon="5.85117">
        <ele>1291.668457</ele>
        <time>2011-07-15T08:09:39Z</time>
      </trkpt>
      <trkpt lat="44.64207" lon="5.85096">
        <ele>1292.630127</ele>
        <time>2011-07-15T08:09:47Z</time>
      </trkpt>
      <trkpt lat="44.64205" lon="5.85072">
        <ele>1293.1105957</ele>
        <time>2011-07-15T08:09:53Z</time>
      </trkpt>
      <trkpt lat="44.64212" lon="5.8506">
        <ele>1292.630127</ele>
        <time>2011-07-15T08:09:57Z</time>
      </trkpt>
      <trkpt lat="44.64227" lon="5.8506">
        <ele>1291.668457</ele>
        <time>2011-07-15T08:10:02Z</time>
      </trkpt>
      <trkpt lat="44.64242" lon="5.8508">
        <ele>1292.630127</ele>
        <time>2011-07-15T08:10:09Z</time>
      </trkpt>
      <trkpt lat="44.6425" lon="5.85095">
        <ele>1294.0720215</ele>
        <time>2011-07-15T08:10:14Z</time>
      </trkpt>
      <trkpt lat="44.64258" lon="5.85107">
        <ele>1294.5524902</ele>
        <time>2011-07-15T08:10:18Z</time>
      </trkpt>
      <trkpt lat="44.64271" lon="5.85126">
        <ele>1295.9946289</ele>
        <time>2011-07-15T08:10:25Z</time>
      </trkpt>
      <trkpt lat="44.64285" lon="5.85139">
        <ele>1296.9558105</ele>
        <time>2011-07-15T08:10:31Z</time>
      </trkpt>
      <trkpt lat="44.64307" lon="5.85149">
        <ele>1296.4753418</ele>
        <time>2011-07-15T08:10:40Z</time>
      </trkpt>
      <trkpt lat="44.64335" lon="5.85161">
        <ele>1295.513916</ele>
        <time>2011-07-15T08:10:51Z</time>
      </trkpt>
      <trkpt lat="44.64358" lon="5.85169">
        <ele>1294.5524902</ele>
        <time>2011-07-15T08:11:00Z</time>
      </trkpt>
      <trkpt lat="44.64388" lon="5.85184">
        <ele>1293.5913086</ele>
        <time>2011-07-15T08:11:12Z</time>
      </trkpt>
      <trkpt lat="44.64408" lon="5.85198">
        <ele>1295.9946289</ele>
        <time>2011-07-15T08:11:20Z</time>
      </trkpt>
      <trkpt lat="44.64431" lon="5.8522">
        <ele>1303.2043457</ele>
        <time>2011-07-15T08:11:30Z</time>
      </trkpt>
      <trkpt lat="44.64456" lon="5.85236">
        <ele>1303.6850586</ele>
        <time>2011-07-15T08:11:40Z</time>
      </trkpt>
      <trkpt lat="44.64479" lon="5.85245">
        <ele>1303.2043457</ele>
        <time>2011-07-15T08:11:49Z</time>
      </trkpt>
      <trkpt lat="44.64499" lon="5.85252">
        <ele>1303.6850586</ele>
        <time>2011-07-15T08:11:56Z</time>
      </trkpt>
      <trkpt lat="44.64529" lon="5.85262">
        <ele>1304.1657715</ele>
        <time>2011-07-15T08:12:06Z</time>
      </trkpt>
      <trkpt lat="44.64558" lon="5.85273">
        <ele>1305.1269531</ele>
        <time>2011-07-15T08:12:16Z</time>
      </trkpt>
      <trkpt lat="44.64587" lon="5.85284">
        <ele>1306.5688477</ele>
        <time>2011-07-15T08:12:26Z</time>
      </trkpt>
      <trkpt lat="44.64614" lon="5.85294">
        <ele>1307.5302734</ele>
        <time>2011-07-15T08:12:36Z</time>
      </trkpt>
      <trkpt lat="44.64644" lon="5.85304">
        <ele>1309.453125</ele>
        <time>2011-07-15T08:12:47Z</time>
      </trkpt>
      <trkpt lat="44.64673" lon="5.85316">
        <ele>1311.3757324</ele>
        <time>2011-07-15T08:12:58Z</time>
      </trkpt>
      <trkpt lat="44.64697" lon="5.85325">
        <ele>1318.5854492</ele>
        <time>2011-07-15T08:13:07Z</time>
      </trkpt>
      <trkpt lat="44.64727" lon="5.85331">
        <ele>1319.546875</ele>
        <time>2011-07-15T08:13:19Z</time>
      </trkpt>
      <trkpt lat="44.6475" lon="5.85336">
        <ele>1320.5080566</ele>
        <time>2011-07-15T08:13:28Z</time>
      </trkpt>
      <trkpt lat="44.64775" lon="5.85342">
        <ele>1322.4306641</ele>
        <time>2011-07-15T08:13:38Z</time>
      </trkpt>
      <trkpt lat="44.648" lon="5.85347">
        <ele>1323.8725586</ele>
        <time>2011-07-15T08:13:48Z</time>
      </trkpt>
      <trkpt lat="44.64826" lon="5.85353">
        <ele>1325.3146973</ele>
        <time>2011-07-15T08:13:58Z</time>
      </trkpt>
      <trkpt lat="44.64851" lon="5.8536">
        <ele>1328.6794434</ele>
        <time>2011-07-15T08:14:08Z</time>
      </trkpt>
      <trkpt lat="44.64876" lon="5.85368">
        <ele>1334.9279785</ele>
        <time>2011-07-15T08:14:18Z</time>
      </trkpt>
      <trkpt lat="44.64897" lon="5.85374">
        <ele>1336.8503418</ele>
        <time>2011-07-15T08:14:26Z</time>
      </trkpt>
      <trkpt lat="44.64923" lon="5.85386">
        <ele>1341.6572266</ele>
        <time>2011-07-15T08:14:36Z</time>
      </trkpt>
      <trkpt lat="44.64944" lon="5.85399">
        <ele>1346.9443359</ele>
        <time>2011-07-15T08:14:44Z</time>
      </trkpt>
      <trkpt lat="44.64963" lon="5.85413">
        <ele>1350.309082</ele>
        <time>2011-07-15T08:14:52Z</time>
      </trkpt>
      <trkpt lat="44.6498" lon="5.85427">
        <ele>1352.2314453</ele>
        <time>2011-07-15T08:15:00Z</time>
      </trkpt>
      <trkpt lat="44.64996" lon="5.8544">
        <ele>1354.1542969</ele>
        <time>2011-07-15T08:15:07Z</time>
      </trkpt>
      <trkpt lat="44.65014" lon="5.85455">
        <ele>1355.5961914</ele>
        <time>2011-07-15T08:15:15Z</time>
      </trkpt>
      <trkpt lat="44.65039" lon="5.85475">
        <ele>1357.519043</ele>
        <time>2011-07-15T08:15:26Z</time>
      </trkpt>
      <trkpt lat="44.65062" lon="5.85492">
        <ele>1360.8835449</ele>
        <time>2011-07-15T08:15:35Z</time>
      </trkpt>
      <trkpt lat="44.65084" lon="5.85509">
        <ele>1362.8061523</ele>
        <time>2011-07-15T08:15:44Z</time>
      </trkpt>
      <trkpt lat="44.65106" lon="5.85526">
        <ele>1364.2480469</ele>
        <time>2011-07-15T08:15:53Z</time>
      </trkpt>
      <trkpt lat="44.65137" lon="5.85551">
        <ele>1365.6901855</ele>
        <time>2011-07-15T08:16:05Z</time>
      </trkpt>
      <trkpt lat="44.65173" lon="5.85579">
        <ele>1366.6513672</ele>
        <time>2011-07-15T08:16:18Z</time>
      </trkpt>
      <trkpt lat="44.65202" lon="5.85601">
        <ele>1367.1320801</ele>
        <time>2011-07-15T08:16:28Z</time>
      </trkpt>
      <trkpt lat="44.6523" lon="5.85621">
        <ele>1366.6513672</ele>
        <time>2011-07-15T08:16:37Z</time>
      </trkpt>
      <trkpt lat="44.65264" lon="5.85639">
        <ele>1367.1320801</ele>
        <time>2011-07-15T08:16:46Z</time>
      </trkpt>
      <trkpt lat="44.65307" lon="5.8565">
        <ele>1367.6125488</ele>
        <time>2011-07-15T08:16:56Z</time>
      </trkpt>
      <trkpt lat="44.65347" lon="5.8565">
        <ele>1368.0932617</ele>
        <time>2011-07-15T08:17:05Z</time>
      </trkpt>
      <trkpt lat="44.65385" lon="5.85642">
        <ele>1369.0546875</ele>
        <time>2011-07-15T08:17:14Z</time>
      </trkpt>
      <trkpt lat="44.65423" lon="5.85631">
        <ele>1370.496582</ele>
        <time>2011-07-15T08:17:24Z</time>
      </trkpt>
      <trkpt lat="44.65455" lon="5.85626">
        <ele>1372.9001465</ele>
        <time>2011-07-15T08:17:34Z</time>
      </trkpt>
      <trkpt lat="44.6548" lon="5.85624">
        <ele>1375.3032227</ele>
        <time>2011-07-15T08:17:42Z</time>
      </trkpt>
      <trkpt lat="44.65505" lon="5.85622">
        <ele>1378.6679688</ele>
        <time>2011-07-15T08:17:51Z</time>
      </trkpt>
      <trkpt lat="44.65532" lon="5.85615">
        <ele>1381.5517578</ele>
        <time>2011-07-15T08:18:01Z</time>
      </trkpt>
      <trkpt lat="44.65551" lon="5.85604">
        <ele>1383.4743652</ele>
        <time>2011-07-15T08:18:09Z</time>
      </trkpt>
      <trkpt lat="44.65572" lon="5.85586">
        <ele>1385.8776855</ele>
        <time>2011-07-15T08:18:18Z</time>
      </trkpt>
      <trkpt lat="44.65592" lon="5.85561">
        <ele>1389.7231445</ele>
        <time>2011-07-15T08:18:28Z</time>
      </trkpt>
      <trkpt lat="44.65606" lon="5.85542">
        <ele>1392.1264648</ele>
        <time>2011-07-15T08:18:36Z</time>
      </trkpt>
      <trkpt lat="44.6562" lon="5.85523">
        <ele>1394.529541</ele>
        <time>2011-07-15T08:18:44Z</time>
      </trkpt>
      <trkpt lat="44.65636" lon="5.85505">
        <ele>1397.4135742</ele>
        <time>2011-07-15T08:18:53Z</time>
      </trkpt>
      <trkpt lat="44.65657" lon="5.85488">
        <ele>1399.8168945</ele>
        <time>2011-07-15T08:19:03Z</time>
      </trkpt>
      <trkpt lat="44.6568" lon="5.8548">
        <ele>1400.7780762</ele>
        <time>2011-07-15T08:19:13Z</time>
      </trkpt>
      <trkpt lat="44.65705" lon="5.85477">
        <ele>1402.2199707</ele>
        <time>2011-07-15T08:19:23Z</time>
      </trkpt>
      <trkpt lat="44.65729" lon="5.85477">
        <ele>1404.1430664</ele>
        <time>2011-07-15T08:19:32Z</time>
      </trkpt>
      <trkpt lat="44.6575" lon="5.8548">
        <ele>1405.5849609</ele>
        <time>2011-07-15T08:19:40Z</time>
      </trkpt>
      <trkpt lat="44.65779" lon="5.85485">
        <ele>1407.9882813</ele>
        <time>2011-07-15T08:19:51Z</time>
      </trkpt>
      <trkpt lat="44.65803" lon="5.8549">
        <ele>1409.4301758</ele>
        <time>2011-07-15T08:20:00Z</time>
      </trkpt>
      <trkpt lat="44.65828" lon="5.85496">
        <ele>1410.3913574</ele>
        <time>2011-07-15T08:20:09Z</time>
      </trkpt>
      <trkpt lat="44.65855" lon="5.85503">
        <ele>1411.8334961</ele>
        <time>2011-07-15T08:20:19Z</time>
      </trkpt>
      <trkpt lat="44.65877" lon="5.85508">
        <ele>1412.7946777</ele>
        <time>2011-07-15T08:20:27Z</time>
      </trkpt>
      <trkpt lat="44.65899" lon="5.8551">
        <ele>1413.7558594</ele>
        <time>2011-07-15T08:20:35Z</time>
      </trkpt>
      <trkpt lat="44.65925" lon="5.85508">
        <ele>1415.197998</ele>
        <time>2011-07-15T08:20:44Z</time>
      </trkpt>
      <trkpt lat="44.65951" lon="5.85501">
        <ele>1417.1206055</ele>
        <time>2011-07-15T08:20:53Z</time>
      </trkpt>
      <trkpt lat="44.65979" lon="5.85486">
        <ele>1419.0432129</ele>
        <time>2011-07-15T08:21:03Z</time>
      </trkpt>
      <trkpt lat="44.66" lon="5.85474">
        <ele>1420.0046387</ele>
        <time>2011-07-15T08:21:10Z</time>
      </trkpt>
      <trkpt lat="44.66025" lon="5.85459">
        <ele>1421.9272461</ele>
        <time>2011-07-15T08:21:19Z</time>
      </trkpt>
      <trkpt lat="44.66053" lon="5.85449">
        <ele>1423.3693848</ele>
        <time>2011-07-15T08:21:29Z</time>
      </trkpt>
      <trkpt lat="44.66072" lon="5.85448">
        <ele>1424.8112793</ele>
        <time>2011-07-15T08:21:36Z</time>
      </trkpt>
      <trkpt lat="44.66095" lon="5.85449">
        <ele>1426.2531738</ele>
        <time>2011-07-15T08:21:44Z</time>
      </trkpt>
      <trkpt lat="44.66125" lon="5.85449">
        <ele>1428.6564941</ele>
        <time>2011-07-15T08:21:55Z</time>
      </trkpt>
      <trkpt lat="44.66158" lon="5.8545">
        <ele>1430.5791016</ele>
        <time>2011-07-15T08:22:07Z</time>
      </trkpt>
      <trkpt lat="44.66194" lon="5.8545">
        <ele>1433.4628906</ele>
        <time>2011-07-15T08:22:20Z</time>
      </trkpt>
      <trkpt lat="44.66222" lon="5.85449">
        <ele>1435.385498</ele>
        <time>2011-07-15T08:22:30Z</time>
      </trkpt>
      <trkpt lat="44.66249" lon="5.85448">
        <ele>1437.3083496</ele>
        <time>2011-07-15T08:22:39Z</time>
      </trkpt>
      <trkpt lat="44.66276" lon="5.85446">
        <ele>1439.230957</ele>
        <time>2011-07-15T08:22:48Z</time>
      </trkpt>
      <trkpt lat="44.66303" lon="5.85444">
        <ele>1441.1535645</ele>
        <time>2011-07-15T08:22:57Z</time>
      </trkpt>
      <trkpt lat="44.66324" lon="5.85442">
        <ele>1442.5957031</ele>
        <time>2011-07-15T08:23:04Z</time>
      </trkpt>
      <trkpt lat="44.66355" lon="5.8544">
        <ele>1444.0375977</ele>
        <time>2011-07-15T08:23:14Z</time>
      </trkpt>
      <trkpt lat="44.66385" lon="5.85446">
        <ele>1444.5180664</ele>
        <time>2011-07-15T08:23:23Z</time>
      </trkpt>
      <trkpt lat="44.66417" lon="5.85467">
        <ele>1445.4794922</ele>
        <time>2011-07-15T08:23:33Z</time>
      </trkpt>
      <trkpt lat="44.66447" lon="5.85487">
        <ele>1446.440918</ele>
        <time>2011-07-15T08:23:42Z</time>
      </trkpt>
      <trkpt lat="44.66482" lon="5.85511">
        <ele>1448.8439941</ele>
        <time>2011-07-15T08:23:53Z</time>
      </trkpt>
      <trkpt lat="44.66512" lon="5.85531">
        <ele>1451.2473145</ele>
        <time>2011-07-15T08:24:02Z</time>
      </trkpt>
      <trkpt lat="44.66539" lon="5.85549">
        <ele>1452.2087402</ele>
        <time>2011-07-15T08:24:10Z</time>
      </trkpt>
      <trkpt lat="44.66579" lon="5.85576">
        <ele>1451.7280273</ele>
        <time>2011-07-15T08:24:22Z</time>
      </trkpt>
      <trkpt lat="44.66597" lon="5.856">
        <ele>1449.8054199</ele>
        <time>2011-07-15T08:24:28Z</time>
      </trkpt>
      <trkpt lat="44.66599" lon="5.85606">
        <ele>1449.324707</ele>
        <time>2011-07-15T08:24:29Z</time>
      </trkpt>
      <trkpt lat="44.66606" lon="5.8566">
        <ele>1448.8439941</ele>
        <time>2011-07-15T08:24:36Z</time>
      </trkpt>
      <trkpt lat="44.66611" lon="5.85704">
        <ele>1448.8439941</ele>
        <time>2011-07-15T08:24:42Z</time>
      </trkpt>
      <trkpt lat="44.6662" lon="5.8574">
        <ele>1448.8439941</ele>
        <time>2011-07-15T08:24:48Z</time>
      </trkpt>
      <trkpt lat="44.66625" lon="5.85751">
        <ele>1448.3632813</ele>
        <time>2011-07-15T08:24:50Z</time>
      </trkpt>
      <trkpt lat="44.66635" lon="5.85767">
        <ele>1448.8439941</ele>
        <time>2011-07-15T08:24:54Z</time>
      </trkpt>
      <trkpt lat="44.66642" lon="5.85774">
        <ele>1448.8439941</ele>
        <time>2011-07-15T08:24:57Z</time>
      </trkpt>
      <trkpt lat="44.66643" lon="5.85774">
        <ele>1450.2861328</ele>
        <time>2011-07-15T08:25:03Z</time>
      </trkpt>
      <trkpt lat="44.66643" lon="5.85774">
        <ele>1450.7666016</ele>
        <time>2011-07-15T08:25:10Z</time>
      </trkpt>
      <trkpt lat="44.66643" lon="5.85774">
        <ele>1451.2473145</ele>
        <time>2011-07-15T08:25:16Z</time>
      </trkpt>
      <trkpt lat="44.66642" lon="5.85773">
        <ele>1450.7666016</ele>
        <time>2011-07-15T08:25:24Z</time>
      </trkpt>
      <trkpt lat="44.66642" lon="5.85772">
        <ele>1450.7666016</ele>
        <time>2011-07-15T08:25:31Z</time>
      </trkpt>
      <trkpt lat="44.66642" lon="5.85772">
        <ele>1450.7666016</ele>
        <time>2011-07-15T08:25:41Z</time>
      </trkpt>
      <trkpt lat="44.66643" lon="5.85771">
        <ele>1450.7666016</ele>
        <time>2011-07-15T08:25:58Z</time>
      </trkpt>
      <trkpt lat="44.66643" lon="5.8577">
        <ele>1448.3632813</ele>
        <time>2011-07-15T08:26:24Z</time>
      </trkpt>
      <trkpt lat="44.66642" lon="5.85771">
        <ele>1448.3632813</ele>
        <time>2011-07-15T08:26:39Z</time>
      </trkpt>
      <trkpt lat="44.66644" lon="5.85772">
        <ele>1448.3632813</ele>
        <time>2011-07-15T08:26:50Z</time>
      </trkpt>
      <trkpt lat="44.66651" lon="5.85776">
        <ele>1448.3632813</ele>
        <time>2011-07-15T08:26:54Z</time>
      </trkpt>
      <trkpt lat="44.66665" lon="5.85783">
        <ele>1447.4020996</ele>
        <time>2011-07-15T08:27:01Z</time>
      </trkpt>
      <trkpt lat="44.66681" lon="5.85789">
        <ele>1447.4020996</ele>
        <time>2011-07-15T08:27:06Z</time>
      </trkpt>
      <trkpt lat="44.66703" lon="5.85797">
        <ele>1446.9213867</ele>
        <time>2011-07-15T08:27:14Z</time>
      </trkpt>
      <trkpt lat="44.66729" lon="5.85806">
        <ele>1446.440918</ele>
        <time>2011-07-15T08:27:23Z</time>
      </trkpt>
      <trkpt lat="44.66748" lon="5.85822">
        <ele>1446.440918</ele>
        <time>2011-07-15T08:27:29Z</time>
      </trkpt>
      <trkpt lat="44.66762" lon="5.85848">
        <ele>1445.4794922</ele>
        <time>2011-07-15T08:27:34Z</time>
      </trkpt>
      <trkpt lat="44.66789" lon="5.85904">
        <ele>1445.9602051</ele>
        <time>2011-07-15T08:27:43Z</time>
      </trkpt>
      <trkpt lat="44.66807" lon="5.85942">
        <ele>1445.4794922</ele>
        <time>2011-07-15T08:27:49Z</time>
      </trkpt>
      <trkpt lat="44.6683" lon="5.85989">
        <ele>1444.5180664</ele>
        <time>2011-07-15T08:27:56Z</time>
      </trkpt>
      <trkpt lat="44.66836" lon="5.86002">
        <ele>1444.0375977</ele>
        <time>2011-07-15T08:27:58Z</time>
      </trkpt>
      <trkpt lat="44.66839" lon="5.86032">
        <ele>1442.5957031</ele>
        <time>2011-07-15T08:28:02Z</time>
      </trkpt>
      <trkpt lat="44.66829" lon="5.86055">
        <ele>1441.6342773</ele>
        <time>2011-07-15T08:28:05Z</time>
      </trkpt>
      <trkpt lat="44.66816" lon="5.86098">
        <ele>1438.7504883</ele>
        <time>2011-07-15T08:28:10Z</time>
      </trkpt>
      <trkpt lat="44.66816" lon="5.86108">
        <ele>1438.2697754</ele>
        <time>2011-07-15T08:28:11Z</time>
      </trkpt>
      <trkpt lat="44.66804" lon="5.86154">
        <ele>1435.385498</ele>
        <time>2011-07-15T08:28:16Z</time>
      </trkpt>
      <trkpt lat="44.66791" lon="5.86169">
        <ele>1433.9436035</ele>
        <time>2011-07-15T08:28:18Z</time>
      </trkpt>
      <trkpt lat="44.66775" lon="5.86207">
        <ele>1432.0209961</ele>
        <time>2011-07-15T08:28:22Z</time>
      </trkpt>
      <trkpt lat="44.6678" lon="5.86242">
        <ele>1429.6176758</ele>
        <time>2011-07-15T08:28:25Z</time>
      </trkpt>
      <trkpt lat="44.66784" lon="5.86253">
        <ele>1429.1369629</ele>
        <time>2011-07-15T08:28:26Z</time>
      </trkpt>
      <trkpt lat="44.66823" lon="5.86351">
        <ele>1422.407959</ele>
        <time>2011-07-15T08:28:34Z</time>
      </trkpt>
      <trkpt lat="44.66837" lon="5.86375">
        <ele>1420.4853516</ele>
        <time>2011-07-15T08:28:36Z</time>
      </trkpt>
      <trkpt lat="44.66873" lon="5.8641">
        <ele>1416.1591797</ele>
        <time>2011-07-15T08:28:40Z</time>
      </trkpt>
      <trkpt lat="44.66907" lon="5.86423">
        <ele>1413.2753906</ele>
        <time>2011-07-15T08:28:43Z</time>
      </trkpt>
      <trkpt lat="44.66951" lon="5.8643">
        <ele>1409.4301758</ele>
        <time>2011-07-15T08:28:47Z</time>
      </trkpt>
      <trkpt lat="44.66991" lon="5.86453">
        <ele>1406.5461426</ele>
        <time>2011-07-15T08:28:51Z</time>
      </trkpt>
      <trkpt lat="44.67006" lon="5.86473">
        <ele>1405.104248</ele>
        <time>2011-07-15T08:28:53Z</time>
      </trkpt>
      <trkpt lat="44.67034" lon="5.86513">
        <ele>1402.2199707</ele>
        <time>2011-07-15T08:28:57Z</time>
      </trkpt>
      <trkpt lat="44.67073" lon="5.86536">
        <ele>1399.3361816</ele>
        <time>2011-07-15T08:29:01Z</time>
      </trkpt>
      <trkpt lat="44.67083" lon="5.86541">
        <ele>1398.3747559</ele>
        <time>2011-07-15T08:29:02Z</time>
      </trkpt>
      <trkpt lat="44.67118" lon="5.86582">
        <ele>1394.0490723</ele>
        <time>2011-07-15T08:29:06Z</time>
      </trkpt>
      <trkpt lat="44.67124" lon="5.86596">
        <ele>1393.0876465</ele>
        <time>2011-07-15T08:29:07Z</time>
      </trkpt>
      <trkpt lat="44.6716" lon="5.86655">
        <ele>1387.800293</ele>
        <time>2011-07-15T08:29:12Z</time>
      </trkpt>
      <trkpt lat="44.6717" lon="5.86662">
        <ele>1386.8388672</ele>
        <time>2011-07-15T08:29:13Z</time>
      </trkpt>
      <trkpt lat="44.67252" lon="5.86704">
        <ele>1381.5517578</ele>
        <time>2011-07-15T08:29:21Z</time>
      </trkpt>
      <trkpt lat="44.67305" lon="5.86713">
        <ele>1378.1872559</ele>
        <time>2011-07-15T08:29:26Z</time>
      </trkpt>
      <trkpt lat="44.67376" lon="5.86739">
        <ele>1373.3808594</ele>
        <time>2011-07-15T08:29:33Z</time>
      </trkpt>
      <trkpt lat="44.67438" lon="5.86763">
        <ele>1369.5354004</ele>
        <time>2011-07-15T08:29:39Z</time>
      </trkpt>
      <trkpt lat="44.67492" lon="5.86765">
        <ele>1366.1706543</ele>
        <time>2011-07-15T08:29:44Z</time>
      </trkpt>
      <trkpt lat="44.67544" lon="5.86754">
        <ele>1363.2868652</ele>
        <time>2011-07-15T08:29:49Z</time>
      </trkpt>
      <trkpt lat="44.67602" lon="5.86729">
        <ele>1359.4416504</ele>
        <time>2011-07-15T08:29:55Z</time>
      </trkpt>
      <trkpt lat="44.67638" lon="5.86735">
        <ele>1356.0769043</ele>
        <time>2011-07-15T08:29:59Z</time>
      </trkpt>
      <trkpt lat="44.67658" lon="5.86765">
        <ele>1353.673584</ele>
        <time>2011-07-15T08:30:02Z</time>
      </trkpt>
      <trkpt lat="44.67705" lon="5.86872">
        <ele>1346.9443359</ele>
        <time>2011-07-15T08:30:11Z</time>
      </trkpt>
      <trkpt lat="44.67736" lon="5.86929">
        <ele>1343.0991211</ele>
        <time>2011-07-15T08:30:16Z</time>
      </trkpt>
      <trkpt lat="44.67768" lon="5.86967">
        <ele>1339.734375</ele>
        <time>2011-07-15T08:30:20Z</time>
      </trkpt>
      <trkpt lat="44.67836" lon="5.87031">
        <ele>1333.9665527</ele>
        <time>2011-07-15T08:30:28Z</time>
      </trkpt>
      <trkpt lat="44.67856" lon="5.87048">
        <ele>1332.5246582</ele>
        <time>2011-07-15T08:30:31Z</time>
      </trkpt>
      <trkpt lat="44.67866" lon="5.87059">
        <ele>1331.5632324</ele>
        <time>2011-07-15T08:30:33Z</time>
      </trkpt>
      <trkpt lat="44.67883" lon="5.8707">
        <ele>1331.0827637</ele>
        <time>2011-07-15T08:30:37Z</time>
      </trkpt>
      <trkpt lat="44.6789" lon="5.87069">
        <ele>1330.6020508</ele>
        <time>2011-07-15T08:30:41Z</time>
      </trkpt>
      <trkpt lat="44.6789" lon="5.87068">
        <ele>1331.0827637</ele>
        <time>2011-07-15T08:30:52Z</time>
      </trkpt>
      <trkpt lat="44.67889" lon="5.87067">
        <ele>1331.5632324</ele>
        <time>2011-07-15T08:31:02Z</time>
      </trkpt>
      <trkpt lat="44.67889" lon="5.87066">
        <ele>1331.5632324</ele>
        <time>2011-07-15T08:31:13Z</time>
      </trkpt>
      <trkpt lat="44.67889" lon="5.87064">
        <ele>1331.5632324</ele>
        <time>2011-07-15T08:31:15Z</time>
      </trkpt>
      <trkpt lat="44.67897" lon="5.87045">
        <ele>1331.0827637</ele>
        <time>2011-07-15T08:31:22Z</time>
      </trkpt>
      <trkpt lat="44.67903" lon="5.8704">
        <ele>1330.6020508</ele>
        <time>2011-07-15T08:31:24Z</time>
      </trkpt>
      <trkpt lat="44.67922" lon="5.8705">
        <ele>1329.1599121</ele>
        <time>2011-07-15T08:31:28Z</time>
      </trkpt>
      <trkpt lat="44.67955" lon="5.871">
        <ele>1325.7954102</ele>
        <time>2011-07-15T08:31:35Z</time>
      </trkpt>
      <trkpt lat="44.67982" lon="5.87126">
        <ele>1323.3920898</ele>
        <time>2011-07-15T08:31:39Z</time>
      </trkpt>
      <trkpt lat="44.68045" lon="5.87176">
        <ele>1319.0661621</ele>
        <time>2011-07-15T08:31:47Z</time>
      </trkpt>
      <trkpt lat="44.68115" lon="5.87232">
        <ele>1313.7788086</ele>
        <time>2011-07-15T08:31:55Z</time>
      </trkpt>
      <trkpt lat="44.68186" lon="5.8728">
        <ele>1309.9335938</ele>
        <time>2011-07-15T08:32:03Z</time>
      </trkpt>
      <trkpt lat="44.68225" lon="5.87309">
        <ele>1308.4916992</ele>
        <time>2011-07-15T08:32:08Z</time>
      </trkpt>
      <trkpt lat="44.68246" lon="5.8734">
        <ele>1308.0112305</ele>
        <time>2011-07-15T08:32:12Z</time>
      </trkpt>
      <trkpt lat="44.68263" lon="5.87368">
        <ele>1307.0495605</ele>
        <time>2011-07-15T08:32:16Z</time>
      </trkpt>
      <trkpt lat="44.68291" lon="5.8739">
        <ele>1305.607666</ele>
        <time>2011-07-15T08:32:21Z</time>
      </trkpt>
      <trkpt lat="44.68338" lon="5.87408">
        <ele>1302.7236328</ele>
        <time>2011-07-15T08:32:28Z</time>
      </trkpt>
      <trkpt lat="44.6838" lon="5.8744">
        <ele>1300.8010254</ele>
        <time>2011-07-15T08:32:34Z</time>
      </trkpt>
      <trkpt lat="44.68424" lon="5.87461">
        <ele>1298.3977051</ele>
        <time>2011-07-15T08:32:40Z</time>
      </trkpt>
      <trkpt lat="44.68474" lon="5.87486">
        <ele>1296.4753418</ele>
        <time>2011-07-15T08:32:47Z</time>
      </trkpt>
      <trkpt lat="44.68526" lon="5.87511">
        <ele>1295.0332031</ele>
        <time>2011-07-15T08:32:54Z</time>
      </trkpt>
      <trkpt lat="44.68579" lon="5.87543">
        <ele>1293.1105957</ele>
        <time>2011-07-15T08:33:01Z</time>
      </trkpt>
      <trkpt lat="44.68613" lon="5.87582">
        <ele>1292.1494141</ele>
        <time>2011-07-15T08:33:06Z</time>
      </trkpt>
      <trkpt lat="44.68665" lon="5.87616">
        <ele>1291.1877441</ele>
        <time>2011-07-15T08:33:13Z</time>
      </trkpt>
      <trkpt lat="44.68731" lon="5.87658">
        <ele>1290.7070313</ele>
        <time>2011-07-15T08:33:22Z</time>
      </trkpt>
      <trkpt lat="44.68773" lon="5.87697">
        <ele>1290.7070313</ele>
        <time>2011-07-15T08:33:29Z</time>
      </trkpt>
      <trkpt lat="44.6881" lon="5.8773">
        <ele>1288.784668</ele>
        <time>2011-07-15T08:33:36Z</time>
      </trkpt>
      <trkpt lat="44.68844" lon="5.87746">
        <ele>1286.8618164</ele>
        <time>2011-07-15T08:33:41Z</time>
      </trkpt>
      <trkpt lat="44.68888" lon="5.87757">
        <ele>1283.4973145</ele>
        <time>2011-07-15T08:33:47Z</time>
      </trkpt>
      <trkpt lat="44.68938" lon="5.87784">
        <ele>1281.574707</ele>
        <time>2011-07-15T08:33:54Z</time>
      </trkpt>
      <trkpt lat="44.69001" lon="5.87835">
        <ele>1278.2102051</ele>
        <time>2011-07-15T08:34:03Z</time>
      </trkpt>
      <trkpt lat="44.69057" lon="5.87882">
        <ele>1274.3647461</ele>
        <time>2011-07-15T08:34:11Z</time>
      </trkpt>
      <trkpt lat="44.69124" lon="5.87932">
        <ele>1270.5195313</ele>
        <time>2011-07-15T08:34:20Z</time>
      </trkpt>
      <trkpt lat="44.69164" lon="5.87971">
        <ele>1269.5583496</ele>
        <time>2011-07-15T08:34:26Z</time>
      </trkpt>
      <trkpt lat="44.69209" lon="5.88019">
        <ele>1269.5583496</ele>
        <time>2011-07-15T08:34:34Z</time>
      </trkpt>
      <trkpt lat="44.69255" lon="5.88074">
        <ele>1269.5583496</ele>
        <time>2011-07-15T08:34:44Z</time>
      </trkpt>
      <trkpt lat="44.69296" lon="5.88111">
        <ele>1269.5583496</ele>
        <time>2011-07-15T08:34:52Z</time>
      </trkpt>
      <trkpt lat="44.69339" lon="5.88145">
        <ele>1269.5583496</ele>
        <time>2011-07-15T08:35:01Z</time>
      </trkpt>
      <trkpt lat="44.69364" lon="5.88163">
        <ele>1270.0388184</ele>
        <time>2011-07-15T08:35:07Z</time>
      </trkpt>
      <trkpt lat="44.6938" lon="5.88172">
        <ele>1270.0388184</ele>
        <time>2011-07-15T08:35:11Z</time>
      </trkpt>
      <trkpt lat="44.69393" lon="5.88176">
        <ele>1270.0388184</ele>
        <time>2011-07-15T08:35:14Z</time>
      </trkpt>
      <trkpt lat="44.69409" lon="5.88188">
        <ele>1270.0388184</ele>
        <time>2011-07-15T08:35:18Z</time>
      </trkpt>
      <trkpt lat="44.69437" lon="5.88215">
        <ele>1268.5969238</ele>
        <time>2011-07-15T08:35:24Z</time>
      </trkpt>
      <trkpt lat="44.69471" lon="5.8823">
        <ele>1266.6743164</ele>
        <time>2011-07-15T08:35:29Z</time>
      </trkpt>
      <trkpt lat="44.69487" lon="5.88234">
        <ele>1265.7131348</ele>
        <time>2011-07-15T08:35:31Z</time>
      </trkpt>
      <trkpt lat="44.69511" lon="5.88233">
        <ele>1263.7902832</ele>
        <time>2011-07-15T08:35:34Z</time>
      </trkpt>
      <trkpt lat="44.69547" lon="5.8824">
        <ele>1261.8679199</ele>
        <time>2011-07-15T08:35:39Z</time>
      </trkpt>
      <trkpt lat="44.69559" lon="5.88233">
        <ele>1260.4257813</ele>
        <time>2011-07-15T08:35:42Z</time>
      </trkpt>
      <trkpt lat="44.69556" lon="5.88219">
        <ele>1259.4643555</ele>
        <time>2011-07-15T08:35:44Z</time>
      </trkpt>
      <trkpt lat="44.69538" lon="5.88209">
        <ele>1258.0224609</ele>
        <time>2011-07-15T08:35:47Z</time>
      </trkpt>
      <trkpt lat="44.69521" lon="5.88191">
        <ele>1257.0610352</ele>
        <time>2011-07-15T08:35:50Z</time>
      </trkpt>
      <trkpt lat="44.69516" lon="5.88183">
        <ele>1256.5803223</ele>
        <time>2011-07-15T08:35:51Z</time>
      </trkpt>
      <trkpt lat="44.69496" lon="5.88138">
        <ele>1255.1384277</ele>
        <time>2011-07-15T08:35:56Z</time>
      </trkpt>
      <trkpt lat="44.69488" lon="5.88103">
        <ele>1254.6577148</ele>
        <time>2011-07-15T08:36:00Z</time>
      </trkpt>
      <trkpt lat="44.69496" lon="5.88092">
        <ele>1254.6577148</ele>
        <time>2011-07-15T08:36:02Z</time>
      </trkpt>
      <trkpt lat="44.69507" lon="5.88091">
        <ele>1254.6577148</ele>
        <time>2011-07-15T08:36:04Z</time>
      </trkpt>
      <trkpt lat="44.69554" lon="5.88095">
        <ele>1253.6965332</ele>
        <time>2011-07-15T08:36:11Z</time>
      </trkpt>
      <trkpt lat="44.69596" lon="5.88095">
        <ele>1251.7739258</ele>
        <time>2011-07-15T08:36:16Z</time>
      </trkpt>
      <trkpt lat="44.69657" lon="5.88094">
        <ele>1250.3320313</ele>
        <time>2011-07-15T08:36:23Z</time>
      </trkpt>
      <trkpt lat="44.69694" lon="5.88102">
        <ele>1249.3706055</ele>
        <time>2011-07-15T08:36:28Z</time>
      </trkpt>
      <trkpt lat="44.69755" lon="5.88118">
        <ele>1248.4091797</ele>
        <time>2011-07-15T08:36:37Z</time>
      </trkpt>
      <trkpt lat="44.69805" lon="5.88142">
        <ele>1247.447998</ele>
        <time>2011-07-15T08:36:45Z</time>
      </trkpt>
      <trkpt lat="44.69849" lon="5.88178">
        <ele>1246.9672852</ele>
        <time>2011-07-15T08:36:53Z</time>
      </trkpt>
      <trkpt lat="44.69906" lon="5.88219">
        <ele>1246.0061035</ele>
        <time>2011-07-15T08:37:03Z</time>
      </trkpt>
      <trkpt lat="44.69954" lon="5.88248">
        <ele>1246.4868164</ele>
        <time>2011-07-15T08:37:11Z</time>
      </trkpt>
      <trkpt lat="44.70019" lon="5.88294">
        <ele>1245.5253906</ele>
        <time>2011-07-15T08:37:22Z</time>
      </trkpt>
      <trkpt lat="44.70036" lon="5.88307">
        <ele>1245.5253906</ele>
        <time>2011-07-15T08:37:25Z</time>
      </trkpt>
      <trkpt lat="44.70089" lon="5.88331">
        <ele>1244.0834961</ele>
        <time>2011-07-15T08:37:34Z</time>
      </trkpt>
      <trkpt lat="44.70136" lon="5.88348">
        <ele>1243.1218262</ele>
        <time>2011-07-15T08:37:42Z</time>
      </trkpt>
      <trkpt lat="44.70183" lon="5.88358">
        <ele>1241.6799316</ele>
        <time>2011-07-15T08:37:49Z</time>
      </trkpt>
      <trkpt lat="44.70216" lon="5.88367">
        <ele>1241.1992188</ele>
        <time>2011-07-15T08:37:54Z</time>
      </trkpt>
      <trkpt lat="44.70255" lon="5.88384">
        <ele>1240.7185059</ele>
        <time>2011-07-15T08:38:00Z</time>
      </trkpt>
      <trkpt lat="44.70297" lon="5.88406">
        <ele>1240.2380371</ele>
        <time>2011-07-15T08:38:07Z</time>
      </trkpt>
      <trkpt lat="44.70331" lon="5.88422">
        <ele>1239.7573242</ele>
        <time>2011-07-15T08:38:13Z</time>
      </trkpt>
      <trkpt lat="44.70387" lon="5.88451">
        <ele>1237.8347168</ele>
        <time>2011-07-15T08:38:23Z</time>
      </trkpt>
      <trkpt lat="44.70423" lon="5.88486">
        <ele>1236.873291</ele>
        <time>2011-07-15T08:38:30Z</time>
      </trkpt>
      <trkpt lat="44.70447" lon="5.88521">
        <ele>1235.9121094</ele>
        <time>2011-07-15T08:38:36Z</time>
      </trkpt>
      <trkpt lat="44.70461" lon="5.88562">
        <ele>1235.9121094</ele>
        <time>2011-07-15T08:38:42Z</time>
      </trkpt>
      <trkpt lat="44.70465" lon="5.88576">
        <ele>1236.3928223</ele>
        <time>2011-07-15T08:38:44Z</time>
      </trkpt>
      <trkpt lat="44.70476" lon="5.88602">
        <ele>1236.873291</ele>
        <time>2011-07-15T08:38:48Z</time>
      </trkpt>
      <trkpt lat="44.70489" lon="5.88618">
        <ele>1237.3540039</ele>
        <time>2011-07-15T08:38:51Z</time>
      </trkpt>
      <trkpt lat="44.70501" lon="5.88645">
        <ele>1237.3540039</ele>
        <time>2011-07-15T08:38:55Z</time>
      </trkpt>
      <trkpt lat="44.70508" lon="5.88665">
        <ele>1237.8347168</ele>
        <time>2011-07-15T08:38:58Z</time>
      </trkpt>
      <trkpt lat="44.70519" lon="5.88683">
        <ele>1237.8347168</ele>
        <time>2011-07-15T08:39:01Z</time>
      </trkpt>
      <trkpt lat="44.7054" lon="5.88706">
        <ele>1237.8347168</ele>
        <time>2011-07-15T08:39:06Z</time>
      </trkpt>
      <trkpt lat="44.70556" lon="5.88735">
        <ele>1237.8347168</ele>
        <time>2011-07-15T08:39:11Z</time>
      </trkpt>
      <trkpt lat="44.7056" lon="5.8875">
        <ele>1237.8347168</ele>
        <time>2011-07-15T08:39:13Z</time>
      </trkpt>
      <trkpt lat="44.70577" lon="5.88778">
        <ele>1237.8347168</ele>
        <time>2011-07-15T08:39:18Z</time>
      </trkpt>
      <trkpt lat="44.70581" lon="5.88781">
        <ele>1237.3540039</ele>
        <time>2011-07-15T08:39:19Z</time>
      </trkpt>
      <trkpt lat="44.70597" lon="5.88789">
        <ele>1237.8347168</ele>
        <time>2011-07-15T08:39:22Z</time>
      </trkpt>
      <trkpt lat="44.70615" lon="5.88803">
        <ele>1238.3154297</ele>
        <time>2011-07-15T08:39:26Z</time>
      </trkpt>
      <trkpt lat="44.70631" lon="5.88833">
        <ele>1237.8347168</ele>
        <time>2011-07-15T08:39:31Z</time>
      </trkpt>
      <trkpt lat="44.70632" lon="5.88841">
        <ele>1237.8347168</ele>
        <time>2011-07-15T08:39:32Z</time>
      </trkpt>
      <trkpt lat="44.70639" lon="5.8888">
        <ele>1236.873291</ele>
        <time>2011-07-15T08:39:37Z</time>
      </trkpt>
      <trkpt lat="44.70656" lon="5.88915">
        <ele>1236.3928223</ele>
        <time>2011-07-15T08:39:42Z</time>
      </trkpt>
      <trkpt lat="44.70662" lon="5.88921">
        <ele>1236.3928223</ele>
        <time>2011-07-15T08:39:43Z</time>
      </trkpt>
      <trkpt lat="44.70688" lon="5.88953">
        <ele>1234.4702148</ele>
        <time>2011-07-15T08:39:48Z</time>
      </trkpt>
      <trkpt lat="44.70715" lon="5.88972">
        <ele>1232.0668945</ele>
        <time>2011-07-15T08:39:52Z</time>
      </trkpt>
      <trkpt lat="44.70741" lon="5.88979">
        <ele>1230.625</ele>
        <time>2011-07-15T08:39:55Z</time>
      </trkpt>
      <trkpt lat="44.70784" lon="5.89007">
        <ele>1227.2602539</ele>
        <time>2011-07-15T08:40:00Z</time>
      </trkpt>
      <trkpt lat="44.70823" lon="5.89054">
        <ele>1223.4150391</ele>
        <time>2011-07-15T08:40:05Z</time>
      </trkpt>
      <trkpt lat="44.70839" lon="5.89077">
        <ele>1221.9729004</ele>
        <time>2011-07-15T08:40:07Z</time>
      </trkpt>
      <trkpt lat="44.70879" lon="5.89107">
        <ele>1219.5698242</ele>
        <time>2011-07-15T08:40:11Z</time>
      </trkpt>
      <trkpt lat="44.7089" lon="5.8911">
        <ele>1218.6083984</ele>
        <time>2011-07-15T08:40:12Z</time>
      </trkpt>
      <trkpt lat="44.7097" lon="5.89131">
        <ele>1212.8405762</ele>
        <time>2011-07-15T08:40:19Z</time>
      </trkpt>
      <trkpt lat="44.71012" lon="5.89135">
        <ele>1209.4758301</ele>
        <time>2011-07-15T08:40:23Z</time>
      </trkpt>
      <trkpt lat="44.71022" lon="5.89134">
        <ele>1208.5144043</ele>
        <time>2011-07-15T08:40:24Z</time>
      </trkpt>
      <trkpt lat="44.71077" lon="5.89152">
        <ele>1203.2272949</ele>
        <time>2011-07-15T08:40:29Z</time>
      </trkpt>
      <trkpt lat="44.71124" lon="5.89141">
        <ele>1199.3820801</ele>
        <time>2011-07-15T08:40:33Z</time>
      </trkpt>
      <trkpt lat="44.71135" lon="5.89134">
        <ele>1198.4206543</ele>
        <time>2011-07-15T08:40:34Z</time>
      </trkpt>
      <trkpt lat="44.71192" lon="5.89114">
        <ele>1194.5751953</ele>
        <time>2011-07-15T08:40:39Z</time>
      </trkpt>
      <trkpt lat="44.71203" lon="5.89111">
        <ele>1193.6140137</ele>
        <time>2011-07-15T08:40:40Z</time>
      </trkpt>
      <trkpt lat="44.71241" lon="5.89107">
        <ele>1190.2495117</ele>
        <time>2011-07-15T08:40:44Z</time>
      </trkpt>
      <trkpt lat="44.71268" lon="5.89085">
        <ele>1187.8461914</ele>
        <time>2011-07-15T08:40:47Z</time>
      </trkpt>
      <trkpt lat="44.71319" lon="5.8906">
        <ele>1183.0395508</ele>
        <time>2011-07-15T08:40:52Z</time>
      </trkpt>
      <trkpt lat="44.71358" lon="5.8906">
        <ele>1181.1171875</ele>
        <time>2011-07-15T08:40:56Z</time>
      </trkpt>
      <trkpt lat="44.71382" lon="5.89052">
        <ele>1178.713623</ele>
        <time>2011-07-15T08:40:59Z</time>
      </trkpt>
      <trkpt lat="44.71401" lon="5.89022">
        <ele>1174.3876953</ele>
        <time>2011-07-15T08:41:02Z</time>
      </trkpt>
      <trkpt lat="44.71435" lon="5.88952">
        <ele>1168.619873</ele>
        <time>2011-07-15T08:41:08Z</time>
      </trkpt>
      <trkpt lat="44.71454" lon="5.88907">
        <ele>1164.7746582</ele>
        <time>2011-07-15T08:41:12Z</time>
      </trkpt>
      <trkpt lat="44.71456" lon="5.88863">
        <ele>1160.4484863</ele>
        <time>2011-07-15T08:41:15Z</time>
      </trkpt>
      <trkpt lat="44.71442" lon="5.88803">
        <ele>1154.2001953</ele>
        <time>2011-07-15T08:41:19Z</time>
      </trkpt>
      <trkpt lat="44.71435" lon="5.88788">
        <ele>1155.161377</ele>
        <time>2011-07-15T08:41:20Z</time>
      </trkpt>
      <trkpt lat="44.71407" lon="5.88714">
        <ele>1152.2773438</ele>
        <time>2011-07-15T08:41:25Z</time>
      </trkpt>
      <trkpt lat="44.71395" lon="5.88674">
        <ele>1148.9128418</ele>
        <time>2011-07-15T08:41:28Z</time>
      </trkpt>
      <trkpt lat="44.71367" lon="5.8862">
        <ele>1142.6643066</ele>
        <time>2011-07-15T08:41:33Z</time>
      </trkpt>
      <trkpt lat="44.71363" lon="5.88612">
        <ele>1141.7028809</ele>
        <time>2011-07-15T08:41:34Z</time>
      </trkpt>
      <trkpt lat="44.7136" lon="5.88593">
        <ele>1142.6643066</ele>
        <time>2011-07-15T08:41:37Z</time>
      </trkpt>
      <trkpt lat="44.71372" lon="5.88597">
        <ele>1141.7028809</ele>
        <time>2011-07-15T08:41:40Z</time>
      </trkpt>
      <trkpt lat="44.71376" lon="5.88601">
        <ele>1141.222168</ele>
        <time>2011-07-15T08:41:41Z</time>
      </trkpt>
      <trkpt lat="44.71409" lon="5.88636">
        <ele>1139.2995605</ele>
        <time>2011-07-15T08:41:47Z</time>
      </trkpt>
      <trkpt lat="44.71422" lon="5.88649">
        <ele>1138.8190918</ele>
        <time>2011-07-15T08:41:49Z</time>
      </trkpt>
      <trkpt lat="44.71453" lon="5.88665">
        <ele>1137.857666</ele>
        <time>2011-07-15T08:41:53Z</time>
      </trkpt>
      <trkpt lat="44.7148" lon="5.88669">
        <ele>1136.4157715</ele>
        <time>2011-07-15T08:41:56Z</time>
      </trkpt>
      <trkpt lat="44.71512" lon="5.88691">
        <ele>1135.4543457</ele>
        <time>2011-07-15T08:42:00Z</time>
      </trkpt>
      <trkpt lat="44.71548" lon="5.88728">
        <ele>1133.0510254</ele>
        <time>2011-07-15T08:42:05Z</time>
      </trkpt>
      <trkpt lat="44.71585" lon="5.88738">
        <ele>1131.6088867</ele>
        <time>2011-07-15T08:42:09Z</time>
      </trkpt>
      <trkpt lat="44.71619" lon="5.88733">
        <ele>1130.1669922</ele>
        <time>2011-07-15T08:42:13Z</time>
      </trkpt>
      <trkpt lat="44.71627" lon="5.88731">
        <ele>1129.6862793</ele>
        <time>2011-07-15T08:42:14Z</time>
      </trkpt>
      <trkpt lat="44.71666" lon="5.88731">
        <ele>1128.2443848</ele>
        <time>2011-07-15T08:42:19Z</time>
      </trkpt>
      <trkpt lat="44.71673" lon="5.88733">
        <ele>1127.7636719</ele>
        <time>2011-07-15T08:42:20Z</time>
      </trkpt>
      <trkpt lat="44.71699" lon="5.88748">
        <ele>1126.3217773</ele>
        <time>2011-07-15T08:42:24Z</time>
      </trkpt>
      <trkpt lat="44.71711" lon="5.88759">
        <ele>1125.8410645</ele>
        <time>2011-07-15T08:42:26Z</time>
      </trkpt>
      <trkpt lat="44.71736" lon="5.88774">
        <ele>1124.3991699</ele>
        <time>2011-07-15T08:42:30Z</time>
      </trkpt>
      <trkpt lat="44.71764" lon="5.88803">
        <ele>1121.5151367</ele>
        <time>2011-07-15T08:42:35Z</time>
      </trkpt>
      <trkpt lat="44.71779" lon="5.88824">
        <ele>1120.0732422</ele>
        <time>2011-07-15T08:42:38Z</time>
      </trkpt>
      <trkpt lat="44.71804" lon="5.88837">
        <ele>1117.6699219</ele>
        <time>2011-07-15T08:42:42Z</time>
      </trkpt>
      <trkpt lat="44.71811" lon="5.88835">
        <ele>1116.7087402</ele>
        <time>2011-07-15T08:42:43Z</time>
      </trkpt>
      <trkpt lat="44.71826" lon="5.88829">
        <ele>1115.7473145</ele>
        <time>2011-07-15T08:42:45Z</time>
      </trkpt>
      <trkpt lat="44.71849" lon="5.88834">
        <ele>1113.8244629</ele>
        <time>2011-07-15T08:42:49Z</time>
      </trkpt>
      <trkpt lat="44.71856" lon="5.88849">
        <ele>1113.8244629</ele>
        <time>2011-07-15T08:42:51Z</time>
      </trkpt>
      <trkpt lat="44.71878" lon="5.88903">
        <ele>1112.3825684</ele>
        <time>2011-07-15T08:42:57Z</time>
      </trkpt>
      <trkpt lat="44.71903" lon="5.88963">
        <ele>1110.9406738</ele>
        <time>2011-07-15T08:43:03Z</time>
      </trkpt>
      <trkpt lat="44.71938" lon="5.89023">
        <ele>1109.0180664</ele>
        <time>2011-07-15T08:43:09Z</time>
      </trkpt>
      <trkpt lat="44.7198" lon="5.89094">
        <ele>1106.1340332</ele>
        <time>2011-07-15T08:43:16Z</time>
      </trkpt>
      <trkpt lat="44.7201" lon="5.89147">
        <ele>1104.2116699</ele>
        <time>2011-07-15T08:43:21Z</time>
      </trkpt>
      <trkpt lat="44.72067" lon="5.89218">
        <ele>1101.3276367</ele>
        <time>2011-07-15T08:43:29Z</time>
      </trkpt>
      <trkpt lat="44.72123" lon="5.8928">
        <ele>1101.8083496</ele>
        <time>2011-07-15T08:43:37Z</time>
      </trkpt>
      <trkpt lat="44.7217" lon="5.89322">
        <ele>1102.2888184</ele>
        <time>2011-07-15T08:43:44Z</time>
      </trkpt>
      <trkpt lat="44.72188" lon="5.8934">
        <ele>1101.3276367</ele>
        <time>2011-07-15T08:43:47Z</time>
      </trkpt>
      <trkpt lat="44.72223" lon="5.89397">
        <ele>1099.885498</ele>
        <time>2011-07-15T08:43:54Z</time>
      </trkpt>
      <trkpt lat="44.72242" lon="5.89443">
        <ele>1098.4433594</ele>
        <time>2011-07-15T08:43:59Z</time>
      </trkpt>
      <trkpt lat="44.72281" lon="5.89513">
        <ele>1097.0014648</ele>
        <time>2011-07-15T08:44:07Z</time>
      </trkpt>
      <trkpt lat="44.7229" lon="5.89532">
        <ele>1096.0402832</ele>
        <time>2011-07-15T08:44:09Z</time>
      </trkpt>
      <trkpt lat="44.72323" lon="5.89569">
        <ele>1097.0014648</ele>
        <time>2011-07-15T08:44:14Z</time>
      </trkpt>
      <trkpt lat="44.72361" lon="5.89591">
        <ele>1096.0402832</ele>
        <time>2011-07-15T08:44:19Z</time>
      </trkpt>
      <trkpt lat="44.72436" lon="5.89638">
        <ele>1093.6369629</ele>
        <time>2011-07-15T08:44:29Z</time>
      </trkpt>
      <trkpt lat="44.72485" lon="5.89661">
        <ele>1094.1176758</ele>
        <time>2011-07-15T08:44:35Z</time>
      </trkpt>
      <trkpt lat="44.72527" lon="5.89676">
        <ele>1096.0402832</ele>
        <time>2011-07-15T08:44:40Z</time>
      </trkpt>
      <trkpt lat="44.7257" lon="5.89696">
        <ele>1094.5981445</ele>
        <time>2011-07-15T08:44:45Z</time>
      </trkpt>
      <trkpt lat="44.72615" lon="5.8972">
        <ele>1091.7143555</ele>
        <time>2011-07-15T08:44:50Z</time>
      </trkpt>
      <trkpt lat="44.72671" lon="5.89735">
        <ele>1088.8305664</ele>
        <time>2011-07-15T08:44:56Z</time>
      </trkpt>
      <trkpt lat="44.72719" lon="5.89738">
        <ele>1086.4272461</ele>
        <time>2011-07-15T08:45:01Z</time>
      </trkpt>
      <trkpt lat="44.72728" lon="5.89737">
        <ele>1085.9465332</ele>
        <time>2011-07-15T08:45:02Z</time>
      </trkpt>
      <trkpt lat="44.72788" lon="5.89741">
        <ele>1080.6591797</ele>
        <time>2011-07-15T08:45:08Z</time>
      </trkpt>
      <trkpt lat="44.72817" lon="5.89735">
        <ele>1077.7751465</ele>
        <time>2011-07-15T08:45:11Z</time>
      </trkpt>
      <trkpt lat="44.72854" lon="5.89729">
        <ele>1073.9299316</ele>
        <time>2011-07-15T08:45:15Z</time>
      </trkpt>
      <trkpt lat="44.72892" lon="5.89739">
        <ele>1072.4880371</ele>
        <time>2011-07-15T08:45:19Z</time>
      </trkpt>
      <trkpt lat="44.72927" lon="5.89731">
        <ele>1071.0461426</ele>
        <time>2011-07-15T08:45:23Z</time>
      </trkpt>
      <trkpt lat="44.72935" lon="5.89725">
        <ele>1070.5654297</ele>
        <time>2011-07-15T08:45:24Z</time>
      </trkpt>
      <trkpt lat="44.72953" lon="5.89712">
        <ele>1070.5654297</ele>
        <time>2011-07-15T08:45:26Z</time>
      </trkpt>
      <trkpt lat="44.72999" lon="5.8968">
        <ele>1070.0847168</ele>
        <time>2011-07-15T08:45:31Z</time>
      </trkpt>
      <trkpt lat="44.73043" lon="5.89658">
        <ele>1071.0461426</ele>
        <time>2011-07-15T08:45:36Z</time>
      </trkpt>
      <trkpt lat="44.73092" lon="5.89642">
        <ele>1068.1621094</ele>
        <time>2011-07-15T08:45:41Z</time>
      </trkpt>
      <trkpt lat="44.73148" lon="5.89633">
        <ele>1066.2392578</ele>
        <time>2011-07-15T08:45:47Z</time>
      </trkpt>
      <trkpt lat="44.73168" lon="5.8963">
        <ele>1064.7973633</ele>
        <time>2011-07-15T08:45:50Z</time>
      </trkpt>
      <trkpt lat="44.73179" lon="5.89628">
        <ele>1063.3554688</ele>
        <time>2011-07-15T08:45:52Z</time>
      </trkpt>
      <trkpt lat="44.73199" lon="5.89631">
        <ele>1062.394043</ele>
        <time>2011-07-15T08:45:57Z</time>
      </trkpt>
      <trkpt lat="44.73214" lon="5.89626">
        <ele>1061.4328613</ele>
        <time>2011-07-15T08:46:02Z</time>
      </trkpt>
      <trkpt lat="44.7322" lon="5.89622">
        <ele>1060.9521484</ele>
        <time>2011-07-15T08:46:06Z</time>
      </trkpt>
      <trkpt lat="44.73241" lon="5.89606">
        <ele>1059.9907227</ele>
        <time>2011-07-15T08:46:15Z</time>
      </trkpt>
      <trkpt lat="44.73259" lon="5.8959">
        <ele>1058.5488281</ele>
        <time>2011-07-15T08:46:21Z</time>
      </trkpt>
      <trkpt lat="44.73273" lon="5.8957">
        <ele>1057.5876465</ele>
        <time>2011-07-15T08:46:26Z</time>
      </trkpt>
      <trkpt lat="44.73288" lon="5.89554">
        <ele>1056.1455078</ele>
        <time>2011-07-15T08:46:30Z</time>
      </trkpt>
      <trkpt lat="44.73301" lon="5.89545">
        <ele>1055.6650391</ele>
        <time>2011-07-15T08:46:33Z</time>
      </trkpt>
      <trkpt lat="44.73324" lon="5.89545">
        <ele>1054.2231445</ele>
        <time>2011-07-15T08:46:37Z</time>
      </trkpt>
      <trkpt lat="44.73349" lon="5.89557">
        <ele>1053.2617188</ele>
        <time>2011-07-15T08:46:41Z</time>
      </trkpt>
      <trkpt lat="44.73361" lon="5.89566">
        <ele>1052.7810059</ele>
        <time>2011-07-15T08:46:43Z</time>
      </trkpt>
      <trkpt lat="44.73397" lon="5.89574">
        <ele>1050.3776855</ele>
        <time>2011-07-15T08:46:48Z</time>
      </trkpt>
      <trkpt lat="44.73417" lon="5.89564">
        <ele>1049.4162598</ele>
        <time>2011-07-15T08:46:51Z</time>
      </trkpt>
      <trkpt lat="44.73429" lon="5.89538">
        <ele>1047.4936523</ele>
        <time>2011-07-15T08:46:54Z</time>
      </trkpt>
      <trkpt lat="44.73435" lon="5.89516">
        <ele>1046.0517578</ele>
        <time>2011-07-15T08:46:56Z</time>
      </trkpt>
      <trkpt lat="44.73453" lon="5.89482">
        <ele>1045.090332</ele>
        <time>2011-07-15T08:47:00Z</time>
      </trkpt>
      <trkpt lat="44.73467" lon="5.89473">
        <ele>1044.6096191</ele>
        <time>2011-07-15T08:47:02Z</time>
      </trkpt>
      <trkpt lat="44.73519" lon="5.89444">
        <ele>1042.206543</ele>
        <time>2011-07-15T08:47:09Z</time>
      </trkpt>
      <trkpt lat="44.73542" lon="5.89439">
        <ele>1041.2451172</ele>
        <time>2011-07-15T08:47:12Z</time>
      </trkpt>
      <trkpt lat="44.73569" lon="5.8945">
        <ele>1040.2839355</ele>
        <time>2011-07-15T08:47:16Z</time>
      </trkpt>
      <trkpt lat="44.73594" lon="5.89474">
        <ele>1038.842041</ele>
        <time>2011-07-15T08:47:20Z</time>
      </trkpt>
      <trkpt lat="44.73622" lon="5.89481">
        <ele>1037.8806152</ele>
        <time>2011-07-15T08:47:24Z</time>
      </trkpt>
      <trkpt lat="44.73635" lon="5.8947">
        <ele>1036.4387207</ele>
        <time>2011-07-15T08:47:26Z</time>
      </trkpt>
      <trkpt lat="44.73642" lon="5.89438">
        <ele>1033.5544434</ele>
        <time>2011-07-15T08:47:29Z</time>
      </trkpt>
      <trkpt lat="44.73641" lon="5.89427">
        <ele>1032.5932617</ele>
        <time>2011-07-15T08:47:30Z</time>
      </trkpt>
      <trkpt lat="44.73646" lon="5.89369">
        <ele>1029.7092285</ele>
        <time>2011-07-15T08:47:35Z</time>
      </trkpt>
      <trkpt lat="44.73649" lon="5.89359">
        <ele>1029.2285156</ele>
        <time>2011-07-15T08:47:36Z</time>
      </trkpt>
      <trkpt lat="44.73687" lon="5.8928">
        <ele>1026.8254395</ele>
        <time>2011-07-15T08:47:44Z</time>
      </trkpt>
      <trkpt lat="44.73733" lon="5.89185">
        <ele>1023.4609375</ele>
        <time>2011-07-15T08:47:54Z</time>
      </trkpt>
      <trkpt lat="44.73748" lon="5.89158">
        <ele>1022.4995117</ele>
        <time>2011-07-15T08:47:57Z</time>
      </trkpt>
      <trkpt lat="44.73785" lon="5.89132">
        <ele>1021.0576172</ele>
        <time>2011-07-15T08:48:02Z</time>
      </trkpt>
      <trkpt lat="44.7381" lon="5.89133">
        <ele>1020.0961914</ele>
        <time>2011-07-15T08:48:05Z</time>
      </trkpt>
      <trkpt lat="44.73833" lon="5.89148">
        <ele>1019.6154785</ele>
        <time>2011-07-15T08:48:08Z</time>
      </trkpt>
      <trkpt lat="44.7384" lon="5.89156">
        <ele>1019.1347656</ele>
        <time>2011-07-15T08:48:09Z</time>
      </trkpt>
      <trkpt lat="44.73859" lon="5.89181">
        <ele>1018.1733398</ele>
        <time>2011-07-15T08:48:12Z</time>
      </trkpt>
      <trkpt lat="44.73889" lon="5.89202">
        <ele>1016.2507324</ele>
        <time>2011-07-15T08:48:16Z</time>
      </trkpt>
      <trkpt lat="44.73908" lon="5.89204">
        <ele>1015.7702637</ele>
        <time>2011-07-15T08:48:18Z</time>
      </trkpt>
      <trkpt lat="44.73948" lon="5.89203">
        <ele>1013.3669434</ele>
        <time>2011-07-15T08:48:22Z</time>
      </trkpt>
      <trkpt lat="44.73999" lon="5.89184">
        <ele>1011.4443359</ele>
        <time>2011-07-15T08:48:27Z</time>
      </trkpt>
      <trkpt lat="44.7406" lon="5.89173">
        <ele>1010.0021973</ele>
        <time>2011-07-15T08:48:33Z</time>
      </trkpt>
      <trkpt lat="44.7411" lon="5.89155">
        <ele>1007.1184082</ele>
        <time>2011-07-15T08:48:38Z</time>
      </trkpt>
      <trkpt lat="44.74169" lon="5.89134">
        <ele>1003.2729492</ele>
        <time>2011-07-15T08:48:44Z</time>
      </trkpt>
      <trkpt lat="44.74231" lon="5.89084">
        <ele>998.4663086</ele>
        <time>2011-07-15T08:48:51Z</time>
      </trkpt>
      <trkpt lat="44.74251" lon="5.89064">
        <ele>997.505127</ele>
        <time>2011-07-15T08:48:54Z</time>
      </trkpt>
      <trkpt lat="44.74277" lon="5.89063">
        <ele>996.0632324</ele>
        <time>2011-07-15T08:48:58Z</time>
      </trkpt>
      <trkpt lat="44.74294" lon="5.8908">
        <ele>995.1018066</ele>
        <time>2011-07-15T08:49:01Z</time>
      </trkpt>
      <trkpt lat="44.74309" lon="5.89077">
        <ele>994.140625</ele>
        <time>2011-07-15T08:49:03Z</time>
      </trkpt>
      <trkpt lat="44.74317" lon="5.89073">
        <ele>993.6599121</ele>
        <time>2011-07-15T08:49:04Z</time>
      </trkpt>
      <trkpt lat="44.74358" lon="5.89051">
        <ele>990.7758789</ele>
        <time>2011-07-15T08:49:09Z</time>
      </trkpt>
      <trkpt lat="44.7439" lon="5.89023">
        <ele>987.8918457</ele>
        <time>2011-07-15T08:49:13Z</time>
      </trkpt>
      <trkpt lat="44.74403" lon="5.89001">
        <ele>986.9304199</ele>
        <time>2011-07-15T08:49:15Z</time>
      </trkpt>
      <trkpt lat="44.74427" lon="5.88934">
        <ele>983.0852051</ele>
        <time>2011-07-15T08:49:20Z</time>
      </trkpt>
      <trkpt lat="44.74444" lon="5.88861">
        <ele>979.2399902</ele>
        <time>2011-07-15T08:49:25Z</time>
      </trkpt>
      <trkpt lat="44.74456" lon="5.88823">
        <ele>977.7980957</ele>
        <time>2011-07-15T08:49:28Z</time>
      </trkpt>
      <trkpt lat="44.74466" lon="5.88785">
        <ele>977.7980957</ele>
        <time>2011-07-15T08:49:32Z</time>
      </trkpt>
      <trkpt lat="44.74471" lon="5.8877">
        <ele>977.317627</ele>
        <time>2011-07-15T08:49:35Z</time>
      </trkpt>
      <trkpt lat="44.74476" lon="5.8874">
        <ele>977.317627</ele>
        <time>2011-07-15T08:49:39Z</time>
      </trkpt>
      <trkpt lat="44.74479" lon="5.88728">
        <ele>977.317627</ele>
        <time>2011-07-15T08:49:40Z</time>
      </trkpt>
      <trkpt lat="44.74506" lon="5.88682">
        <ele>975.3947754</ele>
        <time>2011-07-15T08:49:44Z</time>
      </trkpt>
      <trkpt lat="44.74522" lon="5.8866">
        <ele>974.9143066</ele>
        <time>2011-07-15T08:49:46Z</time>
      </trkpt>
      <trkpt lat="44.74612" lon="5.88653">
        <ele>972.9916992</ele>
        <time>2011-07-15T08:49:50Z</time>
      </trkpt>
      <trkpt lat="44.74683" lon="5.8865">
        <ele>969.6269531</ele>
        <time>2011-07-15T08:49:53Z</time>
      </trkpt>
      <trkpt lat="44.74766" lon="5.8853">
        <ele>966.262207</ele>
        <time>2011-07-15T08:50:06Z</time>
      </trkpt>
      <trkpt lat="44.74783" lon="5.88516">
        <ele>962.8977051</ele>
        <time>2011-07-15T08:50:10Z</time>
      </trkpt>
      <trkpt lat="44.74824" lon="5.88521">
        <ele>955.6877441</ele>
        <time>2011-07-15T08:50:13Z</time>
      </trkpt>
      <trkpt lat="44.74877" lon="5.88526">
        <ele>947.0358887</ele>
        <time>2011-07-15T08:50:19Z</time>
      </trkpt>
      <trkpt lat="44.7492" lon="5.88511">
        <ele>941.7487793</ele>
        <time>2011-07-15T08:50:23Z</time>
      </trkpt>
      <trkpt lat="44.74949" lon="5.88496">
        <ele>938.3840332</ele>
        <time>2011-07-15T08:50:26Z</time>
      </trkpt>
      <trkpt lat="44.74975" lon="5.88494">
        <ele>935.0195313</ele>
        <time>2011-07-15T08:50:29Z</time>
      </trkpt>
      <trkpt lat="44.74985" lon="5.88498">
        <ele>933.5773926</ele>
        <time>2011-07-15T08:50:30Z</time>
      </trkpt>
      <trkpt lat="44.75035" lon="5.88506">
        <ele>928.7709961</ele>
        <time>2011-07-15T08:50:35Z</time>
      </trkpt>
      <trkpt lat="44.75072" lon="5.88499">
        <ele>926.8483887</ele>
        <time>2011-07-15T08:50:39Z</time>
      </trkpt>
      <trkpt lat="44.75095" lon="5.88481">
        <ele>925.40625</ele>
        <time>2011-07-15T08:50:43Z</time>
      </trkpt>
      <trkpt lat="44.75098" lon="5.88462">
        <ele>925.40625</ele>
        <time>2011-07-15T08:50:45Z</time>
      </trkpt>
      <trkpt lat="44.751" lon="5.88442">
        <ele>925.40625</ele>
        <time>2011-07-15T08:50:47Z</time>
      </trkpt>
      <trkpt lat="44.75101" lon="5.8842">
        <ele>924.4450684</ele>
        <time>2011-07-15T08:50:50Z</time>
      </trkpt>
      <trkpt lat="44.75107" lon="5.88401">
        <ele>922.5222168</ele>
        <time>2011-07-15T08:50:55Z</time>
      </trkpt>
      <trkpt lat="44.75108" lon="5.88398">
        <ele>923.9641113</ele>
        <time>2011-07-15T08:51:00Z</time>
      </trkpt>
      <trkpt lat="44.75106" lon="5.88382">
        <ele>949.9199219</ele>
        <time>2011-07-15T08:52:49Z</time>
      </trkpt>
      <trkpt lat="44.75116" lon="5.88384">
        <ele>942.2294922</ele>
        <time>2011-07-15T08:52:55Z</time>
      </trkpt>
      <trkpt lat="44.75125" lon="5.88396">
        <ele>889.3566895</ele>
        <time>2011-07-15T08:53:54Z</time>
      </trkpt>
      <trkpt lat="44.75116" lon="5.884">
        <ele>894.1635742</ele>
        <time>2011-07-15T08:54:03Z</time>
      </trkpt>
      <trkpt lat="44.7511" lon="5.88401">
        <ele>903.7766113</ele>
        <time>2011-07-15T08:54:10Z</time>
      </trkpt>
      <trkpt lat="44.75103" lon="5.88379">
        <ele>940.7873535</ele>
        <time>2011-07-15T08:54:38Z</time>
      </trkpt>
      <trkpt lat="44.75105" lon="5.88373">
        <ele>945.5939941</ele>
        <time>2011-07-15T08:54:41Z</time>
      </trkpt>
      <trkpt lat="44.75119" lon="5.88371">
        <ele>940.7873535</ele>
        <time>2011-07-15T08:54:48Z</time>
      </trkpt>
      <trkpt lat="44.75136" lon="5.88371">
        <ele>933.5773926</ele>
        <time>2011-07-15T08:54:52Z</time>
      </trkpt>
      <trkpt lat="44.75153" lon="5.88376">
        <ele>930.6936035</ele>
        <time>2011-07-15T08:54:55Z</time>
      </trkpt>
      <trkpt lat="44.75194" lon="5.88389">
        <ele>924.4450684</ele>
        <time>2011-07-15T08:55:01Z</time>
      </trkpt>
      <trkpt lat="44.75223" lon="5.88394">
        <ele>926.3676758</ele>
        <time>2011-07-15T08:55:05Z</time>
      </trkpt>
      <trkpt lat="44.75262" lon="5.88409">
        <ele>919.1577148</ele>
        <time>2011-07-15T08:55:10Z</time>
      </trkpt>
      <trkpt lat="44.75305" lon="5.88426">
        <ele>917.7155762</ele>
        <time>2011-07-15T08:55:15Z</time>
      </trkpt>
      <trkpt lat="44.75326" lon="5.88433">
        <ele>916.2736816</ele>
        <time>2011-07-15T08:55:18Z</time>
      </trkpt>
      <trkpt lat="44.75354" lon="5.88453">
        <ele>915.7932129</ele>
        <time>2011-07-15T08:55:23Z</time>
      </trkpt>
      <trkpt lat="44.7536" lon="5.88458">
        <ele>916.2736816</ele>
        <time>2011-07-15T08:55:24Z</time>
      </trkpt>
      <trkpt lat="44.75383" lon="5.88475">
        <ele>915.7932129</ele>
        <time>2011-07-15T08:55:27Z</time>
      </trkpt>
      <trkpt lat="44.75423" lon="5.88498">
        <ele>912.9091797</ele>
        <time>2011-07-15T08:55:33Z</time>
      </trkpt>
      <trkpt lat="44.75465" lon="5.8852">
        <ele>912.4284668</ele>
        <time>2011-07-15T08:55:40Z</time>
      </trkpt>
      <trkpt lat="44.75489" lon="5.88544">
        <ele>910.5058594</ele>
        <time>2011-07-15T08:55:44Z</time>
      </trkpt>
      <trkpt lat="44.75519" lon="5.88592">
        <ele>906.6604004</ele>
        <time>2011-07-15T08:55:49Z</time>
      </trkpt>
      <trkpt lat="44.75552" lon="5.8864">
        <ele>903.7766113</ele>
        <time>2011-07-15T08:55:54Z</time>
      </trkpt>
      <trkpt lat="44.75558" lon="5.88647">
        <ele>904.2573242</ele>
        <time>2011-07-15T08:55:55Z</time>
      </trkpt>
      <trkpt lat="44.75583" lon="5.88658">
        <ele>903.7766113</ele>
        <time>2011-07-15T08:55:58Z</time>
      </trkpt>
      <trkpt lat="44.75593" lon="5.88658">
        <ele>902.8151855</ele>
        <time>2011-07-15T08:55:59Z</time>
      </trkpt>
      <trkpt lat="44.75633" lon="5.88677">
        <ele>898.4892578</ele>
        <time>2011-07-15T08:56:03Z</time>
      </trkpt>
      <trkpt lat="44.75658" lon="5.88697">
        <ele>895.6054688</ele>
        <time>2011-07-15T08:56:06Z</time>
      </trkpt>
      <trkpt lat="44.75696" lon="5.88707">
        <ele>892.2409668</ele>
        <time>2011-07-15T08:56:10Z</time>
      </trkpt>
      <trkpt lat="44.75766" lon="5.88706">
        <ele>890.3181152</ele>
        <time>2011-07-15T08:56:18Z</time>
      </trkpt>
      <trkpt lat="44.75782" lon="5.88707">
        <ele>890.3181152</ele>
        <time>2011-07-15T08:56:20Z</time>
      </trkpt>
      <trkpt lat="44.75809" lon="5.88722">
        <ele>890.798584</ele>
        <time>2011-07-15T08:56:24Z</time>
      </trkpt>
      <trkpt lat="44.75815" lon="5.88739">
        <ele>890.798584</ele>
        <time>2011-07-15T08:56:26Z</time>
      </trkpt>
      <trkpt lat="44.75829" lon="5.88783">
        <ele>891.7600098</ele>
        <time>2011-07-15T08:56:31Z</time>
      </trkpt>
      <trkpt lat="44.75849" lon="5.88809">
        <ele>890.798584</ele>
        <time>2011-07-15T08:56:35Z</time>
      </trkpt>
      <trkpt lat="44.7587" lon="5.88811">
        <ele>890.3181152</ele>
        <time>2011-07-15T08:56:38Z</time>
      </trkpt>
      <trkpt lat="44.75904" lon="5.88809">
        <ele>888.8762207</ele>
        <time>2011-07-15T08:56:43Z</time>
      </trkpt>
      <trkpt lat="44.75926" lon="5.8882">
        <ele>888.3955078</ele>
        <time>2011-07-15T08:56:47Z</time>
      </trkpt>
      <trkpt lat="44.7593" lon="5.88827">
        <ele>888.3955078</ele>
        <time>2011-07-15T08:56:48Z</time>
      </trkpt>
      <trkpt lat="44.75942" lon="5.88852">
        <ele>887.9147949</ele>
        <time>2011-07-15T08:56:52Z</time>
      </trkpt>
      <trkpt lat="44.7596" lon="5.88873">
        <ele>887.9147949</ele>
        <time>2011-07-15T08:56:57Z</time>
      </trkpt>
      <trkpt lat="44.7597" lon="5.88883">
        <ele>888.8762207</ele>
        <time>2011-07-15T08:57:01Z</time>
      </trkpt>
      <trkpt lat="44.75976" lon="5.88894">
        <ele>886.4729004</ele>
        <time>2011-07-15T08:57:04Z</time>
      </trkpt>
      <trkpt lat="44.75981" lon="5.88905">
        <ele>883.1081543</ele>
        <time>2011-07-15T08:57:06Z</time>
      </trkpt>
      <trkpt lat="44.7601" lon="5.88953">
        <ele>877.8210449</ele>
        <time>2011-07-15T08:57:11Z</time>
      </trkpt>
      <trkpt lat="44.7604" lon="5.89019">
        <ele>874.4562988</ele>
        <time>2011-07-15T08:57:17Z</time>
      </trkpt>
      <trkpt lat="44.7607" lon="5.89082">
        <ele>873.0144043</ele>
        <time>2011-07-15T08:57:23Z</time>
      </trkpt>
      <trkpt lat="44.7611" lon="5.89144">
        <ele>873.9755859</ele>
        <time>2011-07-15T08:57:29Z</time>
      </trkpt>
      <trkpt lat="44.76136" lon="5.89185">
        <ele>873.9755859</ele>
        <time>2011-07-15T08:57:34Z</time>
      </trkpt>
      <trkpt lat="44.76156" lon="5.89212">
        <ele>872.5336914</ele>
        <time>2011-07-15T08:57:38Z</time>
      </trkpt>
      <trkpt lat="44.76177" lon="5.8924">
        <ele>872.0529785</ele>
        <time>2011-07-15T08:57:42Z</time>
      </trkpt>
      <trkpt lat="44.76192" lon="5.89298">
        <ele>872.0529785</ele>
        <time>2011-07-15T08:57:49Z</time>
      </trkpt>
      <trkpt lat="44.76199" lon="5.89332">
        <ele>875.4174805</ele>
        <time>2011-07-15T08:57:53Z</time>
      </trkpt>
      <trkpt lat="44.76198" lon="5.89375">
        <ele>874.9370117</ele>
        <time>2011-07-15T08:57:59Z</time>
      </trkpt>
      <trkpt lat="44.76196" lon="5.89397">
        <ele>875.8981934</ele>
        <time>2011-07-15T08:58:04Z</time>
      </trkpt>
      <trkpt lat="44.76202" lon="5.89425">
        <ele>874.4562988</ele>
        <time>2011-07-15T08:58:11Z</time>
      </trkpt>
      <trkpt lat="44.76212" lon="5.89445">
        <ele>875.4174805</ele>
        <time>2011-07-15T08:58:17Z</time>
      </trkpt>
      <trkpt lat="44.76221" lon="5.89463">
        <ele>876.3791504</ele>
        <time>2011-07-15T08:58:22Z</time>
      </trkpt>
      <trkpt lat="44.76233" lon="5.89499">
        <ele>881.6662598</ele>
        <time>2011-07-15T08:58:30Z</time>
      </trkpt>
      <trkpt lat="44.76244" lon="5.89534">
        <ele>886.9533691</ele>
        <time>2011-07-15T08:58:38Z</time>
      </trkpt>
      <trkpt lat="44.76256" lon="5.89559">
        <ele>886.4729004</ele>
        <time>2011-07-15T08:58:45Z</time>
      </trkpt>
      <trkpt lat="44.76272" lon="5.89579">
        <ele>885.9921875</ele>
        <time>2011-07-15T08:58:52Z</time>
      </trkpt>
      <trkpt lat="44.76292" lon="5.89601">
        <ele>885.9921875</ele>
        <time>2011-07-15T08:59:00Z</time>
      </trkpt>
      <trkpt lat="44.76316" lon="5.89623">
        <ele>889.3566895</ele>
        <time>2011-07-15T08:59:08Z</time>
      </trkpt>
      <trkpt lat="44.76332" lon="5.89646">
        <ele>891.7600098</ele>
        <time>2011-07-15T08:59:15Z</time>
      </trkpt>
      <trkpt lat="44.76348" lon="5.89666">
        <ele>895.6054688</ele>
        <time>2011-07-15T08:59:22Z</time>
      </trkpt>
      <trkpt lat="44.76368" lon="5.89697">
        <ele>898.0087891</ele>
        <time>2011-07-15T08:59:32Z</time>
      </trkpt>
      <trkpt lat="44.76381" lon="5.89716">
        <ele>897.0473633</ele>
        <time>2011-07-15T08:59:39Z</time>
      </trkpt>
      <trkpt lat="44.76396" lon="5.89734">
        <ele>898.9699707</ele>
        <time>2011-07-15T08:59:46Z</time>
      </trkpt>
      <trkpt lat="44.76409" lon="5.89751">
        <ele>898.9699707</ele>
        <time>2011-07-15T08:59:52Z</time>
      </trkpt>
      <trkpt lat="44.76421" lon="5.89768">
        <ele>899.4506836</ele>
        <time>2011-07-15T08:59:58Z</time>
      </trkpt>
      <trkpt lat="44.76434" lon="5.89792">
        <ele>901.8540039</ele>
        <time>2011-07-15T09:00:05Z</time>
      </trkpt>
      <trkpt lat="44.76449" lon="5.89814">
        <ele>903.7766113</ele>
        <time>2011-07-15T09:00:12Z</time>
      </trkpt>
      <trkpt lat="44.76461" lon="5.89825">
        <ele>904.737793</ele>
        <time>2011-07-15T09:00:18Z</time>
      </trkpt>
      <trkpt lat="44.76476" lon="5.89843">
        <ele>906.1796875</ele>
        <time>2011-07-15T09:00:25Z</time>
      </trkpt>
      <trkpt lat="44.76484" lon="5.89864">
        <ele>907.1411133</ele>
        <time>2011-07-15T09:00:31Z</time>
      </trkpt>
      <trkpt lat="44.76487" lon="5.89898">
        <ele>907.6218262</ele>
        <time>2011-07-15T09:00:40Z</time>
      </trkpt>
      <trkpt lat="44.76489" lon="5.89931">
        <ele>907.6218262</ele>
        <time>2011-07-15T09:00:48Z</time>
      </trkpt>
      <trkpt lat="44.76493" lon="5.89967">
        <ele>907.1411133</ele>
        <time>2011-07-15T09:00:57Z</time>
      </trkpt>
      <trkpt lat="44.765" lon="5.90001">
        <ele>910.5058594</ele>
        <time>2011-07-15T09:01:05Z</time>
      </trkpt>
      <trkpt lat="44.76511" lon="5.90039">
        <ele>915.3125</ele>
        <time>2011-07-15T09:01:14Z</time>
      </trkpt>
      <trkpt lat="44.76519" lon="5.90081">
        <ele>917.7155762</ele>
        <time>2011-07-15T09:01:24Z</time>
      </trkpt>
      <trkpt lat="44.76533" lon="5.90121">
        <ele>923.0029297</ele>
        <time>2011-07-15T09:01:33Z</time>
      </trkpt>
      <trkpt lat="44.76549" lon="5.90158">
        <ele>924.4450684</ele>
        <time>2011-07-15T09:01:42Z</time>
      </trkpt>
      <trkpt lat="44.76566" lon="5.90188">
        <ele>923.0029297</ele>
        <time>2011-07-15T09:01:51Z</time>
      </trkpt>
      <trkpt lat="44.76578" lon="5.90212">
        <ele>923.0029297</ele>
        <time>2011-07-15T09:01:58Z</time>
      </trkpt>
      <trkpt lat="44.76589" lon="5.90246">
        <ele>923.9641113</ele>
        <time>2011-07-15T09:02:06Z</time>
      </trkpt>
      <trkpt lat="44.76588" lon="5.90277">
        <ele>927.3291016</ele>
        <time>2011-07-15T09:02:12Z</time>
      </trkpt>
      <trkpt lat="44.76592" lon="5.90307">
        <ele>930.6936035</ele>
        <time>2011-07-15T09:02:17Z</time>
      </trkpt>
      <trkpt lat="44.76598" lon="5.90319">
        <ele>930.6936035</ele>
        <time>2011-07-15T09:02:20Z</time>
      </trkpt>
      <trkpt lat="44.76617" lon="5.90316">
        <ele>929.2514648</ele>
        <time>2011-07-15T09:02:24Z</time>
      </trkpt>
      <trkpt lat="44.76622" lon="5.90314">
        <ele>929.2514648</ele>
        <time>2011-07-15T09:02:25Z</time>
      </trkpt>
      <trkpt lat="44.76645" lon="5.90322">
        <ele>926.8483887</ele>
        <time>2011-07-15T09:02:30Z</time>
      </trkpt>
      <trkpt lat="44.76652" lon="5.90338">
        <ele>925.40625</ele>
        <time>2011-07-15T09:02:32Z</time>
      </trkpt>
      <trkpt lat="44.76664" lon="5.90358">
        <ele>927.3291016</ele>
        <time>2011-07-15T09:02:35Z</time>
      </trkpt>
      <trkpt lat="44.76689" lon="5.90373">
        <ele>927.3291016</ele>
        <time>2011-07-15T09:02:39Z</time>
      </trkpt>
      <trkpt lat="44.7673" lon="5.90392">
        <ele>925.8869629</ele>
        <time>2011-07-15T09:02:45Z</time>
      </trkpt>
      <trkpt lat="44.76743" lon="5.904">
        <ele>924.4450684</ele>
        <time>2011-07-15T09:02:47Z</time>
      </trkpt>
      <trkpt lat="44.76763" lon="5.90421">
        <ele>923.0029297</ele>
        <time>2011-07-15T09:02:51Z</time>
      </trkpt>
      <trkpt lat="44.7678" lon="5.90454">
        <ele>921.560791</ele>
        <time>2011-07-15T09:02:55Z</time>
      </trkpt>
      <trkpt lat="44.76807" lon="5.90535">
        <ele>921.0803223</ele>
        <time>2011-07-15T09:03:04Z</time>
      </trkpt>
      <trkpt lat="44.76817" lon="5.90588">
        <ele>919.6384277</ele>
        <time>2011-07-15T09:03:10Z</time>
      </trkpt>
      <trkpt lat="44.76829" lon="5.90634">
        <ele>918.677002</ele>
        <time>2011-07-15T09:03:16Z</time>
      </trkpt>
      <trkpt lat="44.76834" lon="5.90647">
        <ele>918.1962891</ele>
        <time>2011-07-15T09:03:18Z</time>
      </trkpt>
      <trkpt lat="44.76854" lon="5.90698">
        <ele>918.677002</ele>
        <time>2011-07-15T09:03:27Z</time>
      </trkpt>
      <trkpt lat="44.76865" lon="5.90734">
        <ele>918.1962891</ele>
        <time>2011-07-15T09:03:34Z</time>
      </trkpt>
      <trkpt lat="44.76883" lon="5.90782">
        <ele>922.5222168</ele>
        <time>2011-07-15T09:03:43Z</time>
      </trkpt>
      <trkpt lat="44.76886" lon="5.90795">
        <ele>923.4836426</ele>
        <time>2011-07-15T09:03:45Z</time>
      </trkpt>
      <trkpt lat="44.76885" lon="5.90839">
        <ele>923.9641113</ele>
        <time>2011-07-15T09:03:51Z</time>
      </trkpt>
      <trkpt lat="44.76897" lon="5.90867">
        <ele>924.4450684</ele>
        <time>2011-07-15T09:03:55Z</time>
      </trkpt>
      <trkpt lat="44.76915" lon="5.90894">
        <ele>922.0415039</ele>
        <time>2011-07-15T09:03:59Z</time>
      </trkpt>
      <trkpt lat="44.76937" lon="5.90896">
        <ele>919.1577148</ele>
        <time>2011-07-15T09:04:03Z</time>
      </trkpt>
      <trkpt lat="44.76966" lon="5.9089">
        <ele>916.2736816</ele>
        <time>2011-07-15T09:04:07Z</time>
      </trkpt>
      <trkpt lat="44.76987" lon="5.90911">
        <ele>912.9091797</ele>
        <time>2011-07-15T09:04:10Z</time>
      </trkpt>
      <trkpt lat="44.76993" lon="5.9092">
        <ele>912.4284668</ele>
        <time>2011-07-15T09:04:11Z</time>
      </trkpt>
      <trkpt lat="44.77015" lon="5.90985">
        <ele>907.1411133</ele>
        <time>2011-07-15T09:04:17Z</time>
      </trkpt>
      <trkpt lat="44.77046" lon="5.91048">
        <ele>903.2958984</ele>
        <time>2011-07-15T09:04:23Z</time>
      </trkpt>
      <trkpt lat="44.7705" lon="5.91061">
        <ele>902.8151855</ele>
        <time>2011-07-15T09:04:24Z</time>
      </trkpt>
      <trkpt lat="44.77065" lon="5.91139">
        <ele>899.4506836</ele>
        <time>2011-07-15T09:04:30Z</time>
      </trkpt>
      <trkpt lat="44.77067" lon="5.91151">
        <ele>899.4506836</ele>
        <time>2011-07-15T09:04:31Z</time>
      </trkpt>
      <trkpt lat="44.77093" lon="5.91203">
        <ele>899.4506836</ele>
        <time>2011-07-15T09:04:36Z</time>
      </trkpt>
      <trkpt lat="44.7712" lon="5.91253">
        <ele>899.9313965</ele>
        <time>2011-07-15T09:04:42Z</time>
      </trkpt>
      <trkpt lat="44.77133" lon="5.91287">
        <ele>898.9699707</ele>
        <time>2011-07-15T09:04:46Z</time>
      </trkpt>
      <trkpt lat="44.77137" lon="5.91338">
        <ele>897.5280762</ele>
        <time>2011-07-15T09:04:51Z</time>
      </trkpt>
      <trkpt lat="44.77134" lon="5.91364">
        <ele>897.5280762</ele>
        <time>2011-07-15T09:04:54Z</time>
      </trkpt>
      <trkpt lat="44.77131" lon="5.91376">
        <ele>898.4892578</ele>
        <time>2011-07-15T09:04:56Z</time>
      </trkpt>
      <trkpt lat="44.77129" lon="5.91387">
        <ele>898.4892578</ele>
        <time>2011-07-15T09:04:58Z</time>
      </trkpt>
      <trkpt lat="44.77121" lon="5.91424">
        <ele>899.4506836</ele>
        <time>2011-07-15T09:05:05Z</time>
      </trkpt>
      <trkpt lat="44.77109" lon="5.91457">
        <ele>900.4121094</ele>
        <time>2011-07-15T09:05:12Z</time>
      </trkpt>
      <trkpt lat="44.77101" lon="5.91493">
        <ele>901.8540039</ele>
        <time>2011-07-15T09:05:18Z</time>
      </trkpt>
      <trkpt lat="44.77096" lon="5.91537">
        <ele>903.2958984</ele>
        <time>2011-07-15T09:05:25Z</time>
      </trkpt>
      <trkpt lat="44.77095" lon="5.91544">
        <ele>903.2958984</ele>
        <time>2011-07-15T09:05:26Z</time>
      </trkpt>
      <trkpt lat="44.77102" lon="5.91582">
        <ele>905.2185059</ele>
        <time>2011-07-15T09:05:32Z</time>
      </trkpt>
      <trkpt lat="44.77115" lon="5.91596">
        <ele>906.6604004</ele>
        <time>2011-07-15T09:05:36Z</time>
      </trkpt>
      <trkpt lat="44.77123" lon="5.916">
        <ele>907.1411133</ele>
        <time>2011-07-15T09:05:38Z</time>
      </trkpt>
      <trkpt lat="44.77148" lon="5.91611">
        <ele>909.0639648</ele>
        <time>2011-07-15T09:05:46Z</time>
      </trkpt>
      <trkpt lat="44.77169" lon="5.9162">
        <ele>910.9865723</ele>
        <time>2011-07-15T09:05:52Z</time>
      </trkpt>
      <trkpt lat="44.77196" lon="5.91629">
        <ele>913.3898926</ele>
        <time>2011-07-15T09:06:00Z</time>
      </trkpt>
      <trkpt lat="44.77222" lon="5.91636">
        <ele>913.8703613</ele>
        <time>2011-07-15T09:06:07Z</time>
      </trkpt>
      <trkpt lat="44.77251" lon="5.91641">
        <ele>915.3125</ele>
        <time>2011-07-15T09:06:14Z</time>
      </trkpt>
      <trkpt lat="44.77273" lon="5.91642">
        <ele>916.2736816</ele>
        <time>2011-07-15T09:06:20Z</time>
      </trkpt>
      <trkpt lat="44.77299" lon="5.91651">
        <ele>918.677002</ele>
        <time>2011-07-15T09:06:27Z</time>
      </trkpt>
      <trkpt lat="44.77315" lon="5.9167">
        <ele>918.677002</ele>
        <time>2011-07-15T09:06:33Z</time>
      </trkpt>
      <trkpt lat="44.77326" lon="5.91696">
        <ele>921.0803223</ele>
        <time>2011-07-15T09:06:39Z</time>
      </trkpt>
      <trkpt lat="44.77336" lon="5.91738">
        <ele>924.4450684</ele>
        <time>2011-07-15T09:06:48Z</time>
      </trkpt>
      <trkpt lat="44.77341" lon="5.91764">
        <ele>926.3676758</ele>
        <time>2011-07-15T09:06:54Z</time>
      </trkpt>
      <trkpt lat="44.77351" lon="5.9179">
        <ele>927.8095703</ele>
        <time>2011-07-15T09:07:00Z</time>
      </trkpt>
      <trkpt lat="44.77362" lon="5.91811">
        <ele>927.3291016</ele>
        <time>2011-07-15T09:07:06Z</time>
      </trkpt>
      <trkpt lat="44.77372" lon="5.91839">
        <ele>927.8095703</ele>
        <time>2011-07-15T09:07:14Z</time>
      </trkpt>
      <trkpt lat="44.77376" lon="5.91868">
        <ele>928.2902832</ele>
        <time>2011-07-15T09:07:21Z</time>
      </trkpt>
      <trkpt lat="44.77383" lon="5.91886">
        <ele>928.7709961</ele>
        <time>2011-07-15T09:07:26Z</time>
      </trkpt>
      <trkpt lat="44.77402" lon="5.91906">
        <ele>930.6936035</ele>
        <time>2011-07-15T09:07:33Z</time>
      </trkpt>
      <trkpt lat="44.77422" lon="5.91928">
        <ele>931.6547852</ele>
        <time>2011-07-15T09:07:41Z</time>
      </trkpt>
      <trkpt lat="44.77438" lon="5.91949">
        <ele>933.5773926</ele>
        <time>2011-07-15T09:07:48Z</time>
      </trkpt>
      <trkpt lat="44.77438" lon="5.91971">
        <ele>935.0195313</ele>
        <time>2011-07-15T09:07:53Z</time>
      </trkpt>
      <trkpt lat="44.77427" lon="5.92004">
        <ele>935.5</ele>
        <time>2011-07-15T09:08:01Z</time>
      </trkpt>
      <trkpt lat="44.77422" lon="5.92034">
        <ele>940.3068848</ele>
        <time>2011-07-15T09:08:08Z</time>
      </trkpt>
      <trkpt lat="44.77427" lon="5.92055">
        <ele>945.5939941</ele>
        <time>2011-07-15T09:08:13Z</time>
      </trkpt>
      <trkpt lat="44.77433" lon="5.92072">
        <ele>944.1520996</ele>
        <time>2011-07-15T09:08:19Z</time>
      </trkpt>
      <trkpt lat="44.77442" lon="5.92082">
        <ele>943.1906738</ele>
        <time>2011-07-15T09:08:24Z</time>
      </trkpt>
      <trkpt lat="44.77456" lon="5.92101">
        <ele>943.1906738</ele>
        <time>2011-07-15T09:08:31Z</time>
      </trkpt>
      <trkpt lat="44.77475" lon="5.92122">
        <ele>943.1906738</ele>
        <time>2011-07-15T09:08:39Z</time>
      </trkpt>
      <trkpt lat="44.77492" lon="5.92144">
        <ele>944.1520996</ele>
        <time>2011-07-15T09:08:46Z</time>
      </trkpt>
      <trkpt lat="44.77506" lon="5.92166">
        <ele>944.6325684</ele>
        <time>2011-07-15T09:08:53Z</time>
      </trkpt>
      <trkpt lat="44.77523" lon="5.92169">
        <ele>944.6325684</ele>
        <time>2011-07-15T09:08:58Z</time>
      </trkpt>
      <trkpt lat="44.77545" lon="5.92169">
        <ele>945.1132813</ele>
        <time>2011-07-15T09:09:04Z</time>
      </trkpt>
      <trkpt lat="44.77566" lon="5.92175">
        <ele>946.5554199</ele>
        <time>2011-07-15T09:09:10Z</time>
      </trkpt>
      <trkpt lat="44.77578" lon="5.92178">
        <ele>947.0358887</ele>
        <time>2011-07-15T09:09:15Z</time>
      </trkpt>
      <trkpt lat="44.77595" lon="5.92178">
        <ele>947.9973145</ele>
        <time>2011-07-15T09:09:20Z</time>
      </trkpt>
      <trkpt lat="44.77618" lon="5.9218">
        <ele>948.9584961</ele>
        <time>2011-07-15T09:09:27Z</time>
      </trkpt>
      <trkpt lat="44.77641" lon="5.92184">
        <ele>950.8811035</ele>
        <time>2011-07-15T09:09:34Z</time>
      </trkpt>
      <trkpt lat="44.77658" lon="5.92182">
        <ele>953.2844238</ele>
        <time>2011-07-15T09:09:39Z</time>
      </trkpt>
      <trkpt lat="44.7768" lon="5.92188">
        <ele>954.7263184</ele>
        <time>2011-07-15T09:09:45Z</time>
      </trkpt>
      <trkpt lat="44.77695" lon="5.92205">
        <ele>954.7263184</ele>
        <time>2011-07-15T09:09:51Z</time>
      </trkpt>
      <trkpt lat="44.77702" lon="5.92228">
        <ele>954.7263184</ele>
        <time>2011-07-15T09:09:57Z</time>
      </trkpt>
      <trkpt lat="44.77706" lon="5.92259">
        <ele>955.6877441</ele>
        <time>2011-07-15T09:10:04Z</time>
      </trkpt>
      <trkpt lat="44.77706" lon="5.92281">
        <ele>956.6491699</ele>
        <time>2011-07-15T09:10:09Z</time>
      </trkpt>
      <trkpt lat="44.77704" lon="5.92321">
        <ele>958.5717773</ele>
        <time>2011-07-15T09:10:17Z</time>
      </trkpt>
      <trkpt lat="44.77703" lon="5.92359">
        <ele>959.0524902</ele>
        <time>2011-07-15T09:10:25Z</time>
      </trkpt>
      <trkpt lat="44.77701" lon="5.92386">
        <ele>960.0136719</ele>
        <time>2011-07-15T09:10:31Z</time>
      </trkpt>
      <trkpt lat="44.77697" lon="5.92418">
        <ele>960.9750977</ele>
        <time>2011-07-15T09:10:38Z</time>
      </trkpt>
      <trkpt lat="44.77689" lon="5.92449">
        <ele>961.4558105</ele>
        <time>2011-07-15T09:10:45Z</time>
      </trkpt>
      <trkpt lat="44.7768" lon="5.92485">
        <ele>961.9365234</ele>
        <time>2011-07-15T09:10:53Z</time>
      </trkpt>
      <trkpt lat="44.7768" lon="5.92513">
        <ele>963.378418</ele>
        <time>2011-07-15T09:10:59Z</time>
      </trkpt>
      <trkpt lat="44.7769" lon="5.9253">
        <ele>963.8588867</ele>
        <time>2011-07-15T09:11:04Z</time>
      </trkpt>
      <trkpt lat="44.77703" lon="5.92533">
        <ele>964.3395996</ele>
        <time>2011-07-15T09:11:08Z</time>
      </trkpt>
      <trkpt lat="44.77718" lon="5.92544">
        <ele>964.3395996</ele>
        <time>2011-07-15T09:11:13Z</time>
      </trkpt>
      <trkpt lat="44.77722" lon="5.92564">
        <ele>963.378418</ele>
        <time>2011-07-15T09:11:17Z</time>
      </trkpt>
      <trkpt lat="44.77718" lon="5.92592">
        <ele>963.378418</ele>
        <time>2011-07-15T09:11:22Z</time>
      </trkpt>
      <trkpt lat="44.77718" lon="5.92624">
        <ele>961.9365234</ele>
        <time>2011-07-15T09:11:28Z</time>
      </trkpt>
      <trkpt lat="44.77729" lon="5.92637">
        <ele>961.9365234</ele>
        <time>2011-07-15T09:11:31Z</time>
      </trkpt>
      <trkpt lat="44.77746" lon="5.9265">
        <ele>962.4169922</ele>
        <time>2011-07-15T09:11:35Z</time>
      </trkpt>
      <trkpt lat="44.77766" lon="5.92656">
        <ele>963.8588867</ele>
        <time>2011-07-15T09:11:40Z</time>
      </trkpt>
      <trkpt lat="44.77769" lon="5.92655">
        <ele>963.8588867</ele>
        <time>2011-07-15T09:11:41Z</time>
      </trkpt>
      <trkpt lat="44.77791" lon="5.92642">
        <ele>961.9365234</ele>
        <time>2011-07-15T09:11:48Z</time>
      </trkpt>
      <trkpt lat="44.77819" lon="5.92623">
        <ele>960.0136719</ele>
        <time>2011-07-15T09:11:53Z</time>
      </trkpt>
      <trkpt lat="44.7783" lon="5.92613">
        <ele>959.5332031</ele>
        <time>2011-07-15T09:11:55Z</time>
      </trkpt>
      <trkpt lat="44.77858" lon="5.92603">
        <ele>959.0524902</ele>
        <time>2011-07-15T09:12:00Z</time>
      </trkpt>
      <trkpt lat="44.7787" lon="5.92614">
        <ele>958.5717773</ele>
        <time>2011-07-15T09:12:03Z</time>
      </trkpt>
      <trkpt lat="44.77873" lon="5.92629">
        <ele>958.0913086</ele>
        <time>2011-07-15T09:12:05Z</time>
      </trkpt>
      <trkpt lat="44.77875" lon="5.92656">
        <ele>956.6491699</ele>
        <time>2011-07-15T09:12:08Z</time>
      </trkpt>
      <trkpt lat="44.77869" lon="5.92717">
        <ele>954.2458496</ele>
        <time>2011-07-15T09:12:14Z</time>
      </trkpt>
      <trkpt lat="44.77868" lon="5.92772">
        <ele>952.322998</ele>
        <time>2011-07-15T09:12:19Z</time>
      </trkpt>
      <trkpt lat="44.77863" lon="5.92816">
        <ele>949.9199219</ele>
        <time>2011-07-15T09:12:23Z</time>
      </trkpt>
      <trkpt lat="44.77862" lon="5.92832">
        <ele>948.4777832</ele>
        <time>2011-07-15T09:12:25Z</time>
      </trkpt>
      <trkpt lat="44.77871" lon="5.92863">
        <ele>946.5554199</ele>
        <time>2011-07-15T09:12:29Z</time>
      </trkpt>
      <trkpt lat="44.77887" lon="5.92883">
        <ele>944.6325684</ele>
        <time>2011-07-15T09:12:33Z</time>
      </trkpt>
      <trkpt lat="44.77896" lon="5.92881">
        <ele>942.7102051</ele>
        <time>2011-07-15T09:12:35Z</time>
      </trkpt>
      <trkpt lat="44.77908" lon="5.92876">
        <ele>941.7487793</ele>
        <time>2011-07-15T09:12:37Z</time>
      </trkpt>
      <trkpt lat="44.77944" lon="5.92868">
        <ele>938.8647461</ele>
        <time>2011-07-15T09:12:42Z</time>
      </trkpt>
      <trkpt lat="44.77972" lon="5.92853">
        <ele>937.4226074</ele>
        <time>2011-07-15T09:12:46Z</time>
      </trkpt>
      <trkpt lat="44.78002" lon="5.92829">
        <ele>934.0581055</ele>
        <time>2011-07-15T09:12:50Z</time>
      </trkpt>
      <trkpt lat="44.78053" lon="5.92782">
        <ele>928.7709961</ele>
        <time>2011-07-15T09:12:56Z</time>
      </trkpt>
      <trkpt lat="44.78094" lon="5.92739">
        <ele>924.9257813</ele>
        <time>2011-07-15T09:13:01Z</time>
      </trkpt>
      <trkpt lat="44.78118" lon="5.92733">
        <ele>923.0029297</ele>
        <time>2011-07-15T09:13:05Z</time>
      </trkpt>
      <trkpt lat="44.78124" lon="5.92738">
        <ele>922.5222168</ele>
        <time>2011-07-15T09:13:06Z</time>
      </trkpt>
      <trkpt lat="44.78168" lon="5.92794">
        <ele>919.1577148</ele>
        <time>2011-07-15T09:13:13Z</time>
      </trkpt>
      <trkpt lat="44.78178" lon="5.92805">
        <ele>919.1577148</ele>
        <time>2011-07-15T09:13:14Z</time>
      </trkpt>
      <trkpt lat="44.78199" lon="5.92847">
        <ele>917.2351074</ele>
        <time>2011-07-15T09:13:18Z</time>
      </trkpt>
      <trkpt lat="44.78215" lon="5.92861">
        <ele>915.7932129</ele>
        <time>2011-07-15T09:13:21Z</time>
      </trkpt>
      <trkpt lat="44.78228" lon="5.92848">
        <ele>914.8317871</ele>
        <time>2011-07-15T09:13:23Z</time>
      </trkpt>
      <trkpt lat="44.78233" lon="5.9283">
        <ele>914.3510742</ele>
        <time>2011-07-15T09:13:25Z</time>
      </trkpt>
      <trkpt lat="44.78249" lon="5.92754">
        <ele>913.3898926</ele>
        <time>2011-07-15T09:13:33Z</time>
      </trkpt>
      <trkpt lat="44.78259" lon="5.92686">
        <ele>914.3510742</ele>
        <time>2011-07-15T09:13:41Z</time>
      </trkpt>
      <trkpt lat="44.78269" lon="5.92646">
        <ele>914.3510742</ele>
        <time>2011-07-15T09:13:47Z</time>
      </trkpt>
      <trkpt lat="44.78285" lon="5.92594">
        <ele>913.8703613</ele>
        <time>2011-07-15T09:13:56Z</time>
      </trkpt>
      <trkpt lat="44.78296" lon="5.9256">
        <ele>913.3898926</ele>
        <time>2011-07-15T09:14:02Z</time>
      </trkpt>
      <trkpt lat="44.78305" lon="5.92546">
        <ele>913.8703613</ele>
        <time>2011-07-15T09:14:05Z</time>
      </trkpt>
      <trkpt lat="44.78334" lon="5.92523">
        <ele>917.2351074</ele>
        <time>2011-07-15T09:14:13Z</time>
      </trkpt>
      <trkpt lat="44.78359" lon="5.9251">
        <ele>919.1577148</ele>
        <time>2011-07-15T09:14:20Z</time>
      </trkpt>
      <trkpt lat="44.78387" lon="5.925">
        <ele>921.560791</ele>
        <time>2011-07-15T09:14:28Z</time>
      </trkpt>
      <trkpt lat="44.78413" lon="5.92493">
        <ele>923.4836426</ele>
        <time>2011-07-15T09:14:35Z</time>
      </trkpt>
      <trkpt lat="44.7845" lon="5.92488">
        <ele>925.8869629</ele>
        <time>2011-07-15T09:14:45Z</time>
      </trkpt>
      <trkpt lat="44.78475" lon="5.92491">
        <ele>926.8483887</ele>
        <time>2011-07-15T09:14:52Z</time>
      </trkpt>
      <trkpt lat="44.78496" lon="5.92494">
        <ele>928.2902832</ele>
        <time>2011-07-15T09:14:58Z</time>
      </trkpt>
      <trkpt lat="44.78523" lon="5.92497">
        <ele>929.2514648</ele>
        <time>2011-07-15T09:15:05Z</time>
      </trkpt>
      <trkpt lat="44.78555" lon="5.92501">
        <ele>930.6936035</ele>
        <time>2011-07-15T09:15:13Z</time>
      </trkpt>
      <trkpt lat="44.7859" lon="5.92508">
        <ele>932.135498</ele>
        <time>2011-07-15T09:15:22Z</time>
      </trkpt>
      <trkpt lat="44.7862" lon="5.92517">
        <ele>934.0581055</ele>
        <time>2011-07-15T09:15:30Z</time>
      </trkpt>
      <trkpt lat="44.78646" lon="5.92527">
        <ele>936.9418945</ele>
        <time>2011-07-15T09:15:37Z</time>
      </trkpt>
      <trkpt lat="44.78668" lon="5.92539">
        <ele>936.9418945</ele>
        <time>2011-07-15T09:15:44Z</time>
      </trkpt>
      <trkpt lat="44.7869" lon="5.92554">
        <ele>936.9418945</ele>
        <time>2011-07-15T09:15:50Z</time>
      </trkpt>
      <trkpt lat="44.78713" lon="5.92575">
        <ele>938.3840332</ele>
        <time>2011-07-15T09:15:57Z</time>
      </trkpt>
      <trkpt lat="44.78734" lon="5.92604">
        <ele>939.8259277</ele>
        <time>2011-07-15T09:16:04Z</time>
      </trkpt>
      <trkpt lat="44.78742" lon="5.92624">
        <ele>940.7873535</ele>
        <time>2011-07-15T09:16:08Z</time>
      </trkpt>
      <trkpt lat="44.78748" lon="5.92644">
        <ele>941.2680664</ele>
        <time>2011-07-15T09:16:12Z</time>
      </trkpt>
      <trkpt lat="44.78753" lon="5.92677">
        <ele>941.7487793</ele>
        <time>2011-07-15T09:16:18Z</time>
      </trkpt>
      <trkpt lat="44.78758" lon="5.92711">
        <ele>941.7487793</ele>
        <time>2011-07-15T09:16:24Z</time>
      </trkpt>
      <trkpt lat="44.78758" lon="5.92717">
        <ele>941.2680664</ele>
        <time>2011-07-15T09:16:25Z</time>
      </trkpt>
      <trkpt lat="44.78764" lon="5.92744">
        <ele>941.7487793</ele>
        <time>2011-07-15T09:16:30Z</time>
      </trkpt>
      <trkpt lat="44.78764" lon="5.92768">
        <ele>941.7487793</ele>
        <time>2011-07-15T09:16:34Z</time>
      </trkpt>
      <trkpt lat="44.78764" lon="5.92791">
        <ele>942.7102051</ele>
        <time>2011-07-15T09:16:38Z</time>
      </trkpt>
      <trkpt lat="44.78776" lon="5.92816">
        <ele>944.6325684</ele>
        <time>2011-07-15T09:16:43Z</time>
      </trkpt>
      <trkpt lat="44.78792" lon="5.92824">
        <ele>945.1132813</ele>
        <time>2011-07-15T09:16:47Z</time>
      </trkpt>
      <trkpt lat="44.7882" lon="5.92813">
        <ele>943.6713867</ele>
        <time>2011-07-15T09:16:53Z</time>
      </trkpt>
      <trkpt lat="44.78857" lon="5.92786">
        <ele>943.1906738</ele>
        <time>2011-07-15T09:17:00Z</time>
      </trkpt>
      <trkpt lat="44.78873" lon="5.92772">
        <ele>942.2294922</ele>
        <time>2011-07-15T09:17:03Z</time>
      </trkpt>
      <trkpt lat="44.78893" lon="5.92747">
        <ele>942.7102051</ele>
        <time>2011-07-15T09:17:07Z</time>
      </trkpt>
      <trkpt lat="44.78917" lon="5.92731">
        <ele>942.2294922</ele>
        <time>2011-07-15T09:17:11Z</time>
      </trkpt>
      <trkpt lat="44.78957" lon="5.92716">
        <ele>940.7873535</ele>
        <time>2011-07-15T09:17:17Z</time>
      </trkpt>
      <trkpt lat="44.78985" lon="5.92719">
        <ele>939.8259277</ele>
        <time>2011-07-15T09:17:21Z</time>
      </trkpt>
      <trkpt lat="44.79019" lon="5.92718">
        <ele>938.8647461</ele>
        <time>2011-07-15T09:17:26Z</time>
      </trkpt>
      <trkpt lat="44.79064" lon="5.92723">
        <ele>937.9033203</ele>
        <time>2011-07-15T09:17:32Z</time>
      </trkpt>
      <trkpt lat="44.79138" lon="5.92733">
        <ele>935.5</ele>
        <time>2011-07-15T09:17:42Z</time>
      </trkpt>
      <trkpt lat="44.79186" lon="5.92738">
        <ele>935.9807129</ele>
        <time>2011-07-15T09:17:49Z</time>
      </trkpt>
      <trkpt lat="44.79219" lon="5.92753">
        <ele>935.9807129</ele>
        <time>2011-07-15T09:17:54Z</time>
      </trkpt>
      <trkpt lat="44.79253" lon="5.9277">
        <ele>934.5388184</ele>
        <time>2011-07-15T09:17:59Z</time>
      </trkpt>
      <trkpt lat="44.79276" lon="5.9279">
        <ele>933.0966797</ele>
        <time>2011-07-15T09:18:03Z</time>
      </trkpt>
      <trkpt lat="44.79301" lon="5.92794">
        <ele>933.0966797</ele>
        <time>2011-07-15T09:18:07Z</time>
      </trkpt>
      <trkpt lat="44.79321" lon="5.92786">
        <ele>933.0966797</ele>
        <time>2011-07-15T09:18:10Z</time>
      </trkpt>
      <trkpt lat="44.79369" lon="5.92783">
        <ele>932.6162109</ele>
        <time>2011-07-15T09:18:17Z</time>
      </trkpt>
      <trkpt lat="44.79423" lon="5.92777">
        <ele>931.6547852</ele>
        <time>2011-07-15T09:18:25Z</time>
      </trkpt>
      <trkpt lat="44.79463" lon="5.92772">
        <ele>929.7321777</ele>
        <time>2011-07-15T09:18:31Z</time>
      </trkpt>
      <trkpt lat="44.79509" lon="5.92769">
        <ele>928.7709961</ele>
        <time>2011-07-15T09:18:38Z</time>
      </trkpt>
      <trkpt lat="44.79546" lon="5.92781">
        <ele>928.2902832</ele>
        <time>2011-07-15T09:18:44Z</time>
      </trkpt>
      <trkpt lat="44.79587" lon="5.92806">
        <ele>928.2902832</ele>
        <time>2011-07-15T09:18:51Z</time>
      </trkpt>
      <trkpt lat="44.79639" lon="5.92844">
        <ele>927.8095703</ele>
        <time>2011-07-15T09:19:00Z</time>
      </trkpt>
      <trkpt lat="44.79688" lon="5.9289">
        <ele>926.8483887</ele>
        <time>2011-07-15T09:19:09Z</time>
      </trkpt>
      <trkpt lat="44.7973" lon="5.92926">
        <ele>925.40625</ele>
        <time>2011-07-15T09:19:16Z</time>
      </trkpt>
      <trkpt lat="44.79779" lon="5.92949">
        <ele>925.40625</ele>
        <time>2011-07-15T09:19:23Z</time>
      </trkpt>
      <trkpt lat="44.79831" lon="5.92971">
        <ele>925.40625</ele>
        <time>2011-07-15T09:19:31Z</time>
      </trkpt>
      <trkpt lat="44.7988" lon="5.92986">
        <ele>924.4450684</ele>
        <time>2011-07-15T09:19:39Z</time>
      </trkpt>
      <trkpt lat="44.7992" lon="5.93004">
        <ele>923.9641113</ele>
        <time>2011-07-15T09:19:46Z</time>
      </trkpt>
      <trkpt lat="44.79967" lon="5.93026">
        <ele>922.0415039</ele>
        <time>2011-07-15T09:19:54Z</time>
      </trkpt>
      <trkpt lat="44.80016" lon="5.93045">
        <ele>920.1188965</ele>
        <time>2011-07-15T09:20:02Z</time>
      </trkpt>
      <trkpt lat="44.80067" lon="5.93064">
        <ele>918.1962891</ele>
        <time>2011-07-15T09:20:10Z</time>
      </trkpt>
      <trkpt lat="44.80116" lon="5.93081">
        <ele>916.7543945</ele>
        <time>2011-07-15T09:20:18Z</time>
      </trkpt>
      <trkpt lat="44.80152" lon="5.93098">
        <ele>915.7932129</ele>
        <time>2011-07-15T09:20:24Z</time>
      </trkpt>
      <trkpt lat="44.8019" lon="5.93102">
        <ele>914.3510742</ele>
        <time>2011-07-15T09:20:30Z</time>
      </trkpt>
      <trkpt lat="44.80247" lon="5.93093">
        <ele>912.9091797</ele>
        <time>2011-07-15T09:20:39Z</time>
      </trkpt>
      <trkpt lat="44.80283" lon="5.93075">
        <ele>911.4672852</ele>
        <time>2011-07-15T09:20:45Z</time>
      </trkpt>
      <trkpt lat="44.80313" lon="5.93042">
        <ele>910.5058594</ele>
        <time>2011-07-15T09:20:51Z</time>
      </trkpt>
      <trkpt lat="44.80332" lon="5.93007">
        <ele>910.0251465</ele>
        <time>2011-07-15T09:20:56Z</time>
      </trkpt>
      <trkpt lat="44.8035" lon="5.92956">
        <ele>909.5446777</ele>
        <time>2011-07-15T09:21:02Z</time>
      </trkpt>
      <trkpt lat="44.80357" lon="5.9293">
        <ele>909.0639648</ele>
        <time>2011-07-15T09:21:05Z</time>
      </trkpt>
      <trkpt lat="44.80379" lon="5.92897">
        <ele>908.583252</ele>
        <time>2011-07-15T09:21:10Z</time>
      </trkpt>
      <trkpt lat="44.80399" lon="5.92891">
        <ele>908.1027832</ele>
        <time>2011-07-15T09:21:13Z</time>
      </trkpt>
      <trkpt lat="44.80439" lon="5.9289">
        <ele>906.6604004</ele>
        <time>2011-07-15T09:21:19Z</time>
      </trkpt>
      <trkpt lat="44.80467" lon="5.92905">
        <ele>905.2185059</ele>
        <time>2011-07-15T09:21:24Z</time>
      </trkpt>
      <trkpt lat="44.80475" lon="5.92931">
        <ele>904.737793</ele>
        <time>2011-07-15T09:21:27Z</time>
      </trkpt>
      <trkpt lat="44.80476" lon="5.9294">
        <ele>904.737793</ele>
        <time>2011-07-15T09:21:28Z</time>
      </trkpt>
      <trkpt lat="44.80485" lon="5.92984">
        <ele>904.737793</ele>
        <time>2011-07-15T09:21:33Z</time>
      </trkpt>
      <trkpt lat="44.80507" lon="5.93024">
        <ele>904.737793</ele>
        <time>2011-07-15T09:21:39Z</time>
      </trkpt>
      <trkpt lat="44.80519" lon="5.9303">
        <ele>905.2185059</ele>
        <time>2011-07-15T09:21:41Z</time>
      </trkpt>
      <trkpt lat="44.80531" lon="5.93032">
        <ele>905.6992188</ele>
        <time>2011-07-15T09:21:43Z</time>
      </trkpt>
      <trkpt lat="44.80542" lon="5.93045">
        <ele>907.6218262</ele>
        <time>2011-07-15T09:21:47Z</time>
      </trkpt>
      <trkpt lat="44.80542" lon="5.93053">
        <ele>908.1027832</ele>
        <time>2011-07-15T09:21:49Z</time>
      </trkpt>
      <trkpt lat="44.80543" lon="5.93062">
        <ele>909.0639648</ele>
        <time>2011-07-15T09:21:51Z</time>
      </trkpt>
      <trkpt lat="44.80539" lon="5.93089">
        <ele>910.0251465</ele>
        <time>2011-07-15T09:21:56Z</time>
      </trkpt>
      <trkpt lat="44.8053" lon="5.93108">
        <ele>910.5058594</ele>
        <time>2011-07-15T09:22:01Z</time>
      </trkpt>
      <trkpt lat="44.80526" lon="5.93116">
        <ele>910.9865723</ele>
        <time>2011-07-15T09:22:07Z</time>
      </trkpt>
      <trkpt lat="44.80526" lon="5.93116">
        <ele>910.9865723</ele>
        <time>2011-07-15T09:22:12Z</time>
      </trkpt>
      <trkpt lat="44.80527" lon="5.93116">
        <ele>913.3898926</ele>
        <time>2011-07-15T09:22:18Z</time>
      </trkpt>
      <trkpt lat="44.80527" lon="5.93116">
        <ele>914.8317871</ele>
        <time>2011-07-15T09:22:27Z</time>
      </trkpt>
      <trkpt lat="44.80528" lon="5.93115">
        <ele>914.8317871</ele>
        <time>2011-07-15T09:22:33Z</time>
      </trkpt>
      <trkpt lat="44.80528" lon="5.93116">
        <ele>914.3510742</ele>
        <time>2011-07-15T09:22:41Z</time>
      </trkpt>
      <trkpt lat="44.80528" lon="5.93116">
        <ele>913.8703613</ele>
        <time>2011-07-15T09:22:50Z</time>
      </trkpt>
      <trkpt lat="44.80529" lon="5.93118">
        <ele>914.3510742</ele>
        <time>2011-07-15T09:23:05Z</time>
      </trkpt>
      <trkpt lat="44.80528" lon="5.93119">
        <ele>913.8703613</ele>
        <time>2011-07-15T09:23:10Z</time>
      </trkpt>
      <trkpt lat="44.80527" lon="5.93119">
        <ele>913.8703613</ele>
        <time>2011-07-15T09:23:18Z</time>
      </trkpt>
      <trkpt lat="44.80527" lon="5.93118">
        <ele>913.3898926</ele>
        <time>2011-07-15T09:23:37Z</time>
      </trkpt>
      <trkpt lat="44.80526" lon="5.93117">
        <ele>912.4284668</ele>
        <time>2011-07-15T09:23:47Z</time>
      </trkpt>
      <trkpt lat="44.80526" lon="5.93118">
        <ele>911.947998</ele>
        <time>2011-07-15T09:23:52Z</time>
      </trkpt>
      <trkpt lat="44.80527" lon="5.93118">
        <ele>910.5058594</ele>
        <time>2011-07-15T09:24:11Z</time>
      </trkpt>
      <trkpt lat="44.80527" lon="5.93119">
        <ele>910.0251465</ele>
        <time>2011-07-15T09:24:37Z</time>
      </trkpt>
      <trkpt lat="44.80527" lon="5.93118">
        <ele>910.0251465</ele>
        <time>2011-07-15T09:24:47Z</time>
      </trkpt>
      <trkpt lat="44.80527" lon="5.93118">
        <ele>910.0251465</ele>
        <time>2011-07-15T09:25:02Z</time>
      </trkpt>
      <trkpt lat="44.80527" lon="5.93118">
        <ele>910.5058594</ele>
        <time>2011-07-15T09:25:15Z</time>
      </trkpt>
      <trkpt lat="44.80527" lon="5.93119">
        <ele>911.4672852</ele>
        <time>2011-07-15T09:25:37Z</time>
      </trkpt>
      <trkpt lat="44.80525" lon="5.9312">
        <ele>911.4672852</ele>
        <time>2011-07-15T09:25:41Z</time>
      </trkpt>
      <trkpt lat="44.8052" lon="5.93129">
        <ele>911.947998</ele>
        <time>2011-07-15T09:25:46Z</time>
      </trkpt>
      <trkpt lat="44.80512" lon="5.93145">
        <ele>912.4284668</ele>
        <time>2011-07-15T09:25:53Z</time>
      </trkpt>
      <trkpt lat="44.80503" lon="5.93162">
        <ele>913.3898926</ele>
        <time>2011-07-15T09:25:59Z</time>
      </trkpt>
      <trkpt lat="44.80493" lon="5.93184">
        <ele>914.8317871</ele>
        <time>2011-07-15T09:26:05Z</time>
      </trkpt>
      <trkpt lat="44.80484" lon="5.93206">
        <ele>916.7543945</ele>
        <time>2011-07-15T09:26:10Z</time>
      </trkpt>
      <trkpt lat="44.80472" lon="5.93239">
        <ele>919.6384277</ele>
        <time>2011-07-15T09:26:18Z</time>
      </trkpt>
      <trkpt lat="44.80453" lon="5.93279">
        <ele>923.0029297</ele>
        <time>2011-07-15T09:26:28Z</time>
      </trkpt>
      <trkpt lat="44.80443" lon="5.9331">
        <ele>924.4450684</ele>
        <time>2011-07-15T09:26:35Z</time>
      </trkpt>
      <trkpt lat="44.8043" lon="5.93348">
        <ele>925.8869629</ele>
        <time>2011-07-15T09:26:43Z</time>
      </trkpt>
      <trkpt lat="44.80421" lon="5.93374">
        <ele>927.3291016</ele>
        <time>2011-07-15T09:26:49Z</time>
      </trkpt>
      <trkpt lat="44.80411" lon="5.93399">
        <ele>927.3291016</ele>
        <time>2011-07-15T09:26:55Z</time>
      </trkpt>
      <trkpt lat="44.80396" lon="5.93431">
        <ele>927.8095703</ele>
        <time>2011-07-15T09:27:02Z</time>
      </trkpt>
      <trkpt lat="44.80379" lon="5.93456">
        <ele>927.8095703</ele>
        <time>2011-07-15T09:27:08Z</time>
      </trkpt>
      <trkpt lat="44.8036" lon="5.9347">
        <ele>928.7709961</ele>
        <time>2011-07-15T09:27:13Z</time>
      </trkpt>
      <trkpt lat="44.80346" lon="5.93494">
        <ele>929.2514648</ele>
        <time>2011-07-15T09:27:18Z</time>
      </trkpt>
      <trkpt lat="44.80333" lon="5.93537">
        <ele>930.2128906</ele>
        <time>2011-07-15T09:27:25Z</time>
      </trkpt>
      <trkpt lat="44.80315" lon="5.93597">
        <ele>930.6936035</ele>
        <time>2011-07-15T09:27:35Z</time>
      </trkpt>
      <trkpt lat="44.80296" lon="5.93663">
        <ele>930.2128906</ele>
        <time>2011-07-15T09:27:46Z</time>
      </trkpt>
      <trkpt lat="44.80274" lon="5.93737">
        <ele>930.2128906</ele>
        <time>2011-07-15T09:27:57Z</time>
      </trkpt>
      <trkpt lat="44.80253" lon="5.93811">
        <ele>931.1743164</ele>
        <time>2011-07-15T09:28:08Z</time>
      </trkpt>
      <trkpt lat="44.80234" lon="5.93878">
        <ele>932.6162109</ele>
        <time>2011-07-15T09:28:18Z</time>
      </trkpt>
      <trkpt lat="44.80225" lon="5.93942">
        <ele>933.5773926</ele>
        <time>2011-07-15T09:28:27Z</time>
      </trkpt>
      <trkpt lat="44.80224" lon="5.93963">
        <ele>934.0581055</ele>
        <time>2011-07-15T09:28:30Z</time>
      </trkpt>
      <trkpt lat="44.80237" lon="5.94014">
        <ele>933.5773926</ele>
        <time>2011-07-15T09:28:38Z</time>
      </trkpt>
      <trkpt lat="44.80251" lon="5.94061">
        <ele>932.6162109</ele>
        <time>2011-07-15T09:28:45Z</time>
      </trkpt>
      <trkpt lat="44.80257" lon="5.94084">
        <ele>932.135498</ele>
        <time>2011-07-15T09:28:48Z</time>
      </trkpt>
      <trkpt lat="44.80256" lon="5.94118">
        <ele>931.1743164</ele>
        <time>2011-07-15T09:28:52Z</time>
      </trkpt>
      <trkpt lat="44.80254" lon="5.94128">
        <ele>930.6936035</ele>
        <time>2011-07-15T09:28:53Z</time>
      </trkpt>
      <trkpt lat="44.80247" lon="5.94161">
        <ele>928.7709961</ele>
        <time>2011-07-15T09:28:56Z</time>
      </trkpt>
      <trkpt lat="44.80248" lon="5.94224">
        <ele>924.4450684</ele>
        <time>2011-07-15T09:29:01Z</time>
      </trkpt>
      <trkpt lat="44.80256" lon="5.94302">
        <ele>919.6384277</ele>
        <time>2011-07-15T09:29:06Z</time>
      </trkpt>
      <trkpt lat="44.80258" lon="5.94319">
        <ele>918.677002</ele>
        <time>2011-07-15T09:29:07Z</time>
      </trkpt>
      <trkpt lat="44.80253" lon="5.9439">
        <ele>914.3510742</ele>
        <time>2011-07-15T09:29:11Z</time>
      </trkpt>
      <trkpt lat="44.80233" lon="5.94439">
        <ele>910.5058594</ele>
        <time>2011-07-15T09:29:14Z</time>
      </trkpt>
      <trkpt lat="44.80209" lon="5.94469">
        <ele>907.6218262</ele>
        <time>2011-07-15T09:29:17Z</time>
      </trkpt>
      <trkpt lat="44.8019" lon="5.94475">
        <ele>905.6992188</ele>
        <time>2011-07-15T09:29:19Z</time>
      </trkpt>
      <trkpt lat="44.80113" lon="5.94485">
        <ele>898.9699707</ele>
        <time>2011-07-15T09:29:26Z</time>
      </trkpt>
      <trkpt lat="44.80039" lon="5.94474">
        <ele>891.7600098</ele>
        <time>2011-07-15T09:29:32Z</time>
      </trkpt>
      <trkpt lat="44.80002" lon="5.94468">
        <ele>888.8762207</ele>
        <time>2011-07-15T09:29:35Z</time>
      </trkpt>
      <trkpt lat="44.79944" lon="5.94467">
        <ele>885.0310059</ele>
        <time>2011-07-15T09:29:40Z</time>
      </trkpt>
      <trkpt lat="44.79902" lon="5.94482">
        <ele>883.5888672</ele>
        <time>2011-07-15T09:29:44Z</time>
      </trkpt>
      <trkpt lat="44.7987" lon="5.94492">
        <ele>880.7050781</ele>
        <time>2011-07-15T09:29:47Z</time>
      </trkpt>
      <trkpt lat="44.79835" lon="5.94523">
        <ele>878.3017578</ele>
        <time>2011-07-15T09:29:51Z</time>
      </trkpt>
      <trkpt lat="44.79828" lon="5.94534">
        <ele>877.8210449</ele>
        <time>2011-07-15T09:29:52Z</time>
      </trkpt>
      <trkpt lat="44.79813" lon="5.9455">
        <ele>877.8210449</ele>
        <time>2011-07-15T09:29:54Z</time>
      </trkpt>
      <trkpt lat="44.79802" lon="5.94577">
        <ele>876.3791504</ele>
        <time>2011-07-15T09:29:57Z</time>
      </trkpt>
      <trkpt lat="44.79815" lon="5.94605">
        <ele>873.4951172</ele>
        <time>2011-07-15T09:30:00Z</time>
      </trkpt>
      <trkpt lat="44.79822" lon="5.94612">
        <ele>873.0144043</ele>
        <time>2011-07-15T09:30:01Z</time>
      </trkpt>
      <trkpt lat="44.7988" lon="5.94664">
        <ele>868.2077637</ele>
        <time>2011-07-15T09:30:08Z</time>
      </trkpt>
      <trkpt lat="44.79928" lon="5.94707">
        <ele>868.6884766</ele>
        <time>2011-07-15T09:30:13Z</time>
      </trkpt>
      <trkpt lat="44.7994" lon="5.94723">
        <ele>867.7270508</ele>
        <time>2011-07-15T09:30:15Z</time>
      </trkpt>
      <trkpt lat="44.79949" lon="5.9475">
        <ele>865.8046875</ele>
        <time>2011-07-15T09:30:19Z</time>
      </trkpt>
      <trkpt lat="44.79942" lon="5.94772">
        <ele>865.3239746</ele>
        <time>2011-07-15T09:30:23Z</time>
      </trkpt>
      <trkpt lat="44.79932" lon="5.94784">
        <ele>864.8432617</ele>
        <time>2011-07-15T09:30:26Z</time>
      </trkpt>
      <trkpt lat="44.79912" lon="5.94817">
        <ele>864.8432617</ele>
        <time>2011-07-15T09:30:32Z</time>
      </trkpt>
      <trkpt lat="44.7989" lon="5.94865">
        <ele>861.9594727</ele>
        <time>2011-07-15T09:30:38Z</time>
      </trkpt>
      <trkpt lat="44.79879" lon="5.94892">
        <ele>860.517334</ele>
        <time>2011-07-15T09:30:41Z</time>
      </trkpt>
      <trkpt lat="44.79864" lon="5.94927">
        <ele>859.5559082</ele>
        <time>2011-07-15T09:30:45Z</time>
      </trkpt>
      <trkpt lat="44.79845" lon="5.94981">
        <ele>857.6333008</ele>
        <time>2011-07-15T09:30:50Z</time>
      </trkpt>
      <trkpt lat="44.79833" lon="5.95018">
        <ele>855.7106934</ele>
        <time>2011-07-15T09:30:53Z</time>
      </trkpt>
      <trkpt lat="44.79817" lon="5.9505">
        <ele>853.307373</ele>
        <time>2011-07-15T09:30:56Z</time>
      </trkpt>
      <trkpt lat="44.79787" lon="5.95126">
        <ele>848.9814453</ele>
        <time>2011-07-15T09:31:02Z</time>
      </trkpt>
      <trkpt lat="44.79772" lon="5.95193">
        <ele>846.5783691</ele>
        <time>2011-07-15T09:31:07Z</time>
      </trkpt>
      <trkpt lat="44.79759" lon="5.95259">
        <ele>844.6555176</ele>
        <time>2011-07-15T09:31:12Z</time>
      </trkpt>
      <trkpt lat="44.79754" lon="5.95286">
        <ele>842.7329102</ele>
        <time>2011-07-15T09:31:14Z</time>
      </trkpt>
      <trkpt lat="44.79743" lon="5.95324">
        <ele>840.3295898</ele>
        <time>2011-07-15T09:31:17Z</time>
      </trkpt>
      <trkpt lat="44.79749" lon="5.95376">
        <ele>837.4455566</ele>
        <time>2011-07-15T09:31:21Z</time>
      </trkpt>
      <trkpt lat="44.79768" lon="5.95442">
        <ele>832.6391602</ele>
        <time>2011-07-15T09:31:26Z</time>
      </trkpt>
      <trkpt lat="44.79774" lon="5.95469">
        <ele>831.6777344</ele>
        <time>2011-07-15T09:31:28Z</time>
      </trkpt>
      <trkpt lat="44.79781" lon="5.95527">
        <ele>829.755127</ele>
        <time>2011-07-15T09:31:32Z</time>
      </trkpt>
      <trkpt lat="44.79789" lon="5.9557">
        <ele>828.3132324</ele>
        <time>2011-07-15T09:31:35Z</time>
      </trkpt>
      <trkpt lat="44.79792" lon="5.95596">
        <ele>826.8710938</ele>
        <time>2011-07-15T09:31:37Z</time>
      </trkpt>
      <trkpt lat="44.79802" lon="5.95634">
        <ele>824.9484863</ele>
        <time>2011-07-15T09:31:40Z</time>
      </trkpt>
      <trkpt lat="44.7982" lon="5.957">
        <ele>820.6225586</ele>
        <time>2011-07-15T09:31:45Z</time>
      </trkpt>
      <trkpt lat="44.79823" lon="5.95712">
        <ele>820.1418457</ele>
        <time>2011-07-15T09:31:46Z</time>
      </trkpt>
      <trkpt lat="44.79824" lon="5.95763">
        <ele>815.8161621</ele>
        <time>2011-07-15T09:31:50Z</time>
      </trkpt>
      <trkpt lat="44.7982" lon="5.95776">
        <ele>814.8547363</ele>
        <time>2011-07-15T09:31:51Z</time>
      </trkpt>
      <trkpt lat="44.798" lon="5.95841">
        <ele>813.4128418</ele>
        <time>2011-07-15T09:31:56Z</time>
      </trkpt>
      <trkpt lat="44.79774" lon="5.95871">
        <ele>813.4128418</ele>
        <time>2011-07-15T09:32:00Z</time>
      </trkpt>
      <trkpt lat="44.79757" lon="5.95866">
        <ele>812.9321289</ele>
        <time>2011-07-15T09:32:02Z</time>
      </trkpt>
      <trkpt lat="44.79737" lon="5.95844">
        <ele>812.9321289</ele>
        <time>2011-07-15T09:32:05Z</time>
      </trkpt>
      <trkpt lat="44.797" lon="5.95824">
        <ele>812.451416</ele>
        <time>2011-07-15T09:32:10Z</time>
      </trkpt>
      <trkpt lat="44.7966" lon="5.95821">
        <ele>811.9707031</ele>
        <time>2011-07-15T09:32:15Z</time>
      </trkpt>
      <trkpt lat="44.79611" lon="5.95828">
        <ele>808.605957</ele>
        <time>2011-07-15T09:32:21Z</time>
      </trkpt>
      <trkpt lat="44.79589" lon="5.95828">
        <ele>802.3574219</ele>
        <time>2011-07-15T09:32:24Z</time>
      </trkpt>
      <trkpt lat="44.79551" lon="5.95863">
        <ele>788.8991699</ele>
        <time>2011-07-15T09:32:28Z</time>
      </trkpt>
      <trkpt lat="44.79517" lon="5.95927">
        <ele>781.689209</ele>
        <time>2011-07-15T09:32:33Z</time>
      </trkpt>
      <trkpt lat="44.79509" lon="5.95954">
        <ele>784.5732422</ele>
        <time>2011-07-15T09:32:35Z</time>
      </trkpt>
      <trkpt lat="44.79478" lon="5.95994">
        <ele>798.0317383</ele>
        <time>2011-07-15T09:32:40Z</time>
      </trkpt>
      <trkpt lat="44.7948" lon="5.96034">
        <ele>800.9155273</ele>
        <time>2011-07-15T09:32:44Z</time>
      </trkpt>
      <trkpt lat="44.79496" lon="5.96068">
        <ele>798.512207</ele>
        <time>2011-07-15T09:32:48Z</time>
      </trkpt>
      <trkpt lat="44.79494" lon="5.96096">
        <ele>796.1091309</ele>
        <time>2011-07-15T09:32:51Z</time>
      </trkpt>
      <trkpt lat="44.7948" lon="5.96188">
        <ele>795.1474609</ele>
        <time>2011-07-15T09:33:00Z</time>
      </trkpt>
      <trkpt lat="44.79475" lon="5.96281">
        <ele>800.4350586</ele>
        <time>2011-07-15T09:33:09Z</time>
      </trkpt>
      <trkpt lat="44.79476" lon="5.96365">
        <ele>798.0317383</ele>
        <time>2011-07-15T09:33:18Z</time>
      </trkpt>
      <trkpt lat="44.79471" lon="5.96421">
        <ele>798.512207</ele>
        <time>2011-07-15T09:33:24Z</time>
      </trkpt>
      <trkpt lat="44.79461" lon="5.96501">
        <ele>798.512207</ele>
        <time>2011-07-15T09:33:32Z</time>
      </trkpt>
      <trkpt lat="44.79447" lon="5.96572">
        <ele>798.512207</ele>
        <time>2011-07-15T09:33:39Z</time>
      </trkpt>
      <trkpt lat="44.79429" lon="5.96627">
        <ele>799.4736328</ele>
        <time>2011-07-15T09:33:45Z</time>
      </trkpt>
      <trkpt lat="44.79428" lon="5.96642">
        <ele>799.4736328</ele>
        <time>2011-07-15T09:33:46Z</time>
      </trkpt>
      <trkpt lat="44.79436" lon="5.96688">
        <ele>798.512207</ele>
        <time>2011-07-15T09:33:50Z</time>
      </trkpt>
      <trkpt lat="44.79433" lon="5.9676">
        <ele>795.6281738</ele>
        <time>2011-07-15T09:33:56Z</time>
      </trkpt>
      <trkpt lat="44.7943" lon="5.96784">
        <ele>794.1862793</ele>
        <time>2011-07-15T09:33:58Z</time>
      </trkpt>
      <trkpt lat="44.79438" lon="5.96819">
        <ele>792.2636719</ele>
        <time>2011-07-15T09:34:02Z</time>
      </trkpt>
      <trkpt lat="44.79454" lon="5.96831">
        <ele>791.782959</ele>
        <time>2011-07-15T09:34:05Z</time>
      </trkpt>
      <trkpt lat="44.79459" lon="5.96834">
        <ele>791.782959</ele>
        <time>2011-07-15T09:34:06Z</time>
      </trkpt>
      <trkpt lat="44.79496" lon="5.96833">
        <ele>789.8603516</ele>
        <time>2011-07-15T09:34:13Z</time>
      </trkpt>
      <trkpt lat="44.79505" lon="5.96829">
        <ele>789.3796387</ele>
        <time>2011-07-15T09:34:15Z</time>
      </trkpt>
      <trkpt lat="44.79513" lon="5.96827">
        <ele>788.418457</ele>
        <time>2011-07-15T09:34:17Z</time>
      </trkpt>
      <trkpt lat="44.79524" lon="5.96829">
        <ele>788.418457</ele>
        <time>2011-07-15T09:34:20Z</time>
      </trkpt>
      <trkpt lat="44.79531" lon="5.96833">
        <ele>788.8991699</ele>
        <time>2011-07-15T09:34:22Z</time>
      </trkpt>
      <trkpt lat="44.7955" lon="5.96863">
        <ele>791.782959</ele>
        <time>2011-07-15T09:34:30Z</time>
      </trkpt>
      <trkpt lat="44.79574" lon="5.96897">
        <ele>794.666748</ele>
        <time>2011-07-15T09:34:39Z</time>
      </trkpt>
      <trkpt lat="44.79576" lon="5.96908">
        <ele>794.666748</ele>
        <time>2011-07-15T09:34:41Z</time>
      </trkpt>
      <trkpt lat="44.79566" lon="5.96925">
        <ele>793.7055664</ele>
        <time>2011-07-15T09:34:45Z</time>
      </trkpt>
      <trkpt lat="44.79551" lon="5.96929">
        <ele>793.2248535</ele>
        <time>2011-07-15T09:34:49Z</time>
      </trkpt>
      <trkpt lat="44.79526" lon="5.96923">
        <ele>792.7443848</ele>
        <time>2011-07-15T09:34:56Z</time>
      </trkpt>
      <trkpt lat="44.79512" lon="5.96924">
        <ele>793.2248535</ele>
        <time>2011-07-15T09:35:00Z</time>
      </trkpt>
      <trkpt lat="44.79502" lon="5.96941">
        <ele>794.666748</ele>
        <time>2011-07-15T09:35:04Z</time>
      </trkpt>
      <trkpt lat="44.79493" lon="5.96986">
        <ele>797.5510254</ele>
        <time>2011-07-15T09:35:13Z</time>
      </trkpt>
      <trkpt lat="44.79488" lon="5.97019">
        <ele>800.4350586</ele>
        <time>2011-07-15T09:35:20Z</time>
      </trkpt>
      <trkpt lat="44.79479" lon="5.97043">
        <ele>805.2414551</ele>
        <time>2011-07-15T09:35:26Z</time>
      </trkpt>
      <trkpt lat="44.79468" lon="5.97051">
        <ele>811.9707031</ele>
        <time>2011-07-15T09:35:30Z</time>
      </trkpt>
      <trkpt lat="44.79463" lon="5.97058">
        <ele>814.3740234</ele>
        <time>2011-07-15T09:35:34Z</time>
      </trkpt>
      <trkpt lat="44.79447" lon="5.97063">
        <ele>815.3354492</ele>
        <time>2011-07-15T09:35:39Z</time>
      </trkpt>
      <trkpt lat="44.79429" lon="5.97077">
        <ele>811.4899902</ele>
        <time>2011-07-15T09:35:44Z</time>
      </trkpt>
      <trkpt lat="44.79419" lon="5.9709">
        <ele>810.5285645</ele>
        <time>2011-07-15T09:35:47Z</time>
      </trkpt>
      <trkpt lat="44.79411" lon="5.97126">
        <ele>811.0092773</ele>
        <time>2011-07-15T09:35:53Z</time>
      </trkpt>
      <trkpt lat="44.79418" lon="5.97155">
        <ele>810.5285645</ele>
        <time>2011-07-15T09:35:58Z</time>
      </trkpt>
      <trkpt lat="44.79431" lon="5.97169">
        <ele>810.5285645</ele>
        <time>2011-07-15T09:36:02Z</time>
      </trkpt>
      <trkpt lat="44.79451" lon="5.97178">
        <ele>810.5285645</ele>
        <time>2011-07-15T09:36:07Z</time>
      </trkpt>
      <trkpt lat="44.79485" lon="5.972">
        <ele>810.5285645</ele>
        <time>2011-07-15T09:36:15Z</time>
      </trkpt>
      <trkpt lat="44.79505" lon="5.97224">
        <ele>809.5673828</ele>
        <time>2011-07-15T09:36:21Z</time>
      </trkpt>
      <trkpt lat="44.79521" lon="5.9727">
        <ele>810.0478516</ele>
        <time>2011-07-15T09:36:28Z</time>
      </trkpt>
      <trkpt lat="44.79527" lon="5.97319">
        <ele>811.0092773</ele>
        <time>2011-07-15T09:36:34Z</time>
      </trkpt>
      <trkpt lat="44.79524" lon="5.97361">
        <ele>810.5285645</ele>
        <time>2011-07-15T09:36:40Z</time>
      </trkpt>
      <trkpt lat="44.79515" lon="5.97404">
        <ele>810.0478516</ele>
        <time>2011-07-15T09:36:47Z</time>
      </trkpt>
      <trkpt lat="44.79503" lon="5.97456">
        <ele>809.0866699</ele>
        <time>2011-07-15T09:36:56Z</time>
      </trkpt>
      <trkpt lat="44.7949" lon="5.97508">
        <ele>808.605957</ele>
        <time>2011-07-15T09:37:05Z</time>
      </trkpt>
      <trkpt lat="44.79487" lon="5.97521">
        <ele>808.1254883</ele>
        <time>2011-07-15T09:37:07Z</time>
      </trkpt>
      <trkpt lat="44.79479" lon="5.97542">
        <ele>807.1640625</ele>
        <time>2011-07-15T09:37:10Z</time>
      </trkpt>
      <trkpt lat="44.79453" lon="5.97587">
        <ele>804.2802734</ele>
        <time>2011-07-15T09:37:16Z</time>
      </trkpt>
      <trkpt lat="44.79448" lon="5.97594">
        <ele>803.7995605</ele>
        <time>2011-07-15T09:37:17Z</time>
      </trkpt>
      <trkpt lat="44.79412" lon="5.97627">
        <ele>799.9543457</ele>
        <time>2011-07-15T09:37:23Z</time>
      </trkpt>
      <trkpt lat="44.79381" lon="5.97654">
        <ele>797.5510254</ele>
        <time>2011-07-15T09:37:27Z</time>
      </trkpt>
      <trkpt lat="44.79345" lon="5.97705">
        <ele>794.666748</ele>
        <time>2011-07-15T09:37:32Z</time>
      </trkpt>
      <trkpt lat="44.79324" lon="5.97755">
        <ele>791.782959</ele>
        <time>2011-07-15T09:37:36Z</time>
      </trkpt>
      <trkpt lat="44.79295" lon="5.97801">
        <ele>789.8603516</ele>
        <time>2011-07-15T09:37:40Z</time>
      </trkpt>
      <trkpt lat="44.79269" lon="5.97857">
        <ele>788.8991699</ele>
        <time>2011-07-15T09:37:45Z</time>
      </trkpt>
      <trkpt lat="44.79255" lon="5.97894">
        <ele>789.3796387</ele>
        <time>2011-07-15T09:37:49Z</time>
      </trkpt>
      <trkpt lat="44.79253" lon="5.97901">
        <ele>789.3796387</ele>
        <time>2011-07-15T09:37:50Z</time>
      </trkpt>
      <trkpt lat="44.79246" lon="5.97918">
        <ele>790.8215332</ele>
        <time>2011-07-15T09:37:54Z</time>
      </trkpt>
      <trkpt lat="44.79241" lon="5.9794">
        <ele>791.782959</ele>
        <time>2011-07-15T09:38:02Z</time>
      </trkpt>
      <trkpt lat="44.79238" lon="5.97952">
        <ele>792.2636719</ele>
        <time>2011-07-15T09:38:08Z</time>
      </trkpt>
      <trkpt lat="44.79217" lon="5.9796">
        <ele>791.782959</ele>
        <time>2011-07-15T09:38:14Z</time>
      </trkpt>
      <trkpt lat="44.79178" lon="5.97965">
        <ele>791.3022461</ele>
        <time>2011-07-15T09:38:22Z</time>
      </trkpt>
      <trkpt lat="44.79148" lon="5.97986">
        <ele>792.7443848</ele>
        <time>2011-07-15T09:38:29Z</time>
      </trkpt>
      <trkpt lat="44.79115" lon="5.98024">
        <ele>795.1474609</ele>
        <time>2011-07-15T09:38:38Z</time>
      </trkpt>
      <trkpt lat="44.79089" lon="5.9805">
        <ele>796.5898438</ele>
        <time>2011-07-15T09:38:45Z</time>
      </trkpt>
      <trkpt lat="44.79049" lon="5.98089">
        <ele>797.0703125</ele>
        <time>2011-07-15T09:38:54Z</time>
      </trkpt>
      <trkpt lat="44.78998" lon="5.98132">
        <ele>797.0703125</ele>
        <time>2011-07-15T09:39:04Z</time>
      </trkpt>
      <trkpt lat="44.78964" lon="5.98147">
        <ele>796.1091309</ele>
        <time>2011-07-15T09:39:09Z</time>
      </trkpt>
      <trkpt lat="44.78918" lon="5.9816">
        <ele>793.7055664</ele>
        <time>2011-07-15T09:39:14Z</time>
      </trkpt>
      <trkpt lat="44.78855" lon="5.98179">
        <ele>791.3022461</ele>
        <time>2011-07-15T09:39:20Z</time>
      </trkpt>
      <trkpt lat="44.78798" lon="5.98197">
        <ele>791.782959</ele>
        <time>2011-07-15T09:39:26Z</time>
      </trkpt>
      <trkpt lat="44.7876" lon="5.98213">
        <ele>794.1862793</ele>
        <time>2011-07-15T09:39:31Z</time>
      </trkpt>
      <trkpt lat="44.78732" lon="5.9823">
        <ele>797.0703125</ele>
        <time>2011-07-15T09:39:36Z</time>
      </trkpt>
      <trkpt lat="44.78702" lon="5.9825">
        <ele>802.8381348</ele>
        <time>2011-07-15T09:39:43Z</time>
      </trkpt>
      <trkpt lat="44.78678" lon="5.98262">
        <ele>805.722168</ele>
        <time>2011-07-15T09:39:49Z</time>
      </trkpt>
      <trkpt lat="44.78645" lon="5.98274">
        <ele>807.1640625</ele>
        <time>2011-07-15T09:39:56Z</time>
      </trkpt>
      <trkpt lat="44.78611" lon="5.98284">
        <ele>808.1254883</ele>
        <time>2011-07-15T09:40:03Z</time>
      </trkpt>
      <trkpt lat="44.78557" lon="5.98299">
        <ele>808.605957</ele>
        <time>2011-07-15T09:40:13Z</time>
      </trkpt>
      <trkpt lat="44.7851" lon="5.98314">
        <ele>807.6447754</ele>
        <time>2011-07-15T09:40:21Z</time>
      </trkpt>
      <trkpt lat="44.7847" lon="5.98322">
        <ele>805.2414551</ele>
        <time>2011-07-15T09:40:26Z</time>
      </trkpt>
      <trkpt lat="44.78414" lon="5.98324">
        <ele>802.8381348</ele>
        <time>2011-07-15T09:40:32Z</time>
      </trkpt>
      <trkpt lat="44.78366" lon="5.98331">
        <ele>802.3574219</ele>
        <time>2011-07-15T09:40:37Z</time>
      </trkpt>
      <trkpt lat="44.78317" lon="5.98349">
        <ele>803.3188477</ele>
        <time>2011-07-15T09:40:43Z</time>
      </trkpt>
      <trkpt lat="44.78266" lon="5.9837">
        <ele>806.6833496</ele>
        <time>2011-07-15T09:40:50Z</time>
      </trkpt>
      <trkpt lat="44.78228" lon="5.98385">
        <ele>809.5673828</ele>
        <time>2011-07-15T09:40:57Z</time>
      </trkpt>
      <trkpt lat="44.78179" lon="5.98403">
        <ele>811.4899902</ele>
        <time>2011-07-15T09:41:06Z</time>
      </trkpt>
      <trkpt lat="44.78135" lon="5.98413">
        <ele>811.4899902</ele>
        <time>2011-07-15T09:41:13Z</time>
      </trkpt>
      <trkpt lat="44.78086" lon="5.98424">
        <ele>811.0092773</ele>
        <time>2011-07-15T09:41:19Z</time>
      </trkpt>
      <trkpt lat="44.78042" lon="5.9844">
        <ele>810.5285645</ele>
        <time>2011-07-15T09:41:25Z</time>
      </trkpt>
      <trkpt lat="44.77969" lon="5.98476">
        <ele>810.0478516</ele>
        <time>2011-07-15T09:41:35Z</time>
      </trkpt>
      <trkpt lat="44.7792" lon="5.98499">
        <ele>809.5673828</ele>
        <time>2011-07-15T09:41:42Z</time>
      </trkpt>
      <trkpt lat="44.77868" lon="5.98522">
        <ele>809.0866699</ele>
        <time>2011-07-15T09:41:49Z</time>
      </trkpt>
      <trkpt lat="44.77812" lon="5.98557">
        <ele>807.6447754</ele>
        <time>2011-07-15T09:41:57Z</time>
      </trkpt>
      <trkpt lat="44.77799" lon="5.98569">
        <ele>807.1640625</ele>
        <time>2011-07-15T09:41:59Z</time>
      </trkpt>
      <trkpt lat="44.77775" lon="5.98611">
        <ele>808.1254883</ele>
        <time>2011-07-15T09:42:04Z</time>
      </trkpt>
      <trkpt lat="44.77761" lon="5.98678">
        <ele>810.0478516</ele>
        <time>2011-07-15T09:42:11Z</time>
      </trkpt>
      <trkpt lat="44.77744" lon="5.98748">
        <ele>811.0092773</ele>
        <time>2011-07-15T09:42:19Z</time>
      </trkpt>
      <trkpt lat="44.7772" lon="5.98841">
        <ele>811.9707031</ele>
        <time>2011-07-15T09:42:29Z</time>
      </trkpt>
      <trkpt lat="44.77693" lon="5.98944">
        <ele>813.4128418</ele>
        <time>2011-07-15T09:42:40Z</time>
      </trkpt>
      <trkpt lat="44.77673" lon="5.99027">
        <ele>813.8933105</ele>
        <time>2011-07-15T09:42:49Z</time>
      </trkpt>
      <trkpt lat="44.77663" lon="5.99094">
        <ele>814.8547363</ele>
        <time>2011-07-15T09:42:56Z</time>
      </trkpt>
      <trkpt lat="44.7767" lon="5.99153">
        <ele>814.8547363</ele>
        <time>2011-07-15T09:43:02Z</time>
      </trkpt>
      <trkpt lat="44.7769" lon="5.99206">
        <ele>814.8547363</ele>
        <time>2011-07-15T09:43:08Z</time>
      </trkpt>
      <trkpt lat="44.77714" lon="5.99258">
        <ele>814.3740234</ele>
        <time>2011-07-15T09:43:14Z</time>
      </trkpt>
      <trkpt lat="44.77757" lon="5.99351">
        <ele>814.3740234</ele>
        <time>2011-07-15T09:43:25Z</time>
      </trkpt>
      <trkpt lat="44.77775" lon="5.99416">
        <ele>814.3740234</ele>
        <time>2011-07-15T09:43:32Z</time>
      </trkpt>
      <trkpt lat="44.77783" lon="5.99481">
        <ele>814.3740234</ele>
        <time>2011-07-15T09:43:38Z</time>
      </trkpt>
      <trkpt lat="44.77785" lon="5.99526">
        <ele>814.3740234</ele>
        <time>2011-07-15T09:43:42Z</time>
      </trkpt>
      <trkpt lat="44.77801" lon="5.99615">
        <ele>814.3740234</ele>
        <time>2011-07-15T09:43:50Z</time>
      </trkpt>
      <trkpt lat="44.77819" lon="5.99712">
        <ele>814.3740234</ele>
        <time>2011-07-15T09:43:59Z</time>
      </trkpt>
      <trkpt lat="44.77828" lon="5.9981">
        <ele>813.8933105</ele>
        <time>2011-07-15T09:44:08Z</time>
      </trkpt>
      <trkpt lat="44.77837" lon="5.99913">
        <ele>813.8933105</ele>
        <time>2011-07-15T09:44:18Z</time>
      </trkpt>
      <trkpt lat="44.7784" lon="5.99991">
        <ele>813.8933105</ele>
        <time>2011-07-15T09:44:26Z</time>
      </trkpt>
      <trkpt lat="44.77839" lon="6.00086">
        <ele>814.3740234</ele>
        <time>2011-07-15T09:44:36Z</time>
      </trkpt>
      <trkpt lat="44.7784" lon="6.00186">
        <ele>813.8933105</ele>
        <time>2011-07-15T09:44:46Z</time>
      </trkpt>
      <trkpt lat="44.77839" lon="6.00285">
        <ele>813.8933105</ele>
        <time>2011-07-15T09:44:56Z</time>
      </trkpt>
      <trkpt lat="44.77831" lon="6.00342">
        <ele>814.8547363</ele>
        <time>2011-07-15T09:45:02Z</time>
      </trkpt>
      <trkpt lat="44.77812" lon="6.00417">
        <ele>815.3354492</ele>
        <time>2011-07-15T09:45:10Z</time>
      </trkpt>
      <trkpt lat="44.77789" lon="6.00501">
        <ele>816.7773438</ele>
        <time>2011-07-15T09:45:19Z</time>
      </trkpt>
      <trkpt lat="44.77769" lon="6.00594">
        <ele>818.2192383</ele>
        <time>2011-07-15T09:45:29Z</time>
      </trkpt>
      <trkpt lat="44.77748" lon="6.00702">
        <ele>819.661377</ele>
        <time>2011-07-15T09:45:40Z</time>
      </trkpt>
      <trkpt lat="44.77729" lon="6.00811">
        <ele>819.1806641</ele>
        <time>2011-07-15T09:45:50Z</time>
      </trkpt>
      <trkpt lat="44.77723" lon="6.00896">
        <ele>818.6999512</ele>
        <time>2011-07-15T09:45:57Z</time>
      </trkpt>
      <trkpt lat="44.77721" lon="6.01027">
        <ele>818.2192383</ele>
        <time>2011-07-15T09:46:08Z</time>
      </trkpt>
      <trkpt lat="44.77712" lon="6.01108">
        <ele>818.6999512</ele>
        <time>2011-07-15T09:46:15Z</time>
      </trkpt>
      <trkpt lat="44.77691" lon="6.01197">
        <ele>820.1418457</ele>
        <time>2011-07-15T09:46:23Z</time>
      </trkpt>
      <trkpt lat="44.77668" lon="6.01283">
        <ele>821.5837402</ele>
        <time>2011-07-15T09:46:31Z</time>
      </trkpt>
      <trkpt lat="44.77639" lon="6.01385">
        <ele>823.5065918</ele>
        <time>2011-07-15T09:46:41Z</time>
      </trkpt>
      <trkpt lat="44.77607" lon="6.01498">
        <ele>823.9870605</ele>
        <time>2011-07-15T09:46:52Z</time>
      </trkpt>
      <trkpt lat="44.77584" lon="6.0158">
        <ele>825.4289551</ele>
        <time>2011-07-15T09:47:00Z</time>
      </trkpt>
      <trkpt lat="44.77557" lon="6.01677">
        <ele>827.8322754</ele>
        <time>2011-07-15T09:47:10Z</time>
      </trkpt>
      <trkpt lat="44.77537" lon="6.01724">
        <ele>829.2744141</ele>
        <time>2011-07-15T09:47:15Z</time>
      </trkpt>
      <trkpt lat="44.77532" lon="6.01731">
        <ele>829.2744141</ele>
        <time>2011-07-15T09:47:16Z</time>
      </trkpt>
      <trkpt lat="44.77502" lon="6.01757">
        <ele>830.7165527</ele>
        <time>2011-07-15T09:47:21Z</time>
      </trkpt>
      <trkpt lat="44.77448" lon="6.01772">
        <ele>832.1584473</ele>
        <time>2011-07-15T09:47:30Z</time>
      </trkpt>
      <trkpt lat="44.774" lon="6.01784">
        <ele>832.6391602</ele>
        <time>2011-07-15T09:47:38Z</time>
      </trkpt>
      <trkpt lat="44.77367" lon="6.01798">
        <ele>833.6003418</ele>
        <time>2011-07-15T09:47:44Z</time>
      </trkpt>
      <trkpt lat="44.77359" lon="6.01804">
        <ele>834.5617676</ele>
        <time>2011-07-15T09:47:46Z</time>
      </trkpt>
      <trkpt lat="44.77344" lon="6.0182">
        <ele>835.0424805</ele>
        <time>2011-07-15T09:47:50Z</time>
      </trkpt>
      <trkpt lat="44.77324" lon="6.01859">
        <ele>836.9648438</ele>
        <time>2011-07-15T09:47:58Z</time>
      </trkpt>
      <trkpt lat="44.77309" lon="6.01898">
        <ele>838.8876953</ele>
        <time>2011-07-15T09:48:06Z</time>
      </trkpt>
      <trkpt lat="44.77299" lon="6.01934">
        <ele>840.3295898</ele>
        <time>2011-07-15T09:48:13Z</time>
      </trkpt>
      <trkpt lat="44.77292" lon="6.01968">
        <ele>842.7329102</ele>
        <time>2011-07-15T09:48:20Z</time>
      </trkpt>
      <trkpt lat="44.77283" lon="6.02017">
        <ele>846.0976563</ele>
        <time>2011-07-15T09:48:30Z</time>
      </trkpt>
      <trkpt lat="44.77272" lon="6.02077">
        <ele>849.9428711</ele>
        <time>2011-07-15T09:48:42Z</time>
      </trkpt>
      <trkpt lat="44.77263" lon="6.02124">
        <ele>852.8266602</ele>
        <time>2011-07-15T09:48:52Z</time>
      </trkpt>
      <trkpt lat="44.77256" lon="6.02176">
        <ele>856.671875</ele>
        <time>2011-07-15T09:49:03Z</time>
      </trkpt>
      <trkpt lat="44.77251" lon="6.02241">
        <ele>857.1525879</ele>
        <time>2011-07-15T09:49:16Z</time>
      </trkpt>
      <trkpt lat="44.77248" lon="6.02297">
        <ele>859.5559082</ele>
        <time>2011-07-15T09:49:27Z</time>
      </trkpt>
      <trkpt lat="44.77244" lon="6.02353">
        <ele>861.4787598</ele>
        <time>2011-07-15T09:49:38Z</time>
      </trkpt>
      <trkpt lat="44.77232" lon="6.02397">
        <ele>864.3625488</ele>
        <time>2011-07-15T09:49:47Z</time>
      </trkpt>
      <trkpt lat="44.77215" lon="6.02427">
        <ele>866.2851563</ele>
        <time>2011-07-15T09:49:54Z</time>
      </trkpt>
      <trkpt lat="44.77194" lon="6.02447">
        <ele>868.2077637</ele>
        <time>2011-07-15T09:50:01Z</time>
      </trkpt>
      <trkpt lat="44.77168" lon="6.02457">
        <ele>870.611084</ele>
        <time>2011-07-15T09:50:08Z</time>
      </trkpt>
      <trkpt lat="44.77142" lon="6.02455">
        <ele>873.0144043</ele>
        <time>2011-07-15T09:50:15Z</time>
      </trkpt>
      <trkpt lat="44.77115" lon="6.0244">
        <ele>874.4562988</ele>
        <time>2011-07-15T09:50:23Z</time>
      </trkpt>
      <trkpt lat="44.77087" lon="6.02418">
        <ele>876.8598633</ele>
        <time>2011-07-15T09:50:32Z</time>
      </trkpt>
      <trkpt lat="44.77058" lon="6.02391">
        <ele>878.3017578</ele>
        <time>2011-07-15T09:50:42Z</time>
      </trkpt>
      <trkpt lat="44.77033" lon="6.02359">
        <ele>880.2243652</ele>
        <time>2011-07-15T09:50:52Z</time>
      </trkpt>
      <trkpt lat="44.77013" lon="6.0232">
        <ele>882.1469727</ele>
        <time>2011-07-15T09:51:02Z</time>
      </trkpt>
      <trkpt lat="44.76998" lon="6.02277">
        <ele>884.0695801</ele>
        <time>2011-07-15T09:51:12Z</time>
      </trkpt>
      <trkpt lat="44.76991" lon="6.0224">
        <ele>885.0310059</ele>
        <time>2011-07-15T09:51:20Z</time>
      </trkpt>
      <trkpt lat="44.76988" lon="6.02187">
        <ele>886.4729004</ele>
        <time>2011-07-15T09:51:31Z</time>
      </trkpt>
      <trkpt lat="44.76992" lon="6.02138">
        <ele>887.434082</ele>
        <time>2011-07-15T09:51:41Z</time>
      </trkpt>
      <trkpt lat="44.77003" lon="6.02095">
        <ele>888.3955078</ele>
        <time>2011-07-15T09:51:50Z</time>
      </trkpt>
      <trkpt lat="44.77021" lon="6.0205">
        <ele>890.3181152</ele>
        <time>2011-07-15T09:52:00Z</time>
      </trkpt>
      <trkpt lat="44.7704" lon="6.02011">
        <ele>891.7600098</ele>
        <time>2011-07-15T09:52:09Z</time>
      </trkpt>
      <trkpt lat="44.7706" lon="6.01964">
        <ele>893.6828613</ele>
        <time>2011-07-15T09:52:19Z</time>
      </trkpt>
      <trkpt lat="44.77069" lon="6.01915">
        <ele>894.644043</ele>
        <time>2011-07-15T09:52:28Z</time>
      </trkpt>
      <trkpt lat="44.77069" lon="6.01879">
        <ele>896.0861816</ele>
        <time>2011-07-15T09:52:34Z</time>
      </trkpt>
      <trkpt lat="44.7706" lon="6.0184">
        <ele>898.4892578</ele>
        <time>2011-07-15T09:52:40Z</time>
      </trkpt>
      <trkpt lat="44.77042" lon="6.01793">
        <ele>899.4506836</ele>
        <time>2011-07-15T09:52:48Z</time>
      </trkpt>
      <trkpt lat="44.77024" lon="6.01754">
        <ele>899.9313965</ele>
        <time>2011-07-15T09:52:55Z</time>
      </trkpt>
      <trkpt lat="44.76993" lon="6.01689">
        <ele>899.9313965</ele>
        <time>2011-07-15T09:53:06Z</time>
      </trkpt>
      <trkpt lat="44.76962" lon="6.01621">
        <ele>900.4121094</ele>
        <time>2011-07-15T09:53:18Z</time>
      </trkpt>
      <trkpt lat="44.76926" lon="6.01546">
        <ele>901.8540039</ele>
        <time>2011-07-15T09:53:31Z</time>
      </trkpt>
      <trkpt lat="44.76893" lon="6.01475">
        <ele>903.7766113</ele>
        <time>2011-07-15T09:53:44Z</time>
      </trkpt>
      <trkpt lat="44.76858" lon="6.01403">
        <ele>906.1796875</ele>
        <time>2011-07-15T09:53:58Z</time>
      </trkpt>
      <trkpt lat="44.76832" lon="6.01355">
        <ele>907.6218262</ele>
        <time>2011-07-15T09:54:08Z</time>
      </trkpt>
      <trkpt lat="44.76804" lon="6.01325">
        <ele>909.5446777</ele>
        <time>2011-07-15T09:54:16Z</time>
      </trkpt>
      <trkpt lat="44.768" lon="6.01322">
        <ele>910.0251465</ele>
        <time>2011-07-15T09:54:17Z</time>
      </trkpt>
      <trkpt lat="44.76756" lon="6.01301">
        <ele>910.9865723</ele>
        <time>2011-07-15T09:54:27Z</time>
      </trkpt>
      <trkpt lat="44.76713" lon="6.01301">
        <ele>911.947998</ele>
        <time>2011-07-15T09:54:36Z</time>
      </trkpt>
      <trkpt lat="44.76677" lon="6.0131">
        <ele>910.9865723</ele>
        <time>2011-07-15T09:54:43Z</time>
      </trkpt>
      <trkpt lat="44.76634" lon="6.01323">
        <ele>909.5446777</ele>
        <time>2011-07-15T09:54:49Z</time>
      </trkpt>
      <trkpt lat="44.76582" lon="6.01333">
        <ele>908.1027832</ele>
        <time>2011-07-15T09:54:55Z</time>
      </trkpt>
      <trkpt lat="44.76537" lon="6.01326">
        <ele>907.1411133</ele>
        <time>2011-07-15T09:55:00Z</time>
      </trkpt>
      <trkpt lat="44.76495" lon="6.01302">
        <ele>908.1027832</ele>
        <time>2011-07-15T09:55:05Z</time>
      </trkpt>
      <trkpt lat="44.76434" lon="6.0126">
        <ele>909.5446777</ele>
        <time>2011-07-15T09:55:13Z</time>
      </trkpt>
      <trkpt lat="44.76364" lon="6.01207">
        <ele>910.9865723</ele>
        <time>2011-07-15T09:55:23Z</time>
      </trkpt>
      <trkpt lat="44.76306" lon="6.01151">
        <ele>911.4672852</ele>
        <time>2011-07-15T09:55:32Z</time>
      </trkpt>
      <trkpt lat="44.76236" lon="6.01074">
        <ele>911.947998</ele>
        <time>2011-07-15T09:55:43Z</time>
      </trkpt>
      <trkpt lat="44.76174" lon="6.01021">
        <ele>911.947998</ele>
        <time>2011-07-15T09:55:52Z</time>
      </trkpt>
      <trkpt lat="44.76101" lon="6.00965">
        <ele>912.4284668</ele>
        <time>2011-07-15T09:56:02Z</time>
      </trkpt>
      <trkpt lat="44.7604" lon="6.00916">
        <ele>912.4284668</ele>
        <time>2011-07-15T09:56:11Z</time>
      </trkpt>
      <trkpt lat="44.76" lon="6.00885">
        <ele>912.9091797</ele>
        <time>2011-07-15T09:56:18Z</time>
      </trkpt>
      <trkpt lat="44.75945" lon="6.00842">
        <ele>913.3898926</ele>
        <time>2011-07-15T09:56:29Z</time>
      </trkpt>
      <trkpt lat="44.75896" lon="6.00803">
        <ele>914.3510742</ele>
        <time>2011-07-15T09:56:39Z</time>
      </trkpt>
      <trkpt lat="44.75852" lon="6.00767">
        <ele>914.8317871</ele>
        <time>2011-07-15T09:56:48Z</time>
      </trkpt>
      <trkpt lat="44.75804" lon="6.00725">
        <ele>916.2736816</ele>
        <time>2011-07-15T09:56:58Z</time>
      </trkpt>
      <trkpt lat="44.75754" lon="6.00692">
        <ele>916.7543945</ele>
        <time>2011-07-15T09:57:08Z</time>
      </trkpt>
      <trkpt lat="44.75719" lon="6.00673">
        <ele>918.1962891</ele>
        <time>2011-07-15T09:57:15Z</time>
      </trkpt>
      <trkpt lat="44.75682" lon="6.00672">
        <ele>920.1188965</ele>
        <time>2011-07-15T09:57:22Z</time>
      </trkpt>
      <trkpt lat="44.75667" lon="6.00678">
        <ele>921.0803223</ele>
        <time>2011-07-15T09:57:25Z</time>
      </trkpt>
      <trkpt lat="44.75634" lon="6.00703">
        <ele>922.5222168</ele>
        <time>2011-07-15T09:57:32Z</time>
      </trkpt>
      <trkpt lat="44.75625" lon="6.0071">
        <ele>922.0415039</ele>
        <time>2011-07-15T09:57:34Z</time>
      </trkpt>
      <trkpt lat="44.75601" lon="6.00744">
        <ele>921.0803223</ele>
        <time>2011-07-15T09:57:40Z</time>
      </trkpt>
      <trkpt lat="44.75597" lon="6.00752">
        <ele>921.0803223</ele>
        <time>2011-07-15T09:57:41Z</time>
      </trkpt>
      <trkpt lat="44.75581" lon="6.00802">
        <ele>920.1188965</ele>
        <time>2011-07-15T09:57:46Z</time>
      </trkpt>
      <trkpt lat="44.75567" lon="6.00848">
        <ele>918.677002</ele>
        <time>2011-07-15T09:57:50Z</time>
      </trkpt>
      <trkpt lat="44.75554" lon="6.0088">
        <ele>919.1577148</ele>
        <time>2011-07-15T09:57:53Z</time>
      </trkpt>
      <trkpt lat="44.75523" lon="6.00913">
        <ele>918.677002</ele>
        <time>2011-07-15T09:57:58Z</time>
      </trkpt>
      <trkpt lat="44.75511" lon="6.00915">
        <ele>916.7543945</ele>
        <time>2011-07-15T09:58:04Z</time>
      </trkpt>
      <trkpt lat="44.75509" lon="6.00914">
        <ele>916.7543945</ele>
        <time>2011-07-15T09:58:10Z</time>
      </trkpt>
      <trkpt lat="44.75509" lon="6.00914">
        <ele>916.7543945</ele>
        <time>2011-07-15T09:58:14Z</time>
      </trkpt>
      <trkpt lat="44.75504" lon="6.00924">
        <ele>917.2351074</ele>
        <time>2011-07-15T09:58:19Z</time>
      </trkpt>
      <trkpt lat="44.75497" lon="6.00941">
        <ele>917.7155762</ele>
        <time>2011-07-15T09:58:24Z</time>
      </trkpt>
      <trkpt lat="44.75484" lon="6.00975">
        <ele>917.7155762</ele>
        <time>2011-07-15T09:58:31Z</time>
      </trkpt>
      <trkpt lat="44.75466" lon="6.01002">
        <ele>918.677002</ele>
        <time>2011-07-15T09:58:36Z</time>
      </trkpt>
      <trkpt lat="44.75437" lon="6.01031">
        <ele>920.5996094</ele>
        <time>2011-07-15T09:58:43Z</time>
      </trkpt>
      <trkpt lat="44.7541" lon="6.01059">
        <ele>922.5222168</ele>
        <time>2011-07-15T09:58:51Z</time>
      </trkpt>
      <trkpt lat="44.75385" lon="6.01085">
        <ele>923.9641113</ele>
        <time>2011-07-15T09:58:59Z</time>
      </trkpt>
      <trkpt lat="44.75364" lon="6.01107">
        <ele>924.9257813</ele>
        <time>2011-07-15T09:59:06Z</time>
      </trkpt>
      <trkpt lat="44.75332" lon="6.01141">
        <ele>925.8869629</ele>
        <time>2011-07-15T09:59:16Z</time>
      </trkpt>
      <trkpt lat="44.75323" lon="6.01158">
        <ele>926.8483887</ele>
        <time>2011-07-15T09:59:20Z</time>
      </trkpt>
      <trkpt lat="44.75313" lon="6.01187">
        <ele>928.2902832</ele>
        <time>2011-07-15T09:59:27Z</time>
      </trkpt>
      <trkpt lat="44.75307" lon="6.01217">
        <ele>929.2514648</ele>
        <time>2011-07-15T09:59:34Z</time>
      </trkpt>
      <trkpt lat="44.75304" lon="6.01241">
        <ele>930.2128906</ele>
        <time>2011-07-15T09:59:40Z</time>
      </trkpt>
      <trkpt lat="44.75301" lon="6.01264">
        <ele>931.1743164</ele>
        <time>2011-07-15T09:59:46Z</time>
      </trkpt>
      <trkpt lat="44.75297" lon="6.01298">
        <ele>931.6547852</ele>
        <time>2011-07-15T09:59:54Z</time>
      </trkpt>
      <trkpt lat="44.75292" lon="6.01335">
        <ele>933.5773926</ele>
        <time>2011-07-15T10:00:03Z</time>
      </trkpt>
      <trkpt lat="44.75288" lon="6.01373">
        <ele>935.9807129</ele>
        <time>2011-07-15T10:00:12Z</time>
      </trkpt>
      <trkpt lat="44.75283" lon="6.01403">
        <ele>938.8647461</ele>
        <time>2011-07-15T10:00:20Z</time>
      </trkpt>
      <trkpt lat="44.75272" lon="6.01425">
        <ele>940.7873535</ele>
        <time>2011-07-15T10:00:27Z</time>
      </trkpt>
      <trkpt lat="44.75254" lon="6.01442">
        <ele>943.1906738</ele>
        <time>2011-07-15T10:00:35Z</time>
      </trkpt>
      <trkpt lat="44.75241" lon="6.01446">
        <ele>944.6325684</ele>
        <time>2011-07-15T10:00:40Z</time>
      </trkpt>
      <trkpt lat="44.75221" lon="6.01445">
        <ele>947.9973145</ele>
        <time>2011-07-15T10:00:47Z</time>
      </trkpt>
      <trkpt lat="44.75198" lon="6.01444">
        <ele>951.3618164</ele>
        <time>2011-07-15T10:00:55Z</time>
      </trkpt>
      <trkpt lat="44.75174" lon="6.0145">
        <ele>953.7651367</ele>
        <time>2011-07-15T10:01:03Z</time>
      </trkpt>
      <trkpt lat="44.7515" lon="6.01463">
        <ele>954.7263184</ele>
        <time>2011-07-15T10:01:12Z</time>
      </trkpt>
      <trkpt lat="44.75133" lon="6.0148">
        <ele>956.6491699</ele>
        <time>2011-07-15T10:01:20Z</time>
      </trkpt>
      <trkpt lat="44.75117" lon="6.01501">
        <ele>959.0524902</ele>
        <time>2011-07-15T10:01:28Z</time>
      </trkpt>
      <trkpt lat="44.75099" lon="6.01528">
        <ele>962.8977051</ele>
        <time>2011-07-15T10:01:38Z</time>
      </trkpt>
      <trkpt lat="44.75089" lon="6.01546">
        <ele>964.8203125</ele>
        <time>2011-07-15T10:01:44Z</time>
      </trkpt>
      <trkpt lat="44.75078" lon="6.01561">
        <ele>967.7041016</ele>
        <time>2011-07-15T10:01:50Z</time>
      </trkpt>
      <trkpt lat="44.75066" lon="6.01577">
        <ele>970.1074219</ele>
        <time>2011-07-15T10:01:57Z</time>
      </trkpt>
      <trkpt lat="44.75047" lon="6.01594">
        <ele>973.4724121</ele>
        <time>2011-07-15T10:02:05Z</time>
      </trkpt>
      <trkpt lat="44.75037" lon="6.01607">
        <ele>978.7595215</ele>
        <time>2011-07-15T10:02:11Z</time>
      </trkpt>
      <trkpt lat="44.7502" lon="6.01617">
        <ele>984.0466309</ele>
        <time>2011-07-15T10:02:18Z</time>
      </trkpt>
      <trkpt lat="44.75007" lon="6.01623">
        <ele>986.9304199</ele>
        <time>2011-07-15T10:02:24Z</time>
      </trkpt>
      <trkpt lat="44.74994" lon="6.01627">
        <ele>987.8918457</ele>
        <time>2011-07-15T10:02:30Z</time>
      </trkpt>
      <trkpt lat="44.7498" lon="6.01632">
        <ele>990.7758789</ele>
        <time>2011-07-15T10:02:36Z</time>
      </trkpt>
      <trkpt lat="44.74967" lon="6.01634">
        <ele>991.2565918</ele>
        <time>2011-07-15T10:02:41Z</time>
      </trkpt>
      <trkpt lat="44.74953" lon="6.01635">
        <ele>990.2954102</ele>
        <time>2011-07-15T10:02:46Z</time>
      </trkpt>
      <trkpt lat="44.74932" lon="6.0163">
        <ele>992.2180176</ele>
        <time>2011-07-15T10:02:52Z</time>
      </trkpt>
      <trkpt lat="44.74918" lon="6.01627">
        <ele>992.6987305</ele>
        <time>2011-07-15T10:02:57Z</time>
      </trkpt>
      <trkpt lat="44.74898" lon="6.01625">
        <ele>994.6210938</ele>
        <time>2011-07-15T10:03:04Z</time>
      </trkpt>
      <trkpt lat="44.7488" lon="6.01624">
        <ele>995.1018066</ele>
        <time>2011-07-15T10:03:10Z</time>
      </trkpt>
      <trkpt lat="44.74868" lon="6.01626">
        <ele>994.6210938</ele>
        <time>2011-07-15T10:03:15Z</time>
      </trkpt>
      <trkpt lat="44.7485" lon="6.0163">
        <ele>995.5825195</ele>
        <time>2011-07-15T10:03:22Z</time>
      </trkpt>
      <trkpt lat="44.74836" lon="6.01634">
        <ele>993.6599121</ele>
        <time>2011-07-15T10:03:27Z</time>
      </trkpt>
      <trkpt lat="44.74808" lon="6.01642">
        <ele>992.6987305</ele>
        <time>2011-07-15T10:03:37Z</time>
      </trkpt>
      <trkpt lat="44.74781" lon="6.01647">
        <ele>996.5439453</ele>
        <time>2011-07-15T10:03:47Z</time>
      </trkpt>
      <trkpt lat="44.74756" lon="6.01652">
        <ele>997.9858398</ele>
        <time>2011-07-15T10:03:56Z</time>
      </trkpt>
      <trkpt lat="44.74726" lon="6.01658">
        <ele>999.4277344</ele>
        <time>2011-07-15T10:04:07Z</time>
      </trkpt>
      <trkpt lat="44.74703" lon="6.01663">
        <ele>1000.8696289</ele>
        <time>2011-07-15T10:04:15Z</time>
      </trkpt>
      <trkpt lat="44.74675" lon="6.01669">
        <ele>1001.8310547</ele>
        <time>2011-07-15T10:04:25Z</time>
      </trkpt>
      <trkpt lat="44.74655" lon="6.01673">
        <ele>1003.7536621</ele>
        <time>2011-07-15T10:04:32Z</time>
      </trkpt>
      <trkpt lat="44.74632" lon="6.01676">
        <ele>1006.6376953</ele>
        <time>2011-07-15T10:04:41Z</time>
      </trkpt>
      <trkpt lat="44.74617" lon="6.01676">
        <ele>1009.0410156</ele>
        <time>2011-07-15T10:04:46Z</time>
      </trkpt>
      <trkpt lat="44.74598" lon="6.01677">
        <ele>1012.8862305</ele>
        <time>2011-07-15T10:04:52Z</time>
      </trkpt>
      <trkpt lat="44.7459" lon="6.01678">
        <ele>1016.2507324</ele>
        <time>2011-07-15T10:04:56Z</time>
      </trkpt>
      <trkpt lat="44.74577" lon="6.0168">
        <ele>1019.1347656</ele>
        <time>2011-07-15T10:05:02Z</time>
      </trkpt>
      <trkpt lat="44.74564" lon="6.01683">
        <ele>1023.9414063</ele>
        <time>2011-07-15T10:05:07Z</time>
      </trkpt>
      <trkpt lat="44.74549" lon="6.01684">
        <ele>1024.4221191</ele>
        <time>2011-07-15T10:05:13Z</time>
      </trkpt>
      <trkpt lat="44.74532" lon="6.01691">
        <ele>1026.3447266</ele>
        <time>2011-07-15T10:05:20Z</time>
      </trkpt>
      <trkpt lat="44.74512" lon="6.01695">
        <ele>1029.7092285</ele>
        <time>2011-07-15T10:05:27Z</time>
      </trkpt>
      <trkpt lat="44.74489" lon="6.01695">
        <ele>1031.6318359</ele>
        <time>2011-07-15T10:05:33Z</time>
      </trkpt>
      <trkpt lat="44.7448" lon="6.017">
        <ele>1032.1125488</ele>
        <time>2011-07-15T10:05:37Z</time>
      </trkpt>
      <trkpt lat="44.74469" lon="6.01709">
        <ele>1032.5932617</ele>
        <time>2011-07-15T10:05:42Z</time>
      </trkpt>
      <trkpt lat="44.7445" lon="6.01727">
        <ele>1032.1125488</ele>
        <time>2011-07-15T10:05:50Z</time>
      </trkpt>
      <trkpt lat="44.74436" lon="6.01739">
        <ele>1032.1125488</ele>
        <time>2011-07-15T10:05:56Z</time>
      </trkpt>
      <trkpt lat="44.74419" lon="6.01756">
        <ele>1031.1513672</ele>
        <time>2011-07-15T10:06:03Z</time>
      </trkpt>
      <trkpt lat="44.74401" lon="6.01777">
        <ele>1029.7092285</ele>
        <time>2011-07-15T10:06:11Z</time>
      </trkpt>
      <trkpt lat="44.74378" lon="6.01804">
        <ele>1030.6706543</ele>
        <time>2011-07-15T10:06:20Z</time>
      </trkpt>
      <trkpt lat="44.74354" lon="6.01828">
        <ele>1032.1125488</ele>
        <time>2011-07-15T10:06:29Z</time>
      </trkpt>
      <trkpt lat="44.74329" lon="6.0184">
        <ele>1033.5544434</ele>
        <time>2011-07-15T10:06:38Z</time>
      </trkpt>
      <trkpt lat="44.74303" lon="6.01847">
        <ele>1034.996582</ele>
        <time>2011-07-15T10:06:48Z</time>
      </trkpt>
      <trkpt lat="44.7428" lon="6.01855">
        <ele>1036.4387207</ele>
        <time>2011-07-15T10:06:57Z</time>
      </trkpt>
      <trkpt lat="44.74259" lon="6.01863">
        <ele>1038.842041</ele>
        <time>2011-07-15T10:07:05Z</time>
      </trkpt>
      <trkpt lat="44.7424" lon="6.01876">
        <ele>1040.2839355</ele>
        <time>2011-07-15T10:07:12Z</time>
      </trkpt>
      <trkpt lat="44.74218" lon="6.01895">
        <ele>1042.206543</ele>
        <time>2011-07-15T10:07:20Z</time>
      </trkpt>
      <trkpt lat="44.74201" lon="6.01918">
        <ele>1043.6484375</ele>
        <time>2011-07-15T10:07:28Z</time>
      </trkpt>
      <trkpt lat="44.74191" lon="6.01936">
        <ele>1044.1291504</ele>
        <time>2011-07-15T10:07:35Z</time>
      </trkpt>
      <trkpt lat="44.74183" lon="6.01955">
        <ele>1045.090332</ele>
        <time>2011-07-15T10:07:41Z</time>
      </trkpt>
      <trkpt lat="44.74175" lon="6.0198">
        <ele>1046.0517578</ele>
        <time>2011-07-15T10:07:48Z</time>
      </trkpt>
      <trkpt lat="44.7417" lon="6.02008">
        <ele>1046.5324707</ele>
        <time>2011-07-15T10:07:56Z</time>
      </trkpt>
      <trkpt lat="44.74167" lon="6.02033">
        <ele>1048.9355469</ele>
        <time>2011-07-15T10:08:03Z</time>
      </trkpt>
      <trkpt lat="44.74168" lon="6.02062">
        <ele>1050.3776855</ele>
        <time>2011-07-15T10:08:11Z</time>
      </trkpt>
      <trkpt lat="44.74171" lon="6.02091">
        <ele>1051.8195801</ele>
        <time>2011-07-15T10:08:19Z</time>
      </trkpt>
      <trkpt lat="44.74176" lon="6.02127">
        <ele>1053.7424316</ele>
        <time>2011-07-15T10:08:28Z</time>
      </trkpt>
      <trkpt lat="44.7418" lon="6.0216">
        <ele>1053.7424316</ele>
        <time>2011-07-15T10:08:36Z</time>
      </trkpt>
      <trkpt lat="44.74185" lon="6.02193">
        <ele>1053.7424316</ele>
        <time>2011-07-15T10:08:44Z</time>
      </trkpt>
      <trkpt lat="44.74191" lon="6.02236">
        <ele>1053.7424316</ele>
        <time>2011-07-15T10:08:54Z</time>
      </trkpt>
      <trkpt lat="44.74194" lon="6.0227">
        <ele>1053.7424316</ele>
        <time>2011-07-15T10:09:01Z</time>
      </trkpt>
      <trkpt lat="44.74199" lon="6.02304">
        <ele>1053.7424316</ele>
        <time>2011-07-15T10:09:08Z</time>
      </trkpt>
      <trkpt lat="44.74205" lon="6.02352">
        <ele>1054.7036133</ele>
        <time>2011-07-15T10:09:18Z</time>
      </trkpt>
      <trkpt lat="44.7421" lon="6.02391">
        <ele>1057.1069336</ele>
        <time>2011-07-15T10:09:27Z</time>
      </trkpt>
      <trkpt lat="44.74214" lon="6.02424">
        <ele>1059.5102539</ele>
        <time>2011-07-15T10:09:36Z</time>
      </trkpt>
      <trkpt lat="44.74219" lon="6.0246">
        <ele>1061.9135742</ele>
        <time>2011-07-15T10:09:46Z</time>
      </trkpt>
      <trkpt lat="44.74223" lon="6.02484">
        <ele>1062.394043</ele>
        <time>2011-07-15T10:09:53Z</time>
      </trkpt>
      <trkpt lat="44.74227" lon="6.02518">
        <ele>1063.8359375</ele>
        <time>2011-07-15T10:10:02Z</time>
      </trkpt>
      <trkpt lat="44.74229" lon="6.0256">
        <ele>1065.7587891</ele>
        <time>2011-07-15T10:10:13Z</time>
      </trkpt>
      <trkpt lat="44.74227" lon="6.02601">
        <ele>1066.2392578</ele>
        <time>2011-07-15T10:10:23Z</time>
      </trkpt>
      <trkpt lat="44.74226" lon="6.02638">
        <ele>1067.2006836</ele>
        <time>2011-07-15T10:10:32Z</time>
      </trkpt>
      <trkpt lat="44.74228" lon="6.02667">
        <ele>1067.6811523</ele>
        <time>2011-07-15T10:10:39Z</time>
      </trkpt>
      <trkpt lat="44.74235" lon="6.0271">
        <ele>1069.604248</ele>
        <time>2011-07-15T10:10:49Z</time>
      </trkpt>
      <trkpt lat="44.74245" lon="6.02745">
        <ele>1072.4880371</ele>
        <time>2011-07-15T10:10:58Z</time>
      </trkpt>
      <trkpt lat="44.74256" lon="6.02773">
        <ele>1074.8913574</ele>
        <time>2011-07-15T10:11:06Z</time>
      </trkpt>
      <trkpt lat="44.74271" lon="6.02805">
        <ele>1076.8139648</ele>
        <time>2011-07-15T10:11:15Z</time>
      </trkpt>
      <trkpt lat="44.74282" lon="6.02827">
        <ele>1077.7751465</ele>
        <time>2011-07-15T10:11:22Z</time>
      </trkpt>
      <trkpt lat="44.74293" lon="6.02854">
        <ele>1079.217041</ele>
        <time>2011-07-15T10:11:30Z</time>
      </trkpt>
      <trkpt lat="44.74304" lon="6.02896">
        <ele>1082.1010742</ele>
        <time>2011-07-15T10:11:41Z</time>
      </trkpt>
      <trkpt lat="44.74307" lon="6.02918">
        <ele>1083.5429688</ele>
        <time>2011-07-15T10:11:46Z</time>
      </trkpt>
      <trkpt lat="44.74312" lon="6.02949">
        <ele>1085.4658203</ele>
        <time>2011-07-15T10:11:53Z</time>
      </trkpt>
      <trkpt lat="44.74318" lon="6.02991">
        <ele>1086.9077148</ele>
        <time>2011-07-15T10:12:03Z</time>
      </trkpt>
      <trkpt lat="44.74327" lon="6.03031">
        <ele>1087.3884277</ele>
        <time>2011-07-15T10:12:12Z</time>
      </trkpt>
      <trkpt lat="44.74337" lon="6.03063">
        <ele>1088.8305664</ele>
        <time>2011-07-15T10:12:19Z</time>
      </trkpt>
      <trkpt lat="44.74349" lon="6.03089">
        <ele>1089.3110352</ele>
        <time>2011-07-15T10:12:25Z</time>
      </trkpt>
      <trkpt lat="44.74364" lon="6.03118">
        <ele>1089.791748</ele>
        <time>2011-07-15T10:12:32Z</time>
      </trkpt>
      <trkpt lat="44.74382" lon="6.03152">
        <ele>1089.791748</ele>
        <time>2011-07-15T10:12:40Z</time>
      </trkpt>
      <trkpt lat="44.74397" lon="6.03182">
        <ele>1090.7529297</ele>
        <time>2011-07-15T10:12:48Z</time>
      </trkpt>
      <trkpt lat="44.74411" lon="6.03209">
        <ele>1091.7143555</ele>
        <time>2011-07-15T10:12:55Z</time>
      </trkpt>
      <trkpt lat="44.74427" lon="6.03239">
        <ele>1092.6757813</ele>
        <time>2011-07-15T10:13:03Z</time>
      </trkpt>
      <trkpt lat="44.74447" lon="6.03265">
        <ele>1094.1176758</ele>
        <time>2011-07-15T10:13:11Z</time>
      </trkpt>
      <trkpt lat="44.74469" lon="6.03278">
        <ele>1095.5595703</ele>
        <time>2011-07-15T10:13:18Z</time>
      </trkpt>
      <trkpt lat="44.74497" lon="6.03294">
        <ele>1097.0014648</ele>
        <time>2011-07-15T10:13:27Z</time>
      </trkpt>
      <trkpt lat="44.74522" lon="6.0331">
        <ele>1097.0014648</ele>
        <time>2011-07-15T10:13:35Z</time>
      </trkpt>
      <trkpt lat="44.74543" lon="6.03336">
        <ele>1098.4433594</ele>
        <time>2011-07-15T10:13:43Z</time>
      </trkpt>
      <trkpt lat="44.74549" lon="6.03364">
        <ele>1098.9240723</ele>
        <time>2011-07-15T10:13:49Z</time>
      </trkpt>
      <trkpt lat="44.74543" lon="6.03391">
        <ele>1098.4433594</ele>
        <time>2011-07-15T10:13:54Z</time>
      </trkpt>
      <trkpt lat="44.7453" lon="6.03412">
        <ele>1097.9628906</ele>
        <time>2011-07-15T10:13:59Z</time>
      </trkpt>
      <trkpt lat="44.74501" lon="6.03431">
        <ele>1097.4821777</ele>
        <time>2011-07-15T10:14:06Z</time>
      </trkpt>
      <trkpt lat="44.7447" lon="6.03446">
        <ele>1096.0402832</ele>
        <time>2011-07-15T10:14:12Z</time>
      </trkpt>
      <trkpt lat="44.74426" lon="6.03468">
        <ele>1094.5981445</ele>
        <time>2011-07-15T10:14:19Z</time>
      </trkpt>
      <trkpt lat="44.74375" lon="6.03492">
        <ele>1093.15625</ele>
        <time>2011-07-15T10:14:26Z</time>
      </trkpt>
      <trkpt lat="44.74334" lon="6.03512">
        <ele>1093.15625</ele>
        <time>2011-07-15T10:14:32Z</time>
      </trkpt>
      <trkpt lat="44.74283" lon="6.03537">
        <ele>1092.6757813</ele>
        <time>2011-07-15T10:14:40Z</time>
      </trkpt>
      <trkpt lat="44.74231" lon="6.03565">
        <ele>1091.2336426</ele>
        <time>2011-07-15T10:14:48Z</time>
      </trkpt>
      <trkpt lat="44.74179" lon="6.03591">
        <ele>1089.791748</ele>
        <time>2011-07-15T10:14:55Z</time>
      </trkpt>
      <trkpt lat="44.74124" lon="6.03618">
        <ele>1089.791748</ele>
        <time>2011-07-15T10:15:02Z</time>
      </trkpt>
      <trkpt lat="44.74058" lon="6.03652">
        <ele>1088.8305664</ele>
        <time>2011-07-15T10:15:11Z</time>
      </trkpt>
      <trkpt lat="44.73979" lon="6.03693">
        <ele>1089.3110352</ele>
        <time>2011-07-15T10:15:22Z</time>
      </trkpt>
      <trkpt lat="44.73917" lon="6.03727">
        <ele>1088.8305664</ele>
        <time>2011-07-15T10:15:31Z</time>
      </trkpt>
      <trkpt lat="44.73861" lon="6.03761">
        <ele>1088.3498535</ele>
        <time>2011-07-15T10:15:39Z</time>
      </trkpt>
      <trkpt lat="44.73818" lon="6.03786">
        <ele>1088.8305664</ele>
        <time>2011-07-15T10:15:46Z</time>
      </trkpt>
      <trkpt lat="44.73756" lon="6.03825">
        <ele>1089.791748</ele>
        <time>2011-07-15T10:15:57Z</time>
      </trkpt>
      <trkpt lat="44.73703" lon="6.03858">
        <ele>1089.791748</ele>
        <time>2011-07-15T10:16:06Z</time>
      </trkpt>
      <trkpt lat="44.73665" lon="6.03881">
        <ele>1090.2724609</ele>
        <time>2011-07-15T10:16:13Z</time>
      </trkpt>
      <trkpt lat="44.73625" lon="6.03906">
        <ele>1090.2724609</ele>
        <time>2011-07-15T10:16:21Z</time>
      </trkpt>
      <trkpt lat="44.73594" lon="6.03925">
        <ele>1090.7529297</ele>
        <time>2011-07-15T10:16:27Z</time>
      </trkpt>
      <trkpt lat="44.73571" lon="6.03937">
        <ele>1091.7143555</ele>
        <time>2011-07-15T10:16:31Z</time>
      </trkpt>
      <trkpt lat="44.73541" lon="6.03954">
        <ele>1093.15625</ele>
        <time>2011-07-15T10:16:37Z</time>
      </trkpt>
      <trkpt lat="44.73506" lon="6.03977">
        <ele>1094.1176758</ele>
        <time>2011-07-15T10:16:45Z</time>
      </trkpt>
      <trkpt lat="44.73475" lon="6.03993">
        <ele>1095.0788574</ele>
        <time>2011-07-15T10:16:52Z</time>
      </trkpt>
      <trkpt lat="44.73435" lon="6.04004">
        <ele>1096.5209961</ele>
        <time>2011-07-15T10:17:00Z</time>
      </trkpt>
      <trkpt lat="44.73387" lon="6.04007">
        <ele>1097.4821777</ele>
        <time>2011-07-15T10:17:09Z</time>
      </trkpt>
      <trkpt lat="44.73357" lon="6.04008">
        <ele>1097.9628906</ele>
        <time>2011-07-15T10:17:16Z</time>
      </trkpt>
      <trkpt lat="44.73315" lon="6.04013">
        <ele>1099.4047852</ele>
        <time>2011-07-15T10:17:26Z</time>
      </trkpt>
      <trkpt lat="44.73286" lon="6.04022">
        <ele>1100.3664551</ele>
        <time>2011-07-15T10:17:33Z</time>
      </trkpt>
      <trkpt lat="44.73254" lon="6.04038">
        <ele>1101.8083496</ele>
        <time>2011-07-15T10:17:41Z</time>
      </trkpt>
      <trkpt lat="44.73208" lon="6.04063">
        <ele>1101.8083496</ele>
        <time>2011-07-15T10:17:52Z</time>
      </trkpt>
      <trkpt lat="44.73199" lon="6.04068">
        <ele>1101.3276367</ele>
        <time>2011-07-15T10:17:54Z</time>
      </trkpt>
      <trkpt lat="44.73181" lon="6.04079">
        <ele>1101.3276367</ele>
        <time>2011-07-15T10:17:58Z</time>
      </trkpt>
      <trkpt lat="44.73146" lon="6.04103">
        <ele>1105.1728516</ele>
        <time>2011-07-15T10:18:06Z</time>
      </trkpt>
      <trkpt lat="44.73137" lon="6.04111">
        <ele>1104.6921387</ele>
        <time>2011-07-15T10:18:09Z</time>
      </trkpt>
      <trkpt lat="44.73113" lon="6.04129">
        <ele>1106.6147461</ele>
        <time>2011-07-15T10:18:15Z</time>
      </trkpt>
      <trkpt lat="44.73099" lon="6.04143">
        <ele>1105.6535645</ele>
        <time>2011-07-15T10:18:19Z</time>
      </trkpt>
      <trkpt lat="44.73059" lon="6.04168">
        <ele>1109.0180664</ele>
        <time>2011-07-15T10:18:28Z</time>
      </trkpt>
      <trkpt lat="44.73026" lon="6.0419">
        <ele>1112.3825684</ele>
        <time>2011-07-15T10:18:36Z</time>
      </trkpt>
      <trkpt lat="44.72999" lon="6.04211">
        <ele>1109.979248</ele>
        <time>2011-07-15T10:18:43Z</time>
      </trkpt>
      <trkpt lat="44.72985" lon="6.04219">
        <ele>1111.9020996</ele>
        <time>2011-07-15T10:18:46Z</time>
      </trkpt>
      <trkpt lat="44.72973" lon="6.04228">
        <ele>1111.4213867</ele>
        <time>2011-07-15T10:18:49Z</time>
      </trkpt>
      <trkpt lat="44.72958" lon="6.04242">
        <ele>1112.3825684</ele>
        <time>2011-07-15T10:18:53Z</time>
      </trkpt>
      <trkpt lat="44.7295" lon="6.04248">
        <ele>1114.3051758</ele>
        <time>2011-07-15T10:18:55Z</time>
      </trkpt>
      <trkpt lat="44.7293" lon="6.04262">
        <ele>1114.3051758</ele>
        <time>2011-07-15T10:19:00Z</time>
      </trkpt>
      <trkpt lat="44.72921" lon="6.04274">
        <ele>1113.8244629</ele>
        <time>2011-07-15T10:19:03Z</time>
      </trkpt>
      <trkpt lat="44.72891" lon="6.04304">
        <ele>1109.979248</ele>
        <time>2011-07-15T10:19:11Z</time>
      </trkpt>
      <trkpt lat="44.72867" lon="6.04332">
        <ele>1109.4987793</ele>
        <time>2011-07-15T10:19:18Z</time>
      </trkpt>
      <trkpt lat="44.72865" lon="6.04336">
        <ele>1109.0180664</ele>
        <time>2011-07-15T10:19:19Z</time>
      </trkpt>
      <trkpt lat="44.72855" lon="6.04362">
        <ele>1109.979248</ele>
        <time>2011-07-15T10:19:24Z</time>
      </trkpt>
      <trkpt lat="44.72844" lon="6.04412">
        <ele>1108.0568848</ele>
        <time>2011-07-15T10:19:32Z</time>
      </trkpt>
      <trkpt lat="44.72834" lon="6.0446">
        <ele>1106.1340332</ele>
        <time>2011-07-15T10:19:38Z</time>
      </trkpt>
      <trkpt lat="44.72818" lon="6.04505">
        <ele>1104.2116699</ele>
        <time>2011-07-15T10:19:44Z</time>
      </trkpt>
      <trkpt lat="44.728" lon="6.04556">
        <ele>1104.2116699</ele>
        <time>2011-07-15T10:19:50Z</time>
      </trkpt>
      <trkpt lat="44.72769" lon="6.04634">
        <ele>1102.7695313</ele>
        <time>2011-07-15T10:19:59Z</time>
      </trkpt>
      <trkpt lat="44.72762" lon="6.04658">
        <ele>1102.2888184</ele>
        <time>2011-07-15T10:20:02Z</time>
      </trkpt>
      <trkpt lat="44.72756" lon="6.04722">
        <ele>1102.2888184</ele>
        <time>2011-07-15T10:20:10Z</time>
      </trkpt>
      <trkpt lat="44.72761" lon="6.0477">
        <ele>1102.7695313</ele>
        <time>2011-07-15T10:20:16Z</time>
      </trkpt>
      <trkpt lat="44.7277" lon="6.04827">
        <ele>1103.2502441</ele>
        <time>2011-07-15T10:20:23Z</time>
      </trkpt>
      <trkpt lat="44.72777" lon="6.0488">
        <ele>1104.2116699</ele>
        <time>2011-07-15T10:20:31Z</time>
      </trkpt>
      <trkpt lat="44.72777" lon="6.04932">
        <ele>1104.6921387</ele>
        <time>2011-07-15T10:20:39Z</time>
      </trkpt>
      <trkpt lat="44.72776" lon="6.04982">
        <ele>1104.6921387</ele>
        <time>2011-07-15T10:20:47Z</time>
      </trkpt>
      <trkpt lat="44.72775" lon="6.05024">
        <ele>1105.1728516</ele>
        <time>2011-07-15T10:20:54Z</time>
      </trkpt>
      <trkpt lat="44.72773" lon="6.05082">
        <ele>1105.6535645</ele>
        <time>2011-07-15T10:21:03Z</time>
      </trkpt>
      <trkpt lat="44.72775" lon="6.05147">
        <ele>1105.1728516</ele>
        <time>2011-07-15T10:21:13Z</time>
      </trkpt>
      <trkpt lat="44.72779" lon="6.05209">
        <ele>1104.6921387</ele>
        <time>2011-07-15T10:21:22Z</time>
      </trkpt>
      <trkpt lat="44.72784" lon="6.05267">
        <ele>1105.1728516</ele>
        <time>2011-07-15T10:21:30Z</time>
      </trkpt>
      <trkpt lat="44.72798" lon="6.05339">
        <ele>1106.6147461</ele>
        <time>2011-07-15T10:21:40Z</time>
      </trkpt>
      <trkpt lat="44.72813" lon="6.05405">
        <ele>1107.5761719</ele>
        <time>2011-07-15T10:21:50Z</time>
      </trkpt>
      <trkpt lat="44.7283" lon="6.05478">
        <ele>1109.4987793</ele>
        <time>2011-07-15T10:22:02Z</time>
      </trkpt>
      <trkpt lat="44.7284" lon="6.05521">
        <ele>1109.979248</ele>
        <time>2011-07-15T10:22:09Z</time>
      </trkpt>
      <trkpt lat="44.72849" lon="6.05574">
        <ele>1110.4599609</ele>
        <time>2011-07-15T10:22:17Z</time>
      </trkpt>
      <trkpt lat="44.72853" lon="6.05646">
        <ele>1110.9406738</ele>
        <time>2011-07-15T10:22:27Z</time>
      </trkpt>
      <trkpt lat="44.72851" lon="6.05711">
        <ele>1110.9406738</ele>
        <time>2011-07-15T10:22:36Z</time>
      </trkpt>
      <trkpt lat="44.72843" lon="6.05758">
        <ele>1109.979248</ele>
        <time>2011-07-15T10:22:43Z</time>
      </trkpt>
      <trkpt lat="44.72837" lon="6.05776">
        <ele>1109.4987793</ele>
        <time>2011-07-15T10:22:46Z</time>
      </trkpt>
      <trkpt lat="44.7281" lon="6.05818">
        <ele>1107.5761719</ele>
        <time>2011-07-15T10:22:53Z</time>
      </trkpt>
      <trkpt lat="44.72768" lon="6.0586">
        <ele>1106.1340332</ele>
        <time>2011-07-15T10:23:00Z</time>
      </trkpt>
      <trkpt lat="44.72725" lon="6.05912">
        <ele>1102.2888184</ele>
        <time>2011-07-15T10:23:07Z</time>
      </trkpt>
      <trkpt lat="44.72699" lon="6.05944">
        <ele>1100.3664551</ele>
        <time>2011-07-15T10:23:11Z</time>
      </trkpt>
      <trkpt lat="44.72676" lon="6.05995">
        <ele>1097.9628906</ele>
        <time>2011-07-15T10:23:16Z</time>
      </trkpt>
      <trkpt lat="44.72663" lon="6.06059">
        <ele>1095.0788574</ele>
        <time>2011-07-15T10:23:21Z</time>
      </trkpt>
      <trkpt lat="44.72658" lon="6.06138">
        <ele>1091.7143555</ele>
        <time>2011-07-15T10:23:27Z</time>
      </trkpt>
      <trkpt lat="44.72655" lon="6.0617">
        <ele>1090.7529297</ele>
        <time>2011-07-15T10:23:30Z</time>
      </trkpt>
      <trkpt lat="44.72641" lon="6.06189">
        <ele>1089.3110352</ele>
        <time>2011-07-15T10:23:34Z</time>
      </trkpt>
      <trkpt lat="44.72634" lon="6.06178">
        <ele>1088.3498535</ele>
        <time>2011-07-15T10:23:36Z</time>
      </trkpt>
      <trkpt lat="44.72634" lon="6.0616">
        <ele>1087.3884277</ele>
        <time>2011-07-15T10:23:38Z</time>
      </trkpt>
      <trkpt lat="44.72636" lon="6.06119">
        <ele>1085.4658203</ele>
        <time>2011-07-15T10:23:42Z</time>
      </trkpt>
      <trkpt lat="44.72627" lon="6.06076">
        <ele>1083.0622559</ele>
        <time>2011-07-15T10:23:46Z</time>
      </trkpt>
      <trkpt lat="44.72616" lon="6.06056">
        <ele>1082.1010742</ele>
        <time>2011-07-15T10:23:48Z</time>
      </trkpt>
      <trkpt lat="44.72573" lon="6.06001">
        <ele>1078.7365723</ele>
        <time>2011-07-15T10:23:54Z</time>
      </trkpt>
      <trkpt lat="44.7252" lon="6.0594">
        <ele>1074.4106445</ele>
        <time>2011-07-15T10:24:01Z</time>
      </trkpt>
      <trkpt lat="44.72513" lon="6.05933">
        <ele>1072.96875</ele>
        <time>2011-07-15T10:24:02Z</time>
      </trkpt>
      <trkpt lat="44.72462" lon="6.05896">
        <ele>1073.9299316</ele>
        <time>2011-07-15T10:24:07Z</time>
      </trkpt>
      <trkpt lat="44.72432" lon="6.05872">
        <ele>1073.9299316</ele>
        <time>2011-07-15T10:24:10Z</time>
      </trkpt>
      <trkpt lat="44.72387" lon="6.05858">
        <ele>1070.0847168</ele>
        <time>2011-07-15T10:24:14Z</time>
      </trkpt>
      <trkpt lat="44.72363" lon="6.05856">
        <ele>1068.6428223</ele>
        <time>2011-07-15T10:24:16Z</time>
      </trkpt>
      <trkpt lat="44.72318" lon="6.05834">
        <ele>1062.8747559</ele>
        <time>2011-07-15T10:24:20Z</time>
      </trkpt>
      <trkpt lat="44.72304" lon="6.05807">
        <ele>1059.9907227</ele>
        <time>2011-07-15T10:24:22Z</time>
      </trkpt>
      <trkpt lat="44.72299" lon="6.05793">
        <ele>1059.029541</ele>
        <time>2011-07-15T10:24:23Z</time>
      </trkpt>
      <trkpt lat="44.72284" lon="6.05758">
        <ele>1055.6650391</ele>
        <time>2011-07-15T10:24:27Z</time>
      </trkpt>
      <trkpt lat="44.72274" lon="6.05768">
        <ele>1053.2617188</ele>
        <time>2011-07-15T10:24:29Z</time>
      </trkpt>
      <trkpt lat="44.72273" lon="6.05791">
        <ele>1051.8195801</ele>
        <time>2011-07-15T10:24:31Z</time>
      </trkpt>
      <trkpt lat="44.72274" lon="6.05803">
        <ele>1051.3388672</ele>
        <time>2011-07-15T10:24:32Z</time>
      </trkpt>
      <trkpt lat="44.72289" lon="6.05878">
        <ele>1047.0129395</ele>
        <time>2011-07-15T10:24:38Z</time>
      </trkpt>
      <trkpt lat="44.72286" lon="6.05925">
        <ele>1044.6096191</ele>
        <time>2011-07-15T10:24:42Z</time>
      </trkpt>
      <trkpt lat="44.72267" lon="6.0595">
        <ele>1044.1291504</ele>
        <time>2011-07-15T10:24:45Z</time>
      </trkpt>
      <trkpt lat="44.72244" lon="6.0596">
        <ele>1043.6484375</ele>
        <time>2011-07-15T10:24:48Z</time>
      </trkpt>
      <trkpt lat="44.72237" lon="6.0596">
        <ele>1043.6484375</ele>
        <time>2011-07-15T10:24:49Z</time>
      </trkpt>
      <trkpt lat="44.72195" lon="6.05949">
        <ele>1044.6096191</ele>
        <time>2011-07-15T10:24:56Z</time>
      </trkpt>
      <trkpt lat="44.72173" lon="6.05946">
        <ele>1045.5710449</ele>
        <time>2011-07-15T10:25:01Z</time>
      </trkpt>
      <trkpt lat="44.72164" lon="6.05946">
        <ele>1046.0517578</ele>
        <time>2011-07-15T10:25:03Z</time>
      </trkpt>
      <trkpt lat="44.72152" lon="6.05946">
        <ele>1047.0129395</ele>
        <time>2011-07-15T10:25:06Z</time>
      </trkpt>
      <trkpt lat="44.72144" lon="6.05947">
        <ele>1047.9743652</ele>
        <time>2011-07-15T10:25:08Z</time>
      </trkpt>
      <trkpt lat="44.72125" lon="6.05947">
        <ele>1050.3776855</ele>
        <time>2011-07-15T10:25:14Z</time>
      </trkpt>
      <trkpt lat="44.72102" lon="6.05934">
        <ele>1057.5876465</ele>
        <time>2011-07-15T10:25:19Z</time>
      </trkpt>
      <trkpt lat="44.72094" lon="6.05929">
        <ele>1059.5102539</ele>
        <time>2011-07-15T10:25:21Z</time>
      </trkpt>
      <trkpt lat="44.72075" lon="6.05917">
        <ele>1058.5488281</ele>
        <time>2011-07-15T10:25:26Z</time>
      </trkpt>
      <trkpt lat="44.7206" lon="6.05909">
        <ele>1054.7036133</ele>
        <time>2011-07-15T10:25:30Z</time>
      </trkpt>
      <trkpt lat="44.72015" lon="6.05881">
        <ele>1057.5876465</ele>
        <time>2011-07-15T10:25:40Z</time>
      </trkpt>
      <trkpt lat="44.71979" lon="6.0586">
        <ele>1057.5876465</ele>
        <time>2011-07-15T10:25:48Z</time>
      </trkpt>
      <trkpt lat="44.71948" lon="6.05845">
        <ele>1056.1455078</ele>
        <time>2011-07-15T10:25:54Z</time>
      </trkpt>
      <trkpt lat="44.71902" lon="6.05838">
        <ele>1056.1455078</ele>
        <time>2011-07-15T10:26:02Z</time>
      </trkpt>
      <trkpt lat="44.71871" lon="6.05847">
        <ele>1057.5876465</ele>
        <time>2011-07-15T10:26:07Z</time>
      </trkpt>
      <trkpt lat="44.71835" lon="6.05874">
        <ele>1057.5876465</ele>
        <time>2011-07-15T10:26:13Z</time>
      </trkpt>
      <trkpt lat="44.71791" lon="6.05913">
        <ele>1057.5876465</ele>
        <time>2011-07-15T10:26:21Z</time>
      </trkpt>
      <trkpt lat="44.71748" lon="6.05936">
        <ele>1058.5488281</ele>
        <time>2011-07-15T10:26:28Z</time>
      </trkpt>
      <trkpt lat="44.71701" lon="6.05966">
        <ele>1059.029541</ele>
        <time>2011-07-15T10:26:36Z</time>
      </trkpt>
      <trkpt lat="44.71657" lon="6.06007">
        <ele>1058.5488281</ele>
        <time>2011-07-15T10:26:44Z</time>
      </trkpt>
      <trkpt lat="44.7162" lon="6.06038">
        <ele>1058.5488281</ele>
        <time>2011-07-15T10:26:51Z</time>
      </trkpt>
      <trkpt lat="44.71579" lon="6.06059">
        <ele>1058.0683594</ele>
        <time>2011-07-15T10:26:59Z</time>
      </trkpt>
      <trkpt lat="44.71539" lon="6.06077">
        <ele>1058.0683594</ele>
        <time>2011-07-15T10:27:07Z</time>
      </trkpt>
      <trkpt lat="44.71502" lon="6.0609">
        <ele>1058.0683594</ele>
        <time>2011-07-15T10:27:14Z</time>
      </trkpt>
      <trkpt lat="44.7146" lon="6.06094">
        <ele>1058.0683594</ele>
        <time>2011-07-15T10:27:21Z</time>
      </trkpt>
      <trkpt lat="44.71456" lon="6.06095">
        <ele>1058.5488281</ele>
        <time>2011-07-15T10:27:22Z</time>
      </trkpt>
      <trkpt lat="44.71427" lon="6.06097">
        <ele>1059.5102539</ele>
        <time>2011-07-15T10:27:29Z</time>
      </trkpt>
      <trkpt lat="44.71395" lon="6.06102">
        <ele>1060.9521484</ele>
        <time>2011-07-15T10:27:37Z</time>
      </trkpt>
      <trkpt lat="44.71365" lon="6.06112">
        <ele>1060.4714355</ele>
        <time>2011-07-15T10:27:45Z</time>
      </trkpt>
      <trkpt lat="44.71327" lon="6.06125">
        <ele>1058.5488281</ele>
        <time>2011-07-15T10:27:55Z</time>
      </trkpt>
      <trkpt lat="44.71298" lon="6.06132">
        <ele>1058.0683594</ele>
        <time>2011-07-15T10:28:03Z</time>
      </trkpt>
      <trkpt lat="44.71277" lon="6.06138">
        <ele>1057.1069336</ele>
        <time>2011-07-15T10:28:10Z</time>
      </trkpt>
      <trkpt lat="44.7126" lon="6.06142">
        <ele>1056.6262207</ele>
        <time>2011-07-15T10:28:15Z</time>
      </trkpt>
      <trkpt lat="44.71226" lon="6.06157">
        <ele>1056.1455078</ele>
        <time>2011-07-15T10:28:24Z</time>
      </trkpt>
      <trkpt lat="44.71222" lon="6.0616">
        <ele>1056.1455078</ele>
        <time>2011-07-15T10:28:25Z</time>
      </trkpt>
      <trkpt lat="44.71197" lon="6.06184">
        <ele>1055.1843262</ele>
        <time>2011-07-15T10:28:33Z</time>
      </trkpt>
      <trkpt lat="44.71179" lon="6.06208">
        <ele>1055.1843262</ele>
        <time>2011-07-15T10:28:41Z</time>
      </trkpt>
      <trkpt lat="44.71162" lon="6.06229">
        <ele>1055.1843262</ele>
        <time>2011-07-15T10:28:48Z</time>
      </trkpt>
      <trkpt lat="44.71144" lon="6.06253">
        <ele>1055.6650391</ele>
        <time>2011-07-15T10:28:55Z</time>
      </trkpt>
      <trkpt lat="44.71123" lon="6.06281">
        <ele>1055.1843262</ele>
        <time>2011-07-15T10:29:01Z</time>
      </trkpt>
      <trkpt lat="44.71091" lon="6.06322">
        <ele>1054.7036133</ele>
        <time>2011-07-15T10:29:09Z</time>
      </trkpt>
      <trkpt lat="44.71052" lon="6.06373">
        <ele>1053.7424316</ele>
        <time>2011-07-15T10:29:18Z</time>
      </trkpt>
      <trkpt lat="44.71011" lon="6.06428">
        <ele>1052.300293</ele>
        <time>2011-07-15T10:29:27Z</time>
      </trkpt>
      <trkpt lat="44.70954" lon="6.06503">
        <ele>1051.8195801</ele>
        <time>2011-07-15T10:29:38Z</time>
      </trkpt>
      <trkpt lat="44.7091" lon="6.0656">
        <ele>1050.8581543</ele>
        <time>2011-07-15T10:29:46Z</time>
      </trkpt>
      <trkpt lat="44.70857" lon="6.06634">
        <ele>1051.3388672</ele>
        <time>2011-07-15T10:29:56Z</time>
      </trkpt>
      <trkpt lat="44.70828" lon="6.06692">
        <ele>1052.7810059</ele>
        <time>2011-07-15T10:30:03Z</time>
      </trkpt>
      <trkpt lat="44.70808" lon="6.06757">
        <ele>1055.1843262</ele>
        <time>2011-07-15T10:30:11Z</time>
      </trkpt>
      <trkpt lat="44.70794" lon="6.06807">
        <ele>1055.6650391</ele>
        <time>2011-07-15T10:30:18Z</time>
      </trkpt>
      <trkpt lat="44.70781" lon="6.06852">
        <ele>1054.7036133</ele>
        <time>2011-07-15T10:30:25Z</time>
      </trkpt>
      <trkpt lat="44.70769" lon="6.06894">
        <ele>1054.2231445</ele>
        <time>2011-07-15T10:30:32Z</time>
      </trkpt>
      <trkpt lat="44.70755" lon="6.06945">
        <ele>1054.2231445</ele>
        <time>2011-07-15T10:30:41Z</time>
      </trkpt>
      <trkpt lat="44.70751" lon="6.06956">
        <ele>1054.7036133</ele>
        <time>2011-07-15T10:30:43Z</time>
      </trkpt>
      <trkpt lat="44.70742" lon="6.06986">
        <ele>1053.7424316</ele>
        <time>2011-07-15T10:30:48Z</time>
      </trkpt>
      <trkpt lat="44.70734" lon="6.07004">
        <ele>1053.2617188</ele>
        <time>2011-07-15T10:30:51Z</time>
      </trkpt>
      <trkpt lat="44.70712" lon="6.0703">
        <ele>1052.300293</ele>
        <time>2011-07-15T10:30:56Z</time>
      </trkpt>
      <trkpt lat="44.70692" lon="6.07032">
        <ele>1050.8581543</ele>
        <time>2011-07-15T10:30:59Z</time>
      </trkpt>
      <trkpt lat="44.70666" lon="6.07017">
        <ele>1049.4162598</ele>
        <time>2011-07-15T10:31:03Z</time>
      </trkpt>
      <trkpt lat="44.7065" lon="6.06995">
        <ele>1048.454834</ele>
        <time>2011-07-15T10:31:06Z</time>
      </trkpt>
      <trkpt lat="44.70625" lon="6.06926">
        <ele>1046.0517578</ele>
        <time>2011-07-15T10:31:13Z</time>
      </trkpt>
      <trkpt lat="44.70606" lon="6.06876">
        <ele>1045.090332</ele>
        <time>2011-07-15T10:31:18Z</time>
      </trkpt>
      <trkpt lat="44.70594" lon="6.0685">
        <ele>1043.6484375</ele>
        <time>2011-07-15T10:31:21Z</time>
      </trkpt>
      <trkpt lat="44.70564" lon="6.06827">
        <ele>1040.7644043</ele>
        <time>2011-07-15T10:31:26Z</time>
      </trkpt>
      <trkpt lat="44.70536" lon="6.06831">
        <ele>1040.2839355</ele>
        <time>2011-07-15T10:31:30Z</time>
      </trkpt>
      <trkpt lat="44.70483" lon="6.06865">
        <ele>1039.3225098</ele>
        <time>2011-07-15T10:31:38Z</time>
      </trkpt>
      <trkpt lat="44.70413" lon="6.06912">
        <ele>1039.3225098</ele>
        <time>2011-07-15T10:31:49Z</time>
      </trkpt>
      <trkpt lat="44.70364" lon="6.06944">
        <ele>1038.842041</ele>
        <time>2011-07-15T10:31:57Z</time>
      </trkpt>
      <trkpt lat="44.70333" lon="6.06961">
        <ele>1038.3613281</ele>
        <time>2011-07-15T10:32:02Z</time>
      </trkpt>
      <trkpt lat="44.7029" lon="6.06962">
        <ele>1036.9191895</ele>
        <time>2011-07-15T10:32:08Z</time>
      </trkpt>
      <trkpt lat="44.70231" lon="6.06959">
        <ele>1037.8806152</ele>
        <time>2011-07-15T10:32:16Z</time>
      </trkpt>
      <trkpt lat="44.70198" lon="6.06957">
        <ele>1037.8806152</ele>
        <time>2011-07-15T10:32:21Z</time>
      </trkpt>
      <trkpt lat="44.7015" lon="6.06965">
        <ele>1037.3999023</ele>
        <time>2011-07-15T10:32:28Z</time>
      </trkpt>
      <trkpt lat="44.70094" lon="6.06984">
        <ele>1037.3999023</ele>
        <time>2011-07-15T10:32:37Z</time>
      </trkpt>
      <trkpt lat="44.70088" lon="6.06987">
        <ele>1037.3999023</ele>
        <time>2011-07-15T10:32:38Z</time>
      </trkpt>
      <trkpt lat="44.70066" lon="6.07008">
        <ele>1037.3999023</ele>
        <time>2011-07-15T10:32:42Z</time>
      </trkpt>
      <trkpt lat="44.70026" lon="6.07069">
        <ele>1036.4387207</ele>
        <time>2011-07-15T10:32:50Z</time>
      </trkpt>
      <trkpt lat="44.69976" lon="6.07139">
        <ele>1035.4770508</ele>
        <time>2011-07-15T10:32:59Z</time>
      </trkpt>
      <trkpt lat="44.69921" lon="6.07198">
        <ele>1035.9577637</ele>
        <time>2011-07-15T10:33:08Z</time>
      </trkpt>
      <trkpt lat="44.69886" lon="6.07234">
        <ele>1037.3999023</ele>
        <time>2011-07-15T10:33:14Z</time>
      </trkpt>
      <trkpt lat="44.6986" lon="6.07245">
        <ele>1038.842041</ele>
        <time>2011-07-15T10:33:18Z</time>
      </trkpt>
      <trkpt lat="44.6979" lon="6.07248">
        <ele>1038.3613281</ele>
        <time>2011-07-15T10:33:28Z</time>
      </trkpt>
      <trkpt lat="44.69752" lon="6.07249">
        <ele>1038.842041</ele>
        <time>2011-07-15T10:33:34Z</time>
      </trkpt>
      <trkpt lat="44.697" lon="6.0725">
        <ele>1038.842041</ele>
        <time>2011-07-15T10:33:43Z</time>
      </trkpt>
      <trkpt lat="44.69663" lon="6.07257">
        <ele>1039.8032227</ele>
        <time>2011-07-15T10:33:50Z</time>
      </trkpt>
      <trkpt lat="44.69628" lon="6.07271">
        <ele>1040.7644043</ele>
        <time>2011-07-15T10:33:57Z</time>
      </trkpt>
      <trkpt lat="44.69565" lon="6.07297">
        <ele>1040.7644043</ele>
        <time>2011-07-15T10:34:09Z</time>
      </trkpt>
      <trkpt lat="44.69539" lon="6.07307">
        <ele>1041.2451172</ele>
        <time>2011-07-15T10:34:14Z</time>
      </trkpt>
      <trkpt lat="44.69515" lon="6.07318">
        <ele>1041.2451172</ele>
        <time>2011-07-15T10:34:19Z</time>
      </trkpt>
      <trkpt lat="44.6947" lon="6.07334">
        <ele>1042.6872559</ele>
        <time>2011-07-15T10:34:28Z</time>
      </trkpt>
      <trkpt lat="44.6942" lon="6.07365">
        <ele>1045.090332</ele>
        <time>2011-07-15T10:34:39Z</time>
      </trkpt>
      <trkpt lat="44.69415" lon="6.07368">
        <ele>1045.090332</ele>
        <time>2011-07-15T10:34:40Z</time>
      </trkpt>
      <trkpt lat="44.69392" lon="6.07384">
        <ele>1045.090332</ele>
        <time>2011-07-15T10:34:45Z</time>
      </trkpt>
      <trkpt lat="44.69355" lon="6.07402">
        <ele>1044.1291504</ele>
        <time>2011-07-15T10:34:51Z</time>
      </trkpt>
      <trkpt lat="44.69313" lon="6.07403">
        <ele>1042.206543</ele>
        <time>2011-07-15T10:34:57Z</time>
      </trkpt>
      <trkpt lat="44.69261" lon="6.07395">
        <ele>1039.8032227</ele>
        <time>2011-07-15T10:35:04Z</time>
      </trkpt>
      <trkpt lat="44.69194" lon="6.07386">
        <ele>1037.3999023</ele>
        <time>2011-07-15T10:35:13Z</time>
      </trkpt>
      <trkpt lat="44.69186" lon="6.07385">
        <ele>1036.9191895</ele>
        <time>2011-07-15T10:35:14Z</time>
      </trkpt>
      <trkpt lat="44.69138" lon="6.07399">
        <ele>1034.996582</ele>
        <time>2011-07-15T10:35:20Z</time>
      </trkpt>
      <trkpt lat="44.69071" lon="6.07446">
        <ele>1031.6318359</ele>
        <time>2011-07-15T10:35:28Z</time>
      </trkpt>
      <trkpt lat="44.69019" lon="6.07489">
        <ele>1029.7092285</ele>
        <time>2011-07-15T10:35:34Z</time>
      </trkpt>
      <trkpt lat="44.68947" lon="6.07569">
        <ele>1026.3447266</ele>
        <time>2011-07-15T10:35:43Z</time>
      </trkpt>
      <trkpt lat="44.68902" lon="6.0762">
        <ele>1024.4221191</ele>
        <time>2011-07-15T10:35:49Z</time>
      </trkpt>
      <trkpt lat="44.68867" lon="6.07636">
        <ele>1023.4609375</ele>
        <time>2011-07-15T10:35:53Z</time>
      </trkpt>
      <trkpt lat="44.68857" lon="6.07638">
        <ele>1023.4609375</ele>
        <time>2011-07-15T10:35:54Z</time>
      </trkpt>
      <trkpt lat="44.68797" lon="6.07639">
        <ele>1022.9802246</ele>
        <time>2011-07-15T10:36:01Z</time>
      </trkpt>
      <trkpt lat="44.68767" lon="6.07642">
        <ele>1022.4995117</ele>
        <time>2011-07-15T10:36:05Z</time>
      </trkpt>
      <trkpt lat="44.68741" lon="6.07655">
        <ele>1022.4995117</ele>
        <time>2011-07-15T10:36:09Z</time>
      </trkpt>
      <trkpt lat="44.68712" lon="6.0769">
        <ele>1023.4609375</ele>
        <time>2011-07-15T10:36:15Z</time>
      </trkpt>
      <trkpt lat="44.68684" lon="6.07736">
        <ele>1022.9802246</ele>
        <time>2011-07-15T10:36:22Z</time>
      </trkpt>
      <trkpt lat="44.68675" lon="6.07746">
        <ele>1022.9802246</ele>
        <time>2011-07-15T10:36:24Z</time>
      </trkpt>
      <trkpt lat="44.68649" lon="6.0776">
        <ele>1023.4609375</ele>
        <time>2011-07-15T10:36:29Z</time>
      </trkpt>
      <trkpt lat="44.68643" lon="6.07759">
        <ele>1023.4609375</ele>
        <time>2011-07-15T10:36:30Z</time>
      </trkpt>
      <trkpt lat="44.68588" lon="6.07743">
        <ele>1023.9414063</ele>
        <time>2011-07-15T10:36:39Z</time>
      </trkpt>
      <trkpt lat="44.68578" lon="6.07739">
        <ele>1023.9414063</ele>
        <time>2011-07-15T10:36:41Z</time>
      </trkpt>
      <trkpt lat="44.68562" lon="6.07716">
        <ele>1023.9414063</ele>
        <time>2011-07-15T10:36:46Z</time>
      </trkpt>
      <trkpt lat="44.68553" lon="6.07679">
        <ele>1025.3833008</ele>
        <time>2011-07-15T10:36:53Z</time>
      </trkpt>
      <trkpt lat="44.68543" lon="6.07642">
        <ele>1026.8254395</ele>
        <time>2011-07-15T10:37:00Z</time>
      </trkpt>
      <trkpt lat="44.68527" lon="6.07617">
        <ele>1027.3061523</ele>
        <time>2011-07-15T10:37:06Z</time>
      </trkpt>
      <trkpt lat="44.68502" lon="6.0759">
        <ele>1027.3061523</ele>
        <time>2011-07-15T10:37:12Z</time>
      </trkpt>
      <trkpt lat="44.68479" lon="6.07565">
        <ele>1026.3447266</ele>
        <time>2011-07-15T10:37:17Z</time>
      </trkpt>
      <trkpt lat="44.68449" lon="6.07534">
        <ele>1022.4995117</ele>
        <time>2011-07-15T10:37:23Z</time>
      </trkpt>
      <trkpt lat="44.68422" lon="6.07503">
        <ele>1020.0961914</ele>
        <time>2011-07-15T10:37:28Z</time>
      </trkpt>
      <trkpt lat="44.68381" lon="6.07451">
        <ele>1017.692627</ele>
        <time>2011-07-15T10:37:35Z</time>
      </trkpt>
      <trkpt lat="44.68349" lon="6.07401">
        <ele>1014.8088379</ele>
        <time>2011-07-15T10:37:41Z</time>
      </trkpt>
      <trkpt lat="44.6831" lon="6.07335">
        <ele>1010.4829102</ele>
        <time>2011-07-15T10:37:48Z</time>
      </trkpt>
      <trkpt lat="44.68292" lon="6.07306">
        <ele>1009.0410156</ele>
        <time>2011-07-15T10:37:51Z</time>
      </trkpt>
      <trkpt lat="44.68261" lon="6.07277">
        <ele>1008.5603027</ele>
        <time>2011-07-15T10:37:55Z</time>
      </trkpt>
      <trkpt lat="44.68234" lon="6.07271">
        <ele>1007.5991211</ele>
        <time>2011-07-15T10:37:58Z</time>
      </trkpt>
      <trkpt lat="44.68209" lon="6.07283">
        <ele>1007.5991211</ele>
        <time>2011-07-15T10:38:01Z</time>
      </trkpt>
      <trkpt lat="44.68197" lon="6.07298">
        <ele>1007.1184082</ele>
        <time>2011-07-15T10:38:03Z</time>
      </trkpt>
      <trkpt lat="44.68169" lon="6.07349">
        <ele>1007.5991211</ele>
        <time>2011-07-15T10:38:09Z</time>
      </trkpt>
      <trkpt lat="44.68151" lon="6.07371">
        <ele>1010.4829102</ele>
        <time>2011-07-15T10:38:13Z</time>
      </trkpt>
      <trkpt lat="44.68133" lon="6.07366">
        <ele>1010.4829102</ele>
        <time>2011-07-15T10:38:15Z</time>
      </trkpt>
      <trkpt lat="44.68063" lon="6.07354">
        <ele>1004.2346191</ele>
        <time>2011-07-15T10:38:22Z</time>
      </trkpt>
      <trkpt lat="44.6803" lon="6.07349">
        <ele>1000.3891602</ele>
        <time>2011-07-15T10:38:25Z</time>
      </trkpt>
      <trkpt lat="44.67971" lon="6.07359">
        <ele>996.0632324</ele>
        <time>2011-07-15T10:38:30Z</time>
      </trkpt>
      <trkpt lat="44.67899" lon="6.07391">
        <ele>989.8146973</ele>
        <time>2011-07-15T10:38:36Z</time>
      </trkpt>
      <trkpt lat="44.67825" lon="6.07431">
        <ele>985.0080566</ele>
        <time>2011-07-15T10:38:42Z</time>
      </trkpt>
      <trkpt lat="44.67772" lon="6.0744">
        <ele>983.0852051</ele>
        <time>2011-07-15T10:38:46Z</time>
      </trkpt>
      <trkpt lat="44.67726" lon="6.07449">
        <ele>980.6821289</ele>
        <time>2011-07-15T10:38:50Z</time>
      </trkpt>
      <trkpt lat="44.67692" lon="6.07456">
        <ele>979.2399902</ele>
        <time>2011-07-15T10:38:54Z</time>
      </trkpt>
      <trkpt lat="44.67662" lon="6.07446">
        <ele>977.317627</ele>
        <time>2011-07-15T10:38:58Z</time>
      </trkpt>
      <trkpt lat="44.67655" lon="6.07442">
        <ele>976.8369141</ele>
        <time>2011-07-15T10:38:59Z</time>
      </trkpt>
      <trkpt lat="44.67618" lon="6.07406">
        <ele>975.8754883</ele>
        <time>2011-07-15T10:39:04Z</time>
      </trkpt>
      <trkpt lat="44.67567" lon="6.07342">
        <ele>976.3562012</ele>
        <time>2011-07-15T10:39:12Z</time>
      </trkpt>
      <trkpt lat="44.67534" lon="6.07303">
        <ele>978.2788086</ele>
        <time>2011-07-15T10:39:18Z</time>
      </trkpt>
      <trkpt lat="44.67517" lon="6.07282">
        <ele>979.2399902</ele>
        <time>2011-07-15T10:39:22Z</time>
      </trkpt>
      <trkpt lat="44.67506" lon="6.07256">
        <ele>979.7207031</ele>
        <time>2011-07-15T10:39:26Z</time>
      </trkpt>
      <trkpt lat="44.67496" lon="6.07225">
        <ele>980.201416</ele>
        <time>2011-07-15T10:39:31Z</time>
      </trkpt>
      <trkpt lat="44.67488" lon="6.07201">
        <ele>981.6433105</ele>
        <time>2011-07-15T10:39:36Z</time>
      </trkpt>
      <trkpt lat="44.67492" lon="6.07193">
        <ele>981.6433105</ele>
        <time>2011-07-15T10:39:38Z</time>
      </trkpt>
      <trkpt lat="44.67507" lon="6.07162">
        <ele>982.1240234</ele>
        <time>2011-07-15T10:39:45Z</time>
      </trkpt>
      <trkpt lat="44.67517" lon="6.07129">
        <ele>982.6047363</ele>
        <time>2011-07-15T10:39:52Z</time>
      </trkpt>
      <trkpt lat="44.67529" lon="6.07096">
        <ele>983.565918</ele>
        <time>2011-07-15T10:40:00Z</time>
      </trkpt>
      <trkpt lat="44.67538" lon="6.07067">
        <ele>984.5273438</ele>
        <time>2011-07-15T10:40:07Z</time>
      </trkpt>
      <trkpt lat="44.67547" lon="6.07035">
        <ele>985.4885254</ele>
        <time>2011-07-15T10:40:15Z</time>
      </trkpt>
      <trkpt lat="44.67556" lon="6.07002">
        <ele>986.4499512</ele>
        <time>2011-07-15T10:40:23Z</time>
      </trkpt>
      <trkpt lat="44.67564" lon="6.0697">
        <ele>987.4111328</ele>
        <time>2011-07-15T10:40:31Z</time>
      </trkpt>
      <trkpt lat="44.67574" lon="6.0694">
        <ele>988.8535156</ele>
        <time>2011-07-15T10:40:38Z</time>
      </trkpt>
      <trkpt lat="44.67584" lon="6.06897">
        <ele>990.2954102</ele>
        <time>2011-07-15T10:40:48Z</time>
      </trkpt>
      <trkpt lat="44.67588" lon="6.06866">
        <ele>992.2180176</ele>
        <time>2011-07-15T10:40:55Z</time>
      </trkpt>
      <trkpt lat="44.6759" lon="6.06831">
        <ele>994.140625</ele>
        <time>2011-07-15T10:41:03Z</time>
      </trkpt>
      <trkpt lat="44.67594" lon="6.06803">
        <ele>995.5825195</ele>
        <time>2011-07-15T10:41:10Z</time>
      </trkpt>
      <trkpt lat="44.67599" lon="6.0678">
        <ele>995.5825195</ele>
        <time>2011-07-15T10:41:16Z</time>
      </trkpt>
      <trkpt lat="44.67609" lon="6.06753">
        <ele>996.5439453</ele>
        <time>2011-07-15T10:41:23Z</time>
      </trkpt>
      <trkpt lat="44.67618" lon="6.0673">
        <ele>997.505127</ele>
        <time>2011-07-15T10:41:29Z</time>
      </trkpt>
      <trkpt lat="44.67629" lon="6.06706">
        <ele>998.4663086</ele>
        <time>2011-07-15T10:41:36Z</time>
      </trkpt>
      <trkpt lat="44.67643" lon="6.06683">
        <ele>1000.8696289</ele>
        <time>2011-07-15T10:41:43Z</time>
      </trkpt>
      <trkpt lat="44.67664" lon="6.06655">
        <ele>1003.2729492</ele>
        <time>2011-07-15T10:41:53Z</time>
      </trkpt>
      <trkpt lat="44.67682" lon="6.06636">
        <ele>1004.7150879</ele>
        <time>2011-07-15T10:42:00Z</time>
      </trkpt>
      <trkpt lat="44.67704" lon="6.06612">
        <ele>1006.6376953</ele>
        <time>2011-07-15T10:42:09Z</time>
      </trkpt>
      <trkpt lat="44.67725" lon="6.06588">
        <ele>1008.5603027</ele>
        <time>2011-07-15T10:42:17Z</time>
      </trkpt>
      <trkpt lat="44.67744" lon="6.06571">
        <ele>1010.0021973</ele>
        <time>2011-07-15T10:42:24Z</time>
      </trkpt>
      <trkpt lat="44.67752" lon="6.06553">
        <ele>1010.4829102</ele>
        <time>2011-07-15T10:42:29Z</time>
      </trkpt>
      <trkpt lat="44.67752" lon="6.06534">
        <ele>1011.4443359</ele>
        <time>2011-07-15T10:42:34Z</time>
      </trkpt>
      <trkpt lat="44.67751" lon="6.06509">
        <ele>1013.3669434</ele>
        <time>2011-07-15T10:42:41Z</time>
      </trkpt>
      <trkpt lat="44.67752" lon="6.06482">
        <ele>1015.2895508</ele>
        <time>2011-07-15T10:42:48Z</time>
      </trkpt>
      <trkpt lat="44.67757" lon="6.06452">
        <ele>1017.2121582</ele>
        <time>2011-07-15T10:42:56Z</time>
      </trkpt>
      <trkpt lat="44.67766" lon="6.06428">
        <ele>1018.6540527</ele>
        <time>2011-07-15T10:43:04Z</time>
      </trkpt>
      <trkpt lat="44.67775" lon="6.06409">
        <ele>1020.0961914</ele>
        <time>2011-07-15T10:43:11Z</time>
      </trkpt>
      <trkpt lat="44.67785" lon="6.06392">
        <ele>1022.0187988</ele>
        <time>2011-07-15T10:43:18Z</time>
      </trkpt>
      <trkpt lat="44.67799" lon="6.06373">
        <ele>1025.3833008</ele>
        <time>2011-07-15T10:43:26Z</time>
      </trkpt>
      <trkpt lat="44.67814" lon="6.06362">
        <ele>1027.7866211</ele>
        <time>2011-07-15T10:43:33Z</time>
      </trkpt>
      <trkpt lat="44.67833" lon="6.06349">
        <ele>1031.1513672</ele>
        <time>2011-07-15T10:43:42Z</time>
      </trkpt>
      <trkpt lat="44.67849" lon="6.06337">
        <ele>1033.5544434</ele>
        <time>2011-07-15T10:43:49Z</time>
      </trkpt>
      <trkpt lat="44.67863" lon="6.06322">
        <ele>1035.9577637</ele>
        <time>2011-07-15T10:43:56Z</time>
      </trkpt>
      <trkpt lat="44.67875" lon="6.06305">
        <ele>1037.8806152</ele>
        <time>2011-07-15T10:44:03Z</time>
      </trkpt>
      <trkpt lat="44.67885" lon="6.06284">
        <ele>1039.8032227</ele>
        <time>2011-07-15T10:44:10Z</time>
      </trkpt>
      <trkpt lat="44.67893" lon="6.06258">
        <ele>1041.2451172</ele>
        <time>2011-07-15T10:44:17Z</time>
      </trkpt>
      <trkpt lat="44.67905" lon="6.06233">
        <ele>1042.6872559</ele>
        <time>2011-07-15T10:44:25Z</time>
      </trkpt>
      <trkpt lat="44.67923" lon="6.06226">
        <ele>1043.1677246</ele>
        <time>2011-07-15T10:44:31Z</time>
      </trkpt>
      <trkpt lat="44.67948" lon="6.06221">
        <ele>1043.6484375</ele>
        <time>2011-07-15T10:44:38Z</time>
      </trkpt>
      <trkpt lat="44.67967" lon="6.06217">
        <ele>1043.6484375</ele>
        <time>2011-07-15T10:44:43Z</time>
      </trkpt>
      <trkpt lat="44.67996" lon="6.06212">
        <ele>1043.6484375</ele>
        <time>2011-07-15T10:44:50Z</time>
      </trkpt>
      <trkpt lat="44.68044" lon="6.06203">
        <ele>1041.7258301</ele>
        <time>2011-07-15T10:45:00Z</time>
      </trkpt>
      <trkpt lat="44.68087" lon="6.06199">
        <ele>1040.2839355</ele>
        <time>2011-07-15T10:45:08Z</time>
      </trkpt>
      <trkpt lat="44.68127" lon="6.06206">
        <ele>1039.8032227</ele>
        <time>2011-07-15T10:45:15Z</time>
      </trkpt>
      <trkpt lat="44.68177" lon="6.06219">
        <ele>1039.8032227</ele>
        <time>2011-07-15T10:45:24Z</time>
      </trkpt>
      <trkpt lat="44.68229" lon="6.06226">
        <ele>1039.3225098</ele>
        <time>2011-07-15T10:45:33Z</time>
      </trkpt>
      <trkpt lat="44.68241" lon="6.06225">
        <ele>1038.842041</ele>
        <time>2011-07-15T10:45:35Z</time>
      </trkpt>
      <trkpt lat="44.68264" lon="6.06215">
        <ele>1038.3613281</ele>
        <time>2011-07-15T10:45:39Z</time>
      </trkpt>
      <trkpt lat="44.68293" lon="6.06186">
        <ele>1038.3613281</ele>
        <time>2011-07-15T10:45:45Z</time>
      </trkpt>
      <trkpt lat="44.6832" lon="6.06142">
        <ele>1038.3613281</ele>
        <time>2011-07-15T10:45:53Z</time>
      </trkpt>
      <trkpt lat="44.68353" lon="6.06086">
        <ele>1038.3613281</ele>
        <time>2011-07-15T10:46:04Z</time>
      </trkpt>
      <trkpt lat="44.68381" lon="6.06042">
        <ele>1038.3613281</ele>
        <time>2011-07-15T10:46:13Z</time>
      </trkpt>
      <trkpt lat="44.68406" lon="6.05997">
        <ele>1038.3613281</ele>
        <time>2011-07-15T10:46:22Z</time>
      </trkpt>
      <trkpt lat="44.68438" lon="6.05943">
        <ele>1038.842041</ele>
        <time>2011-07-15T10:46:33Z</time>
      </trkpt>
      <trkpt lat="44.68466" lon="6.05905">
        <ele>1038.842041</ele>
        <time>2011-07-15T10:46:42Z</time>
      </trkpt>
      <trkpt lat="44.68498" lon="6.05871">
        <ele>1039.3225098</ele>
        <time>2011-07-15T10:46:51Z</time>
      </trkpt>
      <trkpt lat="44.68535" lon="6.05835">
        <ele>1039.8032227</ele>
        <time>2011-07-15T10:47:01Z</time>
      </trkpt>
      <trkpt lat="44.68569" lon="6.058">
        <ele>1041.2451172</ele>
        <time>2011-07-15T10:47:11Z</time>
      </trkpt>
      <trkpt lat="44.68593" lon="6.05777">
        <ele>1042.206543</ele>
        <time>2011-07-15T10:47:18Z</time>
      </trkpt>
      <trkpt lat="44.68619" lon="6.0575">
        <ele>1043.1677246</ele>
        <time>2011-07-15T10:47:26Z</time>
      </trkpt>
      <trkpt lat="44.68654" lon="6.05714">
        <ele>1043.1677246</ele>
        <time>2011-07-15T10:47:37Z</time>
      </trkpt>
      <trkpt lat="44.6868" lon="6.05689">
        <ele>1044.1291504</ele>
        <time>2011-07-15T10:47:45Z</time>
      </trkpt>
      <trkpt lat="44.68713" lon="6.05661">
        <ele>1045.090332</ele>
        <time>2011-07-15T10:47:54Z</time>
      </trkpt>
      <trkpt lat="44.68735" lon="6.05648">
        <ele>1046.5324707</ele>
        <time>2011-07-15T10:48:00Z</time>
      </trkpt>
      <trkpt lat="44.68766" lon="6.05635">
        <ele>1048.9355469</ele>
        <time>2011-07-15T10:48:08Z</time>
      </trkpt>
      <trkpt lat="44.68799" lon="6.05615">
        <ele>1050.3776855</ele>
        <time>2011-07-15T10:48:17Z</time>
      </trkpt>
      <trkpt lat="44.68826" lon="6.05594">
        <ele>1051.3388672</ele>
        <time>2011-07-15T10:48:25Z</time>
      </trkpt>
      <trkpt lat="44.68848" lon="6.05574">
        <ele>1053.2617188</ele>
        <time>2011-07-15T10:48:32Z</time>
      </trkpt>
      <trkpt lat="44.68868" lon="6.05553">
        <ele>1053.2617188</ele>
        <time>2011-07-15T10:48:39Z</time>
      </trkpt>
      <trkpt lat="44.68889" lon="6.0553">
        <ele>1055.1843262</ele>
        <time>2011-07-15T10:48:46Z</time>
      </trkpt>
      <trkpt lat="44.68922" lon="6.05503">
        <ele>1058.5488281</ele>
        <time>2011-07-15T10:48:56Z</time>
      </trkpt>
      <trkpt lat="44.68948" lon="6.05483">
        <ele>1060.9521484</ele>
        <time>2011-07-15T10:49:04Z</time>
      </trkpt>
      <trkpt lat="44.68976" lon="6.05459">
        <ele>1062.394043</ele>
        <time>2011-07-15T10:49:13Z</time>
      </trkpt>
      <trkpt lat="44.69003" lon="6.05435">
        <ele>1063.3554688</ele>
        <time>2011-07-15T10:49:22Z</time>
      </trkpt>
      <trkpt lat="44.69028" lon="6.05414">
        <ele>1063.8359375</ele>
        <time>2011-07-15T10:49:30Z</time>
      </trkpt>
      <trkpt lat="44.69053" lon="6.05392">
        <ele>1064.3166504</ele>
        <time>2011-07-15T10:49:37Z</time>
      </trkpt>
      <trkpt lat="44.69082" lon="6.05365">
        <ele>1063.3554688</ele>
        <time>2011-07-15T10:49:45Z</time>
      </trkpt>
      <trkpt lat="44.69111" lon="6.05332">
        <ele>1061.9135742</ele>
        <time>2011-07-15T10:49:53Z</time>
      </trkpt>
      <trkpt lat="44.69114" lon="6.05328">
        <ele>1062.394043</ele>
        <time>2011-07-15T10:49:54Z</time>
      </trkpt>
      <trkpt lat="44.69134" lon="6.05294">
        <ele>1063.8359375</ele>
        <time>2011-07-15T10:50:02Z</time>
      </trkpt>
      <trkpt lat="44.69148" lon="6.05261">
        <ele>1064.3166504</ele>
        <time>2011-07-15T10:50:10Z</time>
      </trkpt>
      <trkpt lat="44.69157" lon="6.05226">
        <ele>1065.7587891</ele>
        <time>2011-07-15T10:50:18Z</time>
      </trkpt>
      <trkpt lat="44.69159" lon="6.05197">
        <ele>1066.2392578</ele>
        <time>2011-07-15T10:50:25Z</time>
      </trkpt>
      <trkpt lat="44.69156" lon="6.05159">
        <ele>1065.7587891</ele>
        <time>2011-07-15T10:50:32Z</time>
      </trkpt>
      <trkpt lat="44.69154" lon="6.05112">
        <ele>1064.3166504</ele>
        <time>2011-07-15T10:50:38Z</time>
      </trkpt>
      <trkpt lat="44.69158" lon="6.05049">
        <ele>1063.3554688</ele>
        <time>2011-07-15T10:50:46Z</time>
      </trkpt>
      <trkpt lat="44.69162" lon="6.04984">
        <ele>1062.8747559</ele>
        <time>2011-07-15T10:50:55Z</time>
      </trkpt>
      <trkpt lat="44.69166" lon="6.04927">
        <ele>1063.8359375</ele>
        <time>2011-07-15T10:51:03Z</time>
      </trkpt>
      <trkpt lat="44.69169" lon="6.04878">
        <ele>1065.2780762</ele>
        <time>2011-07-15T10:51:10Z</time>
      </trkpt>
      <trkpt lat="44.69172" lon="6.04843">
        <ele>1066.2392578</ele>
        <time>2011-07-15T10:51:16Z</time>
      </trkpt>
      <trkpt lat="44.6918" lon="6.04796">
        <ele>1066.7199707</ele>
        <time>2011-07-15T10:51:24Z</time>
      </trkpt>
      <trkpt lat="44.69186" lon="6.04751">
        <ele>1065.7587891</ele>
        <time>2011-07-15T10:51:30Z</time>
      </trkpt>
      <trkpt lat="44.69189" lon="6.04693">
        <ele>1064.3166504</ele>
        <time>2011-07-15T10:51:37Z</time>
      </trkpt>
      <trkpt lat="44.69191" lon="6.04626">
        <ele>1063.3554688</ele>
        <time>2011-07-15T10:51:45Z</time>
      </trkpt>
      <trkpt lat="44.69188" lon="6.04565">
        <ele>1061.9135742</ele>
        <time>2011-07-15T10:51:52Z</time>
      </trkpt>
      <trkpt lat="44.69182" lon="6.04503">
        <ele>1060.9521484</ele>
        <time>2011-07-15T10:52:00Z</time>
      </trkpt>
      <trkpt lat="44.69186" lon="6.0447">
        <ele>1060.4714355</ele>
        <time>2011-07-15T10:52:04Z</time>
      </trkpt>
      <trkpt lat="44.69203" lon="6.04416">
        <ele>1059.5102539</ele>
        <time>2011-07-15T10:52:11Z</time>
      </trkpt>
      <trkpt lat="44.69205" lon="6.04408">
        <ele>1059.5102539</ele>
        <time>2011-07-15T10:52:12Z</time>
      </trkpt>
      <trkpt lat="44.69215" lon="6.04379">
        <ele>1059.5102539</ele>
        <time>2011-07-15T10:52:16Z</time>
      </trkpt>
      <trkpt lat="44.69216" lon="6.0434">
        <ele>1060.4714355</ele>
        <time>2011-07-15T10:52:22Z</time>
      </trkpt>
      <trkpt lat="44.69211" lon="6.04293">
        <ele>1062.394043</ele>
        <time>2011-07-15T10:52:30Z</time>
      </trkpt>
      <trkpt lat="44.6921" lon="6.04288">
        <ele>1062.8747559</ele>
        <time>2011-07-15T10:52:31Z</time>
      </trkpt>
      <trkpt lat="44.69203" lon="6.04264">
        <ele>1063.8359375</ele>
        <time>2011-07-15T10:52:36Z</time>
      </trkpt>
      <trkpt lat="44.69189" lon="6.04223">
        <ele>1066.2392578</ele>
        <time>2011-07-15T10:52:45Z</time>
      </trkpt>
      <trkpt lat="44.69171" lon="6.04184">
        <ele>1068.1621094</ele>
        <time>2011-07-15T10:52:54Z</time>
      </trkpt>
      <trkpt lat="44.69159" lon="6.04156">
        <ele>1070.0847168</ele>
        <time>2011-07-15T10:53:01Z</time>
      </trkpt>
      <trkpt lat="44.69147" lon="6.04129">
        <ele>1072.0073242</ele>
        <time>2011-07-15T10:53:08Z</time>
      </trkpt>
      <trkpt lat="44.69134" lon="6.04098">
        <ele>1072.96875</ele>
        <time>2011-07-15T10:53:16Z</time>
      </trkpt>
      <trkpt lat="44.69118" lon="6.0406">
        <ele>1075.3718262</ele>
        <time>2011-07-15T10:53:25Z</time>
      </trkpt>
      <trkpt lat="44.69104" lon="6.04028">
        <ele>1076.8139648</ele>
        <time>2011-07-15T10:53:33Z</time>
      </trkpt>
      <trkpt lat="44.6909" lon="6.04002">
        <ele>1078.2558594</ele>
        <time>2011-07-15T10:53:40Z</time>
      </trkpt>
      <trkpt lat="44.69074" lon="6.03971">
        <ele>1080.6591797</ele>
        <time>2011-07-15T10:53:48Z</time>
      </trkpt>
      <trkpt lat="44.69057" lon="6.03941">
        <ele>1082.1010742</ele>
        <time>2011-07-15T10:53:56Z</time>
      </trkpt>
      <trkpt lat="44.69037" lon="6.03922">
        <ele>1084.0239258</ele>
        <time>2011-07-15T10:54:03Z</time>
      </trkpt>
      <trkpt lat="44.69017" lon="6.0391">
        <ele>1085.4658203</ele>
        <time>2011-07-15T10:54:10Z</time>
      </trkpt>
      <trkpt lat="44.69001" lon="6.03892">
        <ele>1086.4272461</ele>
        <time>2011-07-15T10:54:16Z</time>
      </trkpt>
      <trkpt lat="44.6899" lon="6.03868">
        <ele>1087.8691406</ele>
        <time>2011-07-15T10:54:22Z</time>
      </trkpt>
      <trkpt lat="44.68978" lon="6.03829">
        <ele>1089.791748</ele>
        <time>2011-07-15T10:54:32Z</time>
      </trkpt>
      <trkpt lat="44.6897" lon="6.03794">
        <ele>1090.7529297</ele>
        <time>2011-07-15T10:54:41Z</time>
      </trkpt>
      <trkpt lat="44.6896" lon="6.03753">
        <ele>1094.1176758</ele>
        <time>2011-07-15T10:54:51Z</time>
      </trkpt>
      <trkpt lat="44.68955" lon="6.03716">
        <ele>1095.5595703</ele>
        <time>2011-07-15T10:55:00Z</time>
      </trkpt>
      <trkpt lat="44.68952" lon="6.03684">
        <ele>1098.4433594</ele>
        <time>2011-07-15T10:55:08Z</time>
      </trkpt>
      <trkpt lat="44.68947" lon="6.03661">
        <ele>1100.3664551</ele>
        <time>2011-07-15T10:55:14Z</time>
      </trkpt>
      <trkpt lat="44.68931" lon="6.03647">
        <ele>1102.2888184</ele>
        <time>2011-07-15T10:55:20Z</time>
      </trkpt>
      <trkpt lat="44.68913" lon="6.03638">
        <ele>1104.2116699</ele>
        <time>2011-07-15T10:55:27Z</time>
      </trkpt>
      <trkpt lat="44.68892" lon="6.0363">
        <ele>1105.6535645</ele>
        <time>2011-07-15T10:55:35Z</time>
      </trkpt>
      <trkpt lat="44.68868" lon="6.03617">
        <ele>1107.5761719</ele>
        <time>2011-07-15T10:55:44Z</time>
      </trkpt>
      <trkpt lat="44.68855" lon="6.03605">
        <ele>1108.5373535</ele>
        <time>2011-07-15T10:55:50Z</time>
      </trkpt>
      <trkpt lat="44.68838" lon="6.03584">
        <ele>1109.979248</ele>
        <time>2011-07-15T10:55:57Z</time>
      </trkpt>
      <trkpt lat="44.68823" lon="6.03554">
        <ele>1112.8632813</ele>
        <time>2011-07-15T10:56:05Z</time>
      </trkpt>
      <trkpt lat="44.68821" lon="6.03522">
        <ele>1113.3439941</ele>
        <time>2011-07-15T10:56:11Z</time>
      </trkpt>
      <trkpt lat="44.68826" lon="6.03486">
        <ele>1112.8632813</ele>
        <time>2011-07-15T10:56:17Z</time>
      </trkpt>
      <trkpt lat="44.68834" lon="6.03445">
        <ele>1111.4213867</ele>
        <time>2011-07-15T10:56:22Z</time>
      </trkpt>
      <trkpt lat="44.68859" lon="6.03383">
        <ele>1110.4599609</ele>
        <time>2011-07-15T10:56:29Z</time>
      </trkpt>
      <trkpt lat="44.68873" lon="6.03356">
        <ele>1112.3825684</ele>
        <time>2011-07-15T10:56:34Z</time>
      </trkpt>
      <trkpt lat="44.68879" lon="6.03341">
        <ele>1112.8632813</ele>
        <time>2011-07-15T10:56:37Z</time>
      </trkpt>
      <trkpt lat="44.68887" lon="6.03315">
        <ele>1115.2666016</ele>
        <time>2011-07-15T10:56:42Z</time>
      </trkpt>
      <trkpt lat="44.68893" lon="6.03288">
        <ele>1115.7473145</ele>
        <time>2011-07-15T10:56:47Z</time>
      </trkpt>
      <trkpt lat="44.68898" lon="6.03271">
        <ele>1114.7858887</ele>
        <time>2011-07-15T10:56:50Z</time>
      </trkpt>
      <trkpt lat="44.68913" lon="6.03228">
        <ele>1112.8632813</ele>
        <time>2011-07-15T10:56:57Z</time>
      </trkpt>
      <trkpt lat="44.6893" lon="6.03187">
        <ele>1110.9406738</ele>
        <time>2011-07-15T10:57:03Z</time>
      </trkpt>
      <trkpt lat="44.68948" lon="6.0312">
        <ele>1109.0180664</ele>
        <time>2011-07-15T10:57:10Z</time>
      </trkpt>
      <trkpt lat="44.68957" lon="6.03066">
        <ele>1108.0568848</ele>
        <time>2011-07-15T10:57:16Z</time>
      </trkpt>
      <trkpt lat="44.68965" lon="6.03015">
        <ele>1109.0180664</ele>
        <time>2011-07-15T10:57:23Z</time>
      </trkpt>
      <trkpt lat="44.68969" lon="6.0299">
        <ele>1109.4987793</ele>
        <time>2011-07-15T10:57:27Z</time>
      </trkpt>
      <trkpt lat="44.68968" lon="6.02937">
        <ele>1110.4599609</ele>
        <time>2011-07-15T10:57:36Z</time>
      </trkpt>
      <trkpt lat="44.68967" lon="6.02931">
        <ele>1110.4599609</ele>
        <time>2011-07-15T10:57:37Z</time>
      </trkpt>
      <trkpt lat="44.6897" lon="6.02891">
        <ele>1109.979248</ele>
        <time>2011-07-15T10:57:44Z</time>
      </trkpt>
      <trkpt lat="44.68976" lon="6.0286">
        <ele>1110.4599609</ele>
        <time>2011-07-15T10:57:49Z</time>
      </trkpt>
      <trkpt lat="44.68984" lon="6.02799">
        <ele>1110.4599609</ele>
        <time>2011-07-15T10:57:58Z</time>
      </trkpt>
      <trkpt lat="44.68991" lon="6.02734">
        <ele>1110.9406738</ele>
        <time>2011-07-15T10:58:07Z</time>
      </trkpt>
      <trkpt lat="44.69002" lon="6.02677">
        <ele>1111.9020996</ele>
        <time>2011-07-15T10:58:15Z</time>
      </trkpt>
      <trkpt lat="44.69011" lon="6.02614">
        <ele>1112.3825684</ele>
        <time>2011-07-15T10:58:24Z</time>
      </trkpt>
      <trkpt lat="44.69011" lon="6.02566">
        <ele>1113.3439941</ele>
        <time>2011-07-15T10:58:32Z</time>
      </trkpt>
      <trkpt lat="44.69009" lon="6.02516">
        <ele>1113.8244629</ele>
        <time>2011-07-15T10:58:41Z</time>
      </trkpt>
      <trkpt lat="44.69003" lon="6.02468">
        <ele>1115.2666016</ele>
        <time>2011-07-15T10:58:50Z</time>
      </trkpt>
      <trkpt lat="44.68995" lon="6.02414">
        <ele>1116.7087402</ele>
        <time>2011-07-15T10:59:01Z</time>
      </trkpt>
      <trkpt lat="44.68993" lon="6.02373">
        <ele>1117.1894531</ele>
        <time>2011-07-15T10:59:09Z</time>
      </trkpt>
      <trkpt lat="44.68985" lon="6.02342">
        <ele>1117.6699219</ele>
        <time>2011-07-15T10:59:15Z</time>
      </trkpt>
      <trkpt lat="44.68965" lon="6.02312">
        <ele>1119.1120605</ele>
        <time>2011-07-15T10:59:22Z</time>
      </trkpt>
      <trkpt lat="44.68944" lon="6.02277">
        <ele>1120.0732422</ele>
        <time>2011-07-15T10:59:30Z</time>
      </trkpt>
      <trkpt lat="44.68927" lon="6.02249">
        <ele>1121.9958496</ele>
        <time>2011-07-15T10:59:38Z</time>
      </trkpt>
      <trkpt lat="44.68915" lon="6.02225">
        <ele>1122.9572754</ele>
        <time>2011-07-15T10:59:44Z</time>
      </trkpt>
      <trkpt lat="44.68899" lon="6.02181">
        <ele>1124.3991699</ele>
        <time>2011-07-15T10:59:54Z</time>
      </trkpt>
      <trkpt lat="44.68882" lon="6.02152">
        <ele>1126.3217773</ele>
        <time>2011-07-15T11:00:01Z</time>
      </trkpt>
      <trkpt lat="44.68866" lon="6.02139">
        <ele>1127.7636719</ele>
        <time>2011-07-15T11:00:06Z</time>
      </trkpt>
      <trkpt lat="44.68835" lon="6.02132">
        <ele>1129.2055664</ele>
        <time>2011-07-15T11:00:14Z</time>
      </trkpt>
      <trkpt lat="44.68796" lon="6.02136">
        <ele>1129.6862793</ele>
        <time>2011-07-15T11:00:23Z</time>
      </trkpt>
      <trkpt lat="44.68748" lon="6.02137">
        <ele>1130.6477051</ele>
        <time>2011-07-15T11:00:34Z</time>
      </trkpt>
      <trkpt lat="44.68704" lon="6.02133">
        <ele>1131.128418</ele>
        <time>2011-07-15T11:00:44Z</time>
      </trkpt>
      <trkpt lat="44.6867" lon="6.0213">
        <ele>1132.0898438</ele>
        <time>2011-07-15T11:00:52Z</time>
      </trkpt>
      <trkpt lat="44.68645" lon="6.02124">
        <ele>1133.0510254</ele>
        <time>2011-07-15T11:00:59Z</time>
      </trkpt>
      <trkpt lat="44.68619" lon="6.02117">
        <ele>1133.5317383</ele>
        <time>2011-07-15T11:01:05Z</time>
      </trkpt>
      <trkpt lat="44.68589" lon="6.02112">
        <ele>1134.0124512</ele>
        <time>2011-07-15T11:01:11Z</time>
      </trkpt>
      <trkpt lat="44.68545" lon="6.02105">
        <ele>1134.0124512</ele>
        <time>2011-07-15T11:01:19Z</time>
      </trkpt>
      <trkpt lat="44.68509" lon="6.0211">
        <ele>1134.0124512</ele>
        <time>2011-07-15T11:01:25Z</time>
      </trkpt>
      <trkpt lat="44.68456" lon="6.0213">
        <ele>1135.9350586</ele>
        <time>2011-07-15T11:01:34Z</time>
      </trkpt>
      <trkpt lat="44.68422" lon="6.02131">
        <ele>1137.857666</ele>
        <time>2011-07-15T11:01:40Z</time>
      </trkpt>
      <trkpt lat="44.68403" lon="6.02115">
        <ele>1138.3383789</ele>
        <time>2011-07-15T11:01:44Z</time>
      </trkpt>
      <trkpt lat="44.68393" lon="6.0209">
        <ele>1138.8190918</ele>
        <time>2011-07-15T11:01:48Z</time>
      </trkpt>
      <trkpt lat="44.6839" lon="6.02071">
        <ele>1139.2995605</ele>
        <time>2011-07-15T11:01:51Z</time>
      </trkpt>
      <trkpt lat="44.68383" lon="6.02027">
        <ele>1139.2995605</ele>
        <time>2011-07-15T11:01:58Z</time>
      </trkpt>
      <trkpt lat="44.68375" lon="6.02001">
        <ele>1138.8190918</ele>
        <time>2011-07-15T11:02:03Z</time>
      </trkpt>
      <trkpt lat="44.68368" lon="6.01988">
        <ele>1138.8190918</ele>
        <time>2011-07-15T11:02:08Z</time>
      </trkpt>
      <trkpt lat="44.68367" lon="6.01988">
        <ele>1138.8190918</ele>
        <time>2011-07-15T11:02:13Z</time>
      </trkpt>
      <trkpt lat="44.68365" lon="6.01989">
        <ele>1137.857666</ele>
        <time>2011-07-15T11:02:17Z</time>
      </trkpt>
      <trkpt lat="44.68363" lon="6.01987">
        <ele>1137.3769531</ele>
        <time>2011-07-15T11:02:21Z</time>
      </trkpt>
      <trkpt lat="44.68362" lon="6.01988">
        <ele>1136.8962402</ele>
        <time>2011-07-15T11:02:30Z</time>
      </trkpt>
      <trkpt lat="44.68363" lon="6.01988">
        <ele>1139.2995605</ele>
        <time>2011-07-15T11:02:40Z</time>
      </trkpt>
      <trkpt lat="44.68362" lon="6.01987">
        <ele>1144.1062012</ele>
        <time>2011-07-15T11:03:05Z</time>
      </trkpt>
      <trkpt lat="44.68363" lon="6.01987">
        <ele>1142.1835938</ele>
        <time>2011-07-15T11:03:13Z</time>
      </trkpt>
      <trkpt lat="44.68366" lon="6.01986">
        <ele>1141.222168</ele>
        <time>2011-07-15T11:03:20Z</time>
      </trkpt>
      <trkpt lat="44.68368" lon="6.01988">
        <ele>1142.1835938</ele>
        <time>2011-07-15T11:03:26Z</time>
      </trkpt>
      <trkpt lat="44.68368" lon="6.01989">
        <ele>1141.222168</ele>
        <time>2011-07-15T11:03:33Z</time>
      </trkpt>
      <trkpt lat="44.68368" lon="6.01988">
        <ele>1139.7802734</ele>
        <time>2011-07-15T11:03:44Z</time>
      </trkpt>
      <trkpt lat="44.68368" lon="6.01988">
        <ele>1137.857666</ele>
        <time>2011-07-15T11:03:54Z</time>
      </trkpt>
      <trkpt lat="44.6837" lon="6.01986">
        <ele>1138.8190918</ele>
        <time>2011-07-15T11:03:59Z</time>
      </trkpt>
      <trkpt lat="44.6837" lon="6.01985">
        <ele>1138.3383789</ele>
        <time>2011-07-15T11:04:00Z</time>
      </trkpt>
      <trkpt lat="44.68368" lon="6.01963">
        <ele>1137.857666</ele>
        <time>2011-07-15T11:04:06Z</time>
      </trkpt>
      <trkpt lat="44.68364" lon="6.01925">
        <ele>1136.8962402</ele>
        <time>2011-07-15T11:04:12Z</time>
      </trkpt>
      <trkpt lat="44.68364" lon="6.01891">
        <ele>1136.8962402</ele>
        <time>2011-07-15T11:04:17Z</time>
      </trkpt>
      <trkpt lat="44.68374" lon="6.01842">
        <ele>1137.3769531</ele>
        <time>2011-07-15T11:04:26Z</time>
      </trkpt>
      <trkpt lat="44.6838" lon="6.01809">
        <ele>1138.8190918</ele>
        <time>2011-07-15T11:04:32Z</time>
      </trkpt>
      <trkpt lat="44.68389" lon="6.01766">
        <ele>1138.8190918</ele>
        <time>2011-07-15T11:04:40Z</time>
      </trkpt>
      <trkpt lat="44.68395" lon="6.01738">
        <ele>1140.7414551</ele>
        <time>2011-07-15T11:04:47Z</time>
      </trkpt>
      <trkpt lat="44.68398" lon="6.01723">
        <ele>1140.7414551</ele>
        <time>2011-07-15T11:04:51Z</time>
      </trkpt>
      <trkpt lat="44.68402" lon="6.01698">
        <ele>1141.7028809</ele>
        <time>2011-07-15T11:04:57Z</time>
      </trkpt>
      <trkpt lat="44.68409" lon="6.01672">
        <ele>1141.222168</ele>
        <time>2011-07-15T11:05:04Z</time>
      </trkpt>
      <trkpt lat="44.68413" lon="6.01646">
        <ele>1140.2609863</ele>
        <time>2011-07-15T11:05:10Z</time>
      </trkpt>
      <trkpt lat="44.68423" lon="6.01602">
        <ele>1139.7802734</ele>
        <time>2011-07-15T11:05:17Z</time>
      </trkpt>
      <trkpt lat="44.68429" lon="6.01543">
        <ele>1138.3383789</ele>
        <time>2011-07-15T11:05:25Z</time>
      </trkpt>
      <trkpt lat="44.68428" lon="6.01491">
        <ele>1137.3769531</ele>
        <time>2011-07-15T11:05:31Z</time>
      </trkpt>
      <trkpt lat="44.68425" lon="6.01464">
        <ele>1137.3769531</ele>
        <time>2011-07-15T11:05:34Z</time>
      </trkpt>
      <trkpt lat="44.68409" lon="6.01395">
        <ele>1134.973877</ele>
        <time>2011-07-15T11:05:41Z</time>
      </trkpt>
      <trkpt lat="44.68388" lon="6.01335">
        <ele>1133.0510254</ele>
        <time>2011-07-15T11:05:47Z</time>
      </trkpt>
      <trkpt lat="44.68384" lon="6.01293">
        <ele>1132.5705566</ele>
        <time>2011-07-15T11:05:51Z</time>
      </trkpt>
      <trkpt lat="44.68391" lon="6.01271">
        <ele>1133.5317383</ele>
        <time>2011-07-15T11:05:54Z</time>
      </trkpt>
      <trkpt lat="44.68407" lon="6.01246">
        <ele>1134.973877</ele>
        <time>2011-07-15T11:05:59Z</time>
      </trkpt>
      <trkpt lat="44.68433" lon="6.01232">
        <ele>1137.857666</ele>
        <time>2011-07-15T11:06:06Z</time>
      </trkpt>
      <trkpt lat="44.68465" lon="6.01226">
        <ele>1138.8190918</ele>
        <time>2011-07-15T11:06:14Z</time>
      </trkpt>
      <trkpt lat="44.685" lon="6.01234">
        <ele>1140.2609863</ele>
        <time>2011-07-15T11:06:22Z</time>
      </trkpt>
      <trkpt lat="44.68532" lon="6.01247">
        <ele>1139.2995605</ele>
        <time>2011-07-15T11:06:29Z</time>
      </trkpt>
      <trkpt lat="44.68566" lon="6.01261">
        <ele>1137.857666</ele>
        <time>2011-07-15T11:06:35Z</time>
      </trkpt>
      <trkpt lat="44.68603" lon="6.01274">
        <ele>1135.9350586</ele>
        <time>2011-07-15T11:06:41Z</time>
      </trkpt>
      <trkpt lat="44.68641" lon="6.01277">
        <ele>1134.0124512</ele>
        <time>2011-07-15T11:06:47Z</time>
      </trkpt>
      <trkpt lat="44.68647" lon="6.01276">
        <ele>1133.5317383</ele>
        <time>2011-07-15T11:06:48Z</time>
      </trkpt>
      <trkpt lat="44.68688" lon="6.01257">
        <ele>1131.128418</ele>
        <time>2011-07-15T11:06:54Z</time>
      </trkpt>
      <trkpt lat="44.68731" lon="6.01227">
        <ele>1132.0898438</ele>
        <time>2011-07-15T11:07:01Z</time>
      </trkpt>
      <trkpt lat="44.68747" lon="6.0121">
        <ele>1133.0510254</ele>
        <time>2011-07-15T11:07:05Z</time>
      </trkpt>
      <trkpt lat="44.6875" lon="6.01206">
        <ele>1133.0510254</ele>
        <time>2011-07-15T11:07:06Z</time>
      </trkpt>
      <trkpt lat="44.68757" lon="6.01194">
        <ele>1133.5317383</ele>
        <time>2011-07-15T11:07:10Z</time>
      </trkpt>
      <trkpt lat="44.68767" lon="6.01175">
        <ele>1134.973877</ele>
        <time>2011-07-15T11:07:18Z</time>
      </trkpt>
      <trkpt lat="44.68774" lon="6.01162">
        <ele>1135.9350586</ele>
        <time>2011-07-15T11:07:23Z</time>
      </trkpt>
      <trkpt lat="44.68784" lon="6.01135">
        <ele>1137.3769531</ele>
        <time>2011-07-15T11:07:31Z</time>
      </trkpt>
      <trkpt lat="44.68791" lon="6.01103">
        <ele>1137.857666</ele>
        <time>2011-07-15T11:07:40Z</time>
      </trkpt>
      <trkpt lat="44.68796" lon="6.01075">
        <ele>1139.7802734</ele>
        <time>2011-07-15T11:07:48Z</time>
      </trkpt>
      <trkpt lat="44.688" lon="6.01047">
        <ele>1141.222168</ele>
        <time>2011-07-15T11:07:56Z</time>
      </trkpt>
      <trkpt lat="44.68805" lon="6.01019">
        <ele>1142.1835938</ele>
        <time>2011-07-15T11:08:04Z</time>
      </trkpt>
      <trkpt lat="44.68812" lon="6.00995">
        <ele>1145.0673828</ele>
        <time>2011-07-15T11:08:11Z</time>
      </trkpt>
      <trkpt lat="44.68818" lon="6.00983">
        <ele>1147.4707031</ele>
        <time>2011-07-15T11:08:16Z</time>
      </trkpt>
      <trkpt lat="44.68829" lon="6.00974">
        <ele>1148.9128418</ele>
        <time>2011-07-15T11:08:21Z</time>
      </trkpt>
      <trkpt lat="44.68848" lon="6.00969">
        <ele>1150.3549805</ele>
        <time>2011-07-15T11:08:28Z</time>
      </trkpt>
      <trkpt lat="44.68879" lon="6.00959">
        <ele>1151.796875</ele>
        <time>2011-07-15T11:08:38Z</time>
      </trkpt>
      <trkpt lat="44.68899" lon="6.00956">
        <ele>1152.7580566</ele>
        <time>2011-07-15T11:08:44Z</time>
      </trkpt>
      <trkpt lat="44.68923" lon="6.00957">
        <ele>1153.2387695</ele>
        <time>2011-07-15T11:08:51Z</time>
      </trkpt>
      <trkpt lat="44.68947" lon="6.00969">
        <ele>1153.2387695</ele>
        <time>2011-07-15T11:08:58Z</time>
      </trkpt>
      <trkpt lat="44.68972" lon="6.00986">
        <ele>1151.796875</ele>
        <time>2011-07-15T11:09:04Z</time>
      </trkpt>
      <trkpt lat="44.69001" lon="6.01003">
        <ele>1148.9128418</ele>
        <time>2011-07-15T11:09:09Z</time>
      </trkpt>
      <trkpt lat="44.69013" lon="6.01012">
        <ele>1147.4707031</ele>
        <time>2011-07-15T11:09:11Z</time>
      </trkpt>
      <trkpt lat="44.69034" lon="6.01042">
        <ele>1144.5866699</ele>
        <time>2011-07-15T11:09:15Z</time>
      </trkpt>
      <trkpt lat="44.69062" lon="6.01116">
        <ele>1141.222168</ele>
        <time>2011-07-15T11:09:22Z</time>
      </trkpt>
      <trkpt lat="44.69089" lon="6.01167">
        <ele>1139.2995605</ele>
        <time>2011-07-15T11:09:27Z</time>
      </trkpt>
      <trkpt lat="44.691" lon="6.0123">
        <ele>1137.3769531</ele>
        <time>2011-07-15T11:09:32Z</time>
      </trkpt>
      <trkpt lat="44.6911" lon="6.01316">
        <ele>1134.0124512</ele>
        <time>2011-07-15T11:09:38Z</time>
      </trkpt>
      <trkpt lat="44.69127" lon="6.01396">
        <ele>1132.5705566</ele>
        <time>2011-07-15T11:09:44Z</time>
      </trkpt>
      <trkpt lat="44.69148" lon="6.0145">
        <ele>1132.0898438</ele>
        <time>2011-07-15T11:09:49Z</time>
      </trkpt>
      <trkpt lat="44.69172" lon="6.01489">
        <ele>1131.6088867</ele>
        <time>2011-07-15T11:09:54Z</time>
      </trkpt>
      <trkpt lat="44.69195" lon="6.01514">
        <ele>1132.0898438</ele>
        <time>2011-07-15T11:09:59Z</time>
      </trkpt>
      <trkpt lat="44.69219" lon="6.01532">
        <ele>1133.5317383</ele>
        <time>2011-07-15T11:10:05Z</time>
      </trkpt>
      <trkpt lat="44.6925" lon="6.01543">
        <ele>1134.4931641</ele>
        <time>2011-07-15T11:10:13Z</time>
      </trkpt>
      <trkpt lat="44.69276" lon="6.01544">
        <ele>1134.973877</ele>
        <time>2011-07-15T11:10:20Z</time>
      </trkpt>
      <trkpt lat="44.69303" lon="6.0154">
        <ele>1134.0124512</ele>
        <time>2011-07-15T11:10:27Z</time>
      </trkpt>
      <trkpt lat="44.69323" lon="6.01532">
        <ele>1134.0124512</ele>
        <time>2011-07-15T11:10:32Z</time>
      </trkpt>
      <trkpt lat="44.69361" lon="6.01516">
        <ele>1133.0510254</ele>
        <time>2011-07-15T11:10:41Z</time>
      </trkpt>
      <trkpt lat="44.69383" lon="6.01503">
        <ele>1133.0510254</ele>
        <time>2011-07-15T11:10:47Z</time>
      </trkpt>
      <trkpt lat="44.69387" lon="6.01501">
        <ele>1133.0510254</ele>
        <time>2011-07-15T11:10:48Z</time>
      </trkpt>
      <trkpt lat="44.69421" lon="6.0148">
        <ele>1131.128418</ele>
        <time>2011-07-15T11:10:56Z</time>
      </trkpt>
      <trkpt lat="44.69445" lon="6.01458">
        <ele>1129.2055664</ele>
        <time>2011-07-15T11:11:01Z</time>
      </trkpt>
      <trkpt lat="44.6945" lon="6.01452">
        <ele>1129.2055664</ele>
        <time>2011-07-15T11:11:02Z</time>
      </trkpt>
      <trkpt lat="44.69465" lon="6.01413">
        <ele>1129.2055664</ele>
        <time>2011-07-15T11:11:07Z</time>
      </trkpt>
      <trkpt lat="44.69468" lon="6.01374">
        <ele>1128.7250977</ele>
        <time>2011-07-15T11:11:12Z</time>
      </trkpt>
      <trkpt lat="44.69472" lon="6.01354">
        <ele>1128.7250977</ele>
        <time>2011-07-15T11:11:15Z</time>
      </trkpt>
      <trkpt lat="44.69479" lon="6.01336">
        <ele>1129.2055664</ele>
        <time>2011-07-15T11:11:18Z</time>
      </trkpt>
      <trkpt lat="44.69488" lon="6.01324">
        <ele>1129.6862793</ele>
        <time>2011-07-15T11:11:21Z</time>
      </trkpt>
      <trkpt lat="44.69518" lon="6.01289">
        <ele>1130.6477051</ele>
        <time>2011-07-15T11:11:30Z</time>
      </trkpt>
      <trkpt lat="44.69544" lon="6.01262">
        <ele>1132.5705566</ele>
        <time>2011-07-15T11:11:39Z</time>
      </trkpt>
      <trkpt lat="44.69567" lon="6.01237">
        <ele>1133.5317383</ele>
        <time>2011-07-15T11:11:48Z</time>
      </trkpt>
      <trkpt lat="44.69573" lon="6.01228">
        <ele>1134.4931641</ele>
        <time>2011-07-15T11:11:51Z</time>
      </trkpt>
      <trkpt lat="44.69573" lon="6.01228">
        <ele>1134.4931641</ele>
        <time>2011-07-15T11:11:51Z</time>
      </trkpt>
      <trkpt lat="44.69574" lon="6.01224">
        <ele>1134.4931641</ele>
        <time>2011-07-15T11:11:52Z</time>
      </trkpt>
      <trkpt lat="44.69568" lon="6.012">
        <ele>1134.973877</ele>
        <time>2011-07-15T11:11:59Z</time>
      </trkpt>
      <trkpt lat="44.6956" lon="6.01178">
        <ele>1135.9350586</ele>
        <time>2011-07-15T11:12:06Z</time>
      </trkpt>
      <trkpt lat="44.69552" lon="6.01157">
        <ele>1136.8962402</ele>
        <time>2011-07-15T11:12:13Z</time>
      </trkpt>
      <trkpt lat="44.69545" lon="6.01134">
        <ele>1137.857666</ele>
        <time>2011-07-15T11:12:20Z</time>
      </trkpt>
      <trkpt lat="44.6954" lon="6.01111">
        <ele>1140.7414551</ele>
        <time>2011-07-15T11:12:27Z</time>
      </trkpt>
      <trkpt lat="44.69536" lon="6.01084">
        <ele>1143.1447754</ele>
        <time>2011-07-15T11:12:35Z</time>
      </trkpt>
      <trkpt lat="44.69524" lon="6.0108">
        <ele>1146.0288086</ele>
        <time>2011-07-15T11:12:40Z</time>
      </trkpt>
      <trkpt lat="44.69507" lon="6.01089">
        <ele>1148.4321289</ele>
        <time>2011-07-15T11:12:47Z</time>
      </trkpt>
      <trkpt lat="44.69484" lon="6.011">
        <ele>1151.3161621</ele>
        <time>2011-07-15T11:12:55Z</time>
      </trkpt>
      <trkpt lat="44.69464" lon="6.011">
        <ele>1153.2387695</ele>
        <time>2011-07-15T11:13:02Z</time>
      </trkpt>
      <trkpt lat="44.69444" lon="6.01091">
        <ele>1154.6806641</ele>
        <time>2011-07-15T11:13:10Z</time>
      </trkpt>
      <trkpt lat="44.69422" lon="6.01077">
        <ele>1156.6032715</ele>
        <time>2011-07-15T11:13:19Z</time>
      </trkpt>
      <trkpt lat="44.6941" lon="6.01073">
        <ele>1157.5646973</ele>
        <time>2011-07-15T11:13:24Z</time>
      </trkpt>
      <trkpt lat="44.6939" lon="6.01079">
        <ele>1159.4873047</ele>
        <time>2011-07-15T11:13:31Z</time>
      </trkpt>
      <trkpt lat="44.69364" lon="6.01095">
        <ele>1163.3325195</ele>
        <time>2011-07-15T11:13:41Z</time>
      </trkpt>
      <trkpt lat="44.69346" lon="6.01116">
        <ele>1166.2165527</ele>
        <time>2011-07-15T11:13:50Z</time>
      </trkpt>
      <trkpt lat="44.69323" lon="6.0115">
        <ele>1169.5812988</ele>
        <time>2011-07-15T11:14:02Z</time>
      </trkpt>
      <trkpt lat="44.69312" lon="6.0117">
        <ele>1171.5036621</ele>
        <time>2011-07-15T11:14:09Z</time>
      </trkpt>
      <trkpt lat="44.69297" lon="6.01193">
        <ele>1172.4650879</ele>
        <time>2011-07-15T11:14:17Z</time>
      </trkpt>
      <trkpt lat="44.69281" lon="6.01206">
        <ele>1173.4265137</ele>
        <time>2011-07-15T11:14:24Z</time>
      </trkpt>
      <trkpt lat="44.69265" lon="6.01205">
        <ele>1174.8684082</ele>
        <time>2011-07-15T11:14:30Z</time>
      </trkpt>
      <trkpt lat="44.69248" lon="6.01195">
        <ele>1176.3103027</ele>
        <time>2011-07-15T11:14:37Z</time>
      </trkpt>
      <trkpt lat="44.69226" lon="6.01179">
        <ele>1178.2329102</ele>
        <time>2011-07-15T11:14:46Z</time>
      </trkpt>
      <trkpt lat="44.69208" lon="6.01149">
        <ele>1180.1557617</ele>
        <time>2011-07-15T11:14:56Z</time>
      </trkpt>
      <trkpt lat="44.69196" lon="6.01125">
        <ele>1182.0783691</ele>
        <time>2011-07-15T11:15:04Z</time>
      </trkpt>
      <trkpt lat="44.6919" lon="6.01098">
        <ele>1183.5202637</ele>
        <time>2011-07-15T11:15:12Z</time>
      </trkpt>
      <trkpt lat="44.69185" lon="6.01069">
        <ele>1185.4428711</ele>
        <time>2011-07-15T11:15:20Z</time>
      </trkpt>
      <trkpt lat="44.69185" lon="6.01036">
        <ele>1186.8847656</ele>
        <time>2011-07-15T11:15:28Z</time>
      </trkpt>
      <trkpt lat="44.69189" lon="6.01">
        <ele>1188.8076172</ele>
        <time>2011-07-15T11:15:37Z</time>
      </trkpt>
      <trkpt lat="44.69187" lon="6.00965">
        <ele>1190.7299805</ele>
        <time>2011-07-15T11:15:46Z</time>
      </trkpt>
      <trkpt lat="44.6918" lon="6.00941">
        <ele>1192.1721191</ele>
        <time>2011-07-15T11:15:53Z</time>
      </trkpt>
      <trkpt lat="44.69177" lon="6.00916">
        <ele>1193.6140137</ele>
        <time>2011-07-15T11:16:00Z</time>
      </trkpt>
      <trkpt lat="44.69184" lon="6.00893">
        <ele>1194.5751953</ele>
        <time>2011-07-15T11:16:07Z</time>
      </trkpt>
      <trkpt lat="44.692" lon="6.00877">
        <ele>1196.0175781</ele>
        <time>2011-07-15T11:16:14Z</time>
      </trkpt>
      <trkpt lat="44.69218" lon="6.00861">
        <ele>1197.9401855</ele>
        <time>2011-07-15T11:16:22Z</time>
      </trkpt>
      <trkpt lat="44.6923" lon="6.00833">
        <ele>1199.862793</ele>
        <time>2011-07-15T11:16:31Z</time>
      </trkpt>
      <trkpt lat="44.69243" lon="6.00812">
        <ele>1201.3046875</ele>
        <time>2011-07-15T11:16:39Z</time>
      </trkpt>
      <trkpt lat="44.69257" lon="6.00794">
        <ele>1205.1499023</ele>
        <time>2011-07-15T11:16:47Z</time>
      </trkpt>
      <trkpt lat="44.69274" lon="6.00778">
        <ele>1208.0339355</ele>
        <time>2011-07-15T11:16:55Z</time>
      </trkpt>
      <trkpt lat="44.69289" lon="6.00768">
        <ele>1210.9177246</ele>
        <time>2011-07-15T11:17:02Z</time>
      </trkpt>
      <trkpt lat="44.69307" lon="6.00757">
        <ele>1214.2824707</ele>
        <time>2011-07-15T11:17:10Z</time>
      </trkpt>
      <trkpt lat="44.69321" lon="6.0075">
        <ele>1217.1665039</ele>
        <time>2011-07-15T11:17:17Z</time>
      </trkpt>
      <trkpt lat="44.69331" lon="6.00741">
        <ele>1219.0891113</ele>
        <time>2011-07-15T11:17:22Z</time>
      </trkpt>
      <trkpt lat="44.69343" lon="6.00721">
        <ele>1222.4536133</ele>
        <time>2011-07-15T11:17:30Z</time>
      </trkpt>
      <trkpt lat="44.69356" lon="6.00696">
        <ele>1225.8181152</ele>
        <time>2011-07-15T11:17:39Z</time>
      </trkpt>
      <trkpt lat="44.69368" lon="6.00674">
        <ele>1227.7407227</ele>
        <time>2011-07-15T11:17:47Z</time>
      </trkpt>
      <trkpt lat="44.69379" lon="6.00656">
        <ele>1228.7023926</ele>
        <time>2011-07-15T11:17:54Z</time>
      </trkpt>
      <trkpt lat="44.69392" lon="6.00638">
        <ele>1230.625</ele>
        <time>2011-07-15T11:18:01Z</time>
      </trkpt>
      <trkpt lat="44.69407" lon="6.00619">
        <ele>1233.5087891</ele>
        <time>2011-07-15T11:18:09Z</time>
      </trkpt>
      <trkpt lat="44.69424" lon="6.00606">
        <ele>1235.9121094</ele>
        <time>2011-07-15T11:18:17Z</time>
      </trkpt>
      <trkpt lat="44.69443" lon="6.00594">
        <ele>1237.3540039</ele>
        <time>2011-07-15T11:18:25Z</time>
      </trkpt>
      <trkpt lat="44.69452" lon="6.00575">
        <ele>1239.7573242</ele>
        <time>2011-07-15T11:18:31Z</time>
      </trkpt>
      <trkpt lat="44.69459" lon="6.00557">
        <ele>1243.6025391</ele>
        <time>2011-07-15T11:18:37Z</time>
      </trkpt>
      <trkpt lat="44.6947" lon="6.00535">
        <ele>1246.9672852</ele>
        <time>2011-07-15T11:18:45Z</time>
      </trkpt>
      <trkpt lat="44.69484" lon="6.00509">
        <ele>1248.8898926</ele>
        <time>2011-07-15T11:18:55Z</time>
      </trkpt>
      <trkpt lat="44.69494" lon="6.00495">
        <ele>1251.2932129</ele>
        <time>2011-07-15T11:19:02Z</time>
      </trkpt>
      <trkpt lat="44.69504" lon="6.00496">
        <ele>1250.8125</ele>
        <time>2011-07-15T11:19:06Z</time>
      </trkpt>
      <trkpt lat="44.69521" lon="6.00509">
        <ele>1250.8125</ele>
        <time>2011-07-15T11:19:12Z</time>
      </trkpt>
      <trkpt lat="44.69542" lon="6.00522">
        <ele>1251.7739258</ele>
        <time>2011-07-15T11:19:19Z</time>
      </trkpt>
      <trkpt lat="44.69566" lon="6.00535">
        <ele>1254.1772461</ele>
        <time>2011-07-15T11:19:28Z</time>
      </trkpt>
      <trkpt lat="44.69592" lon="6.00555">
        <ele>1255.6191406</ele>
        <time>2011-07-15T11:19:38Z</time>
      </trkpt>
      <trkpt lat="44.69611" lon="6.00576">
        <ele>1256.5803223</ele>
        <time>2011-07-15T11:19:46Z</time>
      </trkpt>
      <trkpt lat="44.69632" lon="6.006">
        <ele>1258.0224609</ele>
        <time>2011-07-15T11:19:55Z</time>
      </trkpt>
      <trkpt lat="44.69649" lon="6.00598">
        <ele>1258.0224609</ele>
        <time>2011-07-15T11:20:00Z</time>
      </trkpt>
      <trkpt lat="44.69666" lon="6.00587">
        <ele>1259.9448242</ele>
        <time>2011-07-15T11:20:06Z</time>
      </trkpt>
      <trkpt lat="44.69681" lon="6.00573">
        <ele>1261.8679199</ele>
        <time>2011-07-15T11:20:13Z</time>
      </trkpt>
      <trkpt lat="44.69692" lon="6.0055">
        <ele>1263.3098145</ele>
        <time>2011-07-15T11:20:21Z</time>
      </trkpt>
      <trkpt lat="44.69708" lon="6.00524">
        <ele>1265.7131348</ele>
        <time>2011-07-15T11:20:31Z</time>
      </trkpt>
      <trkpt lat="44.6972" lon="6.0051">
        <ele>1267.1550293</ele>
        <time>2011-07-15T11:20:37Z</time>
      </trkpt>
      <trkpt lat="44.69734" lon="6.00493">
        <ele>1269.5583496</ele>
        <time>2011-07-15T11:20:44Z</time>
      </trkpt>
      <trkpt lat="44.69748" lon="6.00473">
        <ele>1269.0776367</ele>
        <time>2011-07-15T11:20:52Z</time>
      </trkpt>
      <trkpt lat="44.6976" lon="6.00454">
        <ele>1271.4807129</ele>
        <time>2011-07-15T11:20:59Z</time>
      </trkpt>
      <trkpt lat="44.69782" lon="6.0043">
        <ele>1275.8066406</ele>
        <time>2011-07-15T11:21:08Z</time>
      </trkpt>
      <trkpt lat="44.69802" lon="6.00414">
        <ele>1278.690918</ele>
        <time>2011-07-15T11:21:16Z</time>
      </trkpt>
      <trkpt lat="44.69809" lon="6.00396">
        <ele>1279.1713867</ele>
        <time>2011-07-15T11:21:22Z</time>
      </trkpt>
      <trkpt lat="44.69812" lon="6.00373">
        <ele>1281.574707</ele>
        <time>2011-07-15T11:21:29Z</time>
      </trkpt>
      <trkpt lat="44.69818" lon="6.00346">
        <ele>1282.0554199</ele>
        <time>2011-07-15T11:21:37Z</time>
      </trkpt>
      <trkpt lat="44.69824" lon="6.00331">
        <ele>1280.6135254</ele>
        <time>2011-07-15T11:21:42Z</time>
      </trkpt>
      <trkpt lat="44.69843" lon="6.0032">
        <ele>1283.9780273</ele>
        <time>2011-07-15T11:21:49Z</time>
      </trkpt>
      <trkpt lat="44.69869" lon="6.00322">
        <ele>1286.3813477</ele>
        <time>2011-07-15T11:21:58Z</time>
      </trkpt>
      <trkpt lat="44.69898" lon="6.00329">
        <ele>1288.784668</ele>
        <time>2011-07-15T11:22:08Z</time>
      </trkpt>
      <trkpt lat="44.69925" lon="6.00334">
        <ele>1291.668457</ele>
        <time>2011-07-15T11:22:18Z</time>
      </trkpt>
      <trkpt lat="44.69944" lon="6.00338">
        <ele>1294.0720215</ele>
        <time>2011-07-15T11:22:26Z</time>
      </trkpt>
      <trkpt lat="44.69958" lon="6.00349">
        <ele>1295.513916</ele>
        <time>2011-07-15T11:22:32Z</time>
      </trkpt>
      <trkpt lat="44.69973" lon="6.00369">
        <ele>1296.9558105</ele>
        <time>2011-07-15T11:22:40Z</time>
      </trkpt>
      <trkpt lat="44.69981" lon="6.00372">
        <ele>1298.3977051</ele>
        <time>2011-07-15T11:22:44Z</time>
      </trkpt>
      <trkpt lat="44.69993" lon="6.00365">
        <ele>1298.878418</ele>
        <time>2011-07-15T11:22:49Z</time>
      </trkpt>
      <trkpt lat="44.70002" lon="6.00346">
        <ele>1299.3591309</ele>
        <time>2011-07-15T11:22:55Z</time>
      </trkpt>
      <trkpt lat="44.70015" lon="6.00321">
        <ele>1301.7624512</ele>
        <time>2011-07-15T11:23:03Z</time>
      </trkpt>
      <trkpt lat="44.7003" lon="6.0031">
        <ele>1303.2043457</ele>
        <time>2011-07-15T11:23:10Z</time>
      </trkpt>
      <trkpt lat="44.70042" lon="6.00302">
        <ele>1303.6850586</ele>
        <time>2011-07-15T11:23:16Z</time>
      </trkpt>
      <trkpt lat="44.70057" lon="6.00293">
        <ele>1305.1269531</ele>
        <time>2011-07-15T11:23:22Z</time>
      </trkpt>
      <trkpt lat="44.70069" lon="6.00289">
        <ele>1306.0881348</ele>
        <time>2011-07-15T11:23:28Z</time>
      </trkpt>
      <trkpt lat="44.70083" lon="6.00294">
        <ele>1307.5302734</ele>
        <time>2011-07-15T11:23:34Z</time>
      </trkpt>
      <trkpt lat="44.70094" lon="6.00311">
        <ele>1308.9724121</ele>
        <time>2011-07-15T11:23:41Z</time>
      </trkpt>
      <trkpt lat="44.70104" lon="6.0033">
        <ele>1310.4143066</ele>
        <time>2011-07-15T11:23:47Z</time>
      </trkpt>
      <trkpt lat="44.70118" lon="6.00346">
        <ele>1311.3757324</ele>
        <time>2011-07-15T11:23:54Z</time>
      </trkpt>
      <trkpt lat="44.7013" lon="6.00346">
        <ele>1312.3369141</ele>
        <time>2011-07-15T11:23:59Z</time>
      </trkpt>
      <trkpt lat="44.70147" lon="6.00335">
        <ele>1313.7788086</ele>
        <time>2011-07-15T11:24:07Z</time>
      </trkpt>
      <trkpt lat="44.70163" lon="6.00323">
        <ele>1315.7016602</ele>
        <time>2011-07-15T11:24:15Z</time>
      </trkpt>
      <trkpt lat="44.70177" lon="6.00311">
        <ele>1317.1435547</ele>
        <time>2011-07-15T11:24:22Z</time>
      </trkpt>
      <trkpt lat="44.70195" lon="6.00297">
        <ele>1320.0273438</ele>
        <time>2011-07-15T11:24:31Z</time>
      </trkpt>
      <trkpt lat="44.70211" lon="6.00285">
        <ele>1321.4692383</ele>
        <time>2011-07-15T11:24:39Z</time>
      </trkpt>
      <trkpt lat="44.70232" lon="6.00269">
        <ele>1323.8725586</ele>
        <time>2011-07-15T11:24:49Z</time>
      </trkpt>
      <trkpt lat="44.70253" lon="6.00257">
        <ele>1325.7954102</ele>
        <time>2011-07-15T11:24:58Z</time>
      </trkpt>
      <trkpt lat="44.70274" lon="6.00251">
        <ele>1327.7180176</ele>
        <time>2011-07-15T11:25:07Z</time>
      </trkpt>
      <trkpt lat="44.70288" lon="6.00248">
        <ele>1328.6794434</ele>
        <time>2011-07-15T11:25:14Z</time>
      </trkpt>
      <trkpt lat="44.70299" lon="6.00241">
        <ele>1331.5632324</ele>
        <time>2011-07-15T11:25:19Z</time>
      </trkpt>
      <trkpt lat="44.70318" lon="6.00226">
        <ele>1334.9279785</ele>
        <time>2011-07-15T11:25:28Z</time>
      </trkpt>
      <trkpt lat="44.7033" lon="6.00214">
        <ele>1336.8503418</ele>
        <time>2011-07-15T11:25:35Z</time>
      </trkpt>
      <trkpt lat="44.70331" lon="6.00211">
        <ele>1337.3310547</ele>
        <time>2011-07-15T11:25:36Z</time>
      </trkpt>
      <trkpt lat="44.70327" lon="6.002">
        <ele>1337.8117676</ele>
        <time>2011-07-15T11:25:40Z</time>
      </trkpt>
      <trkpt lat="44.70325" lon="6.002">
        <ele>1338.2924805</ele>
        <time>2011-07-15T11:25:41Z</time>
      </trkpt>
      <trkpt lat="44.70298" lon="6.00213">
        <ele>1341.6572266</ele>
        <time>2011-07-15T11:25:51Z</time>
      </trkpt>
      <trkpt lat="44.70284" lon="6.00216">
        <ele>1342.6186523</ele>
        <time>2011-07-15T11:25:56Z</time>
      </trkpt>
      <trkpt lat="44.70267" lon="6.00212">
        <ele>1342.1379395</ele>
        <time>2011-07-15T11:26:02Z</time>
      </trkpt>
      <trkpt lat="44.70246" lon="6.00209">
        <ele>1343.0991211</ele>
        <time>2011-07-15T11:26:10Z</time>
      </trkpt>
      <trkpt lat="44.70217" lon="6.00209">
        <ele>1344.5410156</ele>
        <time>2011-07-15T11:26:21Z</time>
      </trkpt>
      <trkpt lat="44.70192" lon="6.00211">
        <ele>1347.4250488</ele>
        <time>2011-07-15T11:26:30Z</time>
      </trkpt>
      <trkpt lat="44.70169" lon="6.00213">
        <ele>1349.8283691</ele>
        <time>2011-07-15T11:26:40Z</time>
      </trkpt>
      <trkpt lat="44.70146" lon="6.00212">
        <ele>1353.673584</ele>
        <time>2011-07-15T11:26:50Z</time>
      </trkpt>
      <trkpt lat="44.70129" lon="6.00197">
        <ele>1355.1154785</ele>
        <time>2011-07-15T11:26:58Z</time>
      </trkpt>
      <trkpt lat="44.70122" lon="6.00174">
        <ele>1356.5576172</ele>
        <time>2011-07-15T11:27:05Z</time>
      </trkpt>
      <trkpt lat="44.70113" lon="6.00147">
        <ele>1357.9997559</ele>
        <time>2011-07-15T11:27:14Z</time>
      </trkpt>
      <trkpt lat="44.70099" lon="6.00132">
        <ele>1358.9609375</ele>
        <time>2011-07-15T11:27:21Z</time>
      </trkpt>
      <trkpt lat="44.70081" lon="6.00111">
        <ele>1360.402832</ele>
        <time>2011-07-15T11:27:30Z</time>
      </trkpt>
      <trkpt lat="44.70063" lon="6.00092">
        <ele>1362.3254395</ele>
        <time>2011-07-15T11:27:39Z</time>
      </trkpt>
      <trkpt lat="44.70045" lon="6.00083">
        <ele>1362.8061523</ele>
        <time>2011-07-15T11:27:46Z</time>
      </trkpt>
      <trkpt lat="44.70026" lon="6.0008">
        <ele>1364.7287598</ele>
        <time>2011-07-15T11:27:54Z</time>
      </trkpt>
      <trkpt lat="44.70002" lon="6.00074">
        <ele>1367.1320801</ele>
        <time>2011-07-15T11:28:04Z</time>
      </trkpt>
      <trkpt lat="44.69978" lon="6.00064">
        <ele>1369.5354004</ele>
        <time>2011-07-15T11:28:14Z</time>
      </trkpt>
      <trkpt lat="44.69955" lon="6.00058">
        <ele>1371.9384766</ele>
        <time>2011-07-15T11:28:24Z</time>
      </trkpt>
      <trkpt lat="44.69931" lon="6.00053">
        <ele>1374.342041</ele>
        <time>2011-07-15T11:28:34Z</time>
      </trkpt>
      <trkpt lat="44.69906" lon="6.0005">
        <ele>1377.706543</ele>
        <time>2011-07-15T11:28:45Z</time>
      </trkpt>
      <trkpt lat="44.69892" lon="6.00052">
        <ele>1379.1484375</ele>
        <time>2011-07-15T11:28:51Z</time>
      </trkpt>
      <trkpt lat="44.69876" lon="6.00053">
        <ele>1380.5905762</ele>
        <time>2011-07-15T11:28:58Z</time>
      </trkpt>
      <trkpt lat="44.69852" lon="6.00048">
        <ele>1381.0712891</ele>
        <time>2011-07-15T11:29:08Z</time>
      </trkpt>
      <trkpt lat="44.69827" lon="6.00051">
        <ele>1382.9936523</ele>
        <time>2011-07-15T11:29:18Z</time>
      </trkpt>
      <trkpt lat="44.698" lon="6.00053">
        <ele>1385.8776855</ele>
        <time>2011-07-15T11:29:29Z</time>
      </trkpt>
      <trkpt lat="44.69785" lon="6.00053">
        <ele>1386.8388672</ele>
        <time>2011-07-15T11:29:35Z</time>
      </trkpt>
      <trkpt lat="44.69762" lon="6.00047">
        <ele>1388.7619629</ele>
        <time>2011-07-15T11:29:45Z</time>
      </trkpt>
      <trkpt lat="44.69743" lon="6.0004">
        <ele>1390.6843262</ele>
        <time>2011-07-15T11:29:54Z</time>
      </trkpt>
      <trkpt lat="44.69727" lon="6.00023">
        <ele>1393.5683594</ele>
        <time>2011-07-15T11:30:03Z</time>
      </trkpt>
      <trkpt lat="44.69711" lon="6.00003">
        <ele>1395.0102539</ele>
        <time>2011-07-15T11:30:13Z</time>
      </trkpt>
      <trkpt lat="44.69699" lon="5.99989">
        <ele>1396.9328613</ele>
        <time>2011-07-15T11:30:19Z</time>
      </trkpt>
      <trkpt lat="44.6969" lon="5.99975">
        <ele>1397.8942871</ele>
        <time>2011-07-15T11:30:24Z</time>
      </trkpt>
      <trkpt lat="44.69676" lon="5.99956">
        <ele>1399.3361816</ele>
        <time>2011-07-15T11:30:32Z</time>
      </trkpt>
      <trkpt lat="44.6966" lon="5.99947">
        <ele>1400.7780762</ele>
        <time>2011-07-15T11:30:39Z</time>
      </trkpt>
      <trkpt lat="44.69641" lon="5.99949">
        <ele>1402.7006836</ele>
        <time>2011-07-15T11:30:47Z</time>
      </trkpt>
      <trkpt lat="44.69621" lon="5.99954">
        <ele>1404.1430664</ele>
        <time>2011-07-15T11:30:55Z</time>
      </trkpt>
      <trkpt lat="44.696" lon="5.99954">
        <ele>1405.5849609</ele>
        <time>2011-07-15T11:31:02Z</time>
      </trkpt>
      <trkpt lat="44.69575" lon="5.99945">
        <ele>1407.9882813</ele>
        <time>2011-07-15T11:31:12Z</time>
      </trkpt>
      <trkpt lat="44.69552" lon="5.99929">
        <ele>1410.3913574</ele>
        <time>2011-07-15T11:31:22Z</time>
      </trkpt>
      <trkpt lat="44.69535" lon="5.99911">
        <ele>1412.3139648</ele>
        <time>2011-07-15T11:31:31Z</time>
      </trkpt>
      <trkpt lat="44.69523" lon="5.99889">
        <ele>1413.7558594</ele>
        <time>2011-07-15T11:31:40Z</time>
      </trkpt>
      <trkpt lat="44.69508" lon="5.99857">
        <ele>1416.1591797</ele>
        <time>2011-07-15T11:31:51Z</time>
      </trkpt>
      <trkpt lat="44.69498" lon="5.99831">
        <ele>1418.0817871</ele>
        <time>2011-07-15T11:32:00Z</time>
      </trkpt>
      <trkpt lat="44.69495" lon="5.99811">
        <ele>1420.4853516</ele>
        <time>2011-07-15T11:32:07Z</time>
      </trkpt>
      <trkpt lat="44.69493" lon="5.99793">
        <ele>1422.8886719</ele>
        <time>2011-07-15T11:32:13Z</time>
      </trkpt>
      <trkpt lat="44.69488" lon="5.99765">
        <ele>1427.6950684</ele>
        <time>2011-07-15T11:32:22Z</time>
      </trkpt>
      <trkpt lat="44.6948" lon="5.9974">
        <ele>1429.1369629</ele>
        <time>2011-07-15T11:32:32Z</time>
      </trkpt>
      <trkpt lat="44.69471" lon="5.99715">
        <ele>1432.501709</ele>
        <time>2011-07-15T11:32:41Z</time>
      </trkpt>
      <trkpt lat="44.6946" lon="5.99693">
        <ele>1435.8662109</ele>
        <time>2011-07-15T11:32:50Z</time>
      </trkpt>
      <trkpt lat="44.6945" lon="5.99668">
        <ele>1435.385498</ele>
        <time>2011-07-15T11:33:00Z</time>
      </trkpt>
      <trkpt lat="44.69444" lon="5.99649">
        <ele>1436.8276367</ele>
        <time>2011-07-15T11:33:07Z</time>
      </trkpt>
      <trkpt lat="44.69432" lon="5.99623">
        <ele>1438.7504883</ele>
        <time>2011-07-15T11:33:18Z</time>
      </trkpt>
      <trkpt lat="44.69419" lon="5.99594">
        <ele>1441.1535645</ele>
        <time>2011-07-15T11:33:29Z</time>
      </trkpt>
      <trkpt lat="44.69416" lon="5.99583">
        <ele>1441.6342773</ele>
        <time>2011-07-15T11:33:33Z</time>
      </trkpt>
      <trkpt lat="44.69423" lon="5.99577">
        <ele>1442.1149902</ele>
        <time>2011-07-15T11:33:37Z</time>
      </trkpt>
      <trkpt lat="44.69426" lon="5.99583">
        <ele>1442.1149902</ele>
        <time>2011-07-15T11:33:39Z</time>
      </trkpt>
      <trkpt lat="44.69437" lon="5.99609">
        <ele>1444.0375977</ele>
        <time>2011-07-15T11:33:47Z</time>
      </trkpt>
      <trkpt lat="44.69454" lon="5.99631">
        <ele>1444.5180664</ele>
        <time>2011-07-15T11:33:56Z</time>
      </trkpt>
      <trkpt lat="44.69479" lon="5.99662">
        <ele>1447.4020996</ele>
        <time>2011-07-15T11:34:08Z</time>
      </trkpt>
      <trkpt lat="44.695" lon="5.9969">
        <ele>1449.8054199</ele>
        <time>2011-07-15T11:34:19Z</time>
      </trkpt>
      <trkpt lat="44.69513" lon="5.99715">
        <ele>1450.7666016</ele>
        <time>2011-07-15T11:34:27Z</time>
      </trkpt>
      <trkpt lat="44.69527" lon="5.99728">
        <ele>1452.2087402</ele>
        <time>2011-07-15T11:34:33Z</time>
      </trkpt>
      <trkpt lat="44.69544" lon="5.99733">
        <ele>1452.2087402</ele>
        <time>2011-07-15T11:34:39Z</time>
      </trkpt>
      <trkpt lat="44.6956" lon="5.9975">
        <ele>1453.170166</ele>
        <time>2011-07-15T11:34:45Z</time>
      </trkpt>
      <trkpt lat="44.69581" lon="5.99775">
        <ele>1456.0539551</ele>
        <time>2011-07-15T11:34:54Z</time>
      </trkpt>
      <trkpt lat="44.69597" lon="5.99778">
        <ele>1457.9768066</ele>
        <time>2011-07-15T11:35:00Z</time>
      </trkpt>
      <trkpt lat="44.69623" lon="5.9978">
        <ele>1460.3798828</ele>
        <time>2011-07-15T11:35:09Z</time>
      </trkpt>
      <trkpt lat="44.69642" lon="5.99787">
        <ele>1461.3413086</ele>
        <time>2011-07-15T11:35:16Z</time>
      </trkpt>
      <trkpt lat="44.69668" lon="5.99792">
        <ele>1463.263916</ele>
        <time>2011-07-15T11:35:26Z</time>
      </trkpt>
      <trkpt lat="44.69692" lon="5.9979">
        <ele>1465.6672363</ele>
        <time>2011-07-15T11:35:35Z</time>
      </trkpt>
      <trkpt lat="44.69714" lon="5.99794">
        <ele>1467.5895996</ele>
        <time>2011-07-15T11:35:43Z</time>
      </trkpt>
      <trkpt lat="44.69735" lon="5.99805">
        <ele>1469.0319824</ele>
        <time>2011-07-15T11:35:52Z</time>
      </trkpt>
      <trkpt lat="44.69754" lon="5.99814">
        <ele>1470.9545898</ele>
        <time>2011-07-15T11:36:00Z</time>
      </trkpt>
      <trkpt lat="44.69774" lon="5.99816">
        <ele>1470.9545898</ele>
        <time>2011-07-15T11:36:08Z</time>
      </trkpt>
      <trkpt lat="44.698" lon="5.9982">
        <ele>1472.8771973</ele>
        <time>2011-07-15T11:36:19Z</time>
      </trkpt>
      <trkpt lat="44.69821" lon="5.99821">
        <ele>1473.3579102</ele>
        <time>2011-07-15T11:36:28Z</time>
      </trkpt>
      <trkpt lat="44.69837" lon="5.99817">
        <ele>1474.7998047</ele>
        <time>2011-07-15T11:36:35Z</time>
      </trkpt>
      <trkpt lat="44.69851" lon="5.99804">
        <ele>1476.7224121</ele>
        <time>2011-07-15T11:36:42Z</time>
      </trkpt>
      <trkpt lat="44.69863" lon="5.99796">
        <ele>1479.1254883</ele>
        <time>2011-07-15T11:36:47Z</time>
      </trkpt>
      <trkpt lat="44.6988" lon="5.99799">
        <ele>1480.567627</ele>
        <time>2011-07-15T11:36:54Z</time>
      </trkpt>
      <trkpt lat="44.69898" lon="5.9981">
        <ele>1482.4902344</ele>
        <time>2011-07-15T11:37:02Z</time>
      </trkpt>
      <trkpt lat="44.699" lon="5.99811">
        <ele>1482.9707031</ele>
        <time>2011-07-15T11:37:03Z</time>
      </trkpt>
      <trkpt lat="44.69908" lon="5.99801">
        <ele>1483.9321289</ele>
        <time>2011-07-15T11:37:08Z</time>
      </trkpt>
      <trkpt lat="44.69903" lon="5.99791">
        <ele>1484.8937988</ele>
        <time>2011-07-15T11:37:12Z</time>
      </trkpt>
      <trkpt lat="44.69883" lon="5.99776">
        <ele>1487.7775879</ele>
        <time>2011-07-15T11:37:22Z</time>
      </trkpt>
      <trkpt lat="44.69866" lon="5.99769">
        <ele>1490.1809082</ele>
        <time>2011-07-15T11:37:30Z</time>
      </trkpt>
      <trkpt lat="44.6985" lon="5.99768">
        <ele>1492.5842285</ele>
        <time>2011-07-15T11:37:38Z</time>
      </trkpt>
      <trkpt lat="44.69837" lon="5.99769">
        <ele>1494.026123</ele>
        <time>2011-07-15T11:37:44Z</time>
      </trkpt>
      <trkpt lat="44.69821" lon="5.99767">
        <ele>1495.4680176</ele>
        <time>2011-07-15T11:37:52Z</time>
      </trkpt>
      <trkpt lat="44.69806" lon="5.99759">
        <ele>1497.390625</ele>
        <time>2011-07-15T11:38:00Z</time>
      </trkpt>
      <trkpt lat="44.69793" lon="5.99746">
        <ele>1500.2749023</ele>
        <time>2011-07-15T11:38:08Z</time>
      </trkpt>
      <trkpt lat="44.69781" lon="5.9973">
        <ele>1503.1586914</ele>
        <time>2011-07-15T11:38:16Z</time>
      </trkpt>
      <trkpt lat="44.6977" lon="5.99715">
        <ele>1507.0039063</ele>
        <time>2011-07-15T11:38:24Z</time>
      </trkpt>
      <trkpt lat="44.69757" lon="5.997">
        <ele>1510.3684082</ele>
        <time>2011-07-15T11:38:33Z</time>
      </trkpt>
      <trkpt lat="44.69743" lon="5.99689">
        <ele>1513.2524414</ele>
        <time>2011-07-15T11:38:41Z</time>
      </trkpt>
      <trkpt lat="44.69731" lon="5.99681">
        <ele>1515.6557617</ele>
        <time>2011-07-15T11:38:48Z</time>
      </trkpt>
      <trkpt lat="44.6972" lon="5.99675">
        <ele>1518.059082</ele>
        <time>2011-07-15T11:38:54Z</time>
      </trkpt>
      <trkpt lat="44.69704" lon="5.99665">
        <ele>1520.9431152</ele>
        <time>2011-07-15T11:39:03Z</time>
      </trkpt>
      <trkpt lat="44.69691" lon="5.99654">
        <ele>1523.3464355</ele>
        <time>2011-07-15T11:39:12Z</time>
      </trkpt>
      <trkpt lat="44.69678" lon="5.99643">
        <ele>1525.2687988</ele>
        <time>2011-07-15T11:39:20Z</time>
      </trkpt>
      <trkpt lat="44.69669" lon="5.99635">
        <ele>1527.1916504</ele>
        <time>2011-07-15T11:39:26Z</time>
      </trkpt>
      <trkpt lat="44.69657" lon="5.99622">
        <ele>1530.0754395</ele>
        <time>2011-07-15T11:39:34Z</time>
      </trkpt>
      <trkpt lat="44.69647" lon="5.99612">
        <ele>1531.9980469</ele>
        <time>2011-07-15T11:39:41Z</time>
      </trkpt>
      <trkpt lat="44.69634" lon="5.99598">
        <ele>1534.4016113</ele>
        <time>2011-07-15T11:39:50Z</time>
      </trkpt>
      <trkpt lat="44.69623" lon="5.99588">
        <ele>1536.3242188</ele>
        <time>2011-07-15T11:39:57Z</time>
      </trkpt>
      <trkpt lat="44.69614" lon="5.9958">
        <ele>1537.7661133</ele>
        <time>2011-07-15T11:40:03Z</time>
      </trkpt>
      <trkpt lat="44.69605" lon="5.99572">
        <ele>1539.2080078</ele>
        <time>2011-07-15T11:40:09Z</time>
      </trkpt>
      <trkpt lat="44.69595" lon="5.99561">
        <ele>1541.1306152</ele>
        <time>2011-07-15T11:40:16Z</time>
      </trkpt>
      <trkpt lat="44.69585" lon="5.99547">
        <ele>1544.0146484</ele>
        <time>2011-07-15T11:40:23Z</time>
      </trkpt>
      <trkpt lat="44.69576" lon="5.99529">
        <ele>1545.9372559</ele>
        <time>2011-07-15T11:40:31Z</time>
      </trkpt>
      <trkpt lat="44.69566" lon="5.99509">
        <ele>1549.7827148</ele>
        <time>2011-07-15T11:40:39Z</time>
      </trkpt>
      <trkpt lat="44.6956" lon="5.9949">
        <ele>1552.185791</ele>
        <time>2011-07-15T11:40:46Z</time>
      </trkpt>
      <trkpt lat="44.69552" lon="5.99468">
        <ele>1554.5891113</ele>
        <time>2011-07-15T11:40:54Z</time>
      </trkpt>
      <trkpt lat="44.69548" lon="5.99451">
        <ele>1553.6279297</ele>
        <time>2011-07-15T11:41:00Z</time>
      </trkpt>
      <trkpt lat="44.69542" lon="5.99425">
        <ele>1553.6279297</ele>
        <time>2011-07-15T11:41:09Z</time>
      </trkpt>
      <trkpt lat="44.69539" lon="5.99398">
        <ele>1554.1086426</ele>
        <time>2011-07-15T11:41:18Z</time>
      </trkpt>
      <trkpt lat="44.69534" lon="5.99372">
        <ele>1555.0698242</ele>
        <time>2011-07-15T11:41:27Z</time>
      </trkpt>
      <trkpt lat="44.69525" lon="5.99344">
        <ele>1556.5117188</ele>
        <time>2011-07-15T11:41:37Z</time>
      </trkpt>
      <trkpt lat="44.6951" lon="5.99319">
        <ele>1558.9150391</ele>
        <time>2011-07-15T11:41:48Z</time>
      </trkpt>
      <trkpt lat="44.69494" lon="5.993">
        <ele>1561.3183594</ele>
        <time>2011-07-15T11:41:58Z</time>
      </trkpt>
      <trkpt lat="44.69478" lon="5.99284">
        <ele>1563.7214355</ele>
        <time>2011-07-15T11:42:08Z</time>
      </trkpt>
      <trkpt lat="44.69468" lon="5.99272">
        <ele>1565.6445313</ele>
        <time>2011-07-15T11:42:15Z</time>
      </trkpt>
      <trkpt lat="44.6946" lon="5.99255">
        <ele>1569.4897461</ele>
        <time>2011-07-15T11:42:22Z</time>
      </trkpt>
      <trkpt lat="44.69449" lon="5.99242">
        <ele>1572.854248</ele>
        <time>2011-07-15T11:42:29Z</time>
      </trkpt>
      <trkpt lat="44.69437" lon="5.99232">
        <ele>1575.7380371</ele>
        <time>2011-07-15T11:42:36Z</time>
      </trkpt>
      <trkpt lat="44.69424" lon="5.99216">
        <ele>1577.1801758</ele>
        <time>2011-07-15T11:42:44Z</time>
      </trkpt>
      <trkpt lat="44.69408" lon="5.99204">
        <ele>1577.6606445</ele>
        <time>2011-07-15T11:42:52Z</time>
      </trkpt>
      <trkpt lat="44.69395" lon="5.99189">
        <ele>1578.1413574</ele>
        <time>2011-07-15T11:42:59Z</time>
      </trkpt>
      <trkpt lat="44.6938" lon="5.99171">
        <ele>1579.1025391</ele>
        <time>2011-07-15T11:43:07Z</time>
      </trkpt>
      <trkpt lat="44.6937" lon="5.99162">
        <ele>1580.064209</ele>
        <time>2011-07-15T11:43:12Z</time>
      </trkpt>
      <trkpt lat="44.69353" lon="5.99153">
        <ele>1582.4675293</ele>
        <time>2011-07-15T11:43:20Z</time>
      </trkpt>
      <trkpt lat="44.69336" lon="5.99143">
        <ele>1584.8708496</ele>
        <time>2011-07-15T11:43:29Z</time>
      </trkpt>
      <trkpt lat="44.69322" lon="5.99142">
        <ele>1587.7546387</ele>
        <time>2011-07-15T11:43:36Z</time>
      </trkpt>
      <trkpt lat="44.69308" lon="5.99144">
        <ele>1590.157959</ele>
        <time>2011-07-15T11:43:42Z</time>
      </trkpt>
      <trkpt lat="44.69303" lon="5.99138">
        <ele>1590.6384277</ele>
        <time>2011-07-15T11:43:45Z</time>
      </trkpt>
      <trkpt lat="44.69304" lon="5.99117">
        <ele>1590.157959</ele>
        <time>2011-07-15T11:43:52Z</time>
      </trkpt>
      <trkpt lat="44.69301" lon="5.99103">
        <ele>1592.5612793</ele>
        <time>2011-07-15T11:43:57Z</time>
      </trkpt>
      <trkpt lat="44.69296" lon="5.99084">
        <ele>1593.5224609</ele>
        <time>2011-07-15T11:44:04Z</time>
      </trkpt>
      <trkpt lat="44.69296" lon="5.99065">
        <ele>1594.4836426</ele>
        <time>2011-07-15T11:44:11Z</time>
      </trkpt>
      <trkpt lat="44.69298" lon="5.99045">
        <ele>1596.4067383</ele>
        <time>2011-07-15T11:44:18Z</time>
      </trkpt>
      <trkpt lat="44.69299" lon="5.99027">
        <ele>1598.3291016</ele>
        <time>2011-07-15T11:44:24Z</time>
      </trkpt>
      <trkpt lat="44.69293" lon="5.99001">
        <ele>1600.2519531</ele>
        <time>2011-07-15T11:44:33Z</time>
      </trkpt>
      <trkpt lat="44.6929" lon="5.98978">
        <ele>1601.6938477</ele>
        <time>2011-07-15T11:44:41Z</time>
      </trkpt>
      <trkpt lat="44.69284" lon="5.98951">
        <ele>1604.5776367</ele>
        <time>2011-07-15T11:44:50Z</time>
      </trkpt>
      <trkpt lat="44.69282" lon="5.98925">
        <ele>1607.9423828</ele>
        <time>2011-07-15T11:44:58Z</time>
      </trkpt>
      <trkpt lat="44.69278" lon="5.98904">
        <ele>1608.9035645</ele>
        <time>2011-07-15T11:45:05Z</time>
      </trkpt>
      <trkpt lat="44.69268" lon="5.98872">
        <ele>1609.8647461</ele>
        <time>2011-07-15T11:45:14Z</time>
      </trkpt>
      <trkpt lat="44.69257" lon="5.98844">
        <ele>1611.7875977</ele>
        <time>2011-07-15T11:45:22Z</time>
      </trkpt>
      <trkpt lat="44.69242" lon="5.98819">
        <ele>1615.6330566</ele>
        <time>2011-07-15T11:45:31Z</time>
      </trkpt>
      <trkpt lat="44.69228" lon="5.98797">
        <ele>1618.0361328</ele>
        <time>2011-07-15T11:45:40Z</time>
      </trkpt>
      <trkpt lat="44.69213" lon="5.9877">
        <ele>1618.9975586</ele>
        <time>2011-07-15T11:45:50Z</time>
      </trkpt>
      <trkpt lat="44.69193" lon="5.98738">
        <ele>1620.4394531</ele>
        <time>2011-07-15T11:46:01Z</time>
      </trkpt>
      <trkpt lat="44.6918" lon="5.98717">
        <ele>1620.4394531</ele>
        <time>2011-07-15T11:46:09Z</time>
      </trkpt>
      <trkpt lat="44.69163" lon="5.98694">
        <ele>1623.8039551</ele>
        <time>2011-07-15T11:46:18Z</time>
      </trkpt>
      <trkpt lat="44.69146" lon="5.98684">
        <ele>1623.3234863</ele>
        <time>2011-07-15T11:46:25Z</time>
      </trkpt>
      <trkpt lat="44.69133" lon="5.98676">
        <ele>1625.7265625</ele>
        <time>2011-07-15T11:46:31Z</time>
      </trkpt>
      <trkpt lat="44.69134" lon="5.98667">
        <ele>1626.2072754</ele>
        <time>2011-07-15T11:46:35Z</time>
      </trkpt>
      <trkpt lat="44.69143" lon="5.98671">
        <ele>1627.1687012</ele>
        <time>2011-07-15T11:46:39Z</time>
      </trkpt>
      <trkpt lat="44.69145" lon="5.98672">
        <ele>1627.6491699</ele>
        <time>2011-07-15T11:46:40Z</time>
      </trkpt>
      <trkpt lat="44.6917" lon="5.98687">
        <ele>1630.5334473</ele>
        <time>2011-07-15T11:46:51Z</time>
      </trkpt>
      <trkpt lat="44.69186" lon="5.98701">
        <ele>1632.4560547</ele>
        <time>2011-07-15T11:46:59Z</time>
      </trkpt>
      <trkpt lat="44.69205" lon="5.98722">
        <ele>1634.859375</ele>
        <time>2011-07-15T11:47:09Z</time>
      </trkpt>
      <trkpt lat="44.69226" lon="5.98747">
        <ele>1637.2624512</ele>
        <time>2011-07-15T11:47:20Z</time>
      </trkpt>
      <trkpt lat="44.69244" lon="5.98772">
        <ele>1639.1850586</ele>
        <time>2011-07-15T11:47:30Z</time>
      </trkpt>
      <trkpt lat="44.69255" lon="5.98791">
        <ele>1641.107666</ele>
        <time>2011-07-15T11:47:37Z</time>
      </trkpt>
      <trkpt lat="44.69262" lon="5.98801">
        <ele>1641.5883789</ele>
        <time>2011-07-15T11:47:41Z</time>
      </trkpt>
      <trkpt lat="44.69268" lon="5.98796">
        <ele>1642.0690918</ele>
        <time>2011-07-15T11:47:45Z</time>
      </trkpt>
      <trkpt lat="44.69263" lon="5.98782">
        <ele>1643.0302734</ele>
        <time>2011-07-15T11:47:49Z</time>
      </trkpt>
      <trkpt lat="44.6925" lon="5.98762">
        <ele>1644.953125</ele>
        <time>2011-07-15T11:47:57Z</time>
      </trkpt>
      <trkpt lat="44.69235" lon="5.98735">
        <ele>1646.8757324</ele>
        <time>2011-07-15T11:48:07Z</time>
      </trkpt>
      <trkpt lat="44.69223" lon="5.98715">
        <ele>1648.7983398</ele>
        <time>2011-07-15T11:48:15Z</time>
      </trkpt>
      <trkpt lat="44.69212" lon="5.98702">
        <ele>1650.2404785</ele>
        <time>2011-07-15T11:48:21Z</time>
      </trkpt>
      <trkpt lat="44.69199" lon="5.98686">
        <ele>1651.2016602</ele>
        <time>2011-07-15T11:48:28Z</time>
      </trkpt>
      <trkpt lat="44.69185" lon="5.98669">
        <ele>1655.5275879</ele>
        <time>2011-07-15T11:48:36Z</time>
      </trkpt>
      <trkpt lat="44.69171" lon="5.98652">
        <ele>1658.8920898</ele>
        <time>2011-07-15T11:48:44Z</time>
      </trkpt>
      <trkpt lat="44.69164" lon="5.98633">
        <ele>1658.8920898</ele>
        <time>2011-07-15T11:48:51Z</time>
      </trkpt>
      <trkpt lat="44.69165" lon="5.98607">
        <ele>1659.3728027</ele>
        <time>2011-07-15T11:48:59Z</time>
      </trkpt>
      <trkpt lat="44.69169" lon="5.9858">
        <ele>1659.8532715</ele>
        <time>2011-07-15T11:49:07Z</time>
      </trkpt>
      <trkpt lat="44.69177" lon="5.98559">
        <ele>1661.7763672</ele>
        <time>2011-07-15T11:49:14Z</time>
      </trkpt>
      <trkpt lat="44.69193" lon="5.98535">
        <ele>1663.2182617</ele>
        <time>2011-07-15T11:49:23Z</time>
      </trkpt>
      <trkpt lat="44.69212" lon="5.98509">
        <ele>1666.1020508</ele>
        <time>2011-07-15T11:49:34Z</time>
      </trkpt>
      <trkpt lat="44.69218" lon="5.98499">
        <ele>1666.5827637</ele>
        <time>2011-07-15T11:49:38Z</time>
      </trkpt>
      <trkpt lat="44.69218" lon="5.98499">
        <ele>1666.5827637</ele>
        <time>2011-07-15T11:49:38Z</time>
      </trkpt>
      <trkpt lat="44.69219" lon="5.98497">
        <ele>1666.5827637</ele>
        <time>2011-07-15T11:49:39Z</time>
      </trkpt>
      <trkpt lat="44.69229" lon="5.98483">
        <ele>1667.5439453</ele>
        <time>2011-07-15T11:49:46Z</time>
      </trkpt>
      <trkpt lat="44.69231" lon="5.98481">
        <ele>1667.5439453</ele>
        <time>2011-07-15T11:49:47Z</time>
      </trkpt>
      <trkpt lat="44.69235" lon="5.98482">
        <ele>1667.0634766</ele>
        <time>2011-07-15T11:49:51Z</time>
      </trkpt>
      <trkpt lat="44.69238" lon="5.98463">
        <ele>1668.0246582</ele>
        <time>2011-07-15T12:10:53Z</time>
      </trkpt>
      <trkpt lat="44.69238" lon="5.98463">
        <ele>1668.0246582</ele>
        <time>2011-07-15T12:10:54Z</time>
      </trkpt>
      <trkpt lat="44.69239" lon="5.98463">
        <ele>1667.0634766</ele>
        <time>2011-07-15T12:11:02Z</time>
      </trkpt>
      <trkpt lat="44.69241" lon="5.98459">
        <ele>1666.5827637</ele>
        <time>2011-07-15T12:11:09Z</time>
      </trkpt>
      <trkpt lat="44.69241" lon="5.98457">
        <ele>1666.5827637</ele>
        <time>2011-07-15T12:11:10Z</time>
      </trkpt>
      <trkpt lat="44.69245" lon="5.98451">
        <ele>1667.0634766</ele>
        <time>2011-07-15T12:11:14Z</time>
      </trkpt>
      <trkpt lat="44.69254" lon="5.98438">
        <ele>1667.0634766</ele>
        <time>2011-07-15T12:11:20Z</time>
      </trkpt>
      <trkpt lat="44.6926" lon="5.98431">
        <ele>1666.1020508</ele>
        <time>2011-07-15T12:11:24Z</time>
      </trkpt>
      <trkpt lat="44.69276" lon="5.98406">
        <ele>1665.1408691</ele>
        <time>2011-07-15T12:11:32Z</time>
      </trkpt>
      <trkpt lat="44.69294" lon="5.98379">
        <ele>1663.2182617</ele>
        <time>2011-07-15T12:11:38Z</time>
      </trkpt>
      <trkpt lat="44.69303" lon="5.98365">
        <ele>1661.7763672</ele>
        <time>2011-07-15T12:11:40Z</time>
      </trkpt>
      <trkpt lat="44.69332" lon="5.983">
        <ele>1657.4501953</ele>
        <time>2011-07-15T12:11:47Z</time>
      </trkpt>
      <trkpt lat="44.69354" lon="5.98242">
        <ele>1652.1628418</ele>
        <time>2011-07-15T12:11:52Z</time>
      </trkpt>
      <trkpt lat="44.69387" lon="5.9816">
        <ele>1645.9145508</ele>
        <time>2011-07-15T12:11:58Z</time>
      </trkpt>
      <trkpt lat="44.69422" lon="5.98091">
        <ele>1640.1464844</ele>
        <time>2011-07-15T12:12:03Z</time>
      </trkpt>
      <trkpt lat="44.69462" lon="5.98007">
        <ele>1635.3398438</ele>
        <time>2011-07-15T12:12:09Z</time>
      </trkpt>
      <trkpt lat="44.69501" lon="5.97952">
        <ele>1629.0913086</ele>
        <time>2011-07-15T12:12:14Z</time>
      </trkpt>
      <trkpt lat="44.69546" lon="5.97875">
        <ele>1622.8427734</ele>
        <time>2011-07-15T12:12:20Z</time>
      </trkpt>
      <trkpt lat="44.69571" lon="5.97799">
        <ele>1619.9587402</ele>
        <time>2011-07-15T12:12:25Z</time>
      </trkpt>
      <trkpt lat="44.69593" lon="5.97728">
        <ele>1618.0361328</ele>
        <time>2011-07-15T12:12:30Z</time>
      </trkpt>
      <trkpt lat="44.69616" lon="5.97683">
        <ele>1618.0361328</ele>
        <time>2011-07-15T12:12:34Z</time>
      </trkpt>
      <trkpt lat="44.69647" lon="5.97608">
        <ele>1615.1523438</ele>
        <time>2011-07-15T12:12:41Z</time>
      </trkpt>
      <trkpt lat="44.69678" lon="5.9754">
        <ele>1611.7875977</ele>
        <time>2011-07-15T12:12:47Z</time>
      </trkpt>
      <trkpt lat="44.69686" lon="5.97489">
        <ele>1608.4228516</ele>
        <time>2011-07-15T12:12:51Z</time>
      </trkpt>
      <trkpt lat="44.69688" lon="5.97403">
        <ele>1602.1743164</ele>
        <time>2011-07-15T12:12:57Z</time>
      </trkpt>
      <trkpt lat="44.69688" lon="5.97392">
        <ele>1601.2131348</ele>
        <time>2011-07-15T12:12:58Z</time>
      </trkpt>
      <trkpt lat="44.69689" lon="5.97363">
        <ele>1598.8098145</ele>
        <time>2011-07-15T12:13:02Z</time>
      </trkpt>
      <trkpt lat="44.69698" lon="5.97369">
        <ele>1598.3291016</ele>
        <time>2011-07-15T12:13:04Z</time>
      </trkpt>
      <trkpt lat="44.69702" lon="5.97376">
        <ele>1598.3291016</ele>
        <time>2011-07-15T12:13:05Z</time>
      </trkpt>
      <trkpt lat="44.69727" lon="5.97425">
        <ele>1597.3679199</ele>
        <time>2011-07-15T12:13:11Z</time>
      </trkpt>
      <trkpt lat="44.6974" lon="5.97449">
        <ele>1596.4067383</ele>
        <time>2011-07-15T12:13:14Z</time>
      </trkpt>
      <trkpt lat="44.69752" lon="5.97456">
        <ele>1595.4450684</ele>
        <time>2011-07-15T12:13:17Z</time>
      </trkpt>
      <trkpt lat="44.69758" lon="5.9744">
        <ele>1594.9643555</ele>
        <time>2011-07-15T12:13:19Z</time>
      </trkpt>
      <trkpt lat="44.69758" lon="5.9742">
        <ele>1593.041748</ele>
        <time>2011-07-15T12:13:21Z</time>
      </trkpt>
      <trkpt lat="44.69758" lon="5.97355">
        <ele>1587.2739258</ele>
        <time>2011-07-15T12:13:26Z</time>
      </trkpt>
      <trkpt lat="44.69761" lon="5.97281">
        <ele>1581.5061035</ele>
        <time>2011-07-15T12:13:31Z</time>
      </trkpt>
      <trkpt lat="44.69748" lon="5.97222">
        <ele>1576.6994629</ele>
        <time>2011-07-15T12:13:35Z</time>
      </trkpt>
      <trkpt lat="44.6974" lon="5.97209">
        <ele>1575.7380371</ele>
        <time>2011-07-15T12:13:36Z</time>
      </trkpt>
      <trkpt lat="44.69719" lon="5.97154">
        <ele>1570.9316406</ele>
        <time>2011-07-15T12:13:40Z</time>
      </trkpt>
      <trkpt lat="44.69718" lon="5.97083">
        <ele>1565.1638184</ele>
        <time>2011-07-15T12:13:44Z</time>
      </trkpt>
      <trkpt lat="44.69728" lon="5.97037">
        <ele>1563.2409668</ele>
        <time>2011-07-15T12:13:47Z</time>
      </trkpt>
      <trkpt lat="44.69728" lon="5.96995">
        <ele>1560.3569336</ele>
        <time>2011-07-15T12:13:50Z</time>
      </trkpt>
      <trkpt lat="44.69713" lon="5.96894">
        <ele>1550.7438965</ele>
        <time>2011-07-15T12:13:56Z</time>
      </trkpt>
      <trkpt lat="44.69704" lon="5.96858">
        <ele>1547.8598633</ele>
        <time>2011-07-15T12:13:58Z</time>
      </trkpt>
      <trkpt lat="44.69693" lon="5.96762">
        <ele>1542.092041</ele>
        <time>2011-07-15T12:14:03Z</time>
      </trkpt>
      <trkpt lat="44.69693" lon="5.96644">
        <ele>1535.362793</ele>
        <time>2011-07-15T12:14:09Z</time>
      </trkpt>
      <trkpt lat="44.69703" lon="5.96515">
        <ele>1529.1140137</ele>
        <time>2011-07-15T12:14:16Z</time>
      </trkpt>
      <trkpt lat="44.69713" lon="5.96393">
        <ele>1524.3076172</ele>
        <time>2011-07-15T12:14:23Z</time>
      </trkpt>
      <trkpt lat="44.69722" lon="5.9628">
        <ele>1520.9431152</ele>
        <time>2011-07-15T12:14:30Z</time>
      </trkpt>
      <trkpt lat="44.69728" lon="5.9619">
        <ele>1518.059082</ele>
        <time>2011-07-15T12:14:36Z</time>
      </trkpt>
      <trkpt lat="44.69734" lon="5.96097">
        <ele>1516.1364746</ele>
        <time>2011-07-15T12:14:43Z</time>
      </trkpt>
      <trkpt lat="44.69742" lon="5.96009">
        <ele>1512.7717285</ele>
        <time>2011-07-15T12:14:50Z</time>
      </trkpt>
      <trkpt lat="44.69752" lon="5.95864">
        <ele>1507.0039063</ele>
        <time>2011-07-15T12:15:01Z</time>
      </trkpt>
      <trkpt lat="44.69761" lon="5.95744">
        <ele>1505.5620117</ele>
        <time>2011-07-15T12:15:10Z</time>
      </trkpt>
      <trkpt lat="44.69767" lon="5.95674">
        <ele>1507.0039063</ele>
        <time>2011-07-15T12:15:16Z</time>
      </trkpt>
      <trkpt lat="44.69771" lon="5.9562">
        <ele>1508.4458008</ele>
        <time>2011-07-15T12:15:22Z</time>
      </trkpt>
      <trkpt lat="44.69775" lon="5.95544">
        <ele>1510.3684082</ele>
        <time>2011-07-15T12:15:32Z</time>
      </trkpt>
      <trkpt lat="44.6978" lon="5.9548">
        <ele>1512.2910156</ele>
        <time>2011-07-15T12:15:41Z</time>
      </trkpt>
      <trkpt lat="44.6978" lon="5.95467">
        <ele>1512.2910156</ele>
        <time>2011-07-15T12:15:43Z</time>
      </trkpt>
      <trkpt lat="44.69771" lon="5.95428">
        <ele>1513.2524414</ele>
        <time>2011-07-15T12:15:50Z</time>
      </trkpt>
      <trkpt lat="44.69756" lon="5.954">
        <ele>1514.213623</ele>
        <time>2011-07-15T12:15:57Z</time>
      </trkpt>
      <trkpt lat="44.6974" lon="5.95381">
        <ele>1514.6943359</ele>
        <time>2011-07-15T12:16:03Z</time>
      </trkpt>
      <trkpt lat="44.69722" lon="5.95366">
        <ele>1515.6557617</ele>
        <time>2011-07-15T12:16:09Z</time>
      </trkpt>
      <trkpt lat="44.69693" lon="5.95339">
        <ele>1516.6171875</ele>
        <time>2011-07-15T12:16:19Z</time>
      </trkpt>
      <trkpt lat="44.69662" lon="5.95311">
        <ele>1518.059082</ele>
        <time>2011-07-15T12:16:30Z</time>
      </trkpt>
      <trkpt lat="44.69639" lon="5.95284">
        <ele>1519.0205078</ele>
        <time>2011-07-15T12:16:38Z</time>
      </trkpt>
      <trkpt lat="44.69611" lon="5.95248">
        <ele>1520.4624023</ele>
        <time>2011-07-15T12:16:48Z</time>
      </trkpt>
      <trkpt lat="44.69589" lon="5.95225">
        <ele>1521.423584</ele>
        <time>2011-07-15T12:16:55Z</time>
      </trkpt>
      <trkpt lat="44.6957" lon="5.95218">
        <ele>1521.423584</ele>
        <time>2011-07-15T12:17:00Z</time>
      </trkpt>
      <trkpt lat="44.69542" lon="5.9522">
        <ele>1520.4624023</ele>
        <time>2011-07-15T12:17:07Z</time>
      </trkpt>
      <trkpt lat="44.6952" lon="5.95222">
        <ele>1519.9816895</ele>
        <time>2011-07-15T12:17:13Z</time>
      </trkpt>
      <trkpt lat="44.69492" lon="5.95224">
        <ele>1517.5783691</ele>
        <time>2011-07-15T12:17:19Z</time>
      </trkpt>
      <trkpt lat="44.69456" lon="5.95233">
        <ele>1515.1750488</ele>
        <time>2011-07-15T12:17:25Z</time>
      </trkpt>
      <trkpt lat="44.69449" lon="5.95235">
        <ele>1514.6943359</ele>
        <time>2011-07-15T12:17:26Z</time>
      </trkpt>
      <trkpt lat="44.69408" lon="5.95237">
        <ele>1511.329834</ele>
        <time>2011-07-15T12:17:31Z</time>
      </trkpt>
      <trkpt lat="44.6935" lon="5.95234">
        <ele>1505.5620117</ele>
        <time>2011-07-15T12:17:37Z</time>
      </trkpt>
      <trkpt lat="44.69277" lon="5.95234">
        <ele>1499.7939453</ele>
        <time>2011-07-15T12:17:44Z</time>
      </trkpt>
      <trkpt lat="44.69254" lon="5.95235">
        <ele>1497.8713379</ele>
        <time>2011-07-15T12:17:46Z</time>
      </trkpt>
      <trkpt lat="44.69212" lon="5.95254">
        <ele>1494.026123</ele>
        <time>2011-07-15T12:17:50Z</time>
      </trkpt>
      <trkpt lat="44.69159" lon="5.95295">
        <ele>1490.1809082</ele>
        <time>2011-07-15T12:17:55Z</time>
      </trkpt>
      <trkpt lat="44.691" lon="5.95318">
        <ele>1485.3742676</ele>
        <time>2011-07-15T12:18:00Z</time>
      </trkpt>
      <trkpt lat="44.69076" lon="5.95326">
        <ele>1483.9321289</ele>
        <time>2011-07-15T12:18:02Z</time>
      </trkpt>
      <trkpt lat="44.69019" lon="5.95369">
        <ele>1478.1643066</ele>
        <time>2011-07-15T12:18:07Z</time>
      </trkpt>
      <trkpt lat="44.68957" lon="5.95418">
        <ele>1471.9157715</ele>
        <time>2011-07-15T12:18:12Z</time>
      </trkpt>
      <trkpt lat="44.68889" lon="5.9547">
        <ele>1465.1865234</ele>
        <time>2011-07-15T12:18:17Z</time>
      </trkpt>
      <trkpt lat="44.6883" lon="5.95498">
        <ele>1460.3798828</ele>
        <time>2011-07-15T12:18:21Z</time>
      </trkpt>
      <trkpt lat="44.68753" lon="5.95527">
        <ele>1453.6508789</ele>
        <time>2011-07-15T12:18:26Z</time>
      </trkpt>
      <trkpt lat="44.68673" lon="5.9555">
        <ele>1447.4020996</ele>
        <time>2011-07-15T12:18:31Z</time>
      </trkpt>
      <trkpt lat="44.68551" lon="5.95593">
        <ele>1437.3083496</ele>
        <time>2011-07-15T12:18:39Z</time>
      </trkpt>
      <trkpt lat="44.68516" lon="5.95608">
        <ele>1433.9436035</ele>
        <time>2011-07-15T12:18:42Z</time>
      </trkpt>
      <trkpt lat="44.68498" lon="5.95617">
        <ele>1431.5402832</ele>
        <time>2011-07-15T12:18:44Z</time>
      </trkpt>
      <trkpt lat="44.68474" lon="5.95615">
        <ele>1428.1757813</ele>
        <time>2011-07-15T12:18:47Z</time>
      </trkpt>
      <trkpt lat="44.68453" lon="5.95589">
        <ele>1424.3305664</ele>
        <time>2011-07-15T12:18:50Z</time>
      </trkpt>
      <trkpt lat="44.68425" lon="5.95579">
        <ele>1421.4465332</ele>
        <time>2011-07-15T12:18:53Z</time>
      </trkpt>
      <trkpt lat="44.68414" lon="5.95581">
        <ele>1420.4853516</ele>
        <time>2011-07-15T12:18:54Z</time>
      </trkpt>
      <trkpt lat="44.68369" lon="5.95598">
        <ele>1417.6010742</ele>
        <time>2011-07-15T12:18:58Z</time>
      </trkpt>
      <trkpt lat="44.68331" lon="5.95637">
        <ele>1414.7172852</ele>
        <time>2011-07-15T12:19:02Z</time>
      </trkpt>
      <trkpt lat="44.68299" lon="5.9568">
        <ele>1411.8334961</ele>
        <time>2011-07-15T12:19:06Z</time>
      </trkpt>
      <trkpt lat="44.68268" lon="5.95698">
        <ele>1409.4301758</ele>
        <time>2011-07-15T12:19:10Z</time>
      </trkpt>
      <trkpt lat="44.68259" lon="5.95696">
        <ele>1408.46875</ele>
        <time>2011-07-15T12:19:11Z</time>
      </trkpt>
      <trkpt lat="44.68229" lon="5.95687">
        <ele>1405.104248</ele>
        <time>2011-07-15T12:19:14Z</time>
      </trkpt>
      <trkpt lat="44.68185" lon="5.95691">
        <ele>1401.739502</ele>
        <time>2011-07-15T12:19:18Z</time>
      </trkpt>
      <trkpt lat="44.68146" lon="5.95704">
        <ele>1399.8168945</ele>
        <time>2011-07-15T12:19:22Z</time>
      </trkpt>
      <trkpt lat="44.68124" lon="5.95695">
        <ele>1397.4135742</ele>
        <time>2011-07-15T12:19:26Z</time>
      </trkpt>
      <trkpt lat="44.68126" lon="5.95678">
        <ele>1395.4909668</ele>
        <time>2011-07-15T12:19:28Z</time>
      </trkpt>
      <trkpt lat="44.68139" lon="5.95668">
        <ele>1394.529541</ele>
        <time>2011-07-15T12:19:30Z</time>
      </trkpt>
      <trkpt lat="44.68169" lon="5.95655">
        <ele>1392.6071777</ele>
        <time>2011-07-15T12:19:34Z</time>
      </trkpt>
      <trkpt lat="44.68183" lon="5.95642">
        <ele>1391.1650391</ele>
        <time>2011-07-15T12:19:36Z</time>
      </trkpt>
      <trkpt lat="44.6824" lon="5.95585">
        <ele>1385.8776855</ele>
        <time>2011-07-15T12:19:43Z</time>
      </trkpt>
      <trkpt lat="44.683" lon="5.95539">
        <ele>1380.1098633</ele>
        <time>2011-07-15T12:19:49Z</time>
      </trkpt>
      <trkpt lat="44.68308" lon="5.95533">
        <ele>1379.6291504</ele>
        <time>2011-07-15T12:19:50Z</time>
      </trkpt>
      <trkpt lat="44.6832" lon="5.9551">
        <ele>1378.1872559</ele>
        <time>2011-07-15T12:19:53Z</time>
      </trkpt>
      <trkpt lat="44.68314" lon="5.95495">
        <ele>1377.706543</ele>
        <time>2011-07-15T12:19:55Z</time>
      </trkpt>
      <trkpt lat="44.68301" lon="5.95493">
        <ele>1377.706543</ele>
        <time>2011-07-15T12:19:57Z</time>
      </trkpt>
      <trkpt lat="44.68279" lon="5.95508">
        <ele>1377.706543</ele>
        <time>2011-07-15T12:20:00Z</time>
      </trkpt>
      <trkpt lat="44.68271" lon="5.95513">
        <ele>1378.1872559</ele>
        <time>2011-07-15T12:20:01Z</time>
      </trkpt>
      <trkpt lat="44.68224" lon="5.95549">
        <ele>1378.6679688</ele>
        <time>2011-07-15T12:20:08Z</time>
      </trkpt>
      <trkpt lat="44.68202" lon="5.95558">
        <ele>1378.6679688</ele>
        <time>2011-07-15T12:20:11Z</time>
      </trkpt>
      <trkpt lat="44.6817" lon="5.9556">
        <ele>1378.1872559</ele>
        <time>2011-07-15T12:20:15Z</time>
      </trkpt>
      <trkpt lat="44.68129" lon="5.95577">
        <ele>1377.2260742</ele>
        <time>2011-07-15T12:20:20Z</time>
      </trkpt>
      <trkpt lat="44.68094" lon="5.95593">
        <ele>1375.3032227</ele>
        <time>2011-07-15T12:20:24Z</time>
      </trkpt>
      <trkpt lat="44.68054" lon="5.95591">
        <ele>1372.9001465</ele>
        <time>2011-07-15T12:20:28Z</time>
      </trkpt>
      <trkpt lat="44.68044" lon="5.95588">
        <ele>1372.9001465</ele>
        <time>2011-07-15T12:20:29Z</time>
      </trkpt>
      <trkpt lat="44.68002" lon="5.95593">
        <ele>1371.9384766</ele>
        <time>2011-07-15T12:20:33Z</time>
      </trkpt>
      <trkpt lat="44.67945" lon="5.95619">
        <ele>1370.9772949</ele>
        <time>2011-07-15T12:20:39Z</time>
      </trkpt>
      <trkpt lat="44.67936" lon="5.95625">
        <ele>1370.496582</ele>
        <time>2011-07-15T12:20:40Z</time>
      </trkpt>
      <trkpt lat="44.67897" lon="5.95632">
        <ele>1368.0932617</ele>
        <time>2011-07-15T12:20:44Z</time>
      </trkpt>
      <trkpt lat="44.67886" lon="5.95629">
        <ele>1367.1320801</ele>
        <time>2011-07-15T12:20:45Z</time>
      </trkpt>
      <trkpt lat="44.67806" lon="5.95606">
        <ele>1361.3642578</ele>
        <time>2011-07-15T12:20:52Z</time>
      </trkpt>
      <trkpt lat="44.67769" lon="5.95597">
        <ele>1358.4802246</ele>
        <time>2011-07-15T12:20:55Z</time>
      </trkpt>
      <trkpt lat="44.67718" lon="5.95602">
        <ele>1355.1154785</ele>
        <time>2011-07-15T12:20:59Z</time>
      </trkpt>
      <trkpt lat="44.67695" lon="5.95608">
        <ele>1353.673584</ele>
        <time>2011-07-15T12:21:01Z</time>
      </trkpt>
      <trkpt lat="44.67666" lon="5.95601">
        <ele>1350.7895508</ele>
        <time>2011-07-15T12:21:04Z</time>
      </trkpt>
      <trkpt lat="44.67651" lon="5.95582">
        <ele>1349.8283691</ele>
        <time>2011-07-15T12:21:06Z</time>
      </trkpt>
      <trkpt lat="44.67599" lon="5.95506">
        <ele>1344.5410156</ele>
        <time>2011-07-15T12:21:13Z</time>
      </trkpt>
      <trkpt lat="44.67571" lon="5.95467">
        <ele>1341.6572266</ele>
        <time>2011-07-15T12:21:17Z</time>
      </trkpt>
      <trkpt lat="44.67553" lon="5.95439">
        <ele>1340.215332</ele>
        <time>2011-07-15T12:21:21Z</time>
      </trkpt>
      <trkpt lat="44.67546" lon="5.95414">
        <ele>1338.7731934</ele>
        <time>2011-07-15T12:21:25Z</time>
      </trkpt>
      <trkpt lat="44.67557" lon="5.95392">
        <ele>1336.8503418</ele>
        <time>2011-07-15T12:21:28Z</time>
      </trkpt>
      <trkpt lat="44.67581" lon="5.95384">
        <ele>1335.4084473</ele>
        <time>2011-07-15T12:21:31Z</time>
      </trkpt>
      <trkpt lat="44.67618" lon="5.95382">
        <ele>1333.4858398</ele>
        <time>2011-07-15T12:21:35Z</time>
      </trkpt>
      <trkpt lat="44.67659" lon="5.95365">
        <ele>1330.6020508</ele>
        <time>2011-07-15T12:21:39Z</time>
      </trkpt>
      <trkpt lat="44.67728" lon="5.95309">
        <ele>1325.3146973</ele>
        <time>2011-07-15T12:21:46Z</time>
      </trkpt>
      <trkpt lat="44.67819" lon="5.95213">
        <ele>1317.6240234</ele>
        <time>2011-07-15T12:21:56Z</time>
      </trkpt>
      <trkpt lat="44.67866" lon="5.95172">
        <ele>1314.2595215</ele>
        <time>2011-07-15T12:22:01Z</time>
      </trkpt>
      <trkpt lat="44.67928" lon="5.9514">
        <ele>1310.4143066</ele>
        <time>2011-07-15T12:22:07Z</time>
      </trkpt>
      <trkpt lat="44.67963" lon="5.9511">
        <ele>1308.0112305</ele>
        <time>2011-07-15T12:22:11Z</time>
      </trkpt>
      <trkpt lat="44.68005" lon="5.95066">
        <ele>1305.607666</ele>
        <time>2011-07-15T12:22:16Z</time>
      </trkpt>
      <trkpt lat="44.68054" lon="5.95036">
        <ele>1302.2429199</ele>
        <time>2011-07-15T12:22:21Z</time>
      </trkpt>
      <trkpt lat="44.68129" lon="5.94993">
        <ele>1298.878418</ele>
        <time>2011-07-15T12:22:29Z</time>
      </trkpt>
      <trkpt lat="44.68192" lon="5.94963">
        <ele>1296.9558105</ele>
        <time>2011-07-15T12:22:36Z</time>
      </trkpt>
      <trkpt lat="44.68211" lon="5.94956">
        <ele>1295.9946289</ele>
        <time>2011-07-15T12:22:38Z</time>
      </trkpt>
      <trkpt lat="44.68246" lon="5.9493">
        <ele>1295.0332031</ele>
        <time>2011-07-15T12:22:42Z</time>
      </trkpt>
      <trkpt lat="44.68293" lon="5.94903">
        <ele>1293.1105957</ele>
        <time>2011-07-15T12:22:47Z</time>
      </trkpt>
      <trkpt lat="44.6835" lon="5.94881">
        <ele>1291.668457</ele>
        <time>2011-07-15T12:22:53Z</time>
      </trkpt>
      <trkpt lat="44.68404" lon="5.94868">
        <ele>1290.2265625</ele>
        <time>2011-07-15T12:22:59Z</time>
      </trkpt>
      <trkpt lat="44.68484" lon="5.94826">
        <ele>1287.3425293</ele>
        <time>2011-07-15T12:23:08Z</time>
      </trkpt>
      <trkpt lat="44.68523" lon="5.94797">
        <ele>1286.8618164</ele>
        <time>2011-07-15T12:23:13Z</time>
      </trkpt>
      <trkpt lat="44.68562" lon="5.94761">
        <ele>1286.3813477</ele>
        <time>2011-07-15T12:23:19Z</time>
      </trkpt>
      <trkpt lat="44.68624" lon="5.94704">
        <ele>1283.9780273</ele>
        <time>2011-07-15T12:23:29Z</time>
      </trkpt>
      <trkpt lat="44.68676" lon="5.94658">
        <ele>1280.6135254</ele>
        <time>2011-07-15T12:23:37Z</time>
      </trkpt>
      <trkpt lat="44.68687" lon="5.94646">
        <ele>1280.1328125</ele>
        <time>2011-07-15T12:23:39Z</time>
      </trkpt>
      <trkpt lat="44.68697" lon="5.94632">
        <ele>1279.6520996</ele>
        <time>2011-07-15T12:23:41Z</time>
      </trkpt>
      <trkpt lat="44.68729" lon="5.94606">
        <ele>1278.2102051</ele>
        <time>2011-07-15T12:23:46Z</time>
      </trkpt>
      <trkpt lat="44.68789" lon="5.9456">
        <ele>1276.7683105</ele>
        <time>2011-07-15T12:23:54Z</time>
      </trkpt>
      <trkpt lat="44.68834" lon="5.94527">
        <ele>1276.2875977</ele>
        <time>2011-07-15T12:24:00Z</time>
      </trkpt>
      <trkpt lat="44.68867" lon="5.94471">
        <ele>1276.2875977</ele>
        <time>2011-07-15T12:24:06Z</time>
      </trkpt>
      <trkpt lat="44.68896" lon="5.94421">
        <ele>1274.845459</ele>
        <time>2011-07-15T12:24:12Z</time>
      </trkpt>
      <trkpt lat="44.68929" lon="5.94391">
        <ele>1273.4035645</ele>
        <time>2011-07-15T12:24:17Z</time>
      </trkpt>
      <trkpt lat="44.68969" lon="5.94356">
        <ele>1272.9228516</ele>
        <time>2011-07-15T12:24:23Z</time>
      </trkpt>
      <trkpt lat="44.69001" lon="5.94334">
        <ele>1273.4035645</ele>
        <time>2011-07-15T12:24:28Z</time>
      </trkpt>
      <trkpt lat="44.69033" lon="5.9431">
        <ele>1274.845459</ele>
        <time>2011-07-15T12:24:34Z</time>
      </trkpt>
      <trkpt lat="44.69074" lon="5.94276">
        <ele>1276.7683105</ele>
        <time>2011-07-15T12:24:43Z</time>
      </trkpt>
      <trkpt lat="44.6912" lon="5.9424">
        <ele>1278.690918</ele>
        <time>2011-07-15T12:24:53Z</time>
      </trkpt>
      <trkpt lat="44.69152" lon="5.94214">
        <ele>1280.1328125</ele>
        <time>2011-07-15T12:25:00Z</time>
      </trkpt>
      <trkpt lat="44.69183" lon="5.9419">
        <ele>1282.0554199</ele>
        <time>2011-07-15T12:25:08Z</time>
      </trkpt>
      <trkpt lat="44.69193" lon="5.94181">
        <ele>1283.0166016</ele>
        <time>2011-07-15T12:25:11Z</time>
      </trkpt>
      <trkpt lat="44.69224" lon="5.94162">
        <ele>1283.0166016</ele>
        <time>2011-07-15T12:25:19Z</time>
      </trkpt>
      <trkpt lat="44.69255" lon="5.94145">
        <ele>1283.0166016</ele>
        <time>2011-07-15T12:25:26Z</time>
      </trkpt>
      <trkpt lat="44.69289" lon="5.9413">
        <ele>1283.0166016</ele>
        <time>2011-07-15T12:25:33Z</time>
      </trkpt>
      <trkpt lat="44.69306" lon="5.9413">
        <ele>1282.5361328</ele>
        <time>2011-07-15T12:25:37Z</time>
      </trkpt>
      <trkpt lat="44.69306" lon="5.94131">
        <ele>1281.574707</ele>
        <time>2011-07-15T12:25:44Z</time>
      </trkpt>
      <trkpt lat="44.69306" lon="5.94132">
        <ele>1282.0554199</ele>
        <time>2011-07-15T12:25:55Z</time>
      </trkpt>
      <trkpt lat="44.69305" lon="5.94132">
        <ele>1281.574707</ele>
        <time>2011-07-15T12:26:04Z</time>
      </trkpt>
      <trkpt lat="44.69306" lon="5.94132">
        <ele>1281.574707</ele>
        <time>2011-07-15T12:26:11Z</time>
      </trkpt>
      <trkpt lat="44.69305" lon="5.94132">
        <ele>1281.574707</ele>
        <time>2011-07-15T12:26:22Z</time>
      </trkpt>
      <trkpt lat="44.69305" lon="5.94133">
        <ele>1281.574707</ele>
        <time>2011-07-15T12:26:33Z</time>
      </trkpt>
      <trkpt lat="44.69307" lon="5.94133">
        <ele>1281.574707</ele>
        <time>2011-07-15T12:26:40Z</time>
      </trkpt>
      <trkpt lat="44.69308" lon="5.94138">
        <ele>1283.4973145</ele>
        <time>2011-07-15T12:26:46Z</time>
      </trkpt>
      <trkpt lat="44.6931" lon="5.94139">
        <ele>1283.9780273</ele>
        <time>2011-07-15T12:26:52Z</time>
      </trkpt>
      <trkpt lat="44.6931" lon="5.94139">
        <ele>1284.4587402</ele>
        <time>2011-07-15T12:27:00Z</time>
      </trkpt>
      <trkpt lat="44.6931" lon="5.94141">
        <ele>1278.690918</ele>
        <time>2011-07-15T12:27:26Z</time>
      </trkpt>
      <trkpt lat="44.6931" lon="5.9414">
        <ele>1279.6520996</ele>
        <time>2011-07-15T12:27:37Z</time>
      </trkpt>
      <trkpt lat="44.69312" lon="5.94139">
        <ele>1280.1328125</ele>
        <time>2011-07-15T12:27:42Z</time>
      </trkpt>
      <trkpt lat="44.69314" lon="5.94134">
        <ele>1280.6135254</ele>
        <time>2011-07-15T12:27:50Z</time>
      </trkpt>
      <trkpt lat="44.69314" lon="5.94132">
        <ele>1282.5361328</ele>
        <time>2011-07-15T12:27:57Z</time>
      </trkpt>
      <trkpt lat="44.69314" lon="5.94131">
        <ele>1284.4587402</ele>
        <time>2011-07-15T12:28:05Z</time>
      </trkpt>
      <trkpt lat="44.69313" lon="5.9413">
        <ele>1284.4587402</ele>
        <time>2011-07-15T12:28:16Z</time>
      </trkpt>
      <trkpt lat="44.69315" lon="5.9413">
        <ele>1285.4199219</ele>
        <time>2011-07-15T12:28:30Z</time>
      </trkpt>
      <trkpt lat="44.69316" lon="5.9413">
        <ele>1285.4199219</ele>
        <time>2011-07-15T12:28:31Z</time>
      </trkpt>
      <trkpt lat="44.69331" lon="5.94124">
        <ele>1286.3813477</ele>
        <time>2011-07-15T12:28:38Z</time>
      </trkpt>
      <trkpt lat="44.69342" lon="5.94119">
        <ele>1286.3813477</ele>
        <time>2011-07-15T12:28:44Z</time>
      </trkpt>
      <trkpt lat="44.69359" lon="5.94112">
        <ele>1286.3813477</ele>
        <time>2011-07-15T12:28:50Z</time>
      </trkpt>
      <trkpt lat="44.69381" lon="5.94099">
        <ele>1286.8618164</ele>
        <time>2011-07-15T12:28:56Z</time>
      </trkpt>
      <trkpt lat="44.69397" lon="5.94083">
        <ele>1287.3425293</ele>
        <time>2011-07-15T12:29:02Z</time>
      </trkpt>
      <trkpt lat="44.69418" lon="5.94049">
        <ele>1286.8618164</ele>
        <time>2011-07-15T12:29:08Z</time>
      </trkpt>
      <trkpt lat="44.69453" lon="5.93989">
        <ele>1284.9394531</ele>
        <time>2011-07-15T12:29:17Z</time>
      </trkpt>
      <trkpt lat="44.69473" lon="5.93942">
        <ele>1284.4587402</ele>
        <time>2011-07-15T12:29:23Z</time>
      </trkpt>
      <trkpt lat="44.69491" lon="5.93871">
        <ele>1283.9780273</ele>
        <time>2011-07-15T12:29:31Z</time>
      </trkpt>
      <trkpt lat="44.69506" lon="5.93795">
        <ele>1283.0166016</ele>
        <time>2011-07-15T12:29:39Z</time>
      </trkpt>
      <trkpt lat="44.69523" lon="5.93727">
        <ele>1281.0942383</ele>
        <time>2011-07-15T12:29:46Z</time>
      </trkpt>
      <trkpt lat="44.69547" lon="5.93683">
        <ele>1281.0942383</ele>
        <time>2011-07-15T12:29:51Z</time>
      </trkpt>
      <trkpt lat="44.69598" lon="5.936">
        <ele>1280.1328125</ele>
        <time>2011-07-15T12:30:01Z</time>
      </trkpt>
      <trkpt lat="44.69624" lon="5.93545">
        <ele>1279.1713867</ele>
        <time>2011-07-15T12:30:07Z</time>
      </trkpt>
      <trkpt lat="44.6963" lon="5.93516">
        <ele>1278.690918</ele>
        <time>2011-07-15T12:30:10Z</time>
      </trkpt>
      <trkpt lat="44.69628" lon="5.93506">
        <ele>1278.2102051</ele>
        <time>2011-07-15T12:30:11Z</time>
      </trkpt>
      <trkpt lat="44.69629" lon="5.93465">
        <ele>1279.1713867</ele>
        <time>2011-07-15T12:30:15Z</time>
      </trkpt>
      <trkpt lat="44.69631" lon="5.93455">
        <ele>1279.1713867</ele>
        <time>2011-07-15T12:30:16Z</time>
      </trkpt>
      <trkpt lat="44.69653" lon="5.93384">
        <ele>1288.3039551</ele>
        <time>2011-07-15T12:30:24Z</time>
      </trkpt>
      <trkpt lat="44.6968" lon="5.93334">
        <ele>1292.1494141</ele>
        <time>2011-07-15T12:30:31Z</time>
      </trkpt>
      <trkpt lat="44.69684" lon="5.93328">
        <ele>1292.1494141</ele>
        <time>2011-07-15T12:30:32Z</time>
      </trkpt>
      <trkpt lat="44.69692" lon="5.93316">
        <ele>1291.1877441</ele>
        <time>2011-07-15T12:30:34Z</time>
      </trkpt>
      <trkpt lat="44.69727" lon="5.93293">
        <ele>1289.7458496</ele>
        <time>2011-07-15T12:30:40Z</time>
      </trkpt>
      <trkpt lat="44.69779" lon="5.9327">
        <ele>1284.9394531</ele>
        <time>2011-07-15T12:30:48Z</time>
      </trkpt>
      <trkpt lat="44.6983" lon="5.93254">
        <ele>1281.0942383</ele>
        <time>2011-07-15T12:30:55Z</time>
      </trkpt>
      <trkpt lat="44.69854" lon="5.93225">
        <ele>1278.2102051</ele>
        <time>2011-07-15T12:30:59Z</time>
      </trkpt>
      <trkpt lat="44.69885" lon="5.93159">
        <ele>1274.845459</ele>
        <time>2011-07-15T12:31:06Z</time>
      </trkpt>
      <trkpt lat="44.69893" lon="5.93144">
        <ele>1273.4035645</ele>
        <time>2011-07-15T12:31:08Z</time>
      </trkpt>
      <trkpt lat="44.69904" lon="5.93101">
        <ele>1270.0388184</ele>
        <time>2011-07-15T12:31:13Z</time>
      </trkpt>
      <trkpt lat="44.69916" lon="5.93077">
        <ele>1266.6743164</ele>
        <time>2011-07-15T12:31:16Z</time>
      </trkpt>
      <trkpt lat="44.69943" lon="5.93069">
        <ele>1263.7902832</ele>
        <time>2011-07-15T12:31:19Z</time>
      </trkpt>
      <trkpt lat="44.69971" lon="5.93074">
        <ele>1259.9448242</ele>
        <time>2011-07-15T12:31:22Z</time>
      </trkpt>
      <trkpt lat="44.70007" lon="5.93087">
        <ele>1255.6191406</ele>
        <time>2011-07-15T12:31:26Z</time>
      </trkpt>
      <trkpt lat="44.70035" lon="5.93081">
        <ele>1252.7351074</ele>
        <time>2011-07-15T12:31:30Z</time>
      </trkpt>
      <trkpt lat="44.70044" lon="5.9306">
        <ele>1251.2932129</ele>
        <time>2011-07-15T12:31:33Z</time>
      </trkpt>
      <trkpt lat="44.70045" lon="5.93035">
        <ele>1249.8513184</ele>
        <time>2011-07-15T12:31:36Z</time>
      </trkpt>
      <trkpt lat="44.70041" lon="5.92992">
        <ele>1247.9287109</ele>
        <time>2011-07-15T12:31:41Z</time>
      </trkpt>
      <trkpt lat="44.70039" lon="5.92967">
        <ele>1246.9672852</ele>
        <time>2011-07-15T12:31:44Z</time>
      </trkpt>
      <trkpt lat="44.70048" lon="5.92926">
        <ele>1246.4868164</ele>
        <time>2011-07-15T12:31:49Z</time>
      </trkpt>
      <trkpt lat="44.70058" lon="5.92917">
        <ele>1246.9672852</ele>
        <time>2011-07-15T12:31:51Z</time>
      </trkpt>
      <trkpt lat="44.70075" lon="5.92904">
        <ele>1247.447998</ele>
        <time>2011-07-15T12:31:55Z</time>
      </trkpt>
      <trkpt lat="44.7009" lon="5.9288">
        <ele>1248.8898926</ele>
        <time>2011-07-15T12:32:01Z</time>
      </trkpt>
      <trkpt lat="44.70091" lon="5.92875">
        <ele>1249.3706055</ele>
        <time>2011-07-15T12:32:02Z</time>
      </trkpt>
      <trkpt lat="44.70096" lon="5.9283">
        <ele>1251.2932129</ele>
        <time>2011-07-15T12:32:11Z</time>
      </trkpt>
      <trkpt lat="44.70089" lon="5.92794">
        <ele>1252.7351074</ele>
        <time>2011-07-15T12:32:18Z</time>
      </trkpt>
      <trkpt lat="44.7008" lon="5.92758">
        <ele>1254.6577148</ele>
        <time>2011-07-15T12:32:26Z</time>
      </trkpt>
      <trkpt lat="44.70079" lon="5.92723">
        <ele>1257.0610352</ele>
        <time>2011-07-15T12:32:33Z</time>
      </trkpt>
      <trkpt lat="44.7008" lon="5.92682">
        <ele>1258.9836426</ele>
        <time>2011-07-15T12:32:41Z</time>
      </trkpt>
      <trkpt lat="44.70082" lon="5.92647">
        <ele>1260.4257813</ele>
        <time>2011-07-15T12:32:49Z</time>
      </trkpt>
      <trkpt lat="44.70089" lon="5.92626">
        <ele>1261.8679199</ele>
        <time>2011-07-15T12:32:55Z</time>
      </trkpt>
      <trkpt lat="44.70106" lon="5.92613">
        <ele>1263.7902832</ele>
        <time>2011-07-15T12:33:01Z</time>
      </trkpt>
      <trkpt lat="44.70128" lon="5.92612">
        <ele>1265.7131348</ele>
        <time>2011-07-15T12:33:08Z</time>
      </trkpt>
      <trkpt lat="44.70146" lon="5.92605">
        <ele>1266.6743164</ele>
        <time>2011-07-15T12:33:14Z</time>
      </trkpt>
      <trkpt lat="44.70157" lon="5.92589">
        <ele>1268.1162109</ele>
        <time>2011-07-15T12:33:20Z</time>
      </trkpt>
      <trkpt lat="44.70168" lon="5.92559">
        <ele>1269.5583496</ele>
        <time>2011-07-15T12:33:28Z</time>
      </trkpt>
      <trkpt lat="44.70175" lon="5.92527">
        <ele>1271.4807129</ele>
        <time>2011-07-15T12:33:36Z</time>
      </trkpt>
      <trkpt lat="44.70178" lon="5.92494">
        <ele>1272.9228516</ele>
        <time>2011-07-15T12:33:44Z</time>
      </trkpt>
      <trkpt lat="44.70181" lon="5.92459">
        <ele>1274.3647461</ele>
        <time>2011-07-15T12:33:54Z</time>
      </trkpt>
      <trkpt lat="44.70184" lon="5.92426">
        <ele>1275.8066406</ele>
        <time>2011-07-15T12:34:03Z</time>
      </trkpt>
      <trkpt lat="44.7019" lon="5.92396">
        <ele>1277.7294922</ele>
        <time>2011-07-15T12:34:11Z</time>
      </trkpt>
      <trkpt lat="44.702" lon="5.92374">
        <ele>1279.6520996</ele>
        <time>2011-07-15T12:34:18Z</time>
      </trkpt>
      <trkpt lat="44.7022" lon="5.9235">
        <ele>1282.5361328</ele>
        <time>2011-07-15T12:34:27Z</time>
      </trkpt>
      <trkpt lat="44.70243" lon="5.92324">
        <ele>1285.4199219</ele>
        <time>2011-07-15T12:34:37Z</time>
      </trkpt>
      <trkpt lat="44.70256" lon="5.92296">
        <ele>1286.8618164</ele>
        <time>2011-07-15T12:34:45Z</time>
      </trkpt>
      <trkpt lat="44.7026" lon="5.9227">
        <ele>1287.8232422</ele>
        <time>2011-07-15T12:34:51Z</time>
      </trkpt>
      <trkpt lat="44.7026" lon="5.9224">
        <ele>1289.2651367</ele>
        <time>2011-07-15T12:34:58Z</time>
      </trkpt>
      <trkpt lat="44.70254" lon="5.92208">
        <ele>1290.7070313</ele>
        <time>2011-07-15T12:35:06Z</time>
      </trkpt>
      <trkpt lat="44.70239" lon="5.92161">
        <ele>1293.1105957</ele>
        <time>2011-07-15T12:35:17Z</time>
      </trkpt>
      <trkpt lat="44.70235" lon="5.92132">
        <ele>1295.513916</ele>
        <time>2011-07-15T12:35:24Z</time>
      </trkpt>
      <trkpt lat="44.70239" lon="5.92099">
        <ele>1297.9172363</ele>
        <time>2011-07-15T12:35:32Z</time>
      </trkpt>
      <trkpt lat="44.70247" lon="5.92069">
        <ele>1300.3205566</ele>
        <time>2011-07-15T12:35:40Z</time>
      </trkpt>
      <trkpt lat="44.70257" lon="5.92039">
        <ele>1301.7624512</ele>
        <time>2011-07-15T12:35:48Z</time>
      </trkpt>
      <trkpt lat="44.70272" lon="5.92003">
        <ele>1303.6850586</ele>
        <time>2011-07-15T12:35:58Z</time>
      </trkpt>
      <trkpt lat="44.70291" lon="5.91971">
        <ele>1306.0881348</ele>
        <time>2011-07-15T12:36:08Z</time>
      </trkpt>
      <trkpt lat="44.70308" lon="5.91946">
        <ele>1308.4916992</ele>
        <time>2011-07-15T12:36:16Z</time>
      </trkpt>
      <trkpt lat="44.70331" lon="5.91911">
        <ele>1312.3369141</ele>
        <time>2011-07-15T12:36:27Z</time>
      </trkpt>
      <trkpt lat="44.70351" lon="5.91878">
        <ele>1315.7016602</ele>
        <time>2011-07-15T12:36:38Z</time>
      </trkpt>
      <trkpt lat="44.70367" lon="5.91851">
        <ele>1317.6240234</ele>
        <time>2011-07-15T12:36:47Z</time>
      </trkpt>
      <trkpt lat="44.70379" lon="5.91823">
        <ele>1319.0661621</ele>
        <time>2011-07-15T12:36:55Z</time>
      </trkpt>
      <trkpt lat="44.70384" lon="5.91798">
        <ele>1319.546875</ele>
        <time>2011-07-15T12:37:01Z</time>
      </trkpt>
      <trkpt lat="44.70386" lon="5.91761">
        <ele>1320.9887695</ele>
        <time>2011-07-15T12:37:09Z</time>
      </trkpt>
      <trkpt lat="44.70383" lon="5.91721">
        <ele>1321.9499512</ele>
        <time>2011-07-15T12:37:17Z</time>
      </trkpt>
      <trkpt lat="44.70374" lon="5.91667">
        <ele>1323.3920898</ele>
        <time>2011-07-15T12:37:27Z</time>
      </trkpt>
      <trkpt lat="44.70372" lon="5.91642">
        <ele>1324.8342285</ele>
        <time>2011-07-15T12:37:32Z</time>
      </trkpt>
      <trkpt lat="44.70375" lon="5.91619">
        <ele>1326.276123</ele>
        <time>2011-07-15T12:37:37Z</time>
      </trkpt>
      <trkpt lat="44.70384" lon="5.91585">
        <ele>1329.1599121</ele>
        <time>2011-07-15T12:37:45Z</time>
      </trkpt>
      <trkpt lat="44.70398" lon="5.91548">
        <ele>1331.0827637</ele>
        <time>2011-07-15T12:37:54Z</time>
      </trkpt>
      <trkpt lat="44.70414" lon="5.91517">
        <ele>1333.005127</ele>
        <time>2011-07-15T12:38:02Z</time>
      </trkpt>
      <trkpt lat="44.70428" lon="5.91489">
        <ele>1334.9279785</ele>
        <time>2011-07-15T12:38:10Z</time>
      </trkpt>
      <trkpt lat="44.70438" lon="5.91464">
        <ele>1336.8503418</ele>
        <time>2011-07-15T12:38:16Z</time>
      </trkpt>
      <trkpt lat="44.70452" lon="5.91428">
        <ele>1338.7731934</ele>
        <time>2011-07-15T12:38:25Z</time>
      </trkpt>
      <trkpt lat="44.70465" lon="5.91386">
        <ele>1340.215332</ele>
        <time>2011-07-15T12:38:36Z</time>
      </trkpt>
      <trkpt lat="44.70474" lon="5.91349">
        <ele>1341.1765137</ele>
        <time>2011-07-15T12:38:44Z</time>
      </trkpt>
      <trkpt lat="44.70485" lon="5.91294">
        <ele>1345.0217285</ele>
        <time>2011-07-15T12:38:55Z</time>
      </trkpt>
      <trkpt lat="44.70493" lon="5.9126">
        <ele>1346.9443359</ele>
        <time>2011-07-15T12:39:03Z</time>
      </trkpt>
      <trkpt lat="44.70508" lon="5.91225">
        <ele>1348.8669434</ele>
        <time>2011-07-15T12:39:12Z</time>
      </trkpt>
      <trkpt lat="44.70526" lon="5.91192">
        <ele>1350.309082</ele>
        <time>2011-07-15T12:39:21Z</time>
      </trkpt>
      <trkpt lat="44.70543" lon="5.91158">
        <ele>1352.2314453</ele>
        <time>2011-07-15T12:39:31Z</time>
      </trkpt>
      <trkpt lat="44.70562" lon="5.91123">
        <ele>1355.5961914</ele>
        <time>2011-07-15T12:39:41Z</time>
      </trkpt>
      <trkpt lat="44.70576" lon="5.91097">
        <ele>1357.9997559</ele>
        <time>2011-07-15T12:39:48Z</time>
      </trkpt>
      <trkpt lat="44.70585" lon="5.91066">
        <ele>1359.4416504</ele>
        <time>2011-07-15T12:39:55Z</time>
      </trkpt>
      <trkpt lat="44.70588" lon="5.91031">
        <ele>1361.3642578</ele>
        <time>2011-07-15T12:40:02Z</time>
      </trkpt>
      <trkpt lat="44.70586" lon="5.90985">
        <ele>1363.2868652</ele>
        <time>2011-07-15T12:40:11Z</time>
      </trkpt>
      <trkpt lat="44.70586" lon="5.9095">
        <ele>1363.767334</ele>
        <time>2011-07-15T12:40:18Z</time>
      </trkpt>
      <trkpt lat="44.70586" lon="5.90908">
        <ele>1365.6901855</ele>
        <time>2011-07-15T12:40:26Z</time>
      </trkpt>
      <trkpt lat="44.70581" lon="5.9087">
        <ele>1367.1320801</ele>
        <time>2011-07-15T12:40:32Z</time>
      </trkpt>
      <trkpt lat="44.70575" lon="5.90852">
        <ele>1367.6125488</ele>
        <time>2011-07-15T12:40:35Z</time>
      </trkpt>
      <trkpt lat="44.70555" lon="5.90818">
        <ele>1369.0546875</ele>
        <time>2011-07-15T12:40:42Z</time>
      </trkpt>
      <trkpt lat="44.70529" lon="5.90803">
        <ele>1369.5354004</ele>
        <time>2011-07-15T12:40:48Z</time>
      </trkpt>
      <trkpt lat="44.70513" lon="5.90805">
        <ele>1368.5739746</ele>
        <time>2011-07-15T12:40:51Z</time>
      </trkpt>
      <trkpt lat="44.7048" lon="5.90816">
        <ele>1366.6513672</ele>
        <time>2011-07-15T12:40:56Z</time>
      </trkpt>
      <trkpt lat="44.70447" lon="5.90819">
        <ele>1363.767334</ele>
        <time>2011-07-15T12:41:00Z</time>
      </trkpt>
      <trkpt lat="44.7041" lon="5.90812">
        <ele>1361.3642578</ele>
        <time>2011-07-15T12:41:04Z</time>
      </trkpt>
      <trkpt lat="44.70376" lon="5.90791">
        <ele>1359.9221191</ele>
        <time>2011-07-15T12:41:08Z</time>
      </trkpt>
      <trkpt lat="44.70366" lon="5.9077">
        <ele>1359.4416504</ele>
        <time>2011-07-15T12:41:10Z</time>
      </trkpt>
      <trkpt lat="44.70369" lon="5.9073">
        <ele>1359.4416504</ele>
        <time>2011-07-15T12:41:13Z</time>
      </trkpt>
      <trkpt lat="44.70385" lon="5.90706">
        <ele>1359.9221191</ele>
        <time>2011-07-15T12:41:16Z</time>
      </trkpt>
      <trkpt lat="44.70392" lon="5.90701">
        <ele>1360.402832</ele>
        <time>2011-07-15T12:41:17Z</time>
      </trkpt>
      <trkpt lat="44.70422" lon="5.90686">
        <ele>1361.8449707</ele>
        <time>2011-07-15T12:41:22Z</time>
      </trkpt>
      <trkpt lat="44.70449" lon="5.90674">
        <ele>1362.8061523</ele>
        <time>2011-07-15T12:41:28Z</time>
      </trkpt>
      <trkpt lat="44.70468" lon="5.90667">
        <ele>1364.7287598</ele>
        <time>2011-07-15T12:41:34Z</time>
      </trkpt>
      <trkpt lat="44.70487" lon="5.90663">
        <ele>1366.1706543</ele>
        <time>2011-07-15T12:41:40Z</time>
      </trkpt>
      <trkpt lat="44.70508" lon="5.9066">
        <ele>1366.1706543</ele>
        <time>2011-07-15T12:41:47Z</time>
      </trkpt>
      <trkpt lat="44.7053" lon="5.90657">
        <ele>1366.6513672</ele>
        <time>2011-07-15T12:41:54Z</time>
      </trkpt>
      <trkpt lat="44.70553" lon="5.90651">
        <ele>1369.5354004</ele>
        <time>2011-07-15T12:42:01Z</time>
      </trkpt>
      <trkpt lat="44.70559" lon="5.9064">
        <ele>1370.496582</ele>
        <time>2011-07-15T12:42:04Z</time>
      </trkpt>
      <trkpt lat="44.70557" lon="5.90626">
        <ele>1370.9772949</ele>
        <time>2011-07-15T12:42:07Z</time>
      </trkpt>
      <trkpt lat="44.70545" lon="5.90619">
        <ele>1371.9384766</ele>
        <time>2011-07-15T12:42:11Z</time>
      </trkpt>
      <trkpt lat="44.70513" lon="5.90615">
        <ele>1374.8227539</ele>
        <time>2011-07-15T12:42:21Z</time>
      </trkpt>
      <trkpt lat="44.70488" lon="5.90613">
        <ele>1376.2646484</ele>
        <time>2011-07-15T12:42:30Z</time>
      </trkpt>
      <trkpt lat="44.70469" lon="5.9061">
        <ele>1376.7453613</ele>
        <time>2011-07-15T12:42:37Z</time>
      </trkpt>
      <trkpt lat="44.70439" lon="5.90601">
        <ele>1378.6679688</ele>
        <time>2011-07-15T12:42:46Z</time>
      </trkpt>
      <trkpt lat="44.70409" lon="5.9059">
        <ele>1380.5905762</ele>
        <time>2011-07-15T12:42:55Z</time>
      </trkpt>
      <trkpt lat="44.70377" lon="5.90584">
        <ele>1381.5517578</ele>
        <time>2011-07-15T12:43:04Z</time>
      </trkpt>
      <trkpt lat="44.70348" lon="5.90584">
        <ele>1383.4743652</ele>
        <time>2011-07-15T12:43:12Z</time>
      </trkpt>
      <trkpt lat="44.70314" lon="5.90581">
        <ele>1384.9165039</ele>
        <time>2011-07-15T12:43:22Z</time>
      </trkpt>
      <trkpt lat="44.70295" lon="5.90569">
        <ele>1386.3583984</ele>
        <time>2011-07-15T12:43:28Z</time>
      </trkpt>
      <trkpt lat="44.70284" lon="5.90548">
        <ele>1387.800293</ele>
        <time>2011-07-15T12:43:34Z</time>
      </trkpt>
      <trkpt lat="44.70283" lon="5.90521">
        <ele>1389.2424316</ele>
        <time>2011-07-15T12:43:40Z</time>
      </trkpt>
      <trkpt lat="44.70288" lon="5.90491">
        <ele>1391.645752</ele>
        <time>2011-07-15T12:43:47Z</time>
      </trkpt>
      <trkpt lat="44.70297" lon="5.90453">
        <ele>1394.0490723</ele>
        <time>2011-07-15T12:43:56Z</time>
      </trkpt>
      <trkpt lat="44.70304" lon="5.90417">
        <ele>1395.9716797</ele>
        <time>2011-07-15T12:44:04Z</time>
      </trkpt>
      <trkpt lat="44.70306" lon="5.90388">
        <ele>1397.8942871</ele>
        <time>2011-07-15T12:44:11Z</time>
      </trkpt>
      <trkpt lat="44.70302" lon="5.90353">
        <ele>1399.3361816</ele>
        <time>2011-07-15T12:44:19Z</time>
      </trkpt>
      <trkpt lat="44.70292" lon="5.90319">
        <ele>1401.739502</ele>
        <time>2011-07-15T12:44:27Z</time>
      </trkpt>
      <trkpt lat="44.70279" lon="5.9028">
        <ele>1404.1430664</ele>
        <time>2011-07-15T12:44:36Z</time>
      </trkpt>
      <trkpt lat="44.70265" lon="5.90241">
        <ele>1406.0654297</ele>
        <time>2011-07-15T12:44:45Z</time>
      </trkpt>
      <trkpt lat="44.7025" lon="5.90197">
        <ele>1408.46875</ele>
        <time>2011-07-15T12:44:56Z</time>
      </trkpt>
      <trkpt lat="44.70236" lon="5.90156">
        <ele>1410.3913574</ele>
        <time>2011-07-15T12:45:06Z</time>
      </trkpt>
      <trkpt lat="44.70221" lon="5.90116">
        <ele>1412.3139648</ele>
        <time>2011-07-15T12:45:16Z</time>
      </trkpt>
      <trkpt lat="44.70204" lon="5.90068">
        <ele>1414.2365723</ele>
        <time>2011-07-15T12:45:27Z</time>
      </trkpt>
      <trkpt lat="44.70197" lon="5.9003">
        <ele>1415.6787109</ele>
        <time>2011-07-15T12:45:35Z</time>
      </trkpt>
      <trkpt lat="44.70194" lon="5.89982">
        <ele>1417.6010742</ele>
        <time>2011-07-15T12:45:45Z</time>
      </trkpt>
      <trkpt lat="44.70192" lon="5.89931">
        <ele>1419.5239258</ele>
        <time>2011-07-15T12:45:56Z</time>
      </trkpt>
      <trkpt lat="44.70189" lon="5.89884">
        <ele>1420.9660645</ele>
        <time>2011-07-15T12:46:06Z</time>
      </trkpt>
      <trkpt lat="44.70181" lon="5.89845">
        <ele>1421.4465332</ele>
        <time>2011-07-15T12:46:14Z</time>
      </trkpt>
      <trkpt lat="44.70164" lon="5.89808">
        <ele>1421.9272461</ele>
        <time>2011-07-15T12:46:22Z</time>
      </trkpt>
      <trkpt lat="44.70144" lon="5.89771">
        <ele>1422.407959</ele>
        <time>2011-07-15T12:46:30Z</time>
      </trkpt>
      <trkpt lat="44.70124" lon="5.89735">
        <ele>1422.407959</ele>
        <time>2011-07-15T12:46:38Z</time>
      </trkpt>
      <trkpt lat="44.70097" lon="5.89686">
        <ele>1423.3693848</ele>
        <time>2011-07-15T12:46:48Z</time>
      </trkpt>
      <trkpt lat="44.70072" lon="5.89649">
        <ele>1423.8498535</ele>
        <time>2011-07-15T12:46:56Z</time>
      </trkpt>
      <trkpt lat="44.70034" lon="5.89609">
        <ele>1425.7724609</ele>
        <time>2011-07-15T12:47:06Z</time>
      </trkpt>
      <trkpt lat="44.69999" lon="5.89575">
        <ele>1428.1757813</ele>
        <time>2011-07-15T12:47:16Z</time>
      </trkpt>
      <trkpt lat="44.69971" lon="5.89546">
        <ele>1429.6176758</ele>
        <time>2011-07-15T12:47:24Z</time>
      </trkpt>
      <trkpt lat="44.69943" lon="5.89506">
        <ele>1431.0598145</ele>
        <time>2011-07-15T12:47:33Z</time>
      </trkpt>
      <trkpt lat="44.6992" lon="5.89457">
        <ele>1432.9821777</ele>
        <time>2011-07-15T12:47:43Z</time>
      </trkpt>
      <trkpt lat="44.69893" lon="5.89398">
        <ele>1434.9050293</ele>
        <time>2011-07-15T12:47:56Z</time>
      </trkpt>
      <trkpt lat="44.69876" lon="5.89352">
        <ele>1436.347168</ele>
        <time>2011-07-15T12:48:06Z</time>
      </trkpt>
      <trkpt lat="44.6987" lon="5.89313">
        <ele>1436.8276367</ele>
        <time>2011-07-15T12:48:14Z</time>
      </trkpt>
      <trkpt lat="44.69866" lon="5.89275">
        <ele>1435.8662109</ele>
        <time>2011-07-15T12:48:22Z</time>
      </trkpt>
      <trkpt lat="44.69862" lon="5.89255">
        <ele>1435.385498</ele>
        <time>2011-07-15T12:48:28Z</time>
      </trkpt>
      <trkpt lat="44.69863" lon="5.89255">
        <ele>1435.385498</ele>
        <time>2011-07-15T12:48:40Z</time>
      </trkpt>
      <trkpt lat="44.69864" lon="5.89256">
        <ele>1434.9050293</ele>
        <time>2011-07-15T12:48:58Z</time>
      </trkpt>
      <trkpt lat="44.69864" lon="5.89256">
        <ele>1435.385498</ele>
        <time>2011-07-15T12:49:08Z</time>
      </trkpt>
      <trkpt lat="44.69864" lon="5.89256">
        <ele>1435.385498</ele>
        <time>2011-07-15T12:49:36Z</time>
      </trkpt>
      <trkpt lat="44.69864" lon="5.89256">
        <ele>1435.8662109</ele>
        <time>2011-07-15T12:49:49Z</time>
      </trkpt>
      <trkpt lat="44.69863" lon="5.89255">
        <ele>1436.8276367</ele>
        <time>2011-07-15T12:50:10Z</time>
      </trkpt>
      <trkpt lat="44.69864" lon="5.89256">
        <ele>1436.8276367</ele>
        <time>2011-07-15T12:50:51Z</time>
      </trkpt>
      <trkpt lat="44.69865" lon="5.89255">
        <ele>1436.8276367</ele>
        <time>2011-07-15T12:50:58Z</time>
      </trkpt>
      <trkpt lat="44.69863" lon="5.89254">
        <ele>1435.8662109</ele>
        <time>2011-07-15T12:51:14Z</time>
      </trkpt>
      <trkpt lat="44.69855" lon="5.89233">
        <ele>1434.4243164</ele>
        <time>2011-07-15T12:51:20Z</time>
      </trkpt>
      <trkpt lat="44.69841" lon="5.89199">
        <ele>1432.0209961</ele>
        <time>2011-07-15T12:51:25Z</time>
      </trkpt>
      <trkpt lat="44.69817" lon="5.89157">
        <ele>1429.1369629</ele>
        <time>2011-07-15T12:51:30Z</time>
      </trkpt>
      <trkpt lat="44.69779" lon="5.89098">
        <ele>1424.8112793</ele>
        <time>2011-07-15T12:51:36Z</time>
      </trkpt>
      <trkpt lat="44.69746" lon="5.89059">
        <ele>1421.9272461</ele>
        <time>2011-07-15T12:51:40Z</time>
      </trkpt>
      <trkpt lat="44.69717" lon="5.89038">
        <ele>1419.5239258</ele>
        <time>2011-07-15T12:51:43Z</time>
      </trkpt>
      <trkpt lat="44.69647" lon="5.89017">
        <ele>1414.2365723</ele>
        <time>2011-07-15T12:51:49Z</time>
      </trkpt>
      <trkpt lat="44.69582" lon="5.89013">
        <ele>1409.4301758</ele>
        <time>2011-07-15T12:51:54Z</time>
      </trkpt>
      <trkpt lat="44.69556" lon="5.89012">
        <ele>1407.0268555</ele>
        <time>2011-07-15T12:51:56Z</time>
      </trkpt>
      <trkpt lat="44.6952" lon="5.88995">
        <ele>1404.1430664</ele>
        <time>2011-07-15T12:51:59Z</time>
      </trkpt>
      <trkpt lat="44.6951" lon="5.88983">
        <ele>1403.1813965</ele>
        <time>2011-07-15T12:52:00Z</time>
      </trkpt>
      <trkpt lat="44.69454" lon="5.88931">
        <ele>1398.3747559</ele>
        <time>2011-07-15T12:52:05Z</time>
      </trkpt>
      <trkpt lat="44.694" lon="5.88906">
        <ele>1395.0102539</ele>
        <time>2011-07-15T12:52:09Z</time>
      </trkpt>
      <trkpt lat="44.69359" lon="5.88859">
        <ele>1390.2038574</ele>
        <time>2011-07-15T12:52:13Z</time>
      </trkpt>
      <trkpt lat="44.69352" lon="5.88844">
        <ele>1389.2424316</ele>
        <time>2011-07-15T12:52:14Z</time>
      </trkpt>
      <trkpt lat="44.69323" lon="5.88795">
        <ele>1385.8776855</ele>
        <time>2011-07-15T12:52:18Z</time>
      </trkpt>
      <trkpt lat="44.69299" lon="5.88792">
        <ele>1384.435791</ele>
        <time>2011-07-15T12:52:20Z</time>
      </trkpt>
      <trkpt lat="44.69265" lon="5.88804">
        <ele>1382.5131836</ele>
        <time>2011-07-15T12:52:23Z</time>
      </trkpt>
      <trkpt lat="44.69245" lon="5.88803">
        <ele>1381.5517578</ele>
        <time>2011-07-15T12:52:25Z</time>
      </trkpt>
      <trkpt lat="44.69229" lon="5.88785">
        <ele>1380.1098633</ele>
        <time>2011-07-15T12:52:27Z</time>
      </trkpt>
      <trkpt lat="44.69221" lon="5.88756">
        <ele>1378.6679688</ele>
        <time>2011-07-15T12:52:29Z</time>
      </trkpt>
      <trkpt lat="44.69219" lon="5.88741">
        <ele>1378.1872559</ele>
        <time>2011-07-15T12:52:30Z</time>
      </trkpt>
      <trkpt lat="44.69217" lon="5.88711">
        <ele>1377.706543</ele>
        <time>2011-07-15T12:52:32Z</time>
      </trkpt>
      <trkpt lat="44.69201" lon="5.88656">
        <ele>1375.3032227</ele>
        <time>2011-07-15T12:52:36Z</time>
      </trkpt>
      <trkpt lat="44.69172" lon="5.88631">
        <ele>1373.3808594</ele>
        <time>2011-07-15T12:52:39Z</time>
      </trkpt>
      <trkpt lat="44.69064" lon="5.88567">
        <ele>1368.0932617</ele>
        <time>2011-07-15T12:52:49Z</time>
      </trkpt>
      <trkpt lat="44.69043" lon="5.88552">
        <ele>1367.1320801</ele>
        <time>2011-07-15T12:52:51Z</time>
      </trkpt>
      <trkpt lat="44.69007" lon="5.88507">
        <ele>1364.7287598</ele>
        <time>2011-07-15T12:52:55Z</time>
      </trkpt>
      <trkpt lat="44.68997" lon="5.88478">
        <ele>1363.767334</ele>
        <time>2011-07-15T12:52:57Z</time>
      </trkpt>
      <trkpt lat="44.68963" lon="5.88358">
        <ele>1359.4416504</ele>
        <time>2011-07-15T12:53:05Z</time>
      </trkpt>
      <trkpt lat="44.68917" lon="5.88265">
        <ele>1356.5576172</ele>
        <time>2011-07-15T12:53:12Z</time>
      </trkpt>
      <trkpt lat="44.68873" lon="5.88194">
        <ele>1353.673584</ele>
        <time>2011-07-15T12:53:18Z</time>
      </trkpt>
      <trkpt lat="44.68828" lon="5.88126">
        <ele>1350.7895508</ele>
        <time>2011-07-15T12:53:24Z</time>
      </trkpt>
      <trkpt lat="44.68789" lon="5.88097">
        <ele>1348.8669434</ele>
        <time>2011-07-15T12:53:28Z</time>
      </trkpt>
      <trkpt lat="44.68767" lon="5.88089">
        <ele>1347.4250488</ele>
        <time>2011-07-15T12:53:30Z</time>
      </trkpt>
      <trkpt lat="44.68688" lon="5.88069">
        <ele>1344.0605469</ele>
        <time>2011-07-15T12:53:37Z</time>
      </trkpt>
      <trkpt lat="44.68647" lon="5.88041">
        <ele>1342.1379395</ele>
        <time>2011-07-15T12:53:41Z</time>
      </trkpt>
      <trkpt lat="44.68576" lon="5.8796">
        <ele>1338.2924805</ele>
        <time>2011-07-15T12:53:49Z</time>
      </trkpt>
      <trkpt lat="44.68525" lon="5.87892">
        <ele>1334.9279785</ele>
        <time>2011-07-15T12:53:55Z</time>
      </trkpt>
      <trkpt lat="44.68505" lon="5.8783">
        <ele>1332.5246582</ele>
        <time>2011-07-15T12:53:59Z</time>
      </trkpt>
      <trkpt lat="44.68502" lon="5.87814">
        <ele>1331.5632324</ele>
        <time>2011-07-15T12:54:00Z</time>
      </trkpt>
      <trkpt lat="44.68471" lon="5.87741">
        <ele>1329.1599121</ele>
        <time>2011-07-15T12:54:05Z</time>
      </trkpt>
      <trkpt lat="44.68414" lon="5.87653">
        <ele>1325.3146973</ele>
        <time>2011-07-15T12:54:12Z</time>
      </trkpt>
      <trkpt lat="44.68375" lon="5.87619">
        <ele>1324.3535156</ele>
        <time>2011-07-15T12:54:16Z</time>
      </trkpt>
      <trkpt lat="44.68324" lon="5.87588">
        <ele>1323.8725586</ele>
        <time>2011-07-15T12:54:21Z</time>
      </trkpt>
      <trkpt lat="44.6827" lon="5.87553">
        <ele>1324.3535156</ele>
        <time>2011-07-15T12:54:27Z</time>
      </trkpt>
      <trkpt lat="44.68209" lon="5.87502">
        <ele>1325.3146973</ele>
        <time>2011-07-15T12:54:35Z</time>
      </trkpt>
      <trkpt lat="44.68156" lon="5.87442">
        <ele>1325.7954102</ele>
        <time>2011-07-15T12:54:43Z</time>
      </trkpt>
      <trkpt lat="44.68108" lon="5.87385">
        <ele>1327.7180176</ele>
        <time>2011-07-15T12:54:51Z</time>
      </trkpt>
      <trkpt lat="44.68061" lon="5.8733">
        <ele>1329.640625</ele>
        <time>2011-07-15T12:55:00Z</time>
      </trkpt>
      <trkpt lat="44.68012" lon="5.87273">
        <ele>1331.5632324</ele>
        <time>2011-07-15T12:55:10Z</time>
      </trkpt>
      <trkpt lat="44.67978" lon="5.87231">
        <ele>1333.005127</ele>
        <time>2011-07-15T12:55:17Z</time>
      </trkpt>
      <trkpt lat="44.67936" lon="5.87168">
        <ele>1333.9665527</ele>
        <time>2011-07-15T12:55:27Z</time>
      </trkpt>
      <trkpt lat="44.67914" lon="5.87124">
        <ele>1333.4858398</ele>
        <time>2011-07-15T12:55:33Z</time>
      </trkpt>
      <trkpt lat="44.67883" lon="5.87071">
        <ele>1333.005127</ele>
        <time>2011-07-15T12:55:40Z</time>
      </trkpt>
      <trkpt lat="44.67849" lon="5.87031">
        <ele>1333.9665527</ele>
        <time>2011-07-15T12:55:47Z</time>
      </trkpt>
      <trkpt lat="44.67822" lon="5.8701">
        <ele>1335.4084473</ele>
        <time>2011-07-15T12:55:53Z</time>
      </trkpt>
      <trkpt lat="44.67798" lon="5.86989">
        <ele>1337.3310547</ele>
        <time>2011-07-15T12:56:00Z</time>
      </trkpt>
      <trkpt lat="44.67771" lon="5.86962">
        <ele>1339.734375</ele>
        <time>2011-07-15T12:56:09Z</time>
      </trkpt>
      <trkpt lat="44.67749" lon="5.8694">
        <ele>1341.6572266</ele>
        <time>2011-07-15T12:56:16Z</time>
      </trkpt>
      <trkpt lat="44.6773" lon="5.86913">
        <ele>1343.579834</ele>
        <time>2011-07-15T12:56:23Z</time>
      </trkpt>
      <trkpt lat="44.67709" lon="5.86871">
        <ele>1345.9831543</ele>
        <time>2011-07-15T12:56:33Z</time>
      </trkpt>
      <trkpt lat="44.67689" lon="5.86823">
        <ele>1348.8669434</ele>
        <time>2011-07-15T12:56:44Z</time>
      </trkpt>
      <trkpt lat="44.67669" lon="5.86779">
        <ele>1351.2702637</ele>
        <time>2011-07-15T12:56:54Z</time>
      </trkpt>
      <trkpt lat="44.67646" lon="5.86737">
        <ele>1353.673584</ele>
        <time>2011-07-15T12:57:04Z</time>
      </trkpt>
      <trkpt lat="44.67627" lon="5.8672">
        <ele>1355.1154785</ele>
        <time>2011-07-15T12:57:10Z</time>
      </trkpt>
      <trkpt lat="44.67607" lon="5.8672">
        <ele>1356.5576172</ele>
        <time>2011-07-15T12:57:16Z</time>
      </trkpt>
      <trkpt lat="44.67582" lon="5.86729">
        <ele>1357.9997559</ele>
        <time>2011-07-15T12:57:24Z</time>
      </trkpt>
      <trkpt lat="44.67541" lon="5.86747">
        <ele>1360.8835449</ele>
        <time>2011-07-15T12:57:36Z</time>
      </trkpt>
      <trkpt lat="44.6751" lon="5.86755">
        <ele>1362.8061523</ele>
        <time>2011-07-15T12:57:45Z</time>
      </trkpt>
      <trkpt lat="44.67473" lon="5.86758">
        <ele>1365.2094727</ele>
        <time>2011-07-15T12:57:55Z</time>
      </trkpt>
      <trkpt lat="44.67433" lon="5.86755">
        <ele>1368.0932617</ele>
        <time>2011-07-15T12:58:06Z</time>
      </trkpt>
      <trkpt lat="44.67398" lon="5.86743">
        <ele>1370.496582</ele>
        <time>2011-07-15T12:58:16Z</time>
      </trkpt>
      <trkpt lat="44.67369" lon="5.86728">
        <ele>1372.4194336</ele>
        <time>2011-07-15T12:58:24Z</time>
      </trkpt>
      <trkpt lat="44.67333" lon="5.86712">
        <ele>1374.8227539</ele>
        <time>2011-07-15T12:58:34Z</time>
      </trkpt>
      <trkpt lat="44.67301" lon="5.86704">
        <ele>1376.7453613</ele>
        <time>2011-07-15T12:58:43Z</time>
      </trkpt>
      <trkpt lat="44.67263" lon="5.86698">
        <ele>1379.6291504</ele>
        <time>2011-07-15T12:58:53Z</time>
      </trkpt>
      <trkpt lat="44.67229" lon="5.86685">
        <ele>1381.5517578</ele>
        <time>2011-07-15T12:59:03Z</time>
      </trkpt>
      <trkpt lat="44.67197" lon="5.86668">
        <ele>1383.9550781</ele>
        <time>2011-07-15T12:59:13Z</time>
      </trkpt>
      <trkpt lat="44.67164" lon="5.86648">
        <ele>1385.8776855</ele>
        <time>2011-07-15T12:59:24Z</time>
      </trkpt>
      <trkpt lat="44.67146" lon="5.86629">
        <ele>1387.3195801</ele>
        <time>2011-07-15T12:59:31Z</time>
      </trkpt>
      <trkpt lat="44.67132" lon="5.866">
        <ele>1388.7619629</ele>
        <time>2011-07-15T12:59:39Z</time>
      </trkpt>
      <trkpt lat="44.67121" lon="5.86571">
        <ele>1390.2038574</ele>
        <time>2011-07-15T12:59:47Z</time>
      </trkpt>
      <trkpt lat="44.67104" lon="5.86547">
        <ele>1392.6071777</ele>
        <time>2011-07-15T12:59:55Z</time>
      </trkpt>
      <trkpt lat="44.67081" lon="5.86531">
        <ele>1394.529541</ele>
        <time>2011-07-15T13:00:04Z</time>
      </trkpt>
      <trkpt lat="44.67057" lon="5.8652">
        <ele>1396.4523926</ele>
        <time>2011-07-15T13:00:12Z</time>
      </trkpt>
      <trkpt lat="44.67033" lon="5.86501">
        <ele>1397.8942871</ele>
        <time>2011-07-15T13:00:21Z</time>
      </trkpt>
      <trkpt lat="44.67016" lon="5.86473">
        <ele>1399.3361816</ele>
        <time>2011-07-15T13:00:29Z</time>
      </trkpt>
      <trkpt lat="44.66997" lon="5.86447">
        <ele>1402.2199707</ele>
        <time>2011-07-15T13:00:37Z</time>
      </trkpt>
      <trkpt lat="44.6697" lon="5.86427">
        <ele>1404.1430664</ele>
        <time>2011-07-15T13:00:46Z</time>
      </trkpt>
      <trkpt lat="44.66942" lon="5.86418">
        <ele>1407.0268555</ele>
        <time>2011-07-15T13:00:54Z</time>
      </trkpt>
      <trkpt lat="44.66913" lon="5.86414">
        <ele>1409.4301758</ele>
        <time>2011-07-15T13:01:02Z</time>
      </trkpt>
      <trkpt lat="44.66887" lon="5.86407">
        <ele>1411.3527832</ele>
        <time>2011-07-15T13:01:10Z</time>
      </trkpt>
      <trkpt lat="44.66858" lon="5.86387">
        <ele>1414.2365723</ele>
        <time>2011-07-15T13:01:20Z</time>
      </trkpt>
      <trkpt lat="44.66841" lon="5.86366">
        <ele>1415.6787109</ele>
        <time>2011-07-15T13:01:28Z</time>
      </trkpt>
      <trkpt lat="44.66829" lon="5.86342">
        <ele>1416.6398926</ele>
        <time>2011-07-15T13:01:36Z</time>
      </trkpt>
      <trkpt lat="44.66819" lon="5.86319">
        <ele>1418.5625</ele>
        <time>2011-07-15T13:01:43Z</time>
      </trkpt>
      <trkpt lat="44.6681" lon="5.86295">
        <ele>1420.9660645</ele>
        <time>2011-07-15T13:01:50Z</time>
      </trkpt>
      <trkpt lat="44.66798" lon="5.86265">
        <ele>1422.8886719</ele>
        <time>2011-07-15T13:01:58Z</time>
      </trkpt>
      <trkpt lat="44.66784" lon="5.86222">
        <ele>1425.291748</ele>
        <time>2011-07-15T13:02:09Z</time>
      </trkpt>
      <trkpt lat="44.66785" lon="5.86197">
        <ele>1427.2145996</ele>
        <time>2011-07-15T13:02:15Z</time>
      </trkpt>
      <trkpt lat="44.66797" lon="5.86174">
        <ele>1429.1369629</ele>
        <time>2011-07-15T13:02:21Z</time>
      </trkpt>
      <trkpt lat="44.66815" lon="5.86153">
        <ele>1430.5791016</ele>
        <time>2011-07-15T13:02:28Z</time>
      </trkpt>
      <trkpt lat="44.66824" lon="5.86131">
        <ele>1432.0209961</ele>
        <time>2011-07-15T13:02:34Z</time>
      </trkpt>
      <trkpt lat="44.66824" lon="5.86103">
        <ele>1432.9821777</ele>
        <time>2011-07-15T13:02:40Z</time>
      </trkpt>
      <trkpt lat="44.66827" lon="5.86077">
        <ele>1434.4243164</ele>
        <time>2011-07-15T13:02:45Z</time>
      </trkpt>
      <trkpt lat="44.66839" lon="5.86056">
        <ele>1435.8662109</ele>
        <time>2011-07-15T13:02:50Z</time>
      </trkpt>
      <trkpt lat="44.66849" lon="5.86024">
        <ele>1437.7890625</ele>
        <time>2011-07-15T13:02:57Z</time>
      </trkpt>
      <trkpt lat="44.66846" lon="5.85999">
        <ele>1438.7504883</ele>
        <time>2011-07-15T13:03:02Z</time>
      </trkpt>
      <trkpt lat="44.66829" lon="5.85962">
        <ele>1440.1923828</ele>
        <time>2011-07-15T13:03:10Z</time>
      </trkpt>
      <trkpt lat="44.66803" lon="5.85909">
        <ele>1441.6342773</ele>
        <time>2011-07-15T13:03:21Z</time>
      </trkpt>
      <trkpt lat="44.66778" lon="5.85856">
        <ele>1442.5957031</ele>
        <time>2011-07-15T13:03:31Z</time>
      </trkpt>
      <trkpt lat="44.66763" lon="5.85827">
        <ele>1444.5180664</ele>
        <time>2011-07-15T13:03:37Z</time>
      </trkpt>
      <trkpt lat="44.66754" lon="5.85814">
        <ele>1444.9987793</ele>
        <time>2011-07-15T13:03:40Z</time>
      </trkpt>
      <trkpt lat="44.66726" lon="5.85795">
        <ele>1446.440918</ele>
        <time>2011-07-15T13:03:47Z</time>
      </trkpt>
      <trkpt lat="44.66685" lon="5.85783">
        <ele>1446.9213867</ele>
        <time>2011-07-15T13:03:55Z</time>
      </trkpt>
      <trkpt lat="44.66652" lon="5.85767">
        <ele>1446.9213867</ele>
        <time>2011-07-15T13:04:01Z</time>
      </trkpt>
      <trkpt lat="44.66629" lon="5.85735">
        <ele>1446.9213867</ele>
        <time>2011-07-15T13:04:06Z</time>
      </trkpt>
      <trkpt lat="44.66622" lon="5.8571">
        <ele>1446.9213867</ele>
        <time>2011-07-15T13:04:09Z</time>
      </trkpt>
      <trkpt lat="44.66612" lon="5.85631">
        <ele>1446.9213867</ele>
        <time>2011-07-15T13:04:18Z</time>
      </trkpt>
      <trkpt lat="44.66608" lon="5.85608">
        <ele>1447.8828125</ele>
        <time>2011-07-15T13:04:21Z</time>
      </trkpt>
      <trkpt lat="44.66595" lon="5.85578">
        <ele>1447.8828125</ele>
        <time>2011-07-15T13:04:26Z</time>
      </trkpt>
      <trkpt lat="44.66585" lon="5.85568">
        <ele>1447.8828125</ele>
        <time>2011-07-15T13:04:29Z</time>
      </trkpt>
      <trkpt lat="44.66579" lon="5.85564">
        <ele>1447.8828125</ele>
        <time>2011-07-15T13:04:31Z</time>
      </trkpt>
      <trkpt lat="44.66574" lon="5.8556">
        <ele>1448.3632813</ele>
        <time>2011-07-15T13:04:34Z</time>
      </trkpt>
      <trkpt lat="44.66574" lon="5.8556">
        <ele>1448.8439941</ele>
        <time>2011-07-15T13:04:39Z</time>
      </trkpt>
      <trkpt lat="44.66574" lon="5.85561">
        <ele>1450.2861328</ele>
        <time>2011-07-15T13:04:51Z</time>
      </trkpt>
      <trkpt lat="44.66573" lon="5.85561">
        <ele>1450.7666016</ele>
        <time>2011-07-15T13:04:57Z</time>
      </trkpt>
      <trkpt lat="44.66573" lon="5.8556">
        <ele>1451.7280273</ele>
        <time>2011-07-15T13:05:05Z</time>
      </trkpt>
      <trkpt lat="44.66572" lon="5.8556">
        <ele>1452.2087402</ele>
        <time>2011-07-15T13:05:56Z</time>
      </trkpt>
      <trkpt lat="44.6656" lon="5.85553">
        <ele>1451.7280273</ele>
        <time>2011-07-15T13:06:03Z</time>
      </trkpt>
      <trkpt lat="44.66544" lon="5.85541">
        <ele>1451.2473145</ele>
        <time>2011-07-15T13:06:09Z</time>
      </trkpt>
      <trkpt lat="44.66517" lon="5.85522">
        <ele>1450.2861328</ele>
        <time>2011-07-15T13:06:15Z</time>
      </trkpt>
      <trkpt lat="44.66486" lon="5.85502">
        <ele>1447.8828125</ele>
        <time>2011-07-15T13:06:20Z</time>
      </trkpt>
      <trkpt lat="44.66441" lon="5.85471">
        <ele>1444.9987793</ele>
        <time>2011-07-15T13:06:26Z</time>
      </trkpt>
      <trkpt lat="44.66392" lon="5.85441">
        <ele>1444.0375977</ele>
        <time>2011-07-15T13:06:32Z</time>
      </trkpt>
      <trkpt lat="44.66356" lon="5.85433">
        <ele>1443.0761719</ele>
        <time>2011-07-15T13:06:36Z</time>
      </trkpt>
      <trkpt lat="44.66295" lon="5.85438">
        <ele>1439.230957</ele>
        <time>2011-07-15T13:06:42Z</time>
      </trkpt>
      <trkpt lat="44.66225" lon="5.85441">
        <ele>1434.4243164</ele>
        <time>2011-07-15T13:06:48Z</time>
      </trkpt>
      <trkpt lat="44.66145" lon="5.85442">
        <ele>1428.6564941</ele>
        <time>2011-07-15T13:06:54Z</time>
      </trkpt>
      <trkpt lat="44.66061" lon="5.85442">
        <ele>1422.8886719</ele>
        <time>2011-07-15T13:07:00Z</time>
      </trkpt>
      <trkpt lat="44.66006" lon="5.85465">
        <ele>1419.0432129</ele>
        <time>2011-07-15T13:07:04Z</time>
      </trkpt>
      <trkpt lat="44.65967" lon="5.85488">
        <ele>1416.6398926</ele>
        <time>2011-07-15T13:07:07Z</time>
      </trkpt>
      <trkpt lat="44.65912" lon="5.85503">
        <ele>1413.2753906</ele>
        <time>2011-07-15T13:07:11Z</time>
      </trkpt>
      <trkpt lat="44.65898" lon="5.85503">
        <ele>1412.3139648</ele>
        <time>2011-07-15T13:07:12Z</time>
      </trkpt>
      <trkpt lat="44.65814" lon="5.85484">
        <ele>1406.5461426</ele>
        <time>2011-07-15T13:07:18Z</time>
      </trkpt>
      <trkpt lat="44.65729" lon="5.85471">
        <ele>1401.2587891</ele>
        <time>2011-07-15T13:07:24Z</time>
      </trkpt>
      <trkpt lat="44.65688" lon="5.85472">
        <ele>1398.3747559</ele>
        <time>2011-07-15T13:07:27Z</time>
      </trkpt>
      <trkpt lat="44.65637" lon="5.85498">
        <ele>1394.0490723</ele>
        <time>2011-07-15T13:07:31Z</time>
      </trkpt>
      <trkpt lat="44.65614" lon="5.85524">
        <ele>1391.1650391</ele>
        <time>2011-07-15T13:07:33Z</time>
      </trkpt>
      <trkpt lat="44.65581" lon="5.85569">
        <ele>1386.3583984</ele>
        <time>2011-07-15T13:07:36Z</time>
      </trkpt>
      <trkpt lat="44.65526" lon="5.85611">
        <ele>1381.0712891</ele>
        <time>2011-07-15T13:07:40Z</time>
      </trkpt>
      <trkpt lat="44.65495" lon="5.85617">
        <ele>1378.1872559</ele>
        <time>2011-07-15T13:07:42Z</time>
      </trkpt>
      <trkpt lat="44.65414" lon="5.85629">
        <ele>1370.496582</ele>
        <time>2011-07-15T13:07:47Z</time>
      </trkpt>
      <trkpt lat="44.65337" lon="5.85645">
        <ele>1366.1706543</ele>
        <time>2011-07-15T13:07:52Z</time>
      </trkpt>
      <trkpt lat="44.65264" lon="5.85632">
        <ele>1366.1706543</ele>
        <time>2011-07-15T13:07:57Z</time>
      </trkpt>
      <trkpt lat="44.65214" lon="5.85602">
        <ele>1365.6901855</ele>
        <time>2011-07-15T13:08:01Z</time>
      </trkpt>
      <trkpt lat="44.65127" lon="5.85532">
        <ele>1363.767334</ele>
        <time>2011-07-15T13:08:09Z</time>
      </trkpt>
      <trkpt lat="44.65049" lon="5.8547">
        <ele>1357.9997559</ele>
        <time>2011-07-15T13:08:16Z</time>
      </trkpt>
      <trkpt lat="44.64961" lon="5.85402">
        <ele>1349.8283691</ele>
        <time>2011-07-15T13:08:23Z</time>
      </trkpt>
      <trkpt lat="44.64903" lon="5.85369">
        <ele>1344.5410156</ele>
        <time>2011-07-15T13:08:27Z</time>
      </trkpt>
      <trkpt lat="44.6484" lon="5.85352">
        <ele>1339.2536621</ele>
        <time>2011-07-15T13:08:31Z</time>
      </trkpt>
      <trkpt lat="44.64704" lon="5.85321">
        <ele>1325.7954102</ele>
        <time>2011-07-15T13:08:39Z</time>
      </trkpt>
      <trkpt lat="44.64632" lon="5.85298">
        <ele>1319.546875</ele>
        <time>2011-07-15T13:08:43Z</time>
      </trkpt>
      <trkpt lat="44.64493" lon="5.85248">
        <ele>1310.8950195</ele>
        <time>2011-07-15T13:08:51Z</time>
      </trkpt>
      <trkpt lat="44.64464" lon="5.85237">
        <ele>1308.4916992</ele>
        <time>2011-07-15T13:08:53Z</time>
      </trkpt>
      <trkpt lat="44.64409" lon="5.85196">
        <ele>1303.6850586</ele>
        <time>2011-07-15T13:08:57Z</time>
      </trkpt>
      <trkpt lat="44.64349" lon="5.85162">
        <ele>1298.878418</ele>
        <time>2011-07-15T13:09:01Z</time>
      </trkpt>
      <trkpt lat="44.64303" lon="5.85142">
        <ele>1295.0332031</ele>
        <time>2011-07-15T13:09:04Z</time>
      </trkpt>
      <trkpt lat="44.64266" lon="5.8511">
        <ele>1288.3039551</ele>
        <time>2011-07-15T13:09:07Z</time>
      </trkpt>
      <trkpt lat="44.64257" lon="5.85095">
        <ele>1286.8618164</ele>
        <time>2011-07-15T13:09:08Z</time>
      </trkpt>
      <trkpt lat="44.64241" lon="5.85067">
        <ele>1284.4587402</ele>
        <time>2011-07-15T13:09:10Z</time>
      </trkpt>
      <trkpt lat="44.64216" lon="5.85052">
        <ele>1280.6135254</ele>
        <time>2011-07-15T13:09:13Z</time>
      </trkpt>
      <trkpt lat="44.64202" lon="5.85069">
        <ele>1278.2102051</ele>
        <time>2011-07-15T13:09:15Z</time>
      </trkpt>
      <trkpt lat="44.64199" lon="5.85094">
        <ele>1275.8066406</ele>
        <time>2011-07-15T13:09:17Z</time>
      </trkpt>
      <trkpt lat="44.64213" lon="5.85115">
        <ele>1274.845459</ele>
        <time>2011-07-15T13:09:19Z</time>
      </trkpt>
      <trkpt lat="44.64224" lon="5.85124">
        <ele>1274.845459</ele>
        <time>2011-07-15T13:09:20Z</time>
      </trkpt>
      <trkpt lat="44.64273" lon="5.85163">
        <ele>1271.9614258</ele>
        <time>2011-07-15T13:09:25Z</time>
      </trkpt>
      <trkpt lat="44.64292" lon="5.85193">
        <ele>1270.0388184</ele>
        <time>2011-07-15T13:09:28Z</time>
      </trkpt>
      <trkpt lat="44.64292" lon="5.85218">
        <ele>1269.0776367</ele>
        <time>2011-07-15T13:09:30Z</time>
      </trkpt>
      <trkpt lat="44.6428" lon="5.85236">
        <ele>1267.635498</ele>
        <time>2011-07-15T13:09:32Z</time>
      </trkpt>
      <trkpt lat="44.6426" lon="5.85237">
        <ele>1266.1936035</ele>
        <time>2011-07-15T13:09:34Z</time>
      </trkpt>
      <trkpt lat="44.64247" lon="5.85231">
        <ele>1265.7131348</ele>
        <time>2011-07-15T13:09:35Z</time>
      </trkpt>
      <trkpt lat="44.64181" lon="5.85209">
        <ele>1261.387207</ele>
        <time>2011-07-15T13:09:40Z</time>
      </trkpt>
      <trkpt lat="44.64143" lon="5.8518">
        <ele>1257.541748</ele>
        <time>2011-07-15T13:09:43Z</time>
      </trkpt>
      <trkpt lat="44.64115" lon="5.8513">
        <ele>1253.6965332</ele>
        <time>2011-07-15T13:09:46Z</time>
      </trkpt>
      <trkpt lat="44.6409" lon="5.85072">
        <ele>1249.8513184</ele>
        <time>2011-07-15T13:09:49Z</time>
      </trkpt>
      <trkpt lat="44.64055" lon="5.85024">
        <ele>1246.0061035</ele>
        <time>2011-07-15T13:09:52Z</time>
      </trkpt>
      <trkpt lat="44.64025" lon="5.85003">
        <ele>1243.1218262</ele>
        <time>2011-07-15T13:09:54Z</time>
      </trkpt>
      <trkpt lat="44.63925" lon="5.84954">
        <ele>1235.4313965</ele>
        <time>2011-07-15T13:10:00Z</time>
      </trkpt>
      <trkpt lat="44.63858" lon="5.84925">
        <ele>1229.6635742</ele>
        <time>2011-07-15T13:10:04Z</time>
      </trkpt>
      <trkpt lat="44.63811" lon="5.84927">
        <ele>1225.8181152</ele>
        <time>2011-07-15T13:10:07Z</time>
      </trkpt>
      <trkpt lat="44.63781" lon="5.84949">
        <ele>1223.4150391</ele>
        <time>2011-07-15T13:10:09Z</time>
      </trkpt>
      <trkpt lat="44.63754" lon="5.84981">
        <ele>1223.4150391</ele>
        <time>2011-07-15T13:10:11Z</time>
      </trkpt>
      <trkpt lat="44.63691" lon="5.8507">
        <ele>1217.1665039</ele>
        <time>2011-07-15T13:10:16Z</time>
      </trkpt>
      <trkpt lat="44.63646" lon="5.85101">
        <ele>1211.8791504</ele>
        <time>2011-07-15T13:10:19Z</time>
      </trkpt>
      <trkpt lat="44.63614" lon="5.85105">
        <ele>1208.0339355</ele>
        <time>2011-07-15T13:10:21Z</time>
      </trkpt>
      <trkpt lat="44.63519" lon="5.85091">
        <ele>1197.4594727</ele>
        <time>2011-07-15T13:10:27Z</time>
      </trkpt>
      <trkpt lat="44.63468" lon="5.85057">
        <ele>1189.7687988</ele>
        <time>2011-07-15T13:10:31Z</time>
      </trkpt>
      <trkpt lat="44.63457" lon="5.85048">
        <ele>1187.8461914</ele>
        <time>2011-07-15T13:10:32Z</time>
      </trkpt>
      <trkpt lat="44.63418" lon="5.85037">
        <ele>1183.5202637</ele>
        <time>2011-07-15T13:10:35Z</time>
      </trkpt>
      <trkpt lat="44.63404" lon="5.85041">
        <ele>1182.559082</ele>
        <time>2011-07-15T13:10:36Z</time>
      </trkpt>
      <trkpt lat="44.63375" lon="5.8505">
        <ele>1179.1940918</ele>
        <time>2011-07-15T13:10:38Z</time>
      </trkpt>
      <trkpt lat="44.6333" lon="5.85046">
        <ele>1175.348877</ele>
        <time>2011-07-15T13:10:41Z</time>
      </trkpt>
      <trkpt lat="44.63301" lon="5.85033">
        <ele>1172.9458008</ele>
        <time>2011-07-15T13:10:43Z</time>
      </trkpt>
      <trkpt lat="44.63253" lon="5.8503">
        <ele>1170.5424805</ele>
        <time>2011-07-15T13:10:46Z</time>
      </trkpt>
      <trkpt lat="44.63237" lon="5.85035">
        <ele>1169.5812988</ele>
        <time>2011-07-15T13:10:47Z</time>
      </trkpt>
      <trkpt lat="44.63154" lon="5.85058">
        <ele>1165.2553711</ele>
        <time>2011-07-15T13:10:52Z</time>
      </trkpt>
      <trkpt lat="44.63054" lon="5.85063">
        <ele>1160.4484863</ele>
        <time>2011-07-15T13:10:58Z</time>
      </trkpt>
      <trkpt lat="44.62978" lon="5.85067">
        <ele>1157.5646973</ele>
        <time>2011-07-15T13:11:03Z</time>
      </trkpt>
      <trkpt lat="44.62908" lon="5.85091">
        <ele>1153.2387695</ele>
        <time>2011-07-15T13:11:08Z</time>
      </trkpt>
      <trkpt lat="44.62843" lon="5.8513">
        <ele>1148.4321289</ele>
        <time>2011-07-15T13:11:13Z</time>
      </trkpt>
      <trkpt lat="44.62778" lon="5.85177">
        <ele>1146.0288086</ele>
        <time>2011-07-15T13:11:18Z</time>
      </trkpt>
      <trkpt lat="44.62719" lon="5.85196">
        <ele>1141.7028809</ele>
        <time>2011-07-15T13:11:22Z</time>
      </trkpt>
      <trkpt lat="44.62644" lon="5.85204">
        <ele>1139.2995605</ele>
        <time>2011-07-15T13:11:27Z</time>
      </trkpt>
      <trkpt lat="44.62578" lon="5.85237">
        <ele>1136.8962402</ele>
        <time>2011-07-15T13:11:32Z</time>
      </trkpt>
      <trkpt lat="44.62488" lon="5.85286">
        <ele>1134.4931641</ele>
        <time>2011-07-15T13:11:39Z</time>
      </trkpt>
      <trkpt lat="44.62438" lon="5.85327">
        <ele>1136.4157715</ele>
        <time>2011-07-15T13:11:44Z</time>
      </trkpt>
      <trkpt lat="44.62397" lon="5.85359">
        <ele>1136.4157715</ele>
        <time>2011-07-15T13:11:48Z</time>
      </trkpt>
      <trkpt lat="44.62349" lon="5.85411">
        <ele>1136.8962402</ele>
        <time>2011-07-15T13:11:53Z</time>
      </trkpt>
      <trkpt lat="44.62281" lon="5.85466">
        <ele>1134.0124512</ele>
        <time>2011-07-15T13:11:59Z</time>
      </trkpt>
      <trkpt lat="44.62207" lon="5.85508">
        <ele>1125.3603516</ele>
        <time>2011-07-15T13:12:05Z</time>
      </trkpt>
      <trkpt lat="44.62154" lon="5.85527">
        <ele>1120.5539551</ele>
        <time>2011-07-15T13:12:09Z</time>
      </trkpt>
      <trkpt lat="44.6207" lon="5.85553">
        <ele>1115.7473145</ele>
        <time>2011-07-15T13:12:15Z</time>
      </trkpt>
      <trkpt lat="44.61987" lon="5.85578">
        <ele>1114.3051758</ele>
        <time>2011-07-15T13:12:21Z</time>
      </trkpt>
      <trkpt lat="44.61877" lon="5.85609">
        <ele>1110.9406738</ele>
        <time>2011-07-15T13:12:29Z</time>
      </trkpt>
      <trkpt lat="44.61795" lon="5.8563">
        <ele>1101.8083496</ele>
        <time>2011-07-15T13:12:35Z</time>
      </trkpt>
      <trkpt lat="44.6172" lon="5.85646">
        <ele>1097.9628906</ele>
        <time>2011-07-15T13:12:40Z</time>
      </trkpt>
      <trkpt lat="44.61648" lon="5.85661">
        <ele>1096.0402832</ele>
        <time>2011-07-15T13:12:45Z</time>
      </trkpt>
      <trkpt lat="44.61586" lon="5.85673">
        <ele>1095.5595703</ele>
        <time>2011-07-15T13:12:50Z</time>
      </trkpt>
      <trkpt lat="44.61517" lon="5.85682">
        <ele>1096.5209961</ele>
        <time>2011-07-15T13:12:56Z</time>
      </trkpt>
      <trkpt lat="44.61455" lon="5.85675">
        <ele>1099.885498</ele>
        <time>2011-07-15T13:13:02Z</time>
      </trkpt>
      <trkpt lat="44.61416" lon="5.8568">
        <ele>1099.885498</ele>
        <time>2011-07-15T13:13:06Z</time>
      </trkpt>
      <trkpt lat="44.61385" lon="5.85693">
        <ele>1099.4047852</ele>
        <time>2011-07-15T13:13:09Z</time>
      </trkpt>
      <trkpt lat="44.61353" lon="5.85733">
        <ele>1098.4433594</ele>
        <time>2011-07-15T13:13:13Z</time>
      </trkpt>
      <trkpt lat="44.61329" lon="5.85762">
        <ele>1097.0014648</ele>
        <time>2011-07-15T13:13:16Z</time>
      </trkpt>
      <trkpt lat="44.61289" lon="5.85785">
        <ele>1096.5209961</ele>
        <time>2011-07-15T13:13:20Z</time>
      </trkpt>
      <trkpt lat="44.6124" lon="5.85812">
        <ele>1097.0014648</ele>
        <time>2011-07-15T13:13:25Z</time>
      </trkpt>
      <trkpt lat="44.61179" lon="5.85826">
        <ele>1095.5595703</ele>
        <time>2011-07-15T13:13:30Z</time>
      </trkpt>
      <trkpt lat="44.61099" lon="5.85847">
        <ele>1094.1176758</ele>
        <time>2011-07-15T13:13:37Z</time>
      </trkpt>
      <trkpt lat="44.61086" lon="5.85848">
        <ele>1094.1176758</ele>
        <time>2011-07-15T13:13:38Z</time>
      </trkpt>
      <trkpt lat="44.6105" lon="5.85837">
        <ele>1093.6369629</ele>
        <time>2011-07-15T13:13:41Z</time>
      </trkpt>
      <trkpt lat="44.61028" lon="5.85819">
        <ele>1093.6369629</ele>
        <time>2011-07-15T13:13:43Z</time>
      </trkpt>
      <trkpt lat="44.60879" lon="5.85681">
        <ele>1091.7143555</ele>
        <time>2011-07-15T13:13:58Z</time>
      </trkpt>
      <trkpt lat="44.60795" lon="5.85723">
        <ele>1093.6369629</ele>
        <time>2011-07-15T13:14:01Z</time>
      </trkpt>
      <trkpt lat="44.60781" lon="5.85729">
        <ele>1092.6757813</ele>
        <time>2011-07-15T13:14:02Z</time>
      </trkpt>
      <trkpt lat="44.60743" lon="5.85745">
        <ele>1085.9465332</ele>
        <time>2011-07-15T13:14:05Z</time>
      </trkpt>
      <trkpt lat="44.60699" lon="5.85748">
        <ele>1070.0847168</ele>
        <time>2011-07-15T13:14:09Z</time>
      </trkpt>
      <trkpt lat="44.60664" lon="5.85747">
        <ele>1061.9135742</ele>
        <time>2011-07-15T13:14:12Z</time>
      </trkpt>
      <trkpt lat="44.6064" lon="5.85756">
        <ele>1058.5488281</ele>
        <time>2011-07-15T13:14:14Z</time>
      </trkpt>
      <trkpt lat="44.6056" lon="5.8579">
        <ele>1050.3776855</ele>
        <time>2011-07-15T13:14:20Z</time>
      </trkpt>
      <trkpt lat="44.60545" lon="5.85793">
        <ele>1048.9355469</ele>
        <time>2011-07-15T13:14:21Z</time>
      </trkpt>
      <trkpt lat="44.60456" lon="5.85793">
        <ele>1042.206543</ele>
        <time>2011-07-15T13:14:27Z</time>
      </trkpt>
      <trkpt lat="44.60368" lon="5.85795">
        <ele>1034.996582</ele>
        <time>2011-07-15T13:14:33Z</time>
      </trkpt>
      <trkpt lat="44.60268" lon="5.85796">
        <ele>1032.5932617</ele>
        <time>2011-07-15T13:14:39Z</time>
      </trkpt>
      <trkpt lat="44.60152" lon="5.85797">
        <ele>1022.4995117</ele>
        <time>2011-07-15T13:14:46Z</time>
      </trkpt>
      <trkpt lat="44.59996" lon="5.85795">
        <ele>1015.2895508</ele>
        <time>2011-07-15T13:14:55Z</time>
      </trkpt>
      <trkpt lat="44.59867" lon="5.85797">
        <ele>1011.4443359</ele>
        <time>2011-07-15T13:15:03Z</time>
      </trkpt>
      <trkpt lat="44.59745" lon="5.85802">
        <ele>1008.079834</ele>
        <time>2011-07-15T13:15:11Z</time>
      </trkpt>
      <trkpt lat="44.59616" lon="5.85807">
        <ele>1004.7150879</ele>
        <time>2011-07-15T13:15:20Z</time>
      </trkpt>
      <trkpt lat="44.59517" lon="5.85808">
        <ele>1006.1569824</ele>
        <time>2011-07-15T13:15:27Z</time>
      </trkpt>
      <trkpt lat="44.59457" lon="5.85782">
        <ele>997.0244141</ele>
        <time>2011-07-15T13:15:32Z</time>
      </trkpt>
      <trkpt lat="44.59425" lon="5.8575">
        <ele>992.2180176</ele>
        <time>2011-07-15T13:15:35Z</time>
      </trkpt>
      <trkpt lat="44.59347" lon="5.85644">
        <ele>984.0466309</ele>
        <time>2011-07-15T13:15:43Z</time>
      </trkpt>
      <trkpt lat="44.59287" lon="5.85566">
        <ele>981.1628418</ele>
        <time>2011-07-15T13:15:49Z</time>
      </trkpt>
      <trkpt lat="44.59225" lon="5.85528">
        <ele>977.7980957</ele>
        <time>2011-07-15T13:15:54Z</time>
      </trkpt>
      <trkpt lat="44.59185" lon="5.85524">
        <ele>975.8754883</ele>
        <time>2011-07-15T13:15:57Z</time>
      </trkpt>
      <trkpt lat="44.59105" lon="5.85536">
        <ele>972.5109863</ele>
        <time>2011-07-15T13:16:03Z</time>
      </trkpt>
      <trkpt lat="44.58962" lon="5.85566">
        <ele>968.1848145</ele>
        <time>2011-07-15T13:16:14Z</time>
      </trkpt>
      <trkpt lat="44.58836" lon="5.85592">
        <ele>964.8203125</ele>
        <time>2011-07-15T13:16:24Z</time>
      </trkpt>
      <trkpt lat="44.58754" lon="5.85606">
        <ele>963.378418</ele>
        <time>2011-07-15T13:16:31Z</time>
      </trkpt>
      <trkpt lat="44.58684" lon="5.85606">
        <ele>964.8203125</ele>
        <time>2011-07-15T13:16:37Z</time>
      </trkpt>
      <trkpt lat="44.58605" lon="5.85593">
        <ele>959.0524902</ele>
        <time>2011-07-15T13:16:44Z</time>
      </trkpt>
      <trkpt lat="44.58516" lon="5.85576">
        <ele>956.168457</ele>
        <time>2011-07-15T13:16:51Z</time>
      </trkpt>
      <trkpt lat="44.58409" lon="5.85556">
        <ele>954.7263184</ele>
        <time>2011-07-15T13:16:59Z</time>
      </trkpt>
      <trkpt lat="44.58302" lon="5.85536">
        <ele>953.7651367</ele>
        <time>2011-07-15T13:17:07Z</time>
      </trkpt>
      <trkpt lat="44.58158" lon="5.85509">
        <ele>952.322998</ele>
        <time>2011-07-15T13:17:18Z</time>
      </trkpt>
      <trkpt lat="44.58054" lon="5.85489">
        <ele>951.8425293</ele>
        <time>2011-07-15T13:17:26Z</time>
      </trkpt>
      <trkpt lat="44.57979" lon="5.85469">
        <ele>947.9973145</ele>
        <time>2011-07-15T13:17:32Z</time>
      </trkpt>
      <trkpt lat="44.57934" lon="5.85439">
        <ele>943.6713867</ele>
        <time>2011-07-15T13:17:36Z</time>
      </trkpt>
      <trkpt lat="44.57889" lon="5.8541">
        <ele>940.7873535</ele>
        <time>2011-07-15T13:17:40Z</time>
      </trkpt>
      <trkpt lat="44.57839" lon="5.85401">
        <ele>938.8647461</ele>
        <time>2011-07-15T13:17:44Z</time>
      </trkpt>
      <trkpt lat="44.57802" lon="5.85413">
        <ele>936.4614258</ele>
        <time>2011-07-15T13:17:47Z</time>
      </trkpt>
      <trkpt lat="44.57726" lon="5.85461">
        <ele>933.5773926</ele>
        <time>2011-07-15T13:17:54Z</time>
      </trkpt>
      <trkpt lat="44.57672" lon="5.85503">
        <ele>934.0581055</ele>
        <time>2011-07-15T13:18:00Z</time>
      </trkpt>
      <trkpt lat="44.57633" lon="5.85539">
        <ele>934.5388184</ele>
        <time>2011-07-15T13:18:05Z</time>
      </trkpt>
      <trkpt lat="44.57613" lon="5.85559">
        <ele>934.5388184</ele>
        <time>2011-07-15T13:18:08Z</time>
      </trkpt>
      <trkpt lat="44.576" lon="5.85586">
        <ele>935.5</ele>
        <time>2011-07-15T13:18:11Z</time>
      </trkpt>
      <trkpt lat="44.57579" lon="5.85616">
        <ele>936.4614258</ele>
        <time>2011-07-15T13:18:15Z</time>
      </trkpt>
      <trkpt lat="44.57547" lon="5.85654">
        <ele>937.4226074</ele>
        <time>2011-07-15T13:18:21Z</time>
      </trkpt>
      <trkpt lat="44.57517" lon="5.85688">
        <ele>936.4614258</ele>
        <time>2011-07-15T13:18:27Z</time>
      </trkpt>
      <trkpt lat="44.57475" lon="5.85738">
        <ele>933.0966797</ele>
        <time>2011-07-15T13:18:35Z</time>
      </trkpt>
      <trkpt lat="44.57444" lon="5.85781">
        <ele>933.5773926</ele>
        <time>2011-07-15T13:18:41Z</time>
      </trkpt>
      <trkpt lat="44.57416" lon="5.85831">
        <ele>933.5773926</ele>
        <time>2011-07-15T13:18:47Z</time>
      </trkpt>
      <trkpt lat="44.57383" lon="5.85897">
        <ele>934.0581055</ele>
        <time>2011-07-15T13:18:55Z</time>
      </trkpt>
      <trkpt lat="44.57354" lon="5.85941">
        <ele>934.0581055</ele>
        <time>2011-07-15T13:19:02Z</time>
      </trkpt>
      <trkpt lat="44.57327" lon="5.85974">
        <ele>934.0581055</ele>
        <time>2011-07-15T13:19:09Z</time>
      </trkpt>
      <trkpt lat="44.57296" lon="5.86012">
        <ele>932.135498</ele>
        <time>2011-07-15T13:19:18Z</time>
      </trkpt>
      <trkpt lat="44.57271" lon="5.86042">
        <ele>932.135498</ele>
        <time>2011-07-15T13:19:25Z</time>
      </trkpt>
      <trkpt lat="44.5724" lon="5.8608">
        <ele>931.6547852</ele>
        <time>2011-07-15T13:19:34Z</time>
      </trkpt>
      <trkpt lat="44.57237" lon="5.86083">
        <ele>931.6547852</ele>
        <time>2011-07-15T13:19:35Z</time>
      </trkpt>
      <trkpt lat="44.57226" lon="5.86092">
        <ele>932.135498</ele>
        <time>2011-07-15T13:19:38Z</time>
      </trkpt>
      <trkpt lat="44.57197" lon="5.8611">
        <ele>934.0581055</ele>
        <time>2011-07-15T13:19:45Z</time>
      </trkpt>
      <trkpt lat="44.57177" lon="5.86126">
        <ele>934.5388184</ele>
        <time>2011-07-15T13:19:50Z</time>
      </trkpt>
      <trkpt lat="44.57153" lon="5.86144">
        <ele>936.4614258</ele>
        <time>2011-07-15T13:19:56Z</time>
      </trkpt>
      <trkpt lat="44.57146" lon="5.86151">
        <ele>935.5</ele>
        <time>2011-07-15T13:19:58Z</time>
      </trkpt>
      <trkpt lat="44.57135" lon="5.86167">
        <ele>935.5</ele>
        <time>2011-07-15T13:20:02Z</time>
      </trkpt>
      <trkpt lat="44.57116" lon="5.8621">
        <ele>934.0581055</ele>
        <time>2011-07-15T13:20:10Z</time>
      </trkpt>
      <trkpt lat="44.57093" lon="5.86253">
        <ele>933.5773926</ele>
        <time>2011-07-15T13:20:17Z</time>
      </trkpt>
      <trkpt lat="44.57076" lon="5.86304">
        <ele>932.135498</ele>
        <time>2011-07-15T13:20:24Z</time>
      </trkpt>
      <trkpt lat="44.57064" lon="5.86353">
        <ele>932.135498</ele>
        <time>2011-07-15T13:20:30Z</time>
      </trkpt>
      <trkpt lat="44.57052" lon="5.8641">
        <ele>932.135498</ele>
        <time>2011-07-15T13:20:37Z</time>
      </trkpt>
      <trkpt lat="44.57051" lon="5.86427">
        <ele>932.135498</ele>
        <time>2011-07-15T13:20:39Z</time>
      </trkpt>
      <trkpt lat="44.57053" lon="5.86496">
        <ele>930.2128906</ele>
        <time>2011-07-15T13:20:47Z</time>
      </trkpt>
      <trkpt lat="44.57049" lon="5.86545">
        <ele>928.7709961</ele>
        <time>2011-07-15T13:20:52Z</time>
      </trkpt>
      <trkpt lat="44.57046" lon="5.86607">
        <ele>925.8869629</ele>
        <time>2011-07-15T13:20:58Z</time>
      </trkpt>
      <trkpt lat="44.57051" lon="5.86667">
        <ele>923.0029297</ele>
        <time>2011-07-15T13:21:03Z</time>
      </trkpt>
      <trkpt lat="44.57051" lon="5.86752">
        <ele>919.1577148</ele>
        <time>2011-07-15T13:21:10Z</time>
      </trkpt>
      <trkpt lat="44.57041" lon="5.86822">
        <ele>916.7543945</ele>
        <time>2011-07-15T13:21:16Z</time>
      </trkpt>
      <trkpt lat="44.57029" lon="5.86908">
        <ele>914.3510742</ele>
        <time>2011-07-15T13:21:23Z</time>
      </trkpt>
      <trkpt lat="44.57032" lon="5.86959">
        <ele>913.3898926</ele>
        <time>2011-07-15T13:21:28Z</time>
      </trkpt>
      <trkpt lat="44.57045" lon="5.87033">
        <ele>910.5058594</ele>
        <time>2011-07-15T13:21:35Z</time>
      </trkpt>
      <trkpt lat="44.57047" lon="5.87043">
        <ele>910.5058594</ele>
        <time>2011-07-15T13:21:36Z</time>
      </trkpt>
      <trkpt lat="44.57047" lon="5.8708">
        <ele>910.0251465</ele>
        <time>2011-07-15T13:21:40Z</time>
      </trkpt>
      <trkpt lat="44.5705" lon="5.87106">
        <ele>910.5058594</ele>
        <time>2011-07-15T13:21:45Z</time>
      </trkpt>
      <trkpt lat="44.57052" lon="5.87112">
        <ele>910.9865723</ele>
        <time>2011-07-15T13:21:47Z</time>
      </trkpt>
      <trkpt lat="44.57054" lon="5.87136">
        <ele>911.947998</ele>
        <time>2011-07-15T13:21:54Z</time>
      </trkpt>
      <trkpt lat="44.57056" lon="5.87168">
        <ele>912.4284668</ele>
        <time>2011-07-15T13:22:00Z</time>
      </trkpt>
      <trkpt lat="44.57057" lon="5.87201">
        <ele>913.3898926</ele>
        <time>2011-07-15T13:22:06Z</time>
      </trkpt>
      <trkpt lat="44.57059" lon="5.87237">
        <ele>913.3898926</ele>
        <time>2011-07-15T13:22:13Z</time>
      </trkpt>
      <trkpt lat="44.57062" lon="5.8728">
        <ele>914.3510742</ele>
        <time>2011-07-15T13:22:20Z</time>
      </trkpt>
      <trkpt lat="44.57063" lon="5.87325">
        <ele>915.3125</ele>
        <time>2011-07-15T13:22:28Z</time>
      </trkpt>
      <trkpt lat="44.57065" lon="5.8736">
        <ele>916.7543945</ele>
        <time>2011-07-15T13:22:36Z</time>
      </trkpt>
      <trkpt lat="44.57066" lon="5.87387">
        <ele>917.2351074</ele>
        <time>2011-07-15T13:22:42Z</time>
      </trkpt>
      <trkpt lat="44.57062" lon="5.87418">
        <ele>917.7155762</ele>
        <time>2011-07-15T13:22:49Z</time>
      </trkpt>
      <trkpt lat="44.57056" lon="5.87448">
        <ele>917.7155762</ele>
        <time>2011-07-15T13:22:56Z</time>
      </trkpt>
      <trkpt lat="44.57054" lon="5.87472">
        <ele>916.7543945</ele>
        <time>2011-07-15T13:23:00Z</time>
      </trkpt>
      <trkpt lat="44.5704" lon="5.87513">
        <ele>915.3125</ele>
        <time>2011-07-15T13:23:06Z</time>
      </trkpt>
      <trkpt lat="44.5702" lon="5.87571">
        <ele>913.8703613</ele>
        <time>2011-07-15T13:23:13Z</time>
      </trkpt>
      <trkpt lat="44.56994" lon="5.87643">
        <ele>913.8703613</ele>
        <time>2011-07-15T13:23:22Z</time>
      </trkpt>
      <trkpt lat="44.56974" lon="5.87696">
        <ele>916.2736816</ele>
        <time>2011-07-15T13:23:30Z</time>
      </trkpt>
      <trkpt lat="44.5696" lon="5.87733">
        <ele>918.1962891</ele>
        <time>2011-07-15T13:23:37Z</time>
      </trkpt>
      <trkpt lat="44.56946" lon="5.87772">
        <ele>920.5996094</ele>
        <time>2011-07-15T13:23:44Z</time>
      </trkpt>
      <trkpt lat="44.56936" lon="5.87801">
        <ele>920.5996094</ele>
        <time>2011-07-15T13:23:50Z</time>
      </trkpt>
      <trkpt lat="44.56928" lon="5.87838">
        <ele>918.677002</ele>
        <time>2011-07-15T13:23:55Z</time>
      </trkpt>
      <trkpt lat="44.56925" lon="5.87855">
        <ele>918.1962891</ele>
        <time>2011-07-15T13:23:57Z</time>
      </trkpt>
      <trkpt lat="44.56923" lon="5.87912">
        <ele>917.7155762</ele>
        <time>2011-07-15T13:24:04Z</time>
      </trkpt>
      <trkpt lat="44.56924" lon="5.8792">
        <ele>917.7155762</ele>
        <time>2011-07-15T13:24:05Z</time>
      </trkpt>
      <trkpt lat="44.56916" lon="5.87956">
        <ele>917.7155762</ele>
        <time>2011-07-15T13:24:10Z</time>
      </trkpt>
      <trkpt lat="44.56905" lon="5.87972">
        <ele>918.1962891</ele>
        <time>2011-07-15T13:24:13Z</time>
      </trkpt>
      <trkpt lat="44.56872" lon="5.87999">
        <ele>917.7155762</ele>
        <time>2011-07-15T13:24:21Z</time>
      </trkpt>
      <trkpt lat="44.5684" lon="5.88027">
        <ele>915.7932129</ele>
        <time>2011-07-15T13:24:29Z</time>
      </trkpt>
      <trkpt lat="44.56813" lon="5.88076">
        <ele>916.2736816</ele>
        <time>2011-07-15T13:24:38Z</time>
      </trkpt>
      <trkpt lat="44.56796" lon="5.88111">
        <ele>916.7543945</ele>
        <time>2011-07-15T13:24:45Z</time>
      </trkpt>
      <trkpt lat="44.5679" lon="5.88139">
        <ele>917.2351074</ele>
        <time>2011-07-15T13:24:51Z</time>
      </trkpt>
      <trkpt lat="44.56791" lon="5.88175">
        <ele>917.2351074</ele>
        <time>2011-07-15T13:24:58Z</time>
      </trkpt>
      <trkpt lat="44.56788" lon="5.88216">
        <ele>916.7543945</ele>
        <time>2011-07-15T13:25:05Z</time>
      </trkpt>
      <trkpt lat="44.56781" lon="5.88263">
        <ele>917.7155762</ele>
        <time>2011-07-15T13:25:13Z</time>
      </trkpt>
      <trkpt lat="44.56774" lon="5.88306">
        <ele>918.677002</ele>
        <time>2011-07-15T13:25:21Z</time>
      </trkpt>
      <trkpt lat="44.56771" lon="5.88326">
        <ele>919.1577148</ele>
        <time>2011-07-15T13:25:27Z</time>
      </trkpt>
      <trkpt lat="44.5677" lon="5.88341">
        <ele>919.1577148</ele>
        <time>2011-07-15T13:25:32Z</time>
      </trkpt>
      <trkpt lat="44.56776" lon="5.88346">
        <ele>919.1577148</ele>
        <time>2011-07-15T13:25:36Z</time>
      </trkpt>
      <trkpt lat="44.56789" lon="5.8834">
        <ele>918.1962891</ele>
        <time>2011-07-15T13:25:41Z</time>
      </trkpt>
      <trkpt lat="44.56807" lon="5.88332">
        <ele>915.7932129</ele>
        <time>2011-07-15T13:25:48Z</time>
      </trkpt>
      <trkpt lat="44.56833" lon="5.88327">
        <ele>914.8317871</ele>
        <time>2011-07-15T13:25:56Z</time>
      </trkpt>
      <trkpt lat="44.56856" lon="5.88325">
        <ele>913.8703613</ele>
        <time>2011-07-15T13:26:02Z</time>
      </trkpt>
      <trkpt lat="44.5687" lon="5.88323">
        <ele>915.7932129</ele>
        <time>2011-07-15T13:26:07Z</time>
      </trkpt>
      <trkpt lat="44.5689" lon="5.88321">
        <ele>916.2736816</ele>
        <time>2011-07-15T13:26:13Z</time>
      </trkpt>
      <trkpt lat="44.56907" lon="5.88317">
        <ele>918.1962891</ele>
        <time>2011-07-15T13:26:19Z</time>
      </trkpt>
      <trkpt lat="44.56909" lon="5.88316">
        <ele>918.677002</ele>
        <time>2011-07-15T13:26:20Z</time>
      </trkpt>
      <trkpt lat="44.56924" lon="5.88314">
        <ele>921.0803223</ele>
        <time>2011-07-15T13:26:26Z</time>
      </trkpt>
      <trkpt lat="44.56927" lon="5.88313">
        <ele>921.0803223</ele>
        <time>2011-07-15T13:26:27Z</time>
      </trkpt>
      <trkpt lat="44.56948" lon="5.88306">
        <ele>921.560791</ele>
        <time>2011-07-15T13:26:34Z</time>
      </trkpt>
      <trkpt lat="44.56959" lon="5.883">
        <ele>921.0803223</ele>
        <time>2011-07-15T13:26:38Z</time>
      </trkpt>
      <trkpt lat="44.56972" lon="5.88292">
        <ele>920.1188965</ele>
        <time>2011-07-15T13:26:43Z</time>
      </trkpt>
      <trkpt lat="44.56985" lon="5.88287">
        <ele>921.0803223</ele>
        <time>2011-07-15T13:26:47Z</time>
      </trkpt>
      <trkpt lat="44.56999" lon="5.88285">
        <ele>921.0803223</ele>
        <time>2011-07-15T13:26:51Z</time>
      </trkpt>
      <trkpt lat="44.57014" lon="5.88274">
        <ele>924.4450684</ele>
        <time>2011-07-15T13:26:57Z</time>
      </trkpt>
      <trkpt lat="44.57026" lon="5.88269">
        <ele>926.3676758</ele>
        <time>2011-07-15T13:27:01Z</time>
      </trkpt>
      <trkpt lat="44.57044" lon="5.8826">
        <ele>928.2902832</ele>
        <time>2011-07-15T13:27:07Z</time>
      </trkpt>
      <trkpt lat="44.5707" lon="5.88258">
        <ele>927.8095703</ele>
        <time>2011-07-15T13:27:15Z</time>
      </trkpt>
      <trkpt lat="44.57083" lon="5.88266">
        <ele>926.8483887</ele>
        <time>2011-07-15T13:27:20Z</time>
      </trkpt>
      <trkpt lat="44.57095" lon="5.88274">
        <ele>926.3676758</ele>
        <time>2011-07-15T13:27:26Z</time>
      </trkpt>
      <trkpt lat="44.57102" lon="5.8828">
        <ele>926.8483887</ele>
        <time>2011-07-15T13:27:30Z</time>
      </trkpt>
      <trkpt lat="44.57115" lon="5.88288">
        <ele>926.3676758</ele>
        <time>2011-07-15T13:27:35Z</time>
      </trkpt>
      <trkpt lat="44.57116" lon="5.88289">
        <ele>927.3291016</ele>
        <time>2011-07-15T13:27:37Z</time>
      </trkpt>
    </trkseg>
  </trk>
</gpx>